<?xml version='1.0' encoding='UTF-8'?><gpx version="1.1" creator="JPX - https://github.com/jenetics/jpx" xmlns="http://www.topografix.com/GPX/1/1"><trk><trkseg><trkpt lat="39.3741464" lon="17.1352367"><ele>5.0</ele><time>2026-03-22T13:29:43.956Z</time></trkpt><trkpt lat="39.3740503" lon="17.135206"><ele>5.0</ele><time>2026-03-22T13:29:44.957Z</time></trkpt><trkpt lat="39.3739467" lon="17.1351567"><ele>5.0</ele><time>2026-03-22T13:29:46.957Z</time></trkpt><trkpt lat="39.3738591" lon="17.1351085"><ele>5.0</ele><time>2026-03-22T13:29:47.957Z</time></trkpt><trkpt lat="39.3737601" lon="17.1350588"><ele>5.0</ele><time>2026-03-22T13:29:48.957Z</time></trkpt><trkpt lat="39.3736867" lon="17.1350212"><ele>5.0</ele><time>2026-03-22T13:29:49.957Z</time></trkpt><trkpt lat="39.3736271" lon="17.1349906"><ele>5.0</ele><time>2026-03-22T13:29:50.957Z</time></trkpt><trkpt lat="39.3735234" lon="17.1349371"><ele>5.0</ele><time>2026-03-22T13:29:52.957Z</time></trkpt><trkpt lat="39.3734246" lon="17.1348812"><ele>5.0</ele><time>2026-03-22T13:29:54.957Z</time></trkpt><trkpt lat="39.3733351" lon="17.1348391"><ele>5.0</ele><time>2026-03-22T13:29:56.957Z</time></trkpt><trkpt lat="39.3732652" lon="17.1347989"><ele>5.4</ele><time>2026-03-22T13:29:58.957Z</time></trkpt><trkpt lat="39.3731788" lon="17.1347473"><ele>5.8</ele><time>2026-03-22T13:30:01.957Z</time></trkpt><trkpt lat="39.3731505" lon="17.1346664"><ele>6.199999999999999</ele><time>2026-03-22T13:30:03.957Z</time></trkpt><trkpt lat="39.3731692" lon="17.1345223"><ele>6.6</ele><time>2026-03-22T13:30:05.957Z</time></trkpt><trkpt lat="39.3731714" lon="17.1343797"><ele>7.0</ele><time>2026-03-22T13:30:07.957Z</time></trkpt><trkpt lat="39.3731839" lon="17.1342952"><ele>7.0</ele><time>2026-03-22T13:30:09.957Z</time></trkpt><trkpt lat="39.3732" lon="17.1341921"><ele>6.999999999999999</ele><time>2026-03-22T13:30:13.957Z</time></trkpt><trkpt lat="39.3732151" lon="17.134101"><ele>6.999999999999999</ele><time>2026-03-22T13:30:17.957Z</time></trkpt><trkpt lat="39.3732128" lon="17.1340032"><ele>7.0</ele><time>2026-03-22T13:30:21.957Z</time></trkpt><trkpt lat="39.3730805" lon="17.133943"><ele>7.0</ele><time>2026-03-22T13:30:24.956Z</time></trkpt><trkpt lat="39.3729823" lon="17.133915"><ele>7.199999999999999</ele><time>2026-03-22T13:30:26.957Z</time></trkpt><trkpt lat="39.3728909" lon="17.1338876"><ele>7.3999999999999995</ele><time>2026-03-22T13:30:28.957Z</time></trkpt><trkpt lat="39.3728107" lon="17.1338638"><ele>7.6000000000000005</ele><time>2026-03-22T13:30:30.957Z</time></trkpt><trkpt lat="39.3727189" lon="17.1338421"><ele>7.800000000000001</ele><time>2026-03-22T13:30:32.957Z</time></trkpt><trkpt lat="39.3726241" lon="17.1338162"><ele>8.0</ele><time>2026-03-22T13:30:34.957Z</time></trkpt><trkpt lat="39.372496" lon="17.1337739"><ele>7.999999999999999</ele><time>2026-03-22T13:30:36.957Z</time></trkpt><trkpt lat="39.3724042" lon="17.1337438"><ele>8.0</ele><time>2026-03-22T13:30:37.957Z</time></trkpt><trkpt lat="39.3723162" lon="17.1337167"><ele>8.0</ele><time>2026-03-22T13:30:38.957Z</time></trkpt><trkpt lat="39.3722332" lon="17.1336923"><ele>8.0</ele><time>2026-03-22T13:30:39.957Z</time></trkpt><trkpt lat="39.3721551" lon="17.1336684"><ele>7.999999999999999</ele><time>2026-03-22T13:30:40.957Z</time></trkpt><trkpt lat="39.3720755" lon="17.1336403"><ele>8.0</ele><time>2026-03-22T13:30:41.957Z</time></trkpt><trkpt lat="39.3720055" lon="17.1336146"><ele>8.166666666666666</ele><time>2026-03-22T13:30:42.957Z</time></trkpt><trkpt lat="39.3718955" lon="17.1335824"><ele>8.333333333333332</ele><time>2026-03-22T13:30:44.957Z</time></trkpt><trkpt lat="39.3717967" lon="17.1335563"><ele>8.5</ele><time>2026-03-22T13:30:46.956Z</time></trkpt><trkpt lat="39.3717344" lon="17.1335395"><ele>8.666666666666666</ele><time>2026-03-22T13:30:47.957Z</time></trkpt><trkpt lat="39.3716636" lon="17.1335088"><ele>8.833333333333334</ele><time>2026-03-22T13:30:48.956Z</time></trkpt><trkpt lat="39.3716021" lon="17.133488"><ele>9.0</ele><time>2026-03-22T13:30:49.957Z</time></trkpt><trkpt lat="39.371492" lon="17.1334555"><ele>9.0</ele><time>2026-03-22T13:30:51.957Z</time></trkpt><trkpt lat="39.3714281" lon="17.1334391"><ele>9.0</ele><time>2026-03-22T13:30:52.957Z</time></trkpt><trkpt lat="39.3713583" lon="17.133416"><ele>9.0</ele><time>2026-03-22T13:30:53.957Z</time></trkpt><trkpt lat="39.3712894" lon="17.1333959"><ele>9.0</ele><time>2026-03-22T13:30:54.957Z</time></trkpt><trkpt lat="39.3712145" lon="17.1333774"><ele>9.0</ele><time>2026-03-22T13:30:55.956Z</time></trkpt><trkpt lat="39.3711359" lon="17.1333522"><ele>9.0</ele><time>2026-03-22T13:30:56.957Z</time></trkpt><trkpt lat="39.3710543" lon="17.1333223"><ele>9.0</ele><time>2026-03-22T13:30:57.957Z</time></trkpt><trkpt lat="39.37097" lon="17.1332965"><ele>9.0</ele><time>2026-03-22T13:30:58.957Z</time></trkpt><trkpt lat="39.370893" lon="17.1332782"><ele>9.0</ele><time>2026-03-22T13:30:59.956Z</time></trkpt><trkpt lat="39.3708216" lon="17.1332619"><ele>9.0</ele><time>2026-03-22T13:31:00.957Z</time></trkpt><trkpt lat="39.3707568" lon="17.1332516"><ele>9.0</ele><time>2026-03-22T13:31:01.957Z</time></trkpt><trkpt lat="39.370638" lon="17.1332286"><ele>9.0</ele><time>2026-03-22T13:31:03.957Z</time></trkpt><trkpt lat="39.3705206" lon="17.1332098"><ele>9.0</ele><time>2026-03-22T13:31:05.957Z</time></trkpt><trkpt lat="39.3704009" lon="17.1331852"><ele>9.0</ele><time>2026-03-22T13:31:07.956Z</time></trkpt><trkpt lat="39.3702957" lon="17.1331458"><ele>9.0</ele><time>2026-03-22T13:31:09.957Z</time></trkpt><trkpt lat="39.3701963" lon="17.133084"><ele>9.0</ele><time>2026-03-22T13:31:11.957Z</time></trkpt><trkpt lat="39.3700734" lon="17.1330247"><ele>9.0</ele><time>2026-03-22T13:31:13.956Z</time></trkpt><trkpt lat="39.3700105" lon="17.1329964"><ele>9.0</ele><time>2026-03-22T13:31:14.957Z</time></trkpt><trkpt lat="39.3698934" lon="17.1329471"><ele>9.0</ele><time>2026-03-22T13:31:16.957Z</time></trkpt><trkpt lat="39.3698308" lon="17.1329166"><ele>9.0</ele><time>2026-03-22T13:31:17.957Z</time></trkpt><trkpt lat="39.3697333" lon="17.1328647"><ele>9.0</ele><time>2026-03-22T13:31:19.957Z</time></trkpt><trkpt lat="39.3696444" lon="17.1328312"><ele>8.8</ele><time>2026-03-22T13:31:21.957Z</time></trkpt><trkpt lat="39.3695462" lon="17.1327843"><ele>8.600000000000001</ele><time>2026-03-22T13:31:23.957Z</time></trkpt><trkpt lat="39.3694498" lon="17.1327408"><ele>8.4</ele><time>2026-03-22T13:31:25.957Z</time></trkpt><trkpt lat="39.369404" lon="17.1326617"><ele>8.200000000000001</ele><time>2026-03-22T13:31:27.956Z</time></trkpt><trkpt lat="39.3694203" lon="17.132488"><ele>8.0</ele><time>2026-03-22T13:31:29.957Z</time></trkpt><trkpt lat="39.3694382" lon="17.1323888"><ele>7.6000000000000005</ele><time>2026-03-22T13:31:30.957Z</time></trkpt><trkpt lat="39.3694768" lon="17.1322333"><ele>7.200000000000001</ele><time>2026-03-22T13:31:32.956Z</time></trkpt><trkpt lat="39.3694961" lon="17.1321447"><ele>6.8</ele><time>2026-03-22T13:31:33.957Z</time></trkpt><trkpt lat="39.3695212" lon="17.1320392"><ele>6.4</ele><time>2026-03-22T13:31:34.957Z</time></trkpt><trkpt lat="39.3695502" lon="17.131917"><ele>6.0</ele><time>2026-03-22T13:31:35.957Z</time></trkpt><trkpt lat="39.3695761" lon="17.1317866"><ele>6.0</ele><time>2026-03-22T13:31:36.957Z</time></trkpt><trkpt lat="39.3695975" lon="17.1316617"><ele>6.0</ele><time>2026-03-22T13:31:37.956Z</time></trkpt><trkpt lat="39.369622" lon="17.1315374"><ele>6.0</ele><time>2026-03-22T13:31:38.956Z</time></trkpt><trkpt lat="39.3696406" lon="17.1314123"><ele>6.0</ele><time>2026-03-22T13:31:39.957Z</time></trkpt><trkpt lat="39.3696534" lon="17.1313"><ele>6.0</ele><time>2026-03-22T13:31:40.957Z</time></trkpt><trkpt lat="39.3696621" lon="17.1311831"><ele>6.4</ele><time>2026-03-22T13:31:41.957Z</time></trkpt><trkpt lat="39.3696726" lon="17.1310498"><ele>6.8</ele><time>2026-03-22T13:31:42.957Z</time></trkpt><trkpt lat="39.3696875" lon="17.1308988"><ele>7.200000000000001</ele><time>2026-03-22T13:31:43.957Z</time></trkpt><trkpt lat="39.3697" lon="17.1307589"><ele>7.6000000000000005</ele><time>2026-03-22T13:31:44.957Z</time></trkpt><trkpt lat="39.3697139" lon="17.1306305"><ele>8.0</ele><time>2026-03-22T13:31:45.957Z</time></trkpt><trkpt lat="39.369724" lon="17.1305082"><ele>7.800000000000001</ele><time>2026-03-22T13:31:46.957Z</time></trkpt><trkpt lat="39.3697357" lon="17.1303794"><ele>7.6000000000000005</ele><time>2026-03-22T13:31:47.957Z</time></trkpt><trkpt lat="39.3697495" lon="17.1302484"><ele>7.3999999999999995</ele><time>2026-03-22T13:31:48.956Z</time></trkpt><trkpt lat="39.3697626" lon="17.1301185"><ele>7.199999999999999</ele><time>2026-03-22T13:31:49.957Z</time></trkpt><trkpt lat="39.369771" lon="17.1299903"><ele>7.0</ele><time>2026-03-22T13:31:50.957Z</time></trkpt><trkpt lat="39.3697854" lon="17.1298677"><ele>7.000000000000001</ele><time>2026-03-22T13:31:51.956Z</time></trkpt><trkpt lat="39.3698018" lon="17.1297623"><ele>7.0</ele><time>2026-03-22T13:31:52.957Z</time></trkpt><trkpt lat="39.3698091" lon="17.1296739"><ele>7.0</ele><time>2026-03-22T13:31:53.957Z</time></trkpt><trkpt lat="39.3698223" lon="17.129537"><ele>7.0</ele><time>2026-03-22T13:31:55.956Z</time></trkpt><trkpt lat="39.3698265" lon="17.1294336"><ele>7.000000000000001</ele><time>2026-03-22T13:31:57.957Z</time></trkpt><trkpt lat="39.3698135" lon="17.1293178"><ele>7.0</ele><time>2026-03-22T13:32:00.957Z</time></trkpt><trkpt lat="39.3696989" lon="17.1292647"><ele>7.333333333333334</ele><time>2026-03-22T13:32:02.957Z</time></trkpt><trkpt lat="39.3696296" lon="17.1292429"><ele>7.666666666666667</ele><time>2026-03-22T13:32:03.957Z</time></trkpt><trkpt lat="39.3695543" lon="17.1292292"><ele>8.0</ele><time>2026-03-22T13:32:04.957Z</time></trkpt><trkpt lat="39.3694741" lon="17.1292075"><ele>8.333333333333334</ele><time>2026-03-22T13:32:05.957Z</time></trkpt><trkpt lat="39.3693743" lon="17.1291772"><ele>8.666666666666666</ele><time>2026-03-22T13:32:06.957Z</time></trkpt><trkpt lat="39.369272" lon="17.1291518"><ele>9.0</ele><time>2026-03-22T13:32:07.957Z</time></trkpt><trkpt lat="39.3691129" lon="17.1291171"><ele>9.0</ele><time>2026-03-22T13:32:08.957Z</time></trkpt><trkpt lat="39.3689942" lon="17.1290951"><ele>9.0</ele><time>2026-03-22T13:32:09.957Z</time></trkpt><trkpt lat="39.3688955" lon="17.1290758"><ele>9.0</ele><time>2026-03-22T13:32:10.957Z</time></trkpt><trkpt lat="39.3688175" lon="17.1290583"><ele>9.0</ele><time>2026-03-22T13:32:11.955Z</time></trkpt><trkpt lat="39.3687203" lon="17.1290302"><ele>9.0</ele><time>2026-03-22T13:32:13.957Z</time></trkpt><trkpt lat="39.3686509" lon="17.1290089"><ele>8.5</ele><time>2026-03-22T13:32:15.956Z</time></trkpt><trkpt lat="39.3685823" lon="17.1289489"><ele>8.0</ele><time>2026-03-22T13:32:17.955Z</time></trkpt><trkpt lat="39.3685603" lon="17.1288598"><ele>7.5</ele><time>2026-03-22T13:32:18.957Z</time></trkpt><trkpt lat="39.36853" lon="17.1286444"><ele>7.0</ele><time>2026-03-22T13:32:19.956Z</time></trkpt><trkpt lat="39.368504" lon="17.1284112"><ele>7.666666666666667</ele><time>2026-03-22T13:32:20.957Z</time></trkpt><trkpt lat="39.3684711" lon="17.1281545"><ele>8.333333333333334</ele><time>2026-03-22T13:32:21.957Z</time></trkpt><trkpt lat="39.3684408" lon="17.1278926"><ele>9.0</ele><time>2026-03-22T13:32:22.956Z</time></trkpt><trkpt lat="39.368412" lon="17.1276798"><ele>9.0</ele><time>2026-03-22T13:32:23.956Z</time></trkpt><trkpt lat="39.3683817" lon="17.1274726"><ele>9.0</ele><time>2026-03-22T13:32:24.957Z</time></trkpt><trkpt lat="39.3683551" lon="17.127271"><ele>9.0</ele><time>2026-03-22T13:32:25.957Z</time></trkpt><trkpt lat="39.3683284" lon="17.1270782"><ele>9.0</ele><time>2026-03-22T13:32:26.957Z</time></trkpt><trkpt lat="39.368305" lon="17.1268942"><ele>9.0</ele><time>2026-03-22T13:32:27.955Z</time></trkpt><trkpt lat="39.3682795" lon="17.1267079"><ele>9.0</ele><time>2026-03-22T13:32:28.957Z</time></trkpt><trkpt lat="39.3682535" lon="17.126525"><ele>9.0</ele><time>2026-03-22T13:32:29.956Z</time></trkpt><trkpt lat="39.3682288" lon="17.1263368"><ele>9.25</ele><time>2026-03-22T13:32:30.957Z</time></trkpt><trkpt lat="39.3682026" lon="17.1261594"><ele>9.5</ele><time>2026-03-22T13:32:31.956Z</time></trkpt><trkpt lat="39.3681771" lon="17.1259816"><ele>9.75</ele><time>2026-03-22T13:32:32.957Z</time></trkpt><trkpt lat="39.3681506" lon="17.1257976"><ele>10.0</ele><time>2026-03-22T13:32:33.957Z</time></trkpt><trkpt lat="39.3681242" lon="17.1256081"><ele>10.0</ele><time>2026-03-22T13:32:34.956Z</time></trkpt><trkpt lat="39.3680967" lon="17.1254248"><ele>10.0</ele><time>2026-03-22T13:32:35.957Z</time></trkpt><trkpt lat="39.3680724" lon="17.1252473"><ele>10.0</ele><time>2026-03-22T13:32:36.957Z</time></trkpt><trkpt lat="39.3680485" lon="17.1250827"><ele>10.0</ele><time>2026-03-22T13:32:37.957Z</time></trkpt><trkpt lat="39.3680278" lon="17.1249285"><ele>9.5</ele><time>2026-03-22T13:32:38.957Z</time></trkpt><trkpt lat="39.3680057" lon="17.1247819"><ele>9.0</ele><time>2026-03-22T13:32:39.957Z</time></trkpt><trkpt lat="39.367984" lon="17.1246322"><ele>8.5</ele><time>2026-03-22T13:32:40.956Z</time></trkpt><trkpt lat="39.3679637" lon="17.124484"><ele>8.0</ele><time>2026-03-22T13:32:41.957Z</time></trkpt><trkpt lat="39.3679468" lon="17.1243479"><ele>8.0</ele><time>2026-03-22T13:32:42.957Z</time></trkpt><trkpt lat="39.3679395" lon="17.1242095"><ele>8.0</ele><time>2026-03-22T13:32:43.957Z</time></trkpt><trkpt lat="39.3679292" lon="17.124084"><ele>8.0</ele><time>2026-03-22T13:32:44.957Z</time></trkpt><trkpt lat="39.3679011" lon="17.1239433"><ele>8.0</ele><time>2026-03-22T13:32:45.957Z</time></trkpt><trkpt lat="39.3678639" lon="17.1237645"><ele>8.666666666666666</ele><time>2026-03-22T13:32:46.957Z</time></trkpt><trkpt lat="39.3678284" lon="17.123529"><ele>9.333333333333334</ele><time>2026-03-22T13:32:47.957Z</time></trkpt><trkpt lat="39.3677864" lon="17.1233032"><ele>10.0</ele><time>2026-03-22T13:32:48.957Z</time></trkpt><trkpt lat="39.3677589" lon="17.1231199"><ele>11.0</ele><time>2026-03-22T13:32:49.957Z</time></trkpt><trkpt lat="39.3677335" lon="17.1229478"><ele>12.0</ele><time>2026-03-22T13:32:50.956Z</time></trkpt><trkpt lat="39.3677069" lon="17.1227565"><ele>13.0</ele><time>2026-03-22T13:32:51.957Z</time></trkpt><trkpt lat="39.3676785" lon="17.1225423"><ele>11.666666666666666</ele><time>2026-03-22T13:32:52.956Z</time></trkpt><trkpt lat="39.3676472" lon="17.1223295"><ele>10.333333333333332</ele><time>2026-03-22T13:32:53.957Z</time></trkpt><trkpt lat="39.3676123" lon="17.1221122"><ele>9.0</ele><time>2026-03-22T13:32:54.956Z</time></trkpt><trkpt lat="39.3675814" lon="17.1218867"><ele>9.0</ele><time>2026-03-22T13:32:55.956Z</time></trkpt><trkpt lat="39.3675581" lon="17.121659"><ele>9.0</ele><time>2026-03-22T13:32:56.957Z</time></trkpt><trkpt lat="39.3675322" lon="17.121437"><ele>9.0</ele><time>2026-03-22T13:32:57.957Z</time></trkpt><trkpt lat="39.3675061" lon="17.1212239"><ele>8.666666666666666</ele><time>2026-03-22T13:32:58.957Z</time></trkpt><trkpt lat="39.3674791" lon="17.1210188"><ele>8.333333333333332</ele><time>2026-03-22T13:32:59.957Z</time></trkpt><trkpt lat="39.3674462" lon="17.1208218"><ele>8.0</ele><time>2026-03-22T13:33:00.957Z</time></trkpt><trkpt lat="39.3674175" lon="17.1206357"><ele>8.5</ele><time>2026-03-22T13:33:01.957Z</time></trkpt><trkpt lat="39.3673918" lon="17.1204575"><ele>9.0</ele><time>2026-03-22T13:33:02.955Z</time></trkpt><trkpt lat="39.3673648" lon="17.1202789"><ele>9.5</ele><time>2026-03-22T13:33:03.957Z</time></trkpt><trkpt lat="39.3673356" lon="17.1200802"><ele>10.0</ele><time>2026-03-22T13:33:04.956Z</time></trkpt><trkpt lat="39.3673001" lon="17.1198588"><ele>9.333333333333334</ele><time>2026-03-22T13:33:05.957Z</time></trkpt><trkpt lat="39.3672603" lon="17.1196005"><ele>8.666666666666666</ele><time>2026-03-22T13:33:06.956Z</time></trkpt><trkpt lat="39.3672237" lon="17.1193329"><ele>8.0</ele><time>2026-03-22T13:33:07.957Z</time></trkpt><trkpt lat="39.3671887" lon="17.1190953"><ele>8.333333333333332</ele><time>2026-03-22T13:33:08.956Z</time></trkpt><trkpt lat="39.3671547" lon="17.1188766"><ele>8.666666666666666</ele><time>2026-03-22T13:33:09.957Z</time></trkpt><trkpt lat="39.3671254" lon="17.1186677"><ele>9.0</ele><time>2026-03-22T13:33:10.956Z</time></trkpt><trkpt lat="39.367097" lon="17.1184564"><ele>10.333333333333332</ele><time>2026-03-22T13:33:11.957Z</time></trkpt><trkpt lat="39.3670614" lon="17.118227"><ele>11.666666666666666</ele><time>2026-03-22T13:33:12.957Z</time></trkpt><trkpt lat="39.3670288" lon="17.1180034"><ele>13.0</ele><time>2026-03-22T13:33:13.956Z</time></trkpt><trkpt lat="39.3670001" lon="17.1177913"><ele>13.0</ele><time>2026-03-22T13:33:14.957Z</time></trkpt><trkpt lat="39.3669699" lon="17.1176027"><ele>13.0</ele><time>2026-03-22T13:33:15.956Z</time></trkpt><trkpt lat="39.3669328" lon="17.1174411"><ele>13.0</ele><time>2026-03-22T13:33:16.956Z</time></trkpt><trkpt lat="39.3668929" lon="17.1172873"><ele>13.0</ele><time>2026-03-22T13:33:17.957Z</time></trkpt><trkpt lat="39.3668501" lon="17.1171335"><ele>13.2</ele><time>2026-03-22T13:33:18.957Z</time></trkpt><trkpt lat="39.366806" lon="17.1169924"><ele>13.4</ele><time>2026-03-22T13:33:19.957Z</time></trkpt><trkpt lat="39.3667597" lon="17.1168566"><ele>13.599999999999998</ele><time>2026-03-22T13:33:20.957Z</time></trkpt><trkpt lat="39.3667174" lon="17.1167344"><ele>13.799999999999999</ele><time>2026-03-22T13:33:21.957Z</time></trkpt><trkpt lat="39.3666822" lon="17.1166102"><ele>14.0</ele><time>2026-03-22T13:33:22.957Z</time></trkpt><trkpt lat="39.3666678" lon="17.1164805"><ele>14.399999999999999</ele><time>2026-03-22T13:33:23.955Z</time></trkpt><trkpt lat="39.3666851" lon="17.1163507"><ele>14.799999999999999</ele><time>2026-03-22T13:33:24.957Z</time></trkpt><trkpt lat="39.3667244" lon="17.1162297"><ele>15.200000000000001</ele><time>2026-03-22T13:33:25.957Z</time></trkpt><trkpt lat="39.3667731" lon="17.1161149"><ele>15.600000000000001</ele><time>2026-03-22T13:33:26.957Z</time></trkpt><trkpt lat="39.3668417" lon="17.1159814"><ele>16.0</ele><time>2026-03-22T13:33:27.957Z</time></trkpt><trkpt lat="39.3669145" lon="17.1158662"><ele>16.0</ele><time>2026-03-22T13:33:28.957Z</time></trkpt><trkpt lat="39.3669947" lon="17.1157657"><ele>16.0</ele><time>2026-03-22T13:33:29.957Z</time></trkpt><trkpt lat="39.3670836" lon="17.1156512"><ele>16.0</ele><time>2026-03-22T13:33:30.957Z</time></trkpt><trkpt lat="39.3671565" lon="17.115554"><ele>16.0</ele><time>2026-03-22T13:33:31.956Z</time></trkpt><trkpt lat="39.3672301" lon="17.1154597"><ele>16.0</ele><time>2026-03-22T13:33:32.957Z</time></trkpt><trkpt lat="39.3673016" lon="17.1153682"><ele>17.0</ele><time>2026-03-22T13:33:33.957Z</time></trkpt><trkpt lat="39.3673757" lon="17.1152858"><ele>18.0</ele><time>2026-03-22T13:33:34.956Z</time></trkpt><trkpt lat="39.3674433" lon="17.1152267"><ele>19.0</ele><time>2026-03-22T13:33:35.956Z</time></trkpt><trkpt lat="39.3675114" lon="17.1151795"><ele>20.0</ele><time>2026-03-22T13:33:36.957Z</time></trkpt><trkpt lat="39.3675721" lon="17.11511"><ele>21.0</ele><time>2026-03-22T13:33:37.957Z</time></trkpt><trkpt lat="39.3676164" lon="17.1150227"><ele>22.0</ele><time>2026-03-22T13:33:38.957Z</time></trkpt><trkpt lat="39.3676444" lon="17.1149253"><ele>22.8</ele><time>2026-03-22T13:33:39.957Z</time></trkpt><trkpt lat="39.3676701" lon="17.1148237"><ele>23.6</ele><time>2026-03-22T13:33:40.957Z</time></trkpt><trkpt lat="39.3677274" lon="17.1147363"><ele>24.400000000000002</ele><time>2026-03-22T13:33:41.957Z</time></trkpt><trkpt lat="39.3677959" lon="17.1146466"><ele>25.200000000000003</ele><time>2026-03-22T13:33:42.957Z</time></trkpt><trkpt lat="39.367853" lon="17.1145618"><ele>26.0</ele><time>2026-03-22T13:33:43.957Z</time></trkpt><trkpt lat="39.3678974" lon="17.1144451"><ele>26.0</ele><time>2026-03-22T13:33:44.957Z</time></trkpt><trkpt lat="39.3679297" lon="17.1143269"><ele>26.0</ele><time>2026-03-22T13:33:45.957Z</time></trkpt><trkpt lat="39.3678639" lon="17.1142076"><ele>26.0</ele><time>2026-03-22T13:33:46.956Z</time></trkpt><trkpt lat="39.3677821" lon="17.1140898"><ele>26.0</ele><time>2026-03-22T13:33:47.957Z</time></trkpt><trkpt lat="39.3676864" lon="17.1139431"><ele>26.0</ele><time>2026-03-22T13:33:48.957Z</time></trkpt><trkpt lat="39.3676367" lon="17.1138214"><ele>26.0</ele><time>2026-03-22T13:33:49.957Z</time></trkpt><trkpt lat="39.3676134" lon="17.1136889"><ele>26.0</ele><time>2026-03-22T13:33:50.956Z</time></trkpt><trkpt lat="39.3676128" lon="17.1135597"><ele>26.0</ele><time>2026-03-22T13:33:51.955Z</time></trkpt><trkpt lat="39.3676429" lon="17.1134241"><ele>26.0</ele><time>2026-03-22T13:33:52.956Z</time></trkpt><trkpt lat="39.3676876" lon="17.1132931"><ele>28.4</ele><time>2026-03-22T13:33:53.956Z</time></trkpt><trkpt lat="39.3677354" lon="17.113162"><ele>30.8</ele><time>2026-03-22T13:33:54.956Z</time></trkpt><trkpt lat="39.3677895" lon="17.1130243"><ele>33.199999999999996</ele><time>2026-03-22T13:33:55.956Z</time></trkpt><trkpt lat="39.3678429" lon="17.1129008"><ele>35.6</ele><time>2026-03-22T13:33:56.954Z</time></trkpt><trkpt lat="39.3678932" lon="17.1128006"><ele>38.0</ele><time>2026-03-22T13:33:57.956Z</time></trkpt><trkpt lat="39.3679666" lon="17.112697"><ele>38.0</ele><time>2026-03-22T13:33:59.956Z</time></trkpt><trkpt lat="39.3680246" lon="17.1126503"><ele>38.0</ele><time>2026-03-22T13:34:00.956Z</time></trkpt><trkpt lat="39.3681498" lon="17.1125812"><ele>38.0</ele><time>2026-03-22T13:34:01.954Z</time></trkpt><trkpt lat="39.3682878" lon="17.1125196"><ele>38.0</ele><time>2026-03-22T13:34:02.956Z</time></trkpt><trkpt lat="39.3683967" lon="17.11247"><ele>37.8</ele><time>2026-03-22T13:34:03.955Z</time></trkpt><trkpt lat="39.3684978" lon="17.1124228"><ele>37.599999999999994</ele><time>2026-03-22T13:34:04.956Z</time></trkpt><trkpt lat="39.3685818" lon="17.1123796"><ele>37.400000000000006</ele><time>2026-03-22T13:34:05.955Z</time></trkpt><trkpt lat="39.3686556" lon="17.1123398"><ele>37.2</ele><time>2026-03-22T13:34:06.956Z</time></trkpt><trkpt lat="39.3687478" lon="17.1122716"><ele>37.0</ele><time>2026-03-22T13:34:08.956Z</time></trkpt><trkpt lat="39.3688161" lon="17.112163"><ele>39.0</ele><time>2026-03-22T13:34:10.956Z</time></trkpt><trkpt lat="39.368823" lon="17.1120802"><ele>41.0</ele><time>2026-03-22T13:34:11.956Z</time></trkpt><trkpt lat="39.3687799" lon="17.111916"><ele>43.0</ele><time>2026-03-22T13:34:13.955Z</time></trkpt><trkpt lat="39.3687383" lon="17.1118401"><ele>45.0</ele><time>2026-03-22T13:34:14.956Z</time></trkpt><trkpt lat="39.3686909" lon="17.1117682"><ele>46.99999999999999</ele><time>2026-03-22T13:34:15.955Z</time></trkpt><trkpt lat="39.3686422" lon="17.1117063"><ele>49.0</ele><time>2026-03-22T13:34:16.956Z</time></trkpt><trkpt lat="39.3685681" lon="17.1116255"><ele>48.99999999999999</ele><time>2026-03-22T13:34:18.956Z</time></trkpt><trkpt lat="39.3685065" lon="17.1115446"><ele>49.0</ele><time>2026-03-22T13:34:20.955Z</time></trkpt><trkpt lat="39.3684523" lon="17.1114754"><ele>49.0</ele><time>2026-03-22T13:34:22.956Z</time></trkpt><trkpt lat="39.3683879" lon="17.1114882"><ele>49.0</ele><time>2026-03-22T13:34:42.955Z</time></trkpt><trkpt lat="39.3683259" lon="17.1115633"><ele>48.99999999999999</ele><time>2026-03-22T13:35:04.956Z</time></trkpt><trkpt lat="39.3682772" lon="17.1116626"><ele>49.0</ele><time>2026-03-22T13:35:07.955Z</time></trkpt><trkpt lat="39.3682407" lon="17.1117373"><ele>49.0</ele><time>2026-03-22T13:35:10.956Z</time></trkpt><trkpt lat="39.3682045" lon="17.1118052"><ele>49.0</ele><time>2026-03-22T13:35:15.956Z</time></trkpt><trkpt lat="39.3681706" lon="17.1118766"><ele>49.0</ele><time>2026-03-22T13:35:24.956Z</time></trkpt><trkpt lat="39.3681298" lon="17.1119451"><ele>49.0</ele><time>2026-03-22T13:35:54.955Z</time></trkpt><trkpt lat="39.3681432" lon="17.1118552"><ele>49.0</ele><time>2026-03-22T13:36:36.955Z</time></trkpt><trkpt lat="39.3682042" lon="17.1117695"><ele>49.0</ele><time>2026-03-22T13:36:45.956Z</time></trkpt><trkpt lat="39.3682409" lon="17.1117009"><ele>49.0</ele><time>2026-03-22T13:36:46.956Z</time></trkpt><trkpt lat="39.3682951" lon="17.1115862"><ele>48.99999999999999</ele><time>2026-03-22T13:36:48.956Z</time></trkpt><trkpt lat="39.3683232" lon="17.1115105"><ele>49.0</ele><time>2026-03-22T13:36:50.956Z</time></trkpt><trkpt lat="39.3683693" lon="17.1114546"><ele>49.0</ele><time>2026-03-22T13:36:54.955Z</time></trkpt><trkpt lat="39.3684364" lon="17.1114736"><ele>49.0</ele><time>2026-03-22T13:36:56.956Z</time></trkpt><trkpt lat="39.3685253" lon="17.1115725"><ele>48.99999999999999</ele><time>2026-03-22T13:36:58.955Z</time></trkpt><trkpt lat="39.3685705" lon="17.1116404"><ele>49.0</ele><time>2026-03-22T13:36:59.955Z</time></trkpt><trkpt lat="39.3686245" lon="17.1117095"><ele>49.0</ele><time>2026-03-22T13:37:00.956Z</time></trkpt><trkpt lat="39.3686834" lon="17.1117885"><ele>49.0</ele><time>2026-03-22T13:37:01.955Z</time></trkpt><trkpt lat="39.3687343" lon="17.1118653"><ele>49.0</ele><time>2026-03-22T13:37:02.956Z</time></trkpt><trkpt lat="39.3687685" lon="17.1119408"><ele>49.0</ele><time>2026-03-22T13:37:03.956Z</time></trkpt><trkpt lat="39.3687899" lon="17.1120945"><ele>49.0</ele><time>2026-03-22T13:37:05.956Z</time></trkpt><trkpt lat="39.3687268" lon="17.1122377"><ele>48.99999999999999</ele><time>2026-03-22T13:37:07.956Z</time></trkpt><trkpt lat="39.3686678" lon="17.1122943"><ele>49.0</ele><time>2026-03-22T13:37:08.956Z</time></trkpt><trkpt lat="39.3685917" lon="17.1123425"><ele>49.0</ele><time>2026-03-22T13:37:09.956Z</time></trkpt><trkpt lat="39.3685093" lon="17.1123794"><ele>49.0</ele><time>2026-03-22T13:37:10.956Z</time></trkpt><trkpt lat="39.3684247" lon="17.1124162"><ele>48.99999999999999</ele><time>2026-03-22T13:37:11.956Z</time></trkpt><trkpt lat="39.3683387" lon="17.1124591"><ele>49.0</ele><time>2026-03-22T13:37:12.956Z</time></trkpt><trkpt lat="39.3682626" lon="17.112496"><ele>47.42857142857143</ele><time>2026-03-22T13:37:13.956Z</time></trkpt><trkpt lat="39.3681927" lon="17.1125286"><ele>45.85714285714286</ele><time>2026-03-22T13:37:14.956Z</time></trkpt><trkpt lat="39.3681254" lon="17.1125623"><ele>44.285714285714285</ele><time>2026-03-22T13:37:15.956Z</time></trkpt><trkpt lat="39.3680608" lon="17.1125984"><ele>42.714285714285715</ele><time>2026-03-22T13:37:16.955Z</time></trkpt><trkpt lat="39.3680013" lon="17.112639"><ele>41.142857142857146</ele><time>2026-03-22T13:37:17.956Z</time></trkpt><trkpt lat="39.3679492" lon="17.1126943"><ele>39.57142857142857</ele><time>2026-03-22T13:37:18.956Z</time></trkpt><trkpt lat="39.3678957" lon="17.1127621"><ele>38.0</ele><time>2026-03-22T13:37:19.955Z</time></trkpt><trkpt lat="39.3678449" lon="17.1128486"><ele>38.0</ele><time>2026-03-22T13:37:20.956Z</time></trkpt><trkpt lat="39.3678016" lon="17.1129461"><ele>38.0</ele><time>2026-03-22T13:37:21.954Z</time></trkpt><trkpt lat="39.3677632" lon="17.1130384"><ele>38.0</ele><time>2026-03-22T13:37:22.955Z</time></trkpt><trkpt lat="39.3677267" lon="17.1131249"><ele>38.0</ele><time>2026-03-22T13:37:23.956Z</time></trkpt><trkpt lat="39.3676908" lon="17.1132083"><ele>38.0</ele><time>2026-03-22T13:37:24.955Z</time></trkpt><trkpt lat="39.3676552" lon="17.1132929"><ele>38.0</ele><time>2026-03-22T13:37:25.956Z</time></trkpt><trkpt lat="39.3676223" lon="17.1133858"><ele>36.0</ele><time>2026-03-22T13:37:26.956Z</time></trkpt><trkpt lat="39.3675953" lon="17.1134821"><ele>34.0</ele><time>2026-03-22T13:37:27.955Z</time></trkpt><trkpt lat="39.3675842" lon="17.1135864"><ele>32.0</ele><time>2026-03-22T13:37:28.955Z</time></trkpt><trkpt lat="39.3675941" lon="17.1136874"><ele>30.0</ele><time>2026-03-22T13:37:29.956Z</time></trkpt><trkpt lat="39.3676106" lon="17.1137713"><ele>27.999999999999996</ele><time>2026-03-22T13:37:30.956Z</time></trkpt><trkpt lat="39.3676464" lon="17.1139239"><ele>26.0</ele><time>2026-03-22T13:37:32.955Z</time></trkpt><trkpt lat="39.367627" lon="17.1140279"><ele>26.0</ele><time>2026-03-22T13:37:34.956Z</time></trkpt><trkpt lat="39.3675703" lon="17.1141242"><ele>26.0</ele><time>2026-03-22T13:37:36.956Z</time></trkpt><trkpt lat="39.3675076" lon="17.1142419"><ele>26.0</ele><time>2026-03-22T13:37:38.956Z</time></trkpt><trkpt lat="39.3674685" lon="17.1143769"><ele>26.0</ele><time>2026-03-22T13:37:40.955Z</time></trkpt><trkpt lat="39.3674446" lon="17.1145118"><ele>26.0</ele><time>2026-03-22T13:37:42.956Z</time></trkpt><trkpt lat="39.367378" lon="17.1146451"><ele>26.0</ele><time>2026-03-22T13:37:44.956Z</time></trkpt><trkpt lat="39.3672861" lon="17.1147378"><ele>26.0</ele><time>2026-03-22T13:37:46.955Z</time></trkpt><trkpt lat="39.3671795" lon="17.1148133"><ele>26.0</ele><time>2026-03-22T13:37:48.956Z</time></trkpt><trkpt lat="39.3670855" lon="17.11483"><ele>26.0</ele><time>2026-03-22T13:37:50.956Z</time></trkpt><trkpt lat="39.3669751" lon="17.1147863"><ele>26.0</ele><time>2026-03-22T13:37:52.955Z</time></trkpt><trkpt lat="39.3668734" lon="17.1147397"><ele>25.333333333333332</ele><time>2026-03-22T13:37:54.956Z</time></trkpt><trkpt lat="39.3668079" lon="17.1147137"><ele>24.666666666666664</ele><time>2026-03-22T13:37:56.956Z</time></trkpt><trkpt lat="39.366743" lon="17.1146824"><ele>24.0</ele><time>2026-03-22T13:37:58.955Z</time></trkpt><trkpt lat="39.3666443" lon="17.114636"><ele>23.333333333333332</ele><time>2026-03-22T13:38:00.956Z</time></trkpt><trkpt lat="39.3665251" lon="17.1145897"><ele>22.666666666666664</ele><time>2026-03-22T13:38:02.956Z</time></trkpt><trkpt lat="39.3664596" lon="17.1145689"><ele>22.0</ele><time>2026-03-22T13:38:03.956Z</time></trkpt><trkpt lat="39.3663945" lon="17.1145497"><ele>22.142857142857142</ele><time>2026-03-22T13:38:04.955Z</time></trkpt><trkpt lat="39.3663326" lon="17.1145271"><ele>22.285714285714285</ele><time>2026-03-22T13:38:05.955Z</time></trkpt><trkpt lat="39.3662695" lon="17.1144992"><ele>22.42857142857143</ele><time>2026-03-22T13:38:06.956Z</time></trkpt><trkpt lat="39.366207" lon="17.1144686"><ele>22.57142857142857</ele><time>2026-03-22T13:38:07.955Z</time></trkpt><trkpt lat="39.3661416" lon="17.1144349"><ele>22.71428571428571</ele><time>2026-03-22T13:38:08.955Z</time></trkpt><trkpt lat="39.3660763" lon="17.1143977"><ele>22.857142857142858</ele><time>2026-03-22T13:38:09.956Z</time></trkpt><trkpt lat="39.3660055" lon="17.1143645"><ele>23.0</ele><time>2026-03-22T13:38:10.955Z</time></trkpt><trkpt lat="39.3659274" lon="17.1143264"><ele>23.0</ele><time>2026-03-22T13:38:11.956Z</time></trkpt><trkpt lat="39.3658044" lon="17.1142692"><ele>23.0</ele><time>2026-03-22T13:38:12.956Z</time></trkpt><trkpt lat="39.3656402" lon="17.1141842"><ele>23.0</ele><time>2026-03-22T13:38:13.956Z</time></trkpt><trkpt lat="39.36546" lon="17.1140846"><ele>24.333333333333336</ele><time>2026-03-22T13:38:14.956Z</time></trkpt><trkpt lat="39.3652603" lon="17.1139705"><ele>25.666666666666668</ele><time>2026-03-22T13:38:15.955Z</time></trkpt><trkpt lat="39.3650554" lon="17.1138429"><ele>27.0</ele><time>2026-03-22T13:38:16.956Z</time></trkpt><trkpt lat="39.364899" lon="17.1137504"><ele>27.0</ele><time>2026-03-22T13:38:17.956Z</time></trkpt><trkpt lat="39.3647584" lon="17.1136754"><ele>27.0</ele><time>2026-03-22T13:38:18.956Z</time></trkpt><trkpt lat="39.3646303" lon="17.1136155"><ele>27.0</ele><time>2026-03-22T13:38:19.956Z</time></trkpt><trkpt lat="39.3644875" lon="17.1135581"><ele>27.0</ele><time>2026-03-22T13:38:20.956Z</time></trkpt><trkpt lat="39.3642984" lon="17.1135009"><ele>25.666666666666668</ele><time>2026-03-22T13:38:21.956Z</time></trkpt><trkpt lat="39.3641219" lon="17.1134473"><ele>24.333333333333336</ele><time>2026-03-22T13:38:22.956Z</time></trkpt><trkpt lat="39.3639591" lon="17.1133979"><ele>23.0</ele><time>2026-03-22T13:38:23.956Z</time></trkpt><trkpt lat="39.3638097" lon="17.1133491"><ele>23.25</ele><time>2026-03-22T13:38:24.955Z</time></trkpt><trkpt lat="39.3636752" lon="17.1133071"><ele>23.5</ele><time>2026-03-22T13:38:25.956Z</time></trkpt><trkpt lat="39.3635554" lon="17.1132734"><ele>23.75</ele><time>2026-03-22T13:38:26.956Z</time></trkpt><trkpt lat="39.3634419" lon="17.1132357"><ele>24.0</ele><time>2026-03-22T13:38:27.956Z</time></trkpt><trkpt lat="39.3633263" lon="17.1131827"><ele>24.0</ele><time>2026-03-22T13:38:28.955Z</time></trkpt><trkpt lat="39.3632096" lon="17.1130952"><ele>24.0</ele><time>2026-03-22T13:38:29.956Z</time></trkpt><trkpt lat="39.3631187" lon="17.1129503"><ele>24.0</ele><time>2026-03-22T13:38:30.956Z</time></trkpt><trkpt lat="39.3630435" lon="17.1128023"><ele>24.0</ele><time>2026-03-22T13:38:31.956Z</time></trkpt><trkpt lat="39.3629678" lon="17.1126643"><ele>24.5</ele><time>2026-03-22T13:38:32.955Z</time></trkpt><trkpt lat="39.3629041" lon="17.1124997"><ele>25.0</ele><time>2026-03-22T13:38:33.956Z</time></trkpt><trkpt lat="39.3628054" lon="17.1124093"><ele>25.5</ele><time>2026-03-22T13:38:34.956Z</time></trkpt><trkpt lat="39.3627034" lon="17.1123224"><ele>26.0</ele><time>2026-03-22T13:38:35.956Z</time></trkpt><trkpt lat="39.3625864" lon="17.1122606"><ele>26.0</ele><time>2026-03-22T13:38:36.955Z</time></trkpt><trkpt lat="39.3624515" lon="17.1122081"><ele>26.0</ele><time>2026-03-22T13:38:37.956Z</time></trkpt><trkpt lat="39.3623058" lon="17.1121596"><ele>26.0</ele><time>2026-03-22T13:38:38.956Z</time></trkpt><trkpt lat="39.3621484" lon="17.1121087"><ele>25.0</ele><time>2026-03-22T13:38:39.956Z</time></trkpt><trkpt lat="39.3619905" lon="17.1120522"><ele>24.0</ele><time>2026-03-22T13:38:40.956Z</time></trkpt><trkpt lat="39.3618357" lon="17.1119925"><ele>23.0</ele><time>2026-03-22T13:38:41.955Z</time></trkpt><trkpt lat="39.3616714" lon="17.1119371"><ele>23.0</ele><time>2026-03-22T13:38:42.956Z</time></trkpt><trkpt lat="39.3615072" lon="17.1118827"><ele>23.0</ele><time>2026-03-22T13:38:43.956Z</time></trkpt><trkpt lat="39.3613515" lon="17.1118295"><ele>23.0</ele><time>2026-03-22T13:38:44.955Z</time></trkpt><trkpt lat="39.361195" lon="17.1117749"><ele>23.0</ele><time>2026-03-22T13:38:45.956Z</time></trkpt><trkpt lat="39.3610399" lon="17.1117222"><ele>23.0</ele><time>2026-03-22T13:38:46.956Z</time></trkpt><trkpt lat="39.3608857" lon="17.1116679"><ele>23.0</ele><time>2026-03-22T13:38:47.956Z</time></trkpt><trkpt lat="39.3607344" lon="17.111615"><ele>24.0</ele><time>2026-03-22T13:38:48.956Z</time></trkpt><trkpt lat="39.3605846" lon="17.1115605"><ele>25.0</ele><time>2026-03-22T13:38:49.955Z</time></trkpt><trkpt lat="39.3604351" lon="17.1115038"><ele>26.0</ele><time>2026-03-22T13:38:50.956Z</time></trkpt><trkpt lat="39.360286" lon="17.1114492"><ele>26.0</ele><time>2026-03-22T13:38:51.956Z</time></trkpt><trkpt lat="39.36014" lon="17.1113987"><ele>26.0</ele><time>2026-03-22T13:38:52.956Z</time></trkpt><trkpt lat="39.3600048" lon="17.1113534"><ele>26.0</ele><time>2026-03-22T13:38:53.955Z</time></trkpt><trkpt lat="39.3598879" lon="17.1113094"><ele>26.0</ele><time>2026-03-22T13:38:54.954Z</time></trkpt><trkpt lat="39.3597922" lon="17.1112473"><ele>26.0</ele><time>2026-03-22T13:38:55.956Z</time></trkpt><trkpt lat="39.3597035" lon="17.111169"><ele>26.0</ele><time>2026-03-22T13:38:56.955Z</time></trkpt><trkpt lat="39.359631" lon="17.1110668"><ele>26.0</ele><time>2026-03-22T13:38:57.956Z</time></trkpt><trkpt lat="39.3595717" lon="17.11094"><ele>26.0</ele><time>2026-03-22T13:38:58.956Z</time></trkpt><trkpt lat="39.3595194" lon="17.1107723"><ele>24.75</ele><time>2026-03-22T13:38:59.955Z</time></trkpt><trkpt lat="39.3594909" lon="17.1105862"><ele>23.5</ele><time>2026-03-22T13:39:00.955Z</time></trkpt><trkpt lat="39.3594676" lon="17.1104294"><ele>22.25</ele><time>2026-03-22T13:39:01.956Z</time></trkpt><trkpt lat="39.3594516" lon="17.1102769"><ele>21.0</ele><time>2026-03-22T13:39:02.955Z</time></trkpt><trkpt lat="39.3594301" lon="17.1100856"><ele>21.0</ele><time>2026-03-22T13:39:03.956Z</time></trkpt><trkpt lat="39.3594116" lon="17.1099018"><ele>21.0</ele><time>2026-03-22T13:39:04.956Z</time></trkpt><trkpt lat="39.359375" lon="17.10971"><ele>21.0</ele><time>2026-03-22T13:39:05.956Z</time></trkpt><trkpt lat="39.3593317" lon="17.1095285"><ele>21.0</ele><time>2026-03-22T13:39:06.956Z</time></trkpt><trkpt lat="39.3592837" lon="17.1093561"><ele>21.0</ele><time>2026-03-22T13:39:07.955Z</time></trkpt><trkpt lat="39.359231" lon="17.1091869"><ele>21.0</ele><time>2026-03-22T13:39:08.954Z</time></trkpt><trkpt lat="39.3591752" lon="17.1090196"><ele>21.0</ele><time>2026-03-22T13:39:09.955Z</time></trkpt><trkpt lat="39.3591146" lon="17.1088496"><ele>21.0</ele><time>2026-03-22T13:39:10.955Z</time></trkpt><trkpt lat="39.3590514" lon="17.1086832"><ele>20.5</ele><time>2026-03-22T13:39:11.955Z</time></trkpt><trkpt lat="39.3589899" lon="17.1085142"><ele>20.0</ele><time>2026-03-22T13:39:12.956Z</time></trkpt><trkpt lat="39.3589292" lon="17.1083415"><ele>19.5</ele><time>2026-03-22T13:39:13.956Z</time></trkpt><trkpt lat="39.3588669" lon="17.108166"><ele>19.0</ele><time>2026-03-22T13:39:14.956Z</time></trkpt><trkpt lat="39.3588046" lon="17.1079882"><ele>19.0</ele><time>2026-03-22T13:39:15.956Z</time></trkpt><trkpt lat="39.3587483" lon="17.107803"><ele>19.0</ele><time>2026-03-22T13:39:16.956Z</time></trkpt><trkpt lat="39.3586938" lon="17.107615"><ele>19.0</ele><time>2026-03-22T13:39:17.956Z</time></trkpt><trkpt lat="39.3586423" lon="17.1074205"><ele>20.333333333333332</ele><time>2026-03-22T13:39:18.956Z</time></trkpt><trkpt lat="39.3585839" lon="17.1072165"><ele>21.666666666666668</ele><time>2026-03-22T13:39:19.956Z</time></trkpt><trkpt lat="39.3585177" lon="17.1070178"><ele>23.0</ele><time>2026-03-22T13:39:20.956Z</time></trkpt><trkpt lat="39.358438" lon="17.106822"><ele>23.0</ele><time>2026-03-22T13:39:21.956Z</time></trkpt><trkpt lat="39.3583525" lon="17.1066322"><ele>23.0</ele><time>2026-03-22T13:39:22.956Z</time></trkpt><trkpt lat="39.3582735" lon="17.1064345"><ele>23.0</ele><time>2026-03-22T13:39:23.955Z</time></trkpt><trkpt lat="39.358223" lon="17.1062222"><ele>23.0</ele><time>2026-03-22T13:39:24.956Z</time></trkpt><trkpt lat="39.3581887" lon="17.1060068"><ele>23.0</ele><time>2026-03-22T13:39:25.956Z</time></trkpt><trkpt lat="39.3581613" lon="17.1057795"><ele>23.0</ele><time>2026-03-22T13:39:26.956Z</time></trkpt><trkpt lat="39.3581328" lon="17.1055309"><ele>23.333333333333336</ele><time>2026-03-22T13:39:27.956Z</time></trkpt><trkpt lat="39.3581101" lon="17.1053003"><ele>23.666666666666668</ele><time>2026-03-22T13:39:28.956Z</time></trkpt><trkpt lat="39.3580878" lon="17.1050868"><ele>24.0</ele><time>2026-03-22T13:39:29.956Z</time></trkpt><trkpt lat="39.3580677" lon="17.1048809"><ele>24.333333333333336</ele><time>2026-03-22T13:39:30.956Z</time></trkpt><trkpt lat="39.3580535" lon="17.1046661"><ele>24.666666666666668</ele><time>2026-03-22T13:39:31.956Z</time></trkpt><trkpt lat="39.3580433" lon="17.1044503"><ele>25.0</ele><time>2026-03-22T13:39:32.956Z</time></trkpt><trkpt lat="39.3580317" lon="17.1042328"><ele>24.333333333333336</ele><time>2026-03-22T13:39:33.956Z</time></trkpt><trkpt lat="39.3580175" lon="17.1040065"><ele>23.666666666666668</ele><time>2026-03-22T13:39:34.955Z</time></trkpt><trkpt lat="39.3580054" lon="17.1037783"><ele>23.0</ele><time>2026-03-22T13:39:35.954Z</time></trkpt><trkpt lat="39.3579886" lon="17.1035512"><ele>23.0</ele><time>2026-03-22T13:39:36.956Z</time></trkpt><trkpt lat="39.3579666" lon="17.1033296"><ele>23.0</ele><time>2026-03-22T13:39:37.955Z</time></trkpt><trkpt lat="39.3579359" lon="17.1031132"><ele>23.0</ele><time>2026-03-22T13:39:38.956Z</time></trkpt><trkpt lat="39.3579051" lon="17.1028989"><ele>22.666666666666668</ele><time>2026-03-22T13:39:39.956Z</time></trkpt><trkpt lat="39.3578761" lon="17.1026808"><ele>22.333333333333332</ele><time>2026-03-22T13:39:40.956Z</time></trkpt><trkpt lat="39.3578464" lon="17.1024576"><ele>22.0</ele><time>2026-03-22T13:39:41.956Z</time></trkpt><trkpt lat="39.3578145" lon="17.1022319"><ele>22.0</ele><time>2026-03-22T13:39:42.956Z</time></trkpt><trkpt lat="39.3577823" lon="17.1020046"><ele>22.0</ele><time>2026-03-22T13:39:43.956Z</time></trkpt><trkpt lat="39.3577492" lon="17.101777"><ele>22.0</ele><time>2026-03-22T13:39:44.956Z</time></trkpt><trkpt lat="39.3577174" lon="17.1015454"><ele>21.666666666666664</ele><time>2026-03-22T13:39:45.956Z</time></trkpt><trkpt lat="39.3576857" lon="17.1013151"><ele>21.333333333333332</ele><time>2026-03-22T13:39:46.955Z</time></trkpt><trkpt lat="39.3576485" lon="17.1010887"><ele>21.0</ele><time>2026-03-22T13:39:47.955Z</time></trkpt><trkpt lat="39.3576133" lon="17.100868"><ele>22.0</ele><time>2026-03-22T13:39:48.955Z</time></trkpt><trkpt lat="39.3575713" lon="17.1006534"><ele>23.0</ele><time>2026-03-22T13:39:49.956Z</time></trkpt><trkpt lat="39.357525" lon="17.1004473"><ele>24.0</ele><time>2026-03-22T13:39:50.956Z</time></trkpt><trkpt lat="39.3574752" lon="17.1002297"><ele>24.0</ele><time>2026-03-22T13:39:51.955Z</time></trkpt><trkpt lat="39.3574297" lon="17.1000163"><ele>24.0</ele><time>2026-03-22T13:39:52.956Z</time></trkpt><trkpt lat="39.3573904" lon="17.0998064"><ele>24.0</ele><time>2026-03-22T13:39:53.956Z</time></trkpt><trkpt lat="39.3573638" lon="17.0995951"><ele>25.333333333333336</ele><time>2026-03-22T13:39:54.955Z</time></trkpt><trkpt lat="39.3573407" lon="17.0993843"><ele>26.666666666666668</ele><time>2026-03-22T13:39:55.955Z</time></trkpt><trkpt lat="39.3573295" lon="17.0991772"><ele>28.0</ele><time>2026-03-22T13:39:56.955Z</time></trkpt><trkpt lat="39.3573244" lon="17.0989744"><ele>28.0</ele><time>2026-03-22T13:39:57.955Z</time></trkpt><trkpt lat="39.357302" lon="17.0987805"><ele>28.0</ele><time>2026-03-22T13:39:58.954Z</time></trkpt><trkpt lat="39.3572498" lon="17.0985959"><ele>28.0</ele><time>2026-03-22T13:39:59.954Z</time></trkpt><trkpt lat="39.3571572" lon="17.098422"><ele>27.0</ele><time>2026-03-22T13:40:00.955Z</time></trkpt><trkpt lat="39.3570465" lon="17.0982625"><ele>26.0</ele><time>2026-03-22T13:40:01.955Z</time></trkpt><trkpt lat="39.3569194" lon="17.098106"><ele>25.0</ele><time>2026-03-22T13:40:02.955Z</time></trkpt><trkpt lat="39.3567867" lon="17.0979523"><ele>25.0</ele><time>2026-03-22T13:40:03.954Z</time></trkpt><trkpt lat="39.3566514" lon="17.0977993"><ele>25.0</ele><time>2026-03-22T13:40:04.955Z</time></trkpt><trkpt lat="39.356516" lon="17.0976416"><ele>25.0</ele><time>2026-03-22T13:40:05.955Z</time></trkpt><trkpt lat="39.3563792" lon="17.0974813"><ele>24.333333333333336</ele><time>2026-03-22T13:40:06.955Z</time></trkpt><trkpt lat="39.3562429" lon="17.0973209"><ele>23.666666666666668</ele><time>2026-03-22T13:40:07.955Z</time></trkpt><trkpt lat="39.3561014" lon="17.0971563"><ele>23.0</ele><time>2026-03-22T13:40:08.954Z</time></trkpt><trkpt lat="39.3559486" lon="17.0969942"><ele>23.0</ele><time>2026-03-22T13:40:09.955Z</time></trkpt><trkpt lat="39.3557714" lon="17.0968353"><ele>23.0</ele><time>2026-03-22T13:40:10.955Z</time></trkpt><trkpt lat="39.3555653" lon="17.096679"><ele>21.0</ele><time>2026-03-22T13:40:11.955Z</time></trkpt><trkpt lat="39.3553444" lon="17.0965086"><ele>19.0</ele><time>2026-03-22T13:40:12.955Z</time></trkpt><trkpt lat="39.3551092" lon="17.096327"><ele>19.0</ele><time>2026-03-22T13:40:13.955Z</time></trkpt><trkpt lat="39.3548593" lon="17.0961451"><ele>19.0</ele><time>2026-03-22T13:40:14.955Z</time></trkpt><trkpt lat="39.354596" lon="17.0959546"><ele>17.0</ele><time>2026-03-22T13:40:15.955Z</time></trkpt><trkpt lat="39.3543259" lon="17.0957574"><ele>15.0</ele><time>2026-03-22T13:40:16.955Z</time></trkpt><trkpt lat="39.3540595" lon="17.0955462"><ele>15.0</ele><time>2026-03-22T13:40:17.955Z</time></trkpt><trkpt lat="39.3538254" lon="17.0953651"><ele>15.0</ele><time>2026-03-22T13:40:18.955Z</time></trkpt><trkpt lat="39.3536276" lon="17.0952074"><ele>15.0</ele><time>2026-03-22T13:40:19.955Z</time></trkpt><trkpt lat="39.3534723" lon="17.0950571"><ele>15.0</ele><time>2026-03-22T13:40:20.953Z</time></trkpt><trkpt lat="39.3533382" lon="17.0948697"><ele>15.0</ele><time>2026-03-22T13:40:21.955Z</time></trkpt><trkpt lat="39.3532269" lon="17.0946616"><ele>15.0</ele><time>2026-03-22T13:40:22.955Z</time></trkpt><trkpt lat="39.3531352" lon="17.0944229"><ele>15.0</ele><time>2026-03-22T13:40:23.955Z</time></trkpt><trkpt lat="39.353046" lon="17.094213"><ele>15.0</ele><time>2026-03-22T13:40:24.955Z</time></trkpt><trkpt lat="39.352964" lon="17.0940143"><ele>15.0</ele><time>2026-03-22T13:40:25.955Z</time></trkpt><trkpt lat="39.3528829" lon="17.0938186"><ele>15.0</ele><time>2026-03-22T13:40:26.953Z</time></trkpt><trkpt lat="39.3528045" lon="17.0936288"><ele>15.0</ele><time>2026-03-22T13:40:27.955Z</time></trkpt><trkpt lat="39.3527228" lon="17.0934349"><ele>15.666666666666668</ele><time>2026-03-22T13:40:28.955Z</time></trkpt><trkpt lat="39.35263" lon="17.0932143"><ele>16.333333333333336</ele><time>2026-03-22T13:40:29.955Z</time></trkpt><trkpt lat="39.3525224" lon="17.0929582"><ele>17.0</ele><time>2026-03-22T13:40:30.955Z</time></trkpt><trkpt lat="39.3524106" lon="17.0926826"><ele>17.0</ele><time>2026-03-22T13:40:31.954Z</time></trkpt><trkpt lat="39.352291" lon="17.0923892"><ele>17.0</ele><time>2026-03-22T13:40:32.955Z</time></trkpt><trkpt lat="39.3521655" lon="17.0920867"><ele>17.0</ele><time>2026-03-22T13:40:33.954Z</time></trkpt><trkpt lat="39.3520503" lon="17.0918138"><ele>17.0</ele><time>2026-03-22T13:40:34.955Z</time></trkpt><trkpt lat="39.3519441" lon="17.0915658"><ele>17.666666666666668</ele><time>2026-03-22T13:40:35.955Z</time></trkpt><trkpt lat="39.3518477" lon="17.091334"><ele>18.333333333333332</ele><time>2026-03-22T13:40:36.955Z</time></trkpt><trkpt lat="39.351764" lon="17.0911233"><ele>19.0</ele><time>2026-03-22T13:40:37.954Z</time></trkpt><trkpt lat="39.3516855" lon="17.0909273"><ele>19.666666666666664</ele><time>2026-03-22T13:40:38.955Z</time></trkpt><trkpt lat="39.351609" lon="17.0907426"><ele>20.333333333333332</ele><time>2026-03-22T13:40:39.955Z</time></trkpt><trkpt lat="39.3515364" lon="17.0905594"><ele>21.0</ele><time>2026-03-22T13:40:40.955Z</time></trkpt><trkpt lat="39.3514629" lon="17.0903739"><ele>21.0</ele><time>2026-03-22T13:40:41.955Z</time></trkpt><trkpt lat="39.3513894" lon="17.0901933"><ele>21.0</ele><time>2026-03-22T13:40:42.955Z</time></trkpt><trkpt lat="39.351315" lon="17.0900141"><ele>21.0</ele><time>2026-03-22T13:40:43.954Z</time></trkpt><trkpt lat="39.3512415" lon="17.0898334"><ele>19.666666666666668</ele><time>2026-03-22T13:40:44.955Z</time></trkpt><trkpt lat="39.3511665" lon="17.08965"><ele>18.333333333333336</ele><time>2026-03-22T13:40:45.955Z</time></trkpt><trkpt lat="39.3510845" lon="17.0894431"><ele>17.0</ele><time>2026-03-22T13:40:46.955Z</time></trkpt><trkpt lat="39.350985" lon="17.0891957"><ele>17.333333333333336</ele><time>2026-03-22T13:40:47.955Z</time></trkpt><trkpt lat="39.3508945" lon="17.0889618"><ele>17.666666666666668</ele><time>2026-03-22T13:40:48.955Z</time></trkpt><trkpt lat="39.3508057" lon="17.0887383"><ele>18.0</ele><time>2026-03-22T13:40:49.954Z</time></trkpt><trkpt lat="39.3507206" lon="17.0885246"><ele>18.0</ele><time>2026-03-22T13:40:50.955Z</time></trkpt><trkpt lat="39.3506374" lon="17.0883149"><ele>18.0</ele><time>2026-03-22T13:40:51.954Z</time></trkpt><trkpt lat="39.3505555" lon="17.0881092"><ele>18.0</ele><time>2026-03-22T13:40:52.954Z</time></trkpt><trkpt lat="39.3504753" lon="17.0879014"><ele>18.333333333333332</ele><time>2026-03-22T13:40:53.955Z</time></trkpt><trkpt lat="39.3503969" lon="17.0876888"><ele>18.666666666666664</ele><time>2026-03-22T13:40:54.954Z</time></trkpt><trkpt lat="39.3503198" lon="17.0874779"><ele>19.0</ele><time>2026-03-22T13:40:55.955Z</time></trkpt><trkpt lat="39.3502407" lon="17.087269"><ele>19.0</ele><time>2026-03-22T13:40:56.955Z</time></trkpt><trkpt lat="39.3501623" lon="17.0870654"><ele>19.0</ele><time>2026-03-22T13:40:57.955Z</time></trkpt><trkpt lat="39.3500872" lon="17.0868573"><ele>19.0</ele><time>2026-03-22T13:40:58.955Z</time></trkpt><trkpt lat="39.3500108" lon="17.0865981"><ele>19.0</ele><time>2026-03-22T13:40:59.954Z</time></trkpt><trkpt lat="39.3499392" lon="17.0863148"><ele>19.0</ele><time>2026-03-22T13:41:00.954Z</time></trkpt><trkpt lat="39.3498639" lon="17.0860094"><ele>18.5</ele><time>2026-03-22T13:41:01.955Z</time></trkpt><trkpt lat="39.3497785" lon="17.0856901"><ele>18.0</ele><time>2026-03-22T13:41:02.955Z</time></trkpt><trkpt lat="39.3496985" lon="17.0854156"><ele>18.0</ele><time>2026-03-22T13:41:03.955Z</time></trkpt><trkpt lat="39.3496073" lon="17.08517"><ele>18.0</ele><time>2026-03-22T13:41:04.955Z</time></trkpt><trkpt lat="39.3495034" lon="17.0849621"><ele>18.0</ele><time>2026-03-22T13:41:05.955Z</time></trkpt><trkpt lat="39.3493933" lon="17.0847885"><ele>19.333333333333332</ele><time>2026-03-22T13:41:06.954Z</time></trkpt><trkpt lat="39.3492903" lon="17.0846257"><ele>20.666666666666664</ele><time>2026-03-22T13:41:07.955Z</time></trkpt><trkpt lat="39.3491895" lon="17.0844733"><ele>22.0</ele><time>2026-03-22T13:41:08.955Z</time></trkpt><trkpt lat="39.3490896" lon="17.0843219"><ele>22.0</ele><time>2026-03-22T13:41:09.955Z</time></trkpt><trkpt lat="39.3489875" lon="17.0841664"><ele>22.0</ele><time>2026-03-22T13:41:10.954Z</time></trkpt><trkpt lat="39.3488685" lon="17.0839795"><ele>22.0</ele><time>2026-03-22T13:41:11.955Z</time></trkpt><trkpt lat="39.3487318" lon="17.0837573"><ele>21.333333333333332</ele><time>2026-03-22T13:41:12.955Z</time></trkpt><trkpt lat="39.3485912" lon="17.083528"><ele>20.666666666666668</ele><time>2026-03-22T13:41:13.954Z</time></trkpt><trkpt lat="39.3484614" lon="17.0833208"><ele>20.0</ele><time>2026-03-22T13:41:14.954Z</time></trkpt><trkpt lat="39.3483412" lon="17.0831279"><ele>20.666666666666668</ele><time>2026-03-22T13:41:15.954Z</time></trkpt><trkpt lat="39.3482248" lon="17.0829417"><ele>21.333333333333332</ele><time>2026-03-22T13:41:16.955Z</time></trkpt><trkpt lat="39.3481109" lon="17.0827602"><ele>22.0</ele><time>2026-03-22T13:41:17.955Z</time></trkpt><trkpt lat="39.3479958" lon="17.082582"><ele>23.666666666666664</ele><time>2026-03-22T13:41:18.955Z</time></trkpt><trkpt lat="39.3478792" lon="17.0823981"><ele>25.333333333333332</ele><time>2026-03-22T13:41:19.955Z</time></trkpt><trkpt lat="39.3477654" lon="17.0822194"><ele>27.0</ele><time>2026-03-22T13:41:20.955Z</time></trkpt><trkpt lat="39.3476536" lon="17.082042"><ele>27.0</ele><time>2026-03-22T13:41:21.955Z</time></trkpt><trkpt lat="39.3475503" lon="17.0818688"><ele>27.0</ele><time>2026-03-22T13:41:22.955Z</time></trkpt><trkpt lat="39.3474456" lon="17.0816969"><ele>27.0</ele><time>2026-03-22T13:41:23.955Z</time></trkpt><trkpt lat="39.3473404" lon="17.0815284"><ele>26.0</ele><time>2026-03-22T13:41:24.954Z</time></trkpt><trkpt lat="39.3472395" lon="17.0813677"><ele>25.0</ele><time>2026-03-22T13:41:25.955Z</time></trkpt><trkpt lat="39.3471426" lon="17.0812125"><ele>24.0</ele><time>2026-03-22T13:41:26.955Z</time></trkpt><trkpt lat="39.3470531" lon="17.0810557"><ele>24.0</ele><time>2026-03-22T13:41:27.953Z</time></trkpt><trkpt lat="39.3469751" lon="17.0809005"><ele>24.0</ele><time>2026-03-22T13:41:28.955Z</time></trkpt><trkpt lat="39.3469119" lon="17.0807293"><ele>24.0</ele><time>2026-03-22T13:41:29.955Z</time></trkpt><trkpt lat="39.3468715" lon="17.0805425"><ele>24.0</ele><time>2026-03-22T13:41:30.955Z</time></trkpt><trkpt lat="39.3468609" lon="17.0803718"><ele>24.75</ele><time>2026-03-22T13:41:31.954Z</time></trkpt><trkpt lat="39.3468671" lon="17.0802066"><ele>25.5</ele><time>2026-03-22T13:41:32.955Z</time></trkpt><trkpt lat="39.3468834" lon="17.0800427"><ele>26.25</ele><time>2026-03-22T13:41:33.955Z</time></trkpt><trkpt lat="39.3469041" lon="17.0798857"><ele>27.0</ele><time>2026-03-22T13:41:34.954Z</time></trkpt><trkpt lat="39.3469278" lon="17.0797019"><ele>27.0</ele><time>2026-03-22T13:41:35.955Z</time></trkpt><trkpt lat="39.3469477" lon="17.0795292"><ele>27.0</ele><time>2026-03-22T13:41:36.954Z</time></trkpt><trkpt lat="39.3469704" lon="17.0793485"><ele>27.0</ele><time>2026-03-22T13:41:37.955Z</time></trkpt><trkpt lat="39.3469891" lon="17.0791713"><ele>27.0</ele><time>2026-03-22T13:41:38.955Z</time></trkpt><trkpt lat="39.3470029" lon="17.0790058"><ele>27.25</ele><time>2026-03-22T13:41:39.954Z</time></trkpt><trkpt lat="39.3470137" lon="17.0788391"><ele>27.5</ele><time>2026-03-22T13:41:40.955Z</time></trkpt><trkpt lat="39.3470196" lon="17.0786685"><ele>27.75</ele><time>2026-03-22T13:41:41.955Z</time></trkpt><trkpt lat="39.3470177" lon="17.078491"><ele>28.0</ele><time>2026-03-22T13:41:42.955Z</time></trkpt><trkpt lat="39.3470204" lon="17.0783153"><ele>28.0</ele><time>2026-03-22T13:41:43.955Z</time></trkpt><trkpt lat="39.3470374" lon="17.0781486"><ele>28.0</ele><time>2026-03-22T13:41:44.955Z</time></trkpt><trkpt lat="39.3470642" lon="17.0779931"><ele>28.0</ele><time>2026-03-22T13:41:45.954Z</time></trkpt><trkpt lat="39.3470908" lon="17.0778487"><ele>28.0</ele><time>2026-03-22T13:41:46.955Z</time></trkpt><trkpt lat="39.3471023" lon="17.077705"><ele>28.0</ele><time>2026-03-22T13:41:47.955Z</time></trkpt><trkpt lat="39.3470877" lon="17.0775629"><ele>28.0</ele><time>2026-03-22T13:41:48.955Z</time></trkpt><trkpt lat="39.3470437" lon="17.0774298"><ele>28.0</ele><time>2026-03-22T13:41:49.955Z</time></trkpt><trkpt lat="39.3469847" lon="17.0773029"><ele>28.0</ele><time>2026-03-22T13:41:50.954Z</time></trkpt><trkpt lat="39.3469171" lon="17.0771766"><ele>28.0</ele><time>2026-03-22T13:41:51.955Z</time></trkpt><trkpt lat="39.3468406" lon="17.077047"><ele>28.0</ele><time>2026-03-22T13:41:52.955Z</time></trkpt><trkpt lat="39.3467556" lon="17.0769119"><ele>28.0</ele><time>2026-03-22T13:41:53.954Z</time></trkpt><trkpt lat="39.3466712" lon="17.076772"><ele>28.0</ele><time>2026-03-22T13:41:54.955Z</time></trkpt><trkpt lat="39.3465929" lon="17.0766212"><ele>27.5</ele><time>2026-03-22T13:41:55.955Z</time></trkpt><trkpt lat="39.3465139" lon="17.0764539"><ele>27.0</ele><time>2026-03-22T13:41:56.955Z</time></trkpt><trkpt lat="39.3464491" lon="17.0763033"><ele>26.5</ele><time>2026-03-22T13:41:57.955Z</time></trkpt><trkpt lat="39.3463791" lon="17.0761298"><ele>26.0</ele><time>2026-03-22T13:41:58.955Z</time></trkpt><trkpt lat="39.3463088" lon="17.075949"><ele>25.75</ele><time>2026-03-22T13:41:59.953Z</time></trkpt><trkpt lat="39.3462586" lon="17.0757817"><ele>25.5</ele><time>2026-03-22T13:42:00.955Z</time></trkpt><trkpt lat="39.3462155" lon="17.0756162"><ele>25.25</ele><time>2026-03-22T13:42:01.955Z</time></trkpt><trkpt lat="39.3461812" lon="17.0754474"><ele>25.0</ele><time>2026-03-22T13:42:02.955Z</time></trkpt><trkpt lat="39.3461517" lon="17.0752788"><ele>25.5</ele><time>2026-03-22T13:42:03.955Z</time></trkpt><trkpt lat="39.3461226" lon="17.0750941"><ele>26.0</ele><time>2026-03-22T13:42:04.955Z</time></trkpt><trkpt lat="39.346096" lon="17.0749116"><ele>26.5</ele><time>2026-03-22T13:42:05.954Z</time></trkpt><trkpt lat="39.3460676" lon="17.074728"><ele>27.0</ele><time>2026-03-22T13:42:06.954Z</time></trkpt><trkpt lat="39.3460389" lon="17.0745463"><ele>27.0</ele><time>2026-03-22T13:42:07.955Z</time></trkpt><trkpt lat="39.3460138" lon="17.0743688"><ele>27.0</ele><time>2026-03-22T13:42:08.955Z</time></trkpt><trkpt lat="39.3459884" lon="17.0741916"><ele>27.0</ele><time>2026-03-22T13:42:09.955Z</time></trkpt><trkpt lat="39.3459631" lon="17.0740143"><ele>27.0</ele><time>2026-03-22T13:42:10.955Z</time></trkpt><trkpt lat="39.3459368" lon="17.0738357"><ele>27.0</ele><time>2026-03-22T13:42:11.954Z</time></trkpt><trkpt lat="39.3459052" lon="17.0736517"><ele>27.0</ele><time>2026-03-22T13:42:12.954Z</time></trkpt><trkpt lat="39.3458747" lon="17.0734665"><ele>27.0</ele><time>2026-03-22T13:42:13.955Z</time></trkpt><trkpt lat="39.3458405" lon="17.0732671"><ele>27.5</ele><time>2026-03-22T13:42:14.955Z</time></trkpt><trkpt lat="39.3458118" lon="17.0730837"><ele>28.0</ele><time>2026-03-22T13:42:15.953Z</time></trkpt><trkpt lat="39.3457841" lon="17.0728949"><ele>28.5</ele><time>2026-03-22T13:42:16.954Z</time></trkpt><trkpt lat="39.345758" lon="17.0727169"><ele>29.0</ele><time>2026-03-22T13:42:17.955Z</time></trkpt><trkpt lat="39.3457316" lon="17.0725423"><ele>29.25</ele><time>2026-03-22T13:42:18.955Z</time></trkpt><trkpt lat="39.3457048" lon="17.0723685"><ele>29.5</ele><time>2026-03-22T13:42:19.955Z</time></trkpt><trkpt lat="39.3456799" lon="17.0721977"><ele>29.75</ele><time>2026-03-22T13:42:20.954Z</time></trkpt><trkpt lat="39.3456548" lon="17.0720354"><ele>30.0</ele><time>2026-03-22T13:42:21.955Z</time></trkpt><trkpt lat="39.3456338" lon="17.0718848"><ele>30.0</ele><time>2026-03-22T13:42:22.955Z</time></trkpt><trkpt lat="39.3456114" lon="17.0717425"><ele>30.0</ele><time>2026-03-22T13:42:23.955Z</time></trkpt><trkpt lat="39.3455917" lon="17.0716047"><ele>30.0</ele><time>2026-03-22T13:42:24.954Z</time></trkpt><trkpt lat="39.3455748" lon="17.0714694"><ele>30.0</ele><time>2026-03-22T13:42:25.954Z</time></trkpt><trkpt lat="39.3455539" lon="17.0713517"><ele>30.0</ele><time>2026-03-22T13:42:26.954Z</time></trkpt><trkpt lat="39.3455273" lon="17.071245"><ele>31.4</ele><time>2026-03-22T13:42:27.955Z</time></trkpt><trkpt lat="39.3454845" lon="17.0711557"><ele>32.8</ele><time>2026-03-22T13:42:28.955Z</time></trkpt><trkpt lat="39.3454122" lon="17.0711007"><ele>34.2</ele><time>2026-03-22T13:42:29.955Z</time></trkpt><trkpt lat="39.3452916" lon="17.0710795"><ele>35.6</ele><time>2026-03-22T13:42:30.955Z</time></trkpt><trkpt lat="39.3451349" lon="17.0710541"><ele>37.0</ele><time>2026-03-22T13:42:31.955Z</time></trkpt><trkpt lat="39.3449571" lon="17.0710107"><ele>37.0</ele><time>2026-03-22T13:42:32.955Z</time></trkpt><trkpt lat="39.3447983" lon="17.0709742"><ele>37.0</ele><time>2026-03-22T13:42:33.954Z</time></trkpt><trkpt lat="39.3446402" lon="17.0709242"><ele>37.0</ele><time>2026-03-22T13:42:34.955Z</time></trkpt><trkpt lat="39.3444906" lon="17.0708502"><ele>39.333333333333336</ele><time>2026-03-22T13:42:35.955Z</time></trkpt><trkpt lat="39.3443481" lon="17.0707543"><ele>41.666666666666664</ele><time>2026-03-22T13:42:36.955Z</time></trkpt><trkpt lat="39.3442142" lon="17.0706371"><ele>44.0</ele><time>2026-03-22T13:42:37.955Z</time></trkpt><trkpt lat="39.3440865" lon="17.0705127"><ele>44.0</ele><time>2026-03-22T13:42:38.955Z</time></trkpt><trkpt lat="39.3439588" lon="17.0703825"><ele>44.0</ele><time>2026-03-22T13:42:39.955Z</time></trkpt><trkpt lat="39.3438316" lon="17.0702482"><ele>44.0</ele><time>2026-03-22T13:42:40.955Z</time></trkpt><trkpt lat="39.3437045" lon="17.0701158"><ele>44.0</ele><time>2026-03-22T13:42:41.954Z</time></trkpt><trkpt lat="39.3435763" lon="17.0699808"><ele>44.0</ele><time>2026-03-22T13:42:42.955Z</time></trkpt><trkpt lat="39.3434363" lon="17.069832"><ele>44.0</ele><time>2026-03-22T13:42:43.955Z</time></trkpt><trkpt lat="39.3433081" lon="17.0696866"><ele>44.0</ele><time>2026-03-22T13:42:44.955Z</time></trkpt><trkpt lat="39.3431964" lon="17.0695419"><ele>44.0</ele><time>2026-03-22T13:42:45.955Z</time></trkpt><trkpt lat="39.3430865" lon="17.0693898"><ele>44.0</ele><time>2026-03-22T13:42:46.955Z</time></trkpt><trkpt lat="39.3429819" lon="17.0692273"><ele>44.33333333333333</ele><time>2026-03-22T13:42:47.955Z</time></trkpt><trkpt lat="39.342875" lon="17.0690648"><ele>44.666666666666664</ele><time>2026-03-22T13:42:48.953Z</time></trkpt><trkpt lat="39.3427658" lon="17.0689257"><ele>45.0</ele><time>2026-03-22T13:42:49.954Z</time></trkpt><trkpt lat="39.3426508" lon="17.0687961"><ele>45.0</ele><time>2026-03-22T13:42:50.955Z</time></trkpt><trkpt lat="39.342537" lon="17.0686825"><ele>45.0</ele><time>2026-03-22T13:42:51.954Z</time></trkpt><trkpt lat="39.3424328" lon="17.0685836"><ele>45.0</ele><time>2026-03-22T13:42:52.955Z</time></trkpt><trkpt lat="39.3423328" lon="17.068496"><ele>45.0</ele><time>2026-03-22T13:42:53.955Z</time></trkpt><trkpt lat="39.3422344" lon="17.0684176"><ele>43.25</ele><time>2026-03-22T13:42:54.954Z</time></trkpt><trkpt lat="39.3421321" lon="17.0683496"><ele>41.5</ele><time>2026-03-22T13:42:55.955Z</time></trkpt><trkpt lat="39.3420199" lon="17.068308"><ele>39.75</ele><time>2026-03-22T13:42:56.955Z</time></trkpt><trkpt lat="39.3418989" lon="17.0682887"><ele>38.0</ele><time>2026-03-22T13:42:57.955Z</time></trkpt><trkpt lat="39.3417749" lon="17.0682802"><ele>38.25</ele><time>2026-03-22T13:42:58.955Z</time></trkpt><trkpt lat="39.3416487" lon="17.0682712"><ele>38.5</ele><time>2026-03-22T13:42:59.955Z</time></trkpt><trkpt lat="39.3415169" lon="17.0682462"><ele>38.75</ele><time>2026-03-22T13:43:00.955Z</time></trkpt><trkpt lat="39.3413856" lon="17.0681916"><ele>39.0</ele><time>2026-03-22T13:43:01.955Z</time></trkpt><trkpt lat="39.3412756" lon="17.0680906"><ele>39.0</ele><time>2026-03-22T13:43:02.955Z</time></trkpt><trkpt lat="39.3411954" lon="17.0679367"><ele>39.0</ele><time>2026-03-22T13:43:03.955Z</time></trkpt><trkpt lat="39.3411384" lon="17.0677597"><ele>39.0</ele><time>2026-03-22T13:43:04.953Z</time></trkpt><trkpt lat="39.3410855" lon="17.0675654"><ele>39.25</ele><time>2026-03-22T13:43:05.954Z</time></trkpt><trkpt lat="39.3410357" lon="17.06738"><ele>39.5</ele><time>2026-03-22T13:43:06.954Z</time></trkpt><trkpt lat="39.340991" lon="17.0671964"><ele>39.75</ele><time>2026-03-22T13:43:07.955Z</time></trkpt><trkpt lat="39.3409498" lon="17.0670164"><ele>40.0</ele><time>2026-03-22T13:43:08.955Z</time></trkpt><trkpt lat="39.3409077" lon="17.0668369"><ele>40.0</ele><time>2026-03-22T13:43:09.955Z</time></trkpt><trkpt lat="39.3408723" lon="17.0666583"><ele>40.0</ele><time>2026-03-22T13:43:10.955Z</time></trkpt><trkpt lat="39.3408529" lon="17.0664811"><ele>40.0</ele><time>2026-03-22T13:43:11.955Z</time></trkpt><trkpt lat="39.3408579" lon="17.0662991"><ele>40.0</ele><time>2026-03-22T13:43:12.955Z</time></trkpt><trkpt lat="39.3408873" lon="17.0661109"><ele>41.333333333333336</ele><time>2026-03-22T13:43:13.955Z</time></trkpt><trkpt lat="39.3409189" lon="17.0659234"><ele>42.666666666666664</ele><time>2026-03-22T13:43:14.955Z</time></trkpt><trkpt lat="39.340935" lon="17.0657277"><ele>44.0</ele><time>2026-03-22T13:43:15.955Z</time></trkpt><trkpt lat="39.3409326" lon="17.0655317"><ele>45.0</ele><time>2026-03-22T13:43:16.955Z</time></trkpt><trkpt lat="39.3409212" lon="17.0653422"><ele>46.0</ele><time>2026-03-22T13:43:17.954Z</time></trkpt><trkpt lat="39.3409085" lon="17.0651681"><ele>47.0</ele><time>2026-03-22T13:43:18.955Z</time></trkpt><trkpt lat="39.3408768" lon="17.0650021"><ele>48.0</ele><time>2026-03-22T13:43:19.954Z</time></trkpt><trkpt lat="39.3408204" lon="17.0648507"><ele>48.5</ele><time>2026-03-22T13:43:20.955Z</time></trkpt><trkpt lat="39.3407491" lon="17.0647126"><ele>49.0</ele><time>2026-03-22T13:43:21.955Z</time></trkpt><trkpt lat="39.3406674" lon="17.0645816"><ele>49.5</ele><time>2026-03-22T13:43:22.953Z</time></trkpt><trkpt lat="39.3405861" lon="17.0644472"><ele>50.0</ele><time>2026-03-22T13:43:23.955Z</time></trkpt><trkpt lat="39.3405052" lon="17.0643082"><ele>47.25</ele><time>2026-03-22T13:43:24.955Z</time></trkpt><trkpt lat="39.3404283" lon="17.0641669"><ele>44.5</ele><time>2026-03-22T13:43:25.954Z</time></trkpt><trkpt lat="39.3403559" lon="17.0640224"><ele>41.75</ele><time>2026-03-22T13:43:26.955Z</time></trkpt><trkpt lat="39.3402867" lon="17.0638649"><ele>39.0</ele><time>2026-03-22T13:43:27.954Z</time></trkpt><trkpt lat="39.3402266" lon="17.0636972"><ele>39.0</ele><time>2026-03-22T13:43:28.955Z</time></trkpt><trkpt lat="39.3401728" lon="17.0635253"><ele>39.0</ele><time>2026-03-22T13:43:29.955Z</time></trkpt><trkpt lat="39.3401198" lon="17.0633543"><ele>39.0</ele><time>2026-03-22T13:43:30.954Z</time></trkpt><trkpt lat="39.3400659" lon="17.0631796"><ele>39.0</ele><time>2026-03-22T13:43:31.955Z</time></trkpt><trkpt lat="39.340009" lon="17.0630048"><ele>41.0</ele><time>2026-03-22T13:43:32.955Z</time></trkpt><trkpt lat="39.339954" lon="17.062822"><ele>43.0</ele><time>2026-03-22T13:43:33.954Z</time></trkpt><trkpt lat="39.3399067" lon="17.062638"><ele>45.0</ele><time>2026-03-22T13:43:34.955Z</time></trkpt><trkpt lat="39.339874" lon="17.062449"><ele>46.33333333333333</ele><time>2026-03-22T13:43:35.953Z</time></trkpt><trkpt lat="39.3398544" lon="17.0622569"><ele>47.666666666666664</ele><time>2026-03-22T13:43:36.955Z</time></trkpt><trkpt lat="39.3398428" lon="17.0620602"><ele>49.0</ele><time>2026-03-22T13:43:37.954Z</time></trkpt><trkpt lat="39.3398363" lon="17.0618618"><ele>49.0</ele><time>2026-03-22T13:43:38.954Z</time></trkpt><trkpt lat="39.3398282" lon="17.0616601"><ele>49.0</ele><time>2026-03-22T13:43:39.955Z</time></trkpt><trkpt lat="39.3398192" lon="17.0614563"><ele>49.0</ele><time>2026-03-22T13:43:40.955Z</time></trkpt><trkpt lat="39.3398061" lon="17.0612608"><ele>49.0</ele><time>2026-03-22T13:43:41.955Z</time></trkpt><trkpt lat="39.3397929" lon="17.0610703"><ele>49.0</ele><time>2026-03-22T13:43:42.955Z</time></trkpt><trkpt lat="39.3397793" lon="17.0608842"><ele>49.0</ele><time>2026-03-22T13:43:43.955Z</time></trkpt><trkpt lat="39.339763" lon="17.0607013"><ele>49.0</ele><time>2026-03-22T13:43:44.954Z</time></trkpt><trkpt lat="39.339736" lon="17.0605212"><ele>47.0</ele><time>2026-03-22T13:43:45.955Z</time></trkpt><trkpt lat="39.3396993" lon="17.0603435"><ele>45.0</ele><time>2026-03-22T13:43:46.955Z</time></trkpt><trkpt lat="39.3396519" lon="17.0601635"><ele>43.0</ele><time>2026-03-22T13:43:47.955Z</time></trkpt><trkpt lat="39.3396018" lon="17.0599881"><ele>41.0</ele><time>2026-03-22T13:43:48.955Z</time></trkpt><trkpt lat="39.3395503" lon="17.0598154"><ele>41.0</ele><time>2026-03-22T13:43:49.955Z</time></trkpt><trkpt lat="39.3394983" lon="17.059646"><ele>41.0</ele><time>2026-03-22T13:43:50.954Z</time></trkpt><trkpt lat="39.3394473" lon="17.0594772"><ele>41.0</ele><time>2026-03-22T13:43:51.955Z</time></trkpt><trkpt lat="39.3393922" lon="17.0593101"><ele>41.0</ele><time>2026-03-22T13:43:52.955Z</time></trkpt><trkpt lat="39.3393348" lon="17.0591395"><ele>41.33333333333333</ele><time>2026-03-22T13:43:53.955Z</time></trkpt><trkpt lat="39.3392791" lon="17.0589554"><ele>41.666666666666664</ele><time>2026-03-22T13:43:54.955Z</time></trkpt><trkpt lat="39.3392248" lon="17.0587671"><ele>42.0</ele><time>2026-03-22T13:43:55.953Z</time></trkpt><trkpt lat="39.3391682" lon="17.0585812"><ele>42.0</ele><time>2026-03-22T13:43:56.955Z</time></trkpt><trkpt lat="39.3391152" lon="17.0584016"><ele>42.0</ele><time>2026-03-22T13:43:57.955Z</time></trkpt><trkpt lat="39.3390743" lon="17.0582331"><ele>42.0</ele><time>2026-03-22T13:43:58.955Z</time></trkpt><trkpt lat="39.3390455" lon="17.0580642"><ele>42.0</ele><time>2026-03-22T13:43:59.955Z</time></trkpt><trkpt lat="39.3390341" lon="17.0579074"><ele>42.333333333333336</ele><time>2026-03-22T13:44:00.955Z</time></trkpt><trkpt lat="39.339039" lon="17.0577683"><ele>42.666666666666664</ele><time>2026-03-22T13:44:01.955Z</time></trkpt><trkpt lat="39.3390399" lon="17.0576575"><ele>43.0</ele><time>2026-03-22T13:44:02.955Z</time></trkpt><trkpt lat="39.3390063" lon="17.0575764"><ele>43.33333333333333</ele><time>2026-03-22T13:44:03.955Z</time></trkpt><trkpt lat="39.3389389" lon="17.0575698"><ele>43.666666666666664</ele><time>2026-03-22T13:44:05.955Z</time></trkpt><trkpt lat="39.3388758" lon="17.0575995"><ele>44.0</ele><time>2026-03-22T13:44:08.955Z</time></trkpt><trkpt lat="39.3387835" lon="17.0577035"><ele>42.83333333333333</ele><time>2026-03-22T13:44:10.954Z</time></trkpt><trkpt lat="39.3387266" lon="17.057783"><ele>41.666666666666664</ele><time>2026-03-22T13:44:11.955Z</time></trkpt><trkpt lat="39.3386752" lon="17.0578639"><ele>40.5</ele><time>2026-03-22T13:44:12.955Z</time></trkpt><trkpt lat="39.3386192" lon="17.0579503"><ele>39.333333333333336</ele><time>2026-03-22T13:44:13.955Z</time></trkpt><trkpt lat="39.338566" lon="17.058035"><ele>38.16666666666667</ele><time>2026-03-22T13:44:14.954Z</time></trkpt><trkpt lat="39.338521" lon="17.0581017"><ele>37.0</ele><time>2026-03-22T13:44:15.955Z</time></trkpt><trkpt lat="39.3384436" lon="17.0582005"><ele>37.0</ele><time>2026-03-22T13:44:17.955Z</time></trkpt><trkpt lat="39.3383888" lon="17.0582659"><ele>37.0</ele><time>2026-03-22T13:44:20.955Z</time></trkpt><trkpt lat="39.3383415" lon="17.0583387"><ele>37.0</ele><time>2026-03-22T13:44:24.955Z</time></trkpt><trkpt lat="39.3384131" lon="17.0582426"><ele>37.0</ele><time>2026-03-22T13:44:42.955Z</time></trkpt><trkpt lat="39.3384705" lon="17.0581657"><ele>37.0</ele><time>2026-03-22T13:44:43.955Z</time></trkpt><trkpt lat="39.3385358" lon="17.0580772"><ele>37.0</ele><time>2026-03-22T13:44:44.954Z</time></trkpt><trkpt lat="39.3385923" lon="17.0579904"><ele>37.0</ele><time>2026-03-22T13:44:45.955Z</time></trkpt><trkpt lat="39.3386354" lon="17.0579241"><ele>37.0</ele><time>2026-03-22T13:44:46.955Z</time></trkpt><trkpt lat="39.3386817" lon="17.0578298"><ele>37.0</ele><time>2026-03-22T13:44:48.954Z</time></trkpt><trkpt lat="39.3387349" lon="17.0577635"><ele>37.0</ele><time>2026-03-22T13:44:49.955Z</time></trkpt><trkpt lat="39.3387971" lon="17.0576858"><ele>37.0</ele><time>2026-03-22T13:44:50.955Z</time></trkpt><trkpt lat="39.3388661" lon="17.0576112"><ele>37.0</ele><time>2026-03-22T13:44:51.955Z</time></trkpt><trkpt lat="39.338933" lon="17.0575706"><ele>38.0</ele><time>2026-03-22T13:44:52.954Z</time></trkpt><trkpt lat="39.3389964" lon="17.0575518"><ele>39.0</ele><time>2026-03-22T13:44:54.954Z</time></trkpt><trkpt lat="39.3390424" lon="17.0574778"><ele>40.0</ele><time>2026-03-22T13:44:56.954Z</time></trkpt><trkpt lat="39.3390704" lon="17.0573467"><ele>41.0</ele><time>2026-03-22T13:44:57.955Z</time></trkpt><trkpt lat="39.339095" lon="17.0571422"><ele>42.0</ele><time>2026-03-22T13:44:58.955Z</time></trkpt><trkpt lat="39.3390835" lon="17.0569058"><ele>42.0</ele><time>2026-03-22T13:44:59.955Z</time></trkpt><trkpt lat="39.3390365" lon="17.0566442"><ele>42.0</ele><time>2026-03-22T13:45:00.955Z</time></trkpt><trkpt lat="39.338964" lon="17.0563658"><ele>42.0</ele><time>2026-03-22T13:45:01.955Z</time></trkpt><trkpt lat="39.3388796" lon="17.0560713"><ele>41.0</ele><time>2026-03-22T13:45:02.955Z</time></trkpt><trkpt lat="39.3387882" lon="17.0557639"><ele>40.0</ele><time>2026-03-22T13:45:03.954Z</time></trkpt><trkpt lat="39.3387107" lon="17.0554875"><ele>40.0</ele><time>2026-03-22T13:45:04.955Z</time></trkpt><trkpt lat="39.3386432" lon="17.0552335"><ele>40.0</ele><time>2026-03-22T13:45:05.955Z</time></trkpt><trkpt lat="39.3385889" lon="17.0550131"><ele>40.0</ele><time>2026-03-22T13:45:06.954Z</time></trkpt><trkpt lat="39.3385566" lon="17.0548291"><ele>39.833333333333336</ele><time>2026-03-22T13:45:07.955Z</time></trkpt><trkpt lat="39.3385457" lon="17.0546873"><ele>39.66666666666667</ele><time>2026-03-22T13:45:08.954Z</time></trkpt><trkpt lat="39.3385429" lon="17.0545874"><ele>39.5</ele><time>2026-03-22T13:45:09.955Z</time></trkpt><trkpt lat="39.3385173" lon="17.0545001"><ele>39.333333333333336</ele><time>2026-03-22T13:45:10.954Z</time></trkpt><trkpt lat="39.3384819" lon="17.0544194"><ele>39.166666666666664</ele><time>2026-03-22T13:45:11.954Z</time></trkpt><trkpt lat="39.3384362" lon="17.0543231"><ele>39.0</ele><time>2026-03-22T13:45:12.955Z</time></trkpt><trkpt lat="39.3383875" lon="17.0542185"><ele>39.0</ele><time>2026-03-22T13:45:13.954Z</time></trkpt><trkpt lat="39.3383238" lon="17.0541475"><ele>39.0</ele><time>2026-03-22T13:45:14.955Z</time></trkpt><trkpt lat="39.338257" lon="17.0541009"><ele>39.0</ele><time>2026-03-22T13:45:15.955Z</time></trkpt><trkpt lat="39.3381837" lon="17.0540515"><ele>39.0</ele><time>2026-03-22T13:45:16.954Z</time></trkpt><trkpt lat="39.338112" lon="17.0539978"><ele>39.0</ele><time>2026-03-22T13:45:17.955Z</time></trkpt><trkpt lat="39.3380296" lon="17.0539064"><ele>39.0</ele><time>2026-03-22T13:45:18.955Z</time></trkpt><trkpt lat="39.3379648" lon="17.0538087"><ele>39.0</ele><time>2026-03-22T13:45:19.955Z</time></trkpt><trkpt lat="39.3379077" lon="17.0537193"><ele>39.0</ele><time>2026-03-22T13:45:20.955Z</time></trkpt><trkpt lat="39.3378694" lon="17.0536415"><ele>39.0</ele><time>2026-03-22T13:45:21.955Z</time></trkpt><trkpt lat="39.3377863" lon="17.0535152"><ele>39.0</ele><time>2026-03-22T13:45:23.955Z</time></trkpt><trkpt lat="39.3377358" lon="17.0534349"><ele>39.0</ele><time>2026-03-22T13:45:25.955Z</time></trkpt><trkpt lat="39.3377335" lon="17.0533504"><ele>39.0</ele><time>2026-03-22T13:45:29.954Z</time></trkpt><trkpt lat="39.3376792" lon="17.0532818"><ele>38.6</ele><time>2026-03-22T13:45:34.955Z</time></trkpt><trkpt lat="39.3376126" lon="17.0532002"><ele>38.2</ele><time>2026-03-22T13:45:38.955Z</time></trkpt><trkpt lat="39.3375641" lon="17.0531238"><ele>37.800000000000004</ele><time>2026-03-22T13:45:41.955Z</time></trkpt><trkpt lat="39.3374864" lon="17.0530663"><ele>37.4</ele><time>2026-03-22T13:51:14.954Z</time></trkpt><trkpt lat="39.337389" lon="17.0530556"><ele>37.0</ele><time>2026-03-22T13:51:16.954Z</time></trkpt><trkpt lat="39.337274" lon="17.0530251"><ele>37.2</ele><time>2026-03-22T13:51:18.954Z</time></trkpt><trkpt lat="39.3371882" lon="17.0530948"><ele>37.400000000000006</ele><time>2026-03-22T13:51:20.954Z</time></trkpt><trkpt lat="39.3371019" lon="17.0531425"><ele>37.599999999999994</ele><time>2026-03-22T13:51:22.953Z</time></trkpt><trkpt lat="39.3370106" lon="17.0531387"><ele>37.8</ele><time>2026-03-22T13:51:24.954Z</time></trkpt><trkpt lat="39.3369729" lon="17.0530231"><ele>38.0</ele><time>2026-03-22T13:51:27.954Z</time></trkpt><trkpt lat="39.337021" lon="17.0528926"><ele>38.0</ele><time>2026-03-22T13:51:29.954Z</time></trkpt><trkpt lat="39.3370667" lon="17.0527372"><ele>38.0</ele><time>2026-03-22T13:51:31.954Z</time></trkpt><trkpt lat="39.3370876" lon="17.0526409"><ele>38.0</ele><time>2026-03-22T13:51:32.954Z</time></trkpt><trkpt lat="39.3371065" lon="17.0525351"><ele>38.0</ele><time>2026-03-22T13:51:33.954Z</time></trkpt><trkpt lat="39.3371219" lon="17.052434"><ele>38.0</ele><time>2026-03-22T13:51:34.953Z</time></trkpt><trkpt lat="39.3371243" lon="17.0523375"><ele>38.0</ele><time>2026-03-22T13:51:35.953Z</time></trkpt><trkpt lat="39.3371293" lon="17.0522493"><ele>38.199999999999996</ele><time>2026-03-22T13:51:36.954Z</time></trkpt><trkpt lat="39.3371356" lon="17.0521607"><ele>38.4</ele><time>2026-03-22T13:51:37.954Z</time></trkpt><trkpt lat="39.3371533" lon="17.0520069"><ele>38.599999999999994</ele><time>2026-03-22T13:51:39.953Z</time></trkpt><trkpt lat="39.33717" lon="17.0518811"><ele>38.8</ele><time>2026-03-22T13:51:41.953Z</time></trkpt><trkpt lat="39.3371728" lon="17.0517753"><ele>39.0</ele><time>2026-03-22T13:51:43.952Z</time></trkpt><trkpt lat="39.3371717" lon="17.0516718"><ele>39.166666666666664</ele><time>2026-03-22T13:51:45.953Z</time></trkpt><trkpt lat="39.337168" lon="17.0515344"><ele>39.333333333333336</ele><time>2026-03-22T13:51:47.953Z</time></trkpt><trkpt lat="39.3371683" lon="17.0514496"><ele>39.5</ele><time>2026-03-22T13:51:48.953Z</time></trkpt><trkpt lat="39.3371666" lon="17.0513553"><ele>39.66666666666667</ele><time>2026-03-22T13:51:49.953Z</time></trkpt><trkpt lat="39.3371589" lon="17.0512588"><ele>39.833333333333336</ele><time>2026-03-22T13:51:50.952Z</time></trkpt><trkpt lat="39.3371569" lon="17.0511544"><ele>40.0</ele><time>2026-03-22T13:51:51.953Z</time></trkpt><trkpt lat="39.3371565" lon="17.0510505"><ele>40.0</ele><time>2026-03-22T13:51:52.953Z</time></trkpt><trkpt lat="39.3371582" lon="17.0509496"><ele>40.0</ele><time>2026-03-22T13:51:53.953Z</time></trkpt><trkpt lat="39.3371465" lon="17.0508422"><ele>40.0</ele><time>2026-03-22T13:51:54.953Z</time></trkpt><trkpt lat="39.33713" lon="17.0507134"><ele>40.0</ele><time>2026-03-22T13:51:55.953Z</time></trkpt><trkpt lat="39.337109" lon="17.0505723"><ele>40.0</ele><time>2026-03-22T13:51:56.953Z</time></trkpt><trkpt lat="39.3370865" lon="17.0504148"><ele>39.66666666666667</ele><time>2026-03-22T13:51:57.953Z</time></trkpt><trkpt lat="39.3370649" lon="17.0502397"><ele>39.333333333333336</ele><time>2026-03-22T13:51:58.953Z</time></trkpt><trkpt lat="39.337035" lon="17.0500361"><ele>39.0</ele><time>2026-03-22T13:51:59.951Z</time></trkpt><trkpt lat="39.3370019" lon="17.049811"><ele>39.5</ele><time>2026-03-22T13:52:00.953Z</time></trkpt><trkpt lat="39.3369718" lon="17.0496132"><ele>40.0</ele><time>2026-03-22T13:52:01.952Z</time></trkpt><trkpt lat="39.3369455" lon="17.0494358"><ele>40.5</ele><time>2026-03-22T13:52:02.952Z</time></trkpt><trkpt lat="39.3369281" lon="17.049272"><ele>41.0</ele><time>2026-03-22T13:52:03.953Z</time></trkpt><trkpt lat="39.3369112" lon="17.0491182"><ele>41.199999999999996</ele><time>2026-03-22T13:52:04.952Z</time></trkpt><trkpt lat="39.3368921" lon="17.0489722"><ele>41.4</ele><time>2026-03-22T13:52:05.953Z</time></trkpt><trkpt lat="39.3368687" lon="17.0488286"><ele>41.6</ele><time>2026-03-22T13:52:06.953Z</time></trkpt><trkpt lat="39.3368509" lon="17.0487019"><ele>41.8</ele><time>2026-03-22T13:52:07.953Z</time></trkpt><trkpt lat="39.3368374" lon="17.0485946"><ele>42.0</ele><time>2026-03-22T13:52:08.951Z</time></trkpt><trkpt lat="39.33683" lon="17.0485025"><ele>42.0</ele><time>2026-03-22T13:52:09.953Z</time></trkpt><trkpt lat="39.3368214" lon="17.04835"><ele>42.0</ele><time>2026-03-22T13:52:11.953Z</time></trkpt><trkpt lat="39.3368374" lon="17.0481873"><ele>42.0</ele><time>2026-03-22T13:52:13.953Z</time></trkpt><trkpt lat="39.3368546" lon="17.0480979"><ele>42.0</ele><time>2026-03-22T13:52:14.951Z</time></trkpt><trkpt lat="39.3368619" lon="17.0480036"><ele>42.0</ele><time>2026-03-22T13:52:15.953Z</time></trkpt><trkpt lat="39.3368553" lon="17.0478614"><ele>42.2</ele><time>2026-03-22T13:52:17.953Z</time></trkpt><trkpt lat="39.336857" lon="17.0477364"><ele>42.400000000000006</ele><time>2026-03-22T13:52:19.953Z</time></trkpt><trkpt lat="39.3368717" lon="17.0475839"><ele>42.599999999999994</ele><time>2026-03-22T13:52:21.953Z</time></trkpt><trkpt lat="39.3369265" lon="17.0475148"><ele>42.8</ele><time>2026-03-22T13:52:23.953Z</time></trkpt><trkpt lat="39.3370181" lon="17.0474961"><ele>43.0</ele><time>2026-03-22T13:52:25.952Z</time></trkpt><trkpt lat="39.337116" lon="17.0474549"><ele>43.0</ele><time>2026-03-22T13:52:27.953Z</time></trkpt><trkpt lat="39.3371814" lon="17.0473443"><ele>43.0</ele><time>2026-03-22T13:52:29.953Z</time></trkpt><trkpt lat="39.3371933" lon="17.0472375"><ele>43.0</ele><time>2026-03-22T13:52:30.953Z</time></trkpt><trkpt lat="39.3372002" lon="17.0471233"><ele>43.0</ele><time>2026-03-22T13:52:31.953Z</time></trkpt><trkpt lat="39.3372114" lon="17.0470039"><ele>43.0</ele><time>2026-03-22T13:52:32.952Z</time></trkpt><trkpt lat="39.3372165" lon="17.0468781"><ele>43.0</ele><time>2026-03-22T13:52:33.952Z</time></trkpt><trkpt lat="39.3372269" lon="17.046749"><ele>43.0</ele><time>2026-03-22T13:52:34.953Z</time></trkpt><trkpt lat="39.3372493" lon="17.0466281"><ele>43.0</ele><time>2026-03-22T13:52:35.953Z</time></trkpt><trkpt lat="39.3372387" lon="17.046508"><ele>43.0</ele><time>2026-03-22T13:52:36.953Z</time></trkpt><trkpt lat="39.3372117" lon="17.0463727"><ele>43.0</ele><time>2026-03-22T13:52:37.952Z</time></trkpt><trkpt lat="39.3371813" lon="17.0462284"><ele>43.0</ele><time>2026-03-22T13:52:38.952Z</time></trkpt><trkpt lat="39.3371501" lon="17.0460847"><ele>43.0</ele><time>2026-03-22T13:52:39.953Z</time></trkpt><trkpt lat="39.3371257" lon="17.0459246"><ele>43.0</ele><time>2026-03-22T13:52:40.952Z</time></trkpt><trkpt lat="39.337111" lon="17.045783"><ele>43.0</ele><time>2026-03-22T13:52:41.953Z</time></trkpt><trkpt lat="39.3371005" lon="17.0456618"><ele>43.0</ele><time>2026-03-22T13:52:42.953Z</time></trkpt><trkpt lat="39.3370941" lon="17.045561"><ele>42.833333333333336</ele><time>2026-03-22T13:52:43.953Z</time></trkpt><trkpt lat="39.3370946" lon="17.045427"><ele>42.66666666666667</ele><time>2026-03-22T13:52:45.953Z</time></trkpt><trkpt lat="39.3371029" lon="17.0453177"><ele>42.5</ele><time>2026-03-22T13:52:48.953Z</time></trkpt><trkpt lat="39.3371069" lon="17.0451995"><ele>42.333333333333336</ele><time>2026-03-22T13:52:50.951Z</time></trkpt><trkpt lat="39.3370947" lon="17.0451132"><ele>42.166666666666664</ele><time>2026-03-22T13:52:51.953Z</time></trkpt><trkpt lat="39.3370685" lon="17.0450153"><ele>42.0</ele><time>2026-03-22T13:52:52.952Z</time></trkpt><trkpt lat="39.3370464" lon="17.0449038"><ele>42.0</ele><time>2026-03-22T13:52:53.952Z</time></trkpt><trkpt lat="39.3370197" lon="17.0447619"><ele>42.0</ele><time>2026-03-22T13:52:54.953Z</time></trkpt><trkpt lat="39.3369841" lon="17.0446144"><ele>42.0</ele><time>2026-03-22T13:52:55.952Z</time></trkpt><trkpt lat="39.3369498" lon="17.0444649"><ele>42.0</ele><time>2026-03-22T13:52:56.953Z</time></trkpt><trkpt lat="39.336936" lon="17.0443216"><ele>42.0</ele><time>2026-03-22T13:52:57.953Z</time></trkpt><trkpt lat="39.3369299" lon="17.0442003"><ele>42.0</ele><time>2026-03-22T13:52:58.953Z</time></trkpt><trkpt lat="39.3369213" lon="17.0441046"><ele>42.0</ele><time>2026-03-22T13:52:59.953Z</time></trkpt><trkpt lat="39.3369197" lon="17.0439954"><ele>42.0</ele><time>2026-03-22T13:53:01.953Z</time></trkpt><trkpt lat="39.3369299" lon="17.0439144"><ele>42.0</ele><time>2026-03-22T13:53:03.953Z</time></trkpt><trkpt lat="39.3369464" lon="17.0438316"><ele>42.0</ele><time>2026-03-22T13:53:05.953Z</time></trkpt><trkpt lat="39.3369699" lon="17.043733"><ele>42.0</ele><time>2026-03-22T13:53:07.953Z</time></trkpt><trkpt lat="39.3369936" lon="17.0436163"><ele>42.0</ele><time>2026-03-22T13:53:09.953Z</time></trkpt><trkpt lat="39.3370093" lon="17.0434983"><ele>42.0</ele><time>2026-03-22T13:53:11.952Z</time></trkpt><trkpt lat="39.3370302" lon="17.0433744"><ele>42.0</ele><time>2026-03-22T13:53:13.952Z</time></trkpt><trkpt lat="39.3370096" lon="17.0432502"><ele>42.0</ele><time>2026-03-22T13:53:15.953Z</time></trkpt><trkpt lat="39.3369597" lon="17.0431259"><ele>41.6</ele><time>2026-03-22T13:53:17.953Z</time></trkpt><trkpt lat="39.3369257" lon="17.0429823"><ele>41.2</ele><time>2026-03-22T13:53:19.953Z</time></trkpt><trkpt lat="39.3368754" lon="17.0428368"><ele>40.8</ele><time>2026-03-22T13:53:21.953Z</time></trkpt><trkpt lat="39.3368684" lon="17.042754"><ele>40.4</ele><time>2026-03-22T13:53:22.953Z</time></trkpt><trkpt lat="39.3368664" lon="17.0426089"><ele>40.0</ele><time>2026-03-22T13:53:24.953Z</time></trkpt><trkpt lat="39.3368725" lon="17.0424961"><ele>40.333333333333336</ele><time>2026-03-22T13:53:26.953Z</time></trkpt><trkpt lat="39.336867" lon="17.0424013"><ele>40.66666666666667</ele><time>2026-03-22T13:53:28.953Z</time></trkpt><trkpt lat="39.3368612" lon="17.0423066"><ele>41.0</ele><time>2026-03-22T13:53:30.952Z</time></trkpt><trkpt lat="39.3368377" lon="17.0422093"><ele>41.333333333333336</ele><time>2026-03-22T13:53:32.953Z</time></trkpt><trkpt lat="39.3368289" lon="17.0420982"><ele>41.666666666666664</ele><time>2026-03-22T13:53:34.952Z</time></trkpt><trkpt lat="39.3368099" lon="17.0419673"><ele>42.0</ele><time>2026-03-22T13:53:36.953Z</time></trkpt><trkpt lat="39.3367778" lon="17.0418397"><ele>42.0</ele><time>2026-03-22T13:53:38.952Z</time></trkpt><trkpt lat="39.3367488" lon="17.041751"><ele>42.0</ele><time>2026-03-22T13:53:40.952Z</time></trkpt><trkpt lat="39.3367202" lon="17.0416723"><ele>42.0</ele><time>2026-03-22T13:53:42.953Z</time></trkpt><trkpt lat="39.3366964" lon="17.0415966"><ele>42.0</ele><time>2026-03-22T13:53:44.952Z</time></trkpt><trkpt lat="39.3366547" lon="17.0415166"><ele>42.0</ele><time>2026-03-22T13:53:46.953Z</time></trkpt><trkpt lat="39.3365592" lon="17.041448"><ele>42.0</ele><time>2026-03-22T13:53:48.953Z</time></trkpt><trkpt lat="39.3364823" lon="17.0414434"><ele>42.0</ele><time>2026-03-22T13:53:49.953Z</time></trkpt><trkpt lat="39.336394" lon="17.04146"><ele>42.0</ele><time>2026-03-22T13:53:50.953Z</time></trkpt><trkpt lat="39.3362952" lon="17.0414888"><ele>42.0</ele><time>2026-03-22T13:53:51.953Z</time></trkpt><trkpt lat="39.3361881" lon="17.0415065"><ele>42.0</ele><time>2026-03-22T13:53:52.953Z</time></trkpt><trkpt lat="39.3360846" lon="17.041506"><ele>42.0</ele><time>2026-03-22T13:53:53.953Z</time></trkpt><trkpt lat="39.3359901" lon="17.0414926"><ele>42.0</ele><time>2026-03-22T13:53:54.953Z</time></trkpt><trkpt lat="39.335897" lon="17.0414755"><ele>42.0</ele><time>2026-03-22T13:53:55.953Z</time></trkpt><trkpt lat="39.33581" lon="17.0414427"><ele>42.0</ele><time>2026-03-22T13:53:56.953Z</time></trkpt><trkpt lat="39.3357288" lon="17.0414001"><ele>42.0</ele><time>2026-03-22T13:53:57.952Z</time></trkpt><trkpt lat="39.3356488" lon="17.0413499"><ele>42.0</ele><time>2026-03-22T13:53:58.952Z</time></trkpt><trkpt lat="39.3355865" lon="17.0412769"><ele>42.0</ele><time>2026-03-22T13:53:59.951Z</time></trkpt><trkpt lat="39.3355504" lon="17.0411855"><ele>42.6</ele><time>2026-03-22T13:54:00.953Z</time></trkpt><trkpt lat="39.3355318" lon="17.0410678"><ele>43.2</ele><time>2026-03-22T13:54:01.952Z</time></trkpt><trkpt lat="39.335533" lon="17.0409556"><ele>43.8</ele><time>2026-03-22T13:54:02.952Z</time></trkpt><trkpt lat="39.3355515" lon="17.040843"><ele>44.4</ele><time>2026-03-22T13:54:03.953Z</time></trkpt><trkpt lat="39.335593" lon="17.0407382"><ele>45.0</ele><time>2026-03-22T13:54:04.952Z</time></trkpt><trkpt lat="39.3356479" lon="17.0406394"><ele>45.0</ele><time>2026-03-22T13:54:05.952Z</time></trkpt><trkpt lat="39.3357058" lon="17.0405365"><ele>45.0</ele><time>2026-03-22T13:54:06.952Z</time></trkpt><trkpt lat="39.3357466" lon="17.040431"><ele>45.0</ele><time>2026-03-22T13:54:07.953Z</time></trkpt><trkpt lat="39.3357586" lon="17.0403375"><ele>45.0</ele><time>2026-03-22T13:54:08.953Z</time></trkpt><trkpt lat="39.3357563" lon="17.0402307"><ele>45.0</ele><time>2026-03-22T13:54:09.953Z</time></trkpt><trkpt lat="39.3357575" lon="17.0401182"><ele>45.0</ele><time>2026-03-22T13:54:10.953Z</time></trkpt><trkpt lat="39.335765" lon="17.0400074"><ele>45.2</ele><time>2026-03-22T13:54:11.953Z</time></trkpt><trkpt lat="39.3357714" lon="17.0398911"><ele>45.4</ele><time>2026-03-22T13:54:12.953Z</time></trkpt><trkpt lat="39.335777" lon="17.0397702"><ele>45.599999999999994</ele><time>2026-03-22T13:54:13.953Z</time></trkpt><trkpt lat="39.3357845" lon="17.0396436"><ele>45.8</ele><time>2026-03-22T13:54:14.953Z</time></trkpt><trkpt lat="39.3357959" lon="17.0395138"><ele>46.0</ele><time>2026-03-22T13:54:15.952Z</time></trkpt><trkpt lat="39.3358132" lon="17.0393777"><ele>46.0</ele><time>2026-03-22T13:54:16.953Z</time></trkpt><trkpt lat="39.3358355" lon="17.0392346"><ele>46.0</ele><time>2026-03-22T13:54:17.953Z</time></trkpt><trkpt lat="39.3358615" lon="17.0390876"><ele>46.0</ele><time>2026-03-22T13:54:18.953Z</time></trkpt><trkpt lat="39.3358852" lon="17.0389383"><ele>46.0</ele><time>2026-03-22T13:54:19.953Z</time></trkpt><trkpt lat="39.3359113" lon="17.0387826"><ele>45.75</ele><time>2026-03-22T13:54:20.953Z</time></trkpt><trkpt lat="39.3359168" lon="17.0386171"><ele>45.5</ele><time>2026-03-22T13:54:21.951Z</time></trkpt><trkpt lat="39.3358978" lon="17.0384475"><ele>45.25</ele><time>2026-03-22T13:54:22.953Z</time></trkpt><trkpt lat="39.3358799" lon="17.0382731"><ele>45.0</ele><time>2026-03-22T13:54:23.952Z</time></trkpt><trkpt lat="39.3358577" lon="17.0380979"><ele>45.5</ele><time>2026-03-22T13:54:24.953Z</time></trkpt><trkpt lat="39.3358371" lon="17.0379241"><ele>46.0</ele><time>2026-03-22T13:54:25.953Z</time></trkpt><trkpt lat="39.3358217" lon="17.0377528"><ele>46.5</ele><time>2026-03-22T13:54:26.953Z</time></trkpt><trkpt lat="39.335815" lon="17.0375788"><ele>47.0</ele><time>2026-03-22T13:54:27.953Z</time></trkpt><trkpt lat="39.3358104" lon="17.0374057"><ele>47.25</ele><time>2026-03-22T13:54:28.952Z</time></trkpt><trkpt lat="39.3357991" lon="17.0372355"><ele>47.5</ele><time>2026-03-22T13:54:29.953Z</time></trkpt><trkpt lat="39.3357812" lon="17.0370668"><ele>47.75</ele><time>2026-03-22T13:54:30.953Z</time></trkpt><trkpt lat="39.3357834" lon="17.0368908"><ele>48.0</ele><time>2026-03-22T13:54:31.952Z</time></trkpt><trkpt lat="39.3358051" lon="17.0367076"><ele>48.4</ele><time>2026-03-22T13:54:32.953Z</time></trkpt><trkpt lat="39.3358198" lon="17.0365374"><ele>48.8</ele><time>2026-03-22T13:54:33.953Z</time></trkpt><trkpt lat="39.3358375" lon="17.0363704"><ele>49.2</ele><time>2026-03-22T13:54:34.953Z</time></trkpt><trkpt lat="39.3358507" lon="17.0362423"><ele>49.6</ele><time>2026-03-22T13:54:35.952Z</time></trkpt><trkpt lat="39.3358546" lon="17.0361536"><ele>50.0</ele><time>2026-03-22T13:54:36.953Z</time></trkpt><trkpt lat="39.3358745" lon="17.0360677"><ele>50.0</ele><time>2026-03-22T13:54:38.953Z</time></trkpt><trkpt lat="39.3358869" lon="17.0359877"><ele>50.0</ele><time>2026-03-22T13:54:40.953Z</time></trkpt><trkpt lat="39.3358851" lon="17.0358192"><ele>50.0</ele><time>2026-03-22T13:54:42.953Z</time></trkpt><trkpt lat="39.3358912" lon="17.0356861"><ele>50.0</ele><time>2026-03-22T13:54:43.952Z</time></trkpt><trkpt lat="39.3358958" lon="17.0355424"><ele>50.0</ele><time>2026-03-22T13:54:44.952Z</time></trkpt><trkpt lat="39.3359023" lon="17.0353951"><ele>50.0</ele><time>2026-03-22T13:54:45.953Z</time></trkpt><trkpt lat="39.3359071" lon="17.0352575"><ele>50.0</ele><time>2026-03-22T13:54:46.953Z</time></trkpt><trkpt lat="39.3359115" lon="17.0351282"><ele>50.0</ele><time>2026-03-22T13:54:47.953Z</time></trkpt><trkpt lat="39.3359096" lon="17.0350283"><ele>50.0</ele><time>2026-03-22T13:54:48.953Z</time></trkpt><trkpt lat="39.3358998" lon="17.0349014"><ele>50.0</ele><time>2026-03-22T13:54:50.953Z</time></trkpt><trkpt lat="39.3358808" lon="17.0348106"><ele>49.66666666666667</ele><time>2026-03-22T13:54:51.953Z</time></trkpt><trkpt lat="39.3358568" lon="17.034723"><ele>49.333333333333336</ele><time>2026-03-22T13:54:52.953Z</time></trkpt><trkpt lat="39.3358165" lon="17.0345788"><ele>49.0</ele><time>2026-03-22T13:54:54.953Z</time></trkpt><trkpt lat="39.3358111" lon="17.0344724"><ele>48.66666666666667</ele><time>2026-03-22T13:54:56.953Z</time></trkpt><trkpt lat="39.3358354" lon="17.0343875"><ele>48.333333333333336</ele><time>2026-03-22T13:54:58.952Z</time></trkpt><trkpt lat="39.3358644" lon="17.0343138"><ele>48.0</ele><time>2026-03-22T13:55:00.953Z</time></trkpt><trkpt lat="39.3359137" lon="17.0342023"><ele>48.166666666666664</ele><time>2026-03-22T13:55:03.953Z</time></trkpt><trkpt lat="39.335954" lon="17.0341103"><ele>48.33333333333333</ele><time>2026-03-22T13:55:05.953Z</time></trkpt><trkpt lat="39.3359912" lon="17.0340253"><ele>48.5</ele><time>2026-03-22T13:55:07.953Z</time></trkpt><trkpt lat="39.335997" lon="17.0339321"><ele>48.666666666666664</ele><time>2026-03-22T13:55:09.953Z</time></trkpt><trkpt lat="39.3359854" lon="17.0338457"><ele>48.83333333333333</ele><time>2026-03-22T13:55:11.953Z</time></trkpt><trkpt lat="39.3360017" lon="17.0337432"><ele>49.0</ele><time>2026-03-22T13:55:15.952Z</time></trkpt><trkpt lat="39.3359954" lon="17.0336446"><ele>49.0</ele><time>2026-03-22T13:55:17.953Z</time></trkpt><trkpt lat="39.3359829" lon="17.0335525"><ele>49.0</ele><time>2026-03-22T13:55:19.953Z</time></trkpt><trkpt lat="39.3359819" lon="17.0334169"><ele>49.0</ele><time>2026-03-22T13:55:21.953Z</time></trkpt><trkpt lat="39.3359738" lon="17.0332685"><ele>49.0</ele><time>2026-03-22T13:55:23.953Z</time></trkpt><trkpt lat="39.3359168" lon="17.0331355"><ele>49.0</ele><time>2026-03-22T13:55:25.953Z</time></trkpt><trkpt lat="39.3358295" lon="17.0330247"><ele>49.5</ele><time>2026-03-22T13:55:27.953Z</time></trkpt><trkpt lat="39.3357375" lon="17.0329519"><ele>50.0</ele><time>2026-03-22T13:55:29.953Z</time></trkpt><trkpt lat="39.3356355" lon="17.0328945"><ele>50.5</ele><time>2026-03-22T13:55:31.953Z</time></trkpt><trkpt lat="39.3355217" lon="17.0328382"><ele>51.0</ele><time>2026-03-22T13:55:33.953Z</time></trkpt><trkpt lat="39.3354007" lon="17.0327862"><ele>51.0</ele><time>2026-03-22T13:55:35.953Z</time></trkpt><trkpt lat="39.3353372" lon="17.0327554"><ele>51.0</ele><time>2026-03-22T13:55:36.952Z</time></trkpt><trkpt lat="39.3352341" lon="17.0326941"><ele>51.0</ele><time>2026-03-22T13:55:38.953Z</time></trkpt><trkpt lat="39.3351364" lon="17.0326399"><ele>51.0</ele><time>2026-03-22T13:55:40.952Z</time></trkpt><trkpt lat="39.335038" lon="17.0325523"><ele>51.0</ele><time>2026-03-22T13:55:42.953Z</time></trkpt><trkpt lat="39.3349394" lon="17.0324622"><ele>51.0</ele><time>2026-03-22T13:55:44.953Z</time></trkpt><trkpt lat="39.3348691" lon="17.0323561"><ele>51.0</ele><time>2026-03-22T13:55:46.951Z</time></trkpt><trkpt lat="39.3348373" lon="17.0322347"><ele>51.0</ele><time>2026-03-22T13:55:48.953Z</time></trkpt><trkpt lat="39.3347761" lon="17.0321055"><ele>51.0</ele><time>2026-03-22T13:55:50.953Z</time></trkpt><trkpt lat="39.3347445" lon="17.0320339"><ele>51.0</ele><time>2026-03-22T13:55:51.953Z</time></trkpt><trkpt lat="39.3347087" lon="17.0319666"><ele>51.0</ele><time>2026-03-22T13:55:52.953Z</time></trkpt><trkpt lat="39.3346338" lon="17.0318567"><ele>51.0</ele><time>2026-03-22T13:55:54.952Z</time></trkpt><trkpt lat="39.3345785" lon="17.0317489"><ele>51.0</ele><time>2026-03-22T13:55:56.953Z</time></trkpt><trkpt lat="39.3345251" lon="17.0316421"><ele>51.0</ele><time>2026-03-22T13:55:58.953Z</time></trkpt><trkpt lat="39.3344522" lon="17.0315602"><ele>51.0</ele><time>2026-03-22T13:56:00.953Z</time></trkpt><trkpt lat="39.3343623" lon="17.0314837"><ele>51.333333333333336</ele><time>2026-03-22T13:56:02.952Z</time></trkpt><trkpt lat="39.3342902" lon="17.0313937"><ele>51.66666666666667</ele><time>2026-03-22T13:56:04.953Z</time></trkpt><trkpt lat="39.3342128" lon="17.0312878"><ele>52.0</ele><time>2026-03-22T13:56:06.952Z</time></trkpt><trkpt lat="39.3341609" lon="17.0312414"><ele>52.333333333333336</ele><time>2026-03-22T13:56:07.952Z</time></trkpt><trkpt lat="39.3341019" lon="17.0312038"><ele>52.66666666666667</ele><time>2026-03-22T13:56:08.953Z</time></trkpt><trkpt lat="39.334038" lon="17.0311701"><ele>53.0</ele><time>2026-03-22T13:56:09.953Z</time></trkpt><trkpt lat="39.3339722" lon="17.0311354"><ele>53.00000000000001</ele><time>2026-03-22T13:56:10.953Z</time></trkpt><trkpt lat="39.3339052" lon="17.0310978"><ele>53.0</ele><time>2026-03-22T13:56:11.953Z</time></trkpt><trkpt lat="39.3338389" lon="17.0310594"><ele>53.0</ele><time>2026-03-22T13:56:12.953Z</time></trkpt><trkpt lat="39.3337718" lon="17.0310224"><ele>53.0</ele><time>2026-03-22T13:56:13.953Z</time></trkpt><trkpt lat="39.3337015" lon="17.030987"><ele>53.00000000000001</ele><time>2026-03-22T13:56:14.952Z</time></trkpt><trkpt lat="39.3336283" lon="17.030947"><ele>53.0</ele><time>2026-03-22T13:56:15.953Z</time></trkpt><trkpt lat="39.3335496" lon="17.0309029"><ele>52.66666666666667</ele><time>2026-03-22T13:56:16.952Z</time></trkpt><trkpt lat="39.3334665" lon="17.0308596"><ele>52.333333333333336</ele><time>2026-03-22T13:56:17.953Z</time></trkpt><trkpt lat="39.3333873" lon="17.0308175"><ele>52.0</ele><time>2026-03-22T13:56:18.953Z</time></trkpt><trkpt lat="39.3333109" lon="17.0307694"><ele>51.66666666666667</ele><time>2026-03-22T13:56:19.953Z</time></trkpt><trkpt lat="39.3332448" lon="17.0307189"><ele>51.333333333333336</ele><time>2026-03-22T13:56:20.953Z</time></trkpt><trkpt lat="39.3331903" lon="17.0306687"><ele>51.0</ele><time>2026-03-22T13:56:21.953Z</time></trkpt><trkpt lat="39.3331392" lon="17.0306139"><ele>51.57142857142857</ele><time>2026-03-22T13:56:22.953Z</time></trkpt><trkpt lat="39.3330926" lon="17.0305573"><ele>52.142857142857146</ele><time>2026-03-22T13:56:23.953Z</time></trkpt><trkpt lat="39.333051" lon="17.0304926"><ele>52.71428571428571</ele><time>2026-03-22T13:56:24.953Z</time></trkpt><trkpt lat="39.3330119" lon="17.0304258"><ele>53.285714285714285</ele><time>2026-03-22T13:56:25.953Z</time></trkpt><trkpt lat="39.3329671" lon="17.0303534"><ele>53.857142857142854</ele><time>2026-03-22T13:56:26.952Z</time></trkpt><trkpt lat="39.3329232" lon="17.0302751"><ele>54.42857142857142</ele><time>2026-03-22T13:56:27.953Z</time></trkpt><trkpt lat="39.332879" lon="17.0301955"><ele>55.0</ele><time>2026-03-22T13:56:28.952Z</time></trkpt><trkpt lat="39.3328358" lon="17.0301106"><ele>55.166666666666664</ele><time>2026-03-22T13:56:29.953Z</time></trkpt><trkpt lat="39.3327954" lon="17.0300286"><ele>55.33333333333333</ele><time>2026-03-22T13:56:30.952Z</time></trkpt><trkpt lat="39.3327537" lon="17.0299419"><ele>55.5</ele><time>2026-03-22T13:56:31.953Z</time></trkpt><trkpt lat="39.3327049" lon="17.0298547"><ele>55.66666666666667</ele><time>2026-03-22T13:56:32.953Z</time></trkpt><trkpt lat="39.3326563" lon="17.0297623"><ele>55.833333333333336</ele><time>2026-03-22T13:56:33.952Z</time></trkpt><trkpt lat="39.3326037" lon="17.0296775"><ele>56.0</ele><time>2026-03-22T13:56:34.953Z</time></trkpt><trkpt lat="39.3325566" lon="17.0296078"><ele>57.00000000000001</ele><time>2026-03-22T13:56:35.952Z</time></trkpt><trkpt lat="39.3324776" lon="17.0295528"><ele>58.0</ele><time>2026-03-22T13:56:37.953Z</time></trkpt><trkpt lat="39.3323956" lon="17.0295373"><ele>59.0</ele><time>2026-03-22T13:56:40.953Z</time></trkpt><trkpt lat="39.3323541" lon="17.0294714"><ele>60.0</ele><time>2026-03-22T13:56:42.953Z</time></trkpt><trkpt lat="39.3323274" lon="17.0293782"><ele>61.00000000000001</ele><time>2026-03-22T13:56:44.953Z</time></trkpt><trkpt lat="39.3322971" lon="17.0292617"><ele>62.0</ele><time>2026-03-22T13:56:46.952Z</time></trkpt><trkpt lat="39.3322799" lon="17.0291812"><ele>62.8</ele><time>2026-03-22T13:56:47.953Z</time></trkpt><trkpt lat="39.3322783" lon="17.0290794"><ele>63.6</ele><time>2026-03-22T13:56:48.953Z</time></trkpt><trkpt lat="39.3322894" lon="17.0289654"><ele>64.39999999999999</ele><time>2026-03-22T13:56:50.953Z</time></trkpt><trkpt lat="39.3322833" lon="17.0288246"><ele>65.2</ele><time>2026-03-22T13:56:52.952Z</time></trkpt><trkpt lat="39.3322745" lon="17.0286768"><ele>66.0</ele><time>2026-03-22T13:56:54.953Z</time></trkpt><trkpt lat="39.3322585" lon="17.0285385"><ele>65.16666666666667</ele><time>2026-03-22T13:56:56.953Z</time></trkpt><trkpt lat="39.3322106" lon="17.0284805"><ele>64.33333333333333</ele><time>2026-03-22T13:56:58.953Z</time></trkpt><trkpt lat="39.3321499" lon="17.0284283"><ele>63.5</ele><time>2026-03-22T13:57:00.953Z</time></trkpt><trkpt lat="39.3320855" lon="17.0283636"><ele>62.666666666666664</ele><time>2026-03-22T13:57:02.953Z</time></trkpt><trkpt lat="39.3320225" lon="17.0282901"><ele>61.83333333333333</ele><time>2026-03-22T13:57:04.953Z</time></trkpt><trkpt lat="39.3319583" lon="17.0282321"><ele>61.0</ele><time>2026-03-22T13:57:06.953Z</time></trkpt><trkpt lat="39.3319054" lon="17.0281585"><ele>60.99999999999999</ele><time>2026-03-22T13:57:08.952Z</time></trkpt><trkpt lat="39.3318157" lon="17.0281127"><ele>61.0</ele><time>2026-03-22T13:57:10.953Z</time></trkpt><trkpt lat="39.3317458" lon="17.0280956"><ele>61.0</ele><time>2026-03-22T13:57:11.953Z</time></trkpt><trkpt lat="39.3316663" lon="17.028082"><ele>61.0</ele><time>2026-03-22T13:57:12.953Z</time></trkpt><trkpt lat="39.3315594" lon="17.0280623"><ele>60.99999999999999</ele><time>2026-03-22T13:57:14.953Z</time></trkpt><trkpt lat="39.3314751" lon="17.0280703"><ele>61.0</ele><time>2026-03-22T13:57:16.952Z</time></trkpt><trkpt lat="39.3313999" lon="17.0280827"><ele>61.0</ele><time>2026-03-22T13:57:18.951Z</time></trkpt><trkpt lat="39.3313302" lon="17.0280323"><ele>60.99999999999999</ele><time>2026-03-22T13:57:20.953Z</time></trkpt><trkpt lat="39.3312637" lon="17.0279451"><ele>60.99999999999999</ele><time>2026-03-22T13:57:22.952Z</time></trkpt><trkpt lat="39.3312132" lon="17.027844"><ele>61.0</ele><time>2026-03-22T13:57:24.952Z</time></trkpt><trkpt lat="39.3311752" lon="17.0277023"><ele>61.0</ele><time>2026-03-22T13:57:26.952Z</time></trkpt><trkpt lat="39.3311675" lon="17.0276142"><ele>61.0</ele><time>2026-03-22T13:57:27.953Z</time></trkpt><trkpt lat="39.3311703" lon="17.0275299"><ele>60.99999999999999</ele><time>2026-03-22T13:57:28.952Z</time></trkpt><trkpt lat="39.3311697" lon="17.0274048"><ele>60.99999999999999</ele><time>2026-03-22T13:57:30.951Z</time></trkpt><trkpt lat="39.3311753" lon="17.0272753"><ele>61.0</ele><time>2026-03-22T13:57:32.952Z</time></trkpt><trkpt lat="39.3311848" lon="17.0271347"><ele>61.0</ele><time>2026-03-22T13:57:34.952Z</time></trkpt><trkpt lat="39.3312032" lon="17.0269815"><ele>61.0</ele><time>2026-03-22T13:57:36.951Z</time></trkpt><trkpt lat="39.3312009" lon="17.0268526"><ele>60.99999999999999</ele><time>2026-03-22T13:57:38.952Z</time></trkpt><trkpt lat="39.3312192" lon="17.0267289"><ele>60.99999999999999</ele><time>2026-03-22T13:57:40.952Z</time></trkpt><trkpt lat="39.3312274" lon="17.0266042"><ele>61.0</ele><time>2026-03-22T13:57:42.952Z</time></trkpt><trkpt lat="39.3312395" lon="17.0264724"><ele>61.0</ele><time>2026-03-22T13:57:44.952Z</time></trkpt><trkpt lat="39.3312452" lon="17.0263302"><ele>61.0</ele><time>2026-03-22T13:57:46.951Z</time></trkpt><trkpt lat="39.3312536" lon="17.0261832"><ele>60.99999999999999</ele><time>2026-03-22T13:57:48.952Z</time></trkpt><trkpt lat="39.3312869" lon="17.0260556"><ele>60.99999999999999</ele><time>2026-03-22T13:57:50.951Z</time></trkpt><trkpt lat="39.3312878" lon="17.0259164"><ele>61.0</ele><time>2026-03-22T13:57:52.952Z</time></trkpt><trkpt lat="39.331274" lon="17.0257951"><ele>61.0</ele><time>2026-03-22T13:57:54.952Z</time></trkpt><trkpt lat="39.3312588" lon="17.025711"><ele>61.49999999999999</ele><time>2026-03-22T13:57:56.952Z</time></trkpt><trkpt lat="39.3312486" lon="17.0255876"><ele>62.0</ele><time>2026-03-22T13:57:59.952Z</time></trkpt><trkpt lat="39.3312266" lon="17.0254701"><ele>62.5</ele><time>2026-03-22T13:58:01.952Z</time></trkpt><trkpt lat="39.3311927" lon="17.0253737"><ele>63.0</ele><time>2026-03-22T13:58:03.952Z</time></trkpt><trkpt lat="39.331215" lon="17.0252688"><ele>63.49999999999999</ele><time>2026-03-22T13:58:05.952Z</time></trkpt><trkpt lat="39.331214" lon="17.0251499"><ele>64.0</ele><time>2026-03-22T13:58:08.951Z</time></trkpt><trkpt lat="39.3312536" lon="17.0250533"><ele>64.16666666666666</ele><time>2026-03-22T13:58:11.952Z</time></trkpt><trkpt lat="39.3312905" lon="17.0249602"><ele>64.33333333333333</ele><time>2026-03-22T13:58:14.952Z</time></trkpt><trkpt lat="39.3313302" lon="17.024875"><ele>64.5</ele><time>2026-03-22T13:58:17.952Z</time></trkpt><trkpt lat="39.331386" lon="17.0247801"><ele>64.66666666666667</ele><time>2026-03-22T13:58:20.952Z</time></trkpt><trkpt lat="39.3314734" lon="17.0247419"><ele>64.83333333333334</ele><time>2026-03-22T13:58:22.951Z</time></trkpt><trkpt lat="39.3315299" lon="17.0247044"><ele>65.0</ele><time>2026-03-22T13:58:23.952Z</time></trkpt><trkpt lat="39.3315918" lon="17.0246739"><ele>65.83333333333334</ele><time>2026-03-22T13:58:24.952Z</time></trkpt><trkpt lat="39.331651" lon="17.0246398"><ele>66.66666666666667</ele><time>2026-03-22T13:58:25.952Z</time></trkpt><trkpt lat="39.3317078" lon="17.0246041"><ele>67.5</ele><time>2026-03-22T13:58:26.951Z</time></trkpt><trkpt lat="39.3318132" lon="17.0245416"><ele>68.33333333333333</ele><time>2026-03-22T13:58:28.952Z</time></trkpt><trkpt lat="39.3319033" lon="17.0244689"><ele>69.16666666666666</ele><time>2026-03-22T13:58:30.951Z</time></trkpt><trkpt lat="39.3319586" lon="17.0243812"><ele>70.0</ele><time>2026-03-22T13:58:32.952Z</time></trkpt><trkpt lat="39.3319767" lon="17.0242898"><ele>70.0</ele><time>2026-03-22T13:58:34.951Z</time></trkpt><trkpt lat="39.3319829" lon="17.0241798"><ele>70.0</ele><time>2026-03-22T13:58:37.952Z</time></trkpt><trkpt lat="39.3319725" lon="17.024092"><ele>70.0</ele><time>2026-03-22T13:58:39.952Z</time></trkpt><trkpt lat="39.3319275" lon="17.0239967"><ele>70.0</ele><time>2026-03-22T13:58:41.952Z</time></trkpt><trkpt lat="39.3318488" lon="17.0238768"><ele>70.0</ele><time>2026-03-22T13:58:43.952Z</time></trkpt><trkpt lat="39.3317929" lon="17.0238142"><ele>70.0</ele><time>2026-03-22T13:58:44.952Z</time></trkpt><trkpt lat="39.3317321" lon="17.023758"><ele>69.4</ele><time>2026-03-22T13:58:45.952Z</time></trkpt><trkpt lat="39.3316376" lon="17.0236951"><ele>68.8</ele><time>2026-03-22T13:58:46.952Z</time></trkpt><trkpt lat="39.3315378" lon="17.023653"><ele>68.2</ele><time>2026-03-22T13:58:47.952Z</time></trkpt><trkpt lat="39.3314517" lon="17.0236092"><ele>67.6</ele><time>2026-03-22T13:58:48.951Z</time></trkpt><trkpt lat="39.3313716" lon="17.0235566"><ele>67.0</ele><time>2026-03-22T13:58:49.952Z</time></trkpt><trkpt lat="39.3312673" lon="17.0234786"><ele>67.0</ele><time>2026-03-22T13:58:50.951Z</time></trkpt><trkpt lat="39.3311547" lon="17.0233905"><ele>67.0</ele><time>2026-03-22T13:58:51.951Z</time></trkpt><trkpt lat="39.3310497" lon="17.0233009"><ele>67.0</ele><time>2026-03-22T13:58:52.952Z</time></trkpt><trkpt lat="39.3309698" lon="17.023221"><ele>67.0</ele><time>2026-03-22T13:58:53.951Z</time></trkpt><trkpt lat="39.3309066" lon="17.0231495"><ele>67.0</ele><time>2026-03-22T13:58:54.952Z</time></trkpt><trkpt lat="39.3308492" lon="17.0230885"><ele>67.66666666666666</ele><time>2026-03-22T13:58:55.952Z</time></trkpt><trkpt lat="39.3308002" lon="17.0230366"><ele>68.33333333333333</ele><time>2026-03-22T13:58:56.952Z</time></trkpt><trkpt lat="39.3307465" lon="17.0229791"><ele>69.0</ele><time>2026-03-22T13:58:57.952Z</time></trkpt><trkpt lat="39.330682" lon="17.0229381"><ele>69.66666666666667</ele><time>2026-03-22T13:58:58.952Z</time></trkpt><trkpt lat="39.3305833" lon="17.0228672"><ele>70.33333333333334</ele><time>2026-03-22T13:59:00.952Z</time></trkpt><trkpt lat="39.3305037" lon="17.0228025"><ele>71.0</ele><time>2026-03-22T13:59:02.952Z</time></trkpt><trkpt lat="39.330437" lon="17.0227469"><ele>70.75</ele><time>2026-03-22T13:59:04.951Z</time></trkpt><trkpt lat="39.3303236" lon="17.0226672"><ele>70.5</ele><time>2026-03-22T13:59:06.952Z</time></trkpt><trkpt lat="39.3302336" lon="17.0226083"><ele>70.25</ele><time>2026-03-22T13:59:07.952Z</time></trkpt><trkpt lat="39.330119" lon="17.0225296"><ele>70.0</ele><time>2026-03-22T13:59:08.951Z</time></trkpt><trkpt lat="39.3300125" lon="17.0224419"><ele>70.0</ele><time>2026-03-22T13:59:09.952Z</time></trkpt><trkpt lat="39.3299463" lon="17.0223509"><ele>70.0</ele><time>2026-03-22T13:59:10.951Z</time></trkpt><trkpt lat="39.3299156" lon="17.0222614"><ele>70.0</ele><time>2026-03-22T13:59:11.95Z</time></trkpt><trkpt lat="39.3299073" lon="17.0221735"><ele>70.0</ele><time>2026-03-22T13:59:12.952Z</time></trkpt><trkpt lat="39.3299133" lon="17.0220188"><ele>70.0</ele><time>2026-03-22T13:59:14.952Z</time></trkpt><trkpt lat="39.3299368" lon="17.0218829"><ele>70.0</ele><time>2026-03-22T13:59:16.952Z</time></trkpt><trkpt lat="39.3299577" lon="17.021778"><ele>70.0</ele><time>2026-03-22T13:59:18.952Z</time></trkpt><trkpt lat="39.329971" lon="17.021649"><ele>70.0</ele><time>2026-03-22T13:59:20.951Z</time></trkpt><trkpt lat="39.3299585" lon="17.0215022"><ele>70.0</ele><time>2026-03-22T13:59:22.951Z</time></trkpt><trkpt lat="39.3299465" lon="17.0213557"><ele>70.0</ele><time>2026-03-22T13:59:24.951Z</time></trkpt><trkpt lat="39.3299633" lon="17.0212707"><ele>70.2</ele><time>2026-03-22T13:59:25.951Z</time></trkpt><trkpt lat="39.3299818" lon="17.0211901"><ele>70.4</ele><time>2026-03-22T13:59:26.952Z</time></trkpt><trkpt lat="39.3299631" lon="17.0210583"><ele>70.6</ele><time>2026-03-22T13:59:28.952Z</time></trkpt><trkpt lat="39.3298872" lon="17.0209731"><ele>70.8</ele><time>2026-03-22T13:59:30.952Z</time></trkpt><trkpt lat="39.329801" lon="17.0208897"><ele>71.0</ele><time>2026-03-22T13:59:32.952Z</time></trkpt><trkpt lat="39.3297372" lon="17.0207712"><ele>74.0</ele><time>2026-03-22T13:59:34.952Z</time></trkpt><trkpt lat="39.3296837" lon="17.0206631"><ele>77.0</ele><time>2026-03-22T13:59:36.952Z</time></trkpt><trkpt lat="39.3296663" lon="17.0205451"><ele>80.0</ele><time>2026-03-22T13:59:38.952Z</time></trkpt><trkpt lat="39.3296779" lon="17.0204186"><ele>83.0</ele><time>2026-03-22T13:59:40.952Z</time></trkpt><trkpt lat="39.3296775" lon="17.020334"><ele>86.0</ele><time>2026-03-22T13:59:41.952Z</time></trkpt><trkpt lat="39.3296826" lon="17.020236"><ele>89.0</ele><time>2026-03-22T13:59:42.952Z</time></trkpt><trkpt lat="39.3297007" lon="17.0201533"><ele>86.33333333333334</ele><time>2026-03-22T13:59:43.952Z</time></trkpt><trkpt lat="39.3297344" lon="17.020069"><ele>83.66666666666667</ele><time>2026-03-22T13:59:44.952Z</time></trkpt><trkpt lat="39.3297667" lon="17.0199828"><ele>81.0</ele><time>2026-03-22T13:59:45.951Z</time></trkpt><trkpt lat="39.3298009" lon="17.0198887"><ele>78.33333333333333</ele><time>2026-03-22T13:59:46.951Z</time></trkpt><trkpt lat="39.3298332" lon="17.0198057"><ele>75.66666666666666</ele><time>2026-03-22T13:59:47.952Z</time></trkpt><trkpt lat="39.3298949" lon="17.0196778"><ele>73.0</ele><time>2026-03-22T13:59:49.952Z</time></trkpt><trkpt lat="39.3299287" lon="17.0195996"><ele>73.0</ele><time>2026-03-22T13:59:51.951Z</time></trkpt><trkpt lat="39.3299621" lon="17.0195239"><ele>73.0</ele><time>2026-03-22T13:59:55.952Z</time></trkpt><trkpt lat="39.3299973" lon="17.0194256"><ele>73.0</ele><time>2026-03-22T14:00:09.952Z</time></trkpt><trkpt lat="39.3300441" lon="17.0193631"><ele>73.0</ele><time>2026-03-22T14:00:11.952Z</time></trkpt><trkpt lat="39.330115" lon="17.0192941"><ele>73.0</ele><time>2026-03-22T14:00:13.951Z</time></trkpt><trkpt lat="39.3301631" lon="17.0192263"><ele>73.0</ele><time>2026-03-22T14:00:15.952Z</time></trkpt><trkpt lat="39.3302098" lon="17.0191419"><ele>74.0</ele><time>2026-03-22T14:00:17.952Z</time></trkpt><trkpt lat="39.3302331" lon="17.0190544"><ele>75.0</ele><time>2026-03-22T14:00:19.952Z</time></trkpt><trkpt lat="39.3302453" lon="17.0189396"><ele>76.0</ele><time>2026-03-22T14:00:21.952Z</time></trkpt><trkpt lat="39.3302601" lon="17.018814"><ele>77.0</ele><time>2026-03-22T14:00:23.951Z</time></trkpt><trkpt lat="39.3302971" lon="17.0186612"><ele>78.0</ele><time>2026-03-22T14:00:25.952Z</time></trkpt><trkpt lat="39.3303168" lon="17.018559"><ele>78.0</ele><time>2026-03-22T14:00:26.952Z</time></trkpt><trkpt lat="39.3303249" lon="17.0184715"><ele>78.0</ele><time>2026-03-22T14:00:27.952Z</time></trkpt><trkpt lat="39.3303355" lon="17.0182938"><ele>78.0</ele><time>2026-03-22T14:00:29.952Z</time></trkpt><trkpt lat="39.3303237" lon="17.0182091"><ele>78.0</ele><time>2026-03-22T14:00:30.952Z</time></trkpt><trkpt lat="39.3303155" lon="17.0181284"><ele>78.0</ele><time>2026-03-22T14:00:31.951Z</time></trkpt><trkpt lat="39.3303065" lon="17.018046"><ele>78.0</ele><time>2026-03-22T14:00:32.951Z</time></trkpt><trkpt lat="39.3302964" lon="17.0179364"><ele>78.0</ele><time>2026-03-22T14:00:34.952Z</time></trkpt><trkpt lat="39.3302588" lon="17.0178529"><ele>78.0</ele><time>2026-03-22T14:00:36.952Z</time></trkpt><trkpt lat="39.3302182" lon="17.0177689"><ele>78.0</ele><time>2026-03-22T14:00:38.951Z</time></trkpt><trkpt lat="39.3301658" lon="17.0176603"><ele>78.0</ele><time>2026-03-22T14:00:40.952Z</time></trkpt><trkpt lat="39.3301044" lon="17.0175616"><ele>78.0</ele><time>2026-03-22T14:00:42.952Z</time></trkpt><trkpt lat="39.3300459" lon="17.0174712"><ele>78.0</ele><time>2026-03-22T14:00:44.952Z</time></trkpt><trkpt lat="39.3299768" lon="17.0173766"><ele>78.0</ele><time>2026-03-22T14:00:46.952Z</time></trkpt><trkpt lat="39.3299106" lon="17.0172927"><ele>78.0</ele><time>2026-03-22T14:00:48.952Z</time></trkpt><trkpt lat="39.3298456" lon="17.0172186"><ele>78.0</ele><time>2026-03-22T14:00:50.952Z</time></trkpt><trkpt lat="39.3297942" lon="17.0171671"><ele>78.0</ele><time>2026-03-22T14:00:52.951Z</time></trkpt><trkpt lat="39.3297395" lon="17.0171099"><ele>78.0</ele><time>2026-03-22T14:00:54.952Z</time></trkpt><trkpt lat="39.3296795" lon="17.0170535"><ele>78.0</ele><time>2026-03-22T14:00:56.952Z</time></trkpt><trkpt lat="39.3296184" lon="17.017012"><ele>78.6</ele><time>2026-03-22T14:00:58.952Z</time></trkpt><trkpt lat="39.3295638" lon="17.0169659"><ele>79.19999999999999</ele><time>2026-03-22T14:01:03.951Z</time></trkpt><trkpt lat="39.3294962" lon="17.0168705"><ele>79.8</ele><time>2026-03-22T14:01:06.951Z</time></trkpt><trkpt lat="39.3294519" lon="17.016777"><ele>80.39999999999999</ele><time>2026-03-22T14:01:07.952Z</time></trkpt><trkpt lat="39.3293927" lon="17.016643"><ele>81.0</ele><time>2026-03-22T14:01:08.951Z</time></trkpt><trkpt lat="39.3293416" lon="17.0164955"><ele>81.0</ele><time>2026-03-22T14:01:09.952Z</time></trkpt><trkpt lat="39.3293059" lon="17.0163608"><ele>81.0</ele><time>2026-03-22T14:01:10.952Z</time></trkpt><trkpt lat="39.3292704" lon="17.0162106"><ele>81.0</ele><time>2026-03-22T14:01:11.952Z</time></trkpt><trkpt lat="39.3292323" lon="17.016067"><ele>81.0</ele><time>2026-03-22T14:01:12.952Z</time></trkpt><trkpt lat="39.3291894" lon="17.0159204"><ele>81.25</ele><time>2026-03-22T14:01:13.952Z</time></trkpt><trkpt lat="39.3291691" lon="17.0157473"><ele>81.5</ele><time>2026-03-22T14:01:14.951Z</time></trkpt><trkpt lat="39.3291572" lon="17.0155575"><ele>81.75</ele><time>2026-03-22T14:01:15.952Z</time></trkpt><trkpt lat="39.3291423" lon="17.0153777"><ele>82.0</ele><time>2026-03-22T14:01:16.952Z</time></trkpt><trkpt lat="39.329126" lon="17.015199"><ele>82.0</ele><time>2026-03-22T14:01:17.952Z</time></trkpt><trkpt lat="39.3291177" lon="17.0150219"><ele>82.0</ele><time>2026-03-22T14:01:18.952Z</time></trkpt><trkpt lat="39.3291032" lon="17.0148518"><ele>82.0</ele><time>2026-03-22T14:01:19.952Z</time></trkpt><trkpt lat="39.3290969" lon="17.0147097"><ele>82.0</ele><time>2026-03-22T14:01:20.952Z</time></trkpt><trkpt lat="39.3290861" lon="17.0146009"><ele>83.0</ele><time>2026-03-22T14:01:21.951Z</time></trkpt><trkpt lat="39.3290781" lon="17.0144888"><ele>84.0</ele><time>2026-03-22T14:01:22.952Z</time></trkpt><trkpt lat="39.3290823" lon="17.0143658"><ele>85.0</ele><time>2026-03-22T14:01:23.952Z</time></trkpt><trkpt lat="39.3290767" lon="17.0142507"><ele>86.0</ele><time>2026-03-22T14:01:24.952Z</time></trkpt><trkpt lat="39.3290675" lon="17.0141473"><ele>87.0</ele><time>2026-03-22T14:01:25.952Z</time></trkpt><trkpt lat="39.3290512" lon="17.0140663"><ele>88.0</ele><time>2026-03-22T14:01:26.951Z</time></trkpt><trkpt lat="39.3290228" lon="17.0139864"><ele>88.0</ele><time>2026-03-22T14:01:27.952Z</time></trkpt><trkpt lat="39.3289823" lon="17.0138444"><ele>88.0</ele><time>2026-03-22T14:01:29.951Z</time></trkpt><trkpt lat="39.3289477" lon="17.0137214"><ele>88.0</ele><time>2026-03-22T14:01:31.952Z</time></trkpt><trkpt lat="39.3289195" lon="17.0136073"><ele>88.0</ele><time>2026-03-22T14:01:33.951Z</time></trkpt><trkpt lat="39.3289326" lon="17.0134865"><ele>88.0</ele><time>2026-03-22T14:01:35.952Z</time></trkpt><trkpt lat="39.3289726" lon="17.0133727"><ele>88.42857142857143</ele><time>2026-03-22T14:01:37.952Z</time></trkpt><trkpt lat="39.3290004" lon="17.0132994"><ele>88.85714285714286</ele><time>2026-03-22T14:01:39.951Z</time></trkpt><trkpt lat="39.3290636" lon="17.013229"><ele>89.28571428571428</ele><time>2026-03-22T14:01:42.951Z</time></trkpt><trkpt lat="39.3291003" lon="17.0131513"><ele>89.71428571428572</ele><time>2026-03-22T14:02:00.952Z</time></trkpt><trkpt lat="39.3291293" lon="17.0130684"><ele>90.14285714285714</ele><time>2026-03-22T14:02:02.952Z</time></trkpt><trkpt lat="39.3291564" lon="17.0129812"><ele>90.57142857142857</ele><time>2026-03-22T14:02:04.951Z</time></trkpt><trkpt lat="39.329116" lon="17.0129001"><ele>91.0</ele><time>2026-03-22T14:02:06.951Z</time></trkpt><trkpt lat="39.3290375" lon="17.0128482"><ele>91.0</ele><time>2026-03-22T14:02:08.952Z</time></trkpt><trkpt lat="39.3289565" lon="17.0128124"><ele>91.0</ele><time>2026-03-22T14:02:10.952Z</time></trkpt><trkpt lat="39.3288776" lon="17.0127908"><ele>91.0</ele><time>2026-03-22T14:02:12.952Z</time></trkpt><trkpt lat="39.3287962" lon="17.0127728"><ele>91.0</ele><time>2026-03-22T14:02:14.952Z</time></trkpt><trkpt lat="39.3287247" lon="17.0127523"><ele>91.0</ele><time>2026-03-22T14:02:16.951Z</time></trkpt><trkpt lat="39.3286505" lon="17.012742"><ele>91.0</ele><time>2026-03-22T14:02:18.952Z</time></trkpt><trkpt lat="39.3285654" lon="17.0127354"><ele>90.5</ele><time>2026-03-22T14:02:20.952Z</time></trkpt><trkpt lat="39.3284807" lon="17.012736"><ele>90.0</ele><time>2026-03-22T14:02:22.952Z</time></trkpt><trkpt lat="39.3284011" lon="17.0127493"><ele>89.5</ele><time>2026-03-22T14:02:24.952Z</time></trkpt><trkpt lat="39.3283104" lon="17.012761"><ele>89.0</ele><time>2026-03-22T14:02:26.952Z</time></trkpt><trkpt lat="39.3282172" lon="17.0127916"><ele>88.5</ele><time>2026-03-22T14:02:28.951Z</time></trkpt><trkpt lat="39.3281309" lon="17.0128406"><ele>88.0</ele><time>2026-03-22T14:02:30.952Z</time></trkpt><trkpt lat="39.3280386" lon="17.0128686"><ele>89.0</ele><time>2026-03-22T14:02:32.952Z</time></trkpt><trkpt lat="39.3279472" lon="17.012858"><ele>90.0</ele><time>2026-03-22T14:02:34.95Z</time></trkpt><trkpt lat="39.3278747" lon="17.0128066"><ele>91.0</ele><time>2026-03-22T14:02:36.952Z</time></trkpt><trkpt lat="39.3278182" lon="17.0127275"><ele>92.0</ele><time>2026-03-22T14:02:38.952Z</time></trkpt><trkpt lat="39.3277769" lon="17.0126269"><ele>93.0</ele><time>2026-03-22T14:02:40.952Z</time></trkpt><trkpt lat="39.3277479" lon="17.0125054"><ele>94.0</ele><time>2026-03-22T14:02:42.951Z</time></trkpt><trkpt lat="39.327725" lon="17.0124011"><ele>94.33333333333333</ele><time>2026-03-22T14:02:44.952Z</time></trkpt><trkpt lat="39.3277131" lon="17.0123099"><ele>94.66666666666666</ele><time>2026-03-22T14:02:46.952Z</time></trkpt><trkpt lat="39.3277207" lon="17.0121945"><ele>95.0</ele><time>2026-03-22T14:02:48.951Z</time></trkpt><trkpt lat="39.3277284" lon="17.0120721"><ele>95.33333333333333</ele><time>2026-03-22T14:02:50.952Z</time></trkpt><trkpt lat="39.3277448" lon="17.0119675"><ele>95.66666666666667</ele><time>2026-03-22T14:02:52.951Z</time></trkpt><trkpt lat="39.3277925" lon="17.011889"><ele>96.0</ele><time>2026-03-22T14:02:54.952Z</time></trkpt><trkpt lat="39.3278654" lon="17.0118311"><ele>96.0</ele><time>2026-03-22T14:02:56.951Z</time></trkpt><trkpt lat="39.3279434" lon="17.0117937"><ele>96.0</ele><time>2026-03-22T14:02:58.951Z</time></trkpt><trkpt lat="39.3280075" lon="17.0117464"><ele>96.0</ele><time>2026-03-22T14:03:00.951Z</time></trkpt><trkpt lat="39.3280545" lon="17.0116907"><ele>96.0</ele><time>2026-03-22T14:03:02.951Z</time></trkpt><trkpt lat="39.3281094" lon="17.0116108"><ele>96.0</ele><time>2026-03-22T14:03:05.952Z</time></trkpt><trkpt lat="39.3280754" lon="17.0115079"><ele>96.0</ele><time>2026-03-22T14:03:08.952Z</time></trkpt><trkpt lat="39.3280289" lon="17.011422"><ele>94.8</ele><time>2026-03-22T14:03:11.952Z</time></trkpt><trkpt lat="39.327987" lon="17.0113145"><ele>93.6</ele><time>2026-03-22T14:03:14.951Z</time></trkpt><trkpt lat="39.3279142" lon="17.0112626"><ele>92.4</ele><time>2026-03-22T14:03:16.951Z</time></trkpt><trkpt lat="39.3278296" lon="17.0112058"><ele>91.2</ele><time>2026-03-22T14:03:18.95Z</time></trkpt><trkpt lat="39.327743" lon="17.011146"><ele>90.0</ele><time>2026-03-22T14:03:20.95Z</time></trkpt><trkpt lat="39.3276609" lon="17.0110773"><ele>90.0</ele><time>2026-03-22T14:03:22.95Z</time></trkpt><trkpt lat="39.3275788" lon="17.0110152"><ele>90.0</ele><time>2026-03-22T14:03:24.951Z</time></trkpt><trkpt lat="39.3274925" lon="17.0109669"><ele>90.0</ele><time>2026-03-22T14:03:26.951Z</time></trkpt><trkpt lat="39.3274135" lon="17.0109217"><ele>90.0</ele><time>2026-03-22T14:03:28.951Z</time></trkpt><trkpt lat="39.3273527" lon="17.010882"><ele>90.0</ele><time>2026-03-22T14:03:30.951Z</time></trkpt><trkpt lat="39.3273187" lon="17.010762"><ele>90.0</ele><time>2026-03-22T14:03:33.95Z</time></trkpt><trkpt lat="39.3273434" lon="17.0106464"><ele>89.85714285714285</ele><time>2026-03-22T14:03:35.951Z</time></trkpt><trkpt lat="39.327379" lon="17.0105784"><ele>89.71428571428572</ele><time>2026-03-22T14:03:37.951Z</time></trkpt><trkpt lat="39.3273963" lon="17.0104948"><ele>89.57142857142857</ele><time>2026-03-22T14:03:39.95Z</time></trkpt><trkpt lat="39.327422" lon="17.010415"><ele>89.42857142857142</ele><time>2026-03-22T14:03:41.951Z</time></trkpt><trkpt lat="39.3274587" lon="17.0103357"><ele>89.28571428571428</ele><time>2026-03-22T14:03:43.951Z</time></trkpt><trkpt lat="39.3274987" lon="17.0102428"><ele>89.14285714285714</ele><time>2026-03-22T14:03:46.951Z</time></trkpt><trkpt lat="39.3275148" lon="17.0101246"><ele>89.0</ele><time>2026-03-22T14:03:49.95Z</time></trkpt><trkpt lat="39.3275375" lon="17.0100356"><ele>89.83333333333334</ele><time>2026-03-22T14:03:51.95Z</time></trkpt><trkpt lat="39.3275622" lon="17.0099463"><ele>90.66666666666667</ele><time>2026-03-22T14:03:53.951Z</time></trkpt><trkpt lat="39.3275782" lon="17.0098636"><ele>91.5</ele><time>2026-03-22T14:03:55.95Z</time></trkpt><trkpt lat="39.3275774" lon="17.009745"><ele>92.33333333333333</ele><time>2026-03-22T14:03:57.949Z</time></trkpt><trkpt lat="39.3275272" lon="17.0096624"><ele>93.16666666666666</ele><time>2026-03-22T14:03:59.95Z</time></trkpt><trkpt lat="39.327451" lon="17.0096261"><ele>94.0</ele><time>2026-03-22T14:04:02.951Z</time></trkpt><trkpt lat="39.3273818" lon="17.0095945"><ele>94.0</ele><time>2026-03-22T14:04:10.951Z</time></trkpt><trkpt lat="39.3273142" lon="17.0095871"><ele>94.0</ele><time>2026-03-22T14:04:13.95Z</time></trkpt><trkpt lat="39.3272516" lon="17.0095409"><ele>94.0</ele><time>2026-03-22T14:04:16.951Z</time></trkpt><trkpt lat="39.3271954" lon="17.0094861"><ele>94.0</ele><time>2026-03-22T14:04:19.951Z</time></trkpt><trkpt lat="39.3271332" lon="17.009418"><ele>94.0</ele><time>2026-03-22T14:04:22.95Z</time></trkpt><trkpt lat="39.3270731" lon="17.0093616"><ele>94.0</ele><time>2026-03-22T14:04:25.951Z</time></trkpt><trkpt lat="39.3269939" lon="17.0093214"><ele>93.83333333333333</ele><time>2026-03-22T14:04:28.951Z</time></trkpt><trkpt lat="39.3269178" lon="17.0093132"><ele>93.66666666666666</ele><time>2026-03-22T14:04:30.949Z</time></trkpt><trkpt lat="39.3268308" lon="17.0093064"><ele>93.5</ele><time>2026-03-22T14:04:32.95Z</time></trkpt><trkpt lat="39.3267437" lon="17.0092854"><ele>93.33333333333333</ele><time>2026-03-22T14:04:34.95Z</time></trkpt><trkpt lat="39.32667" lon="17.0092136"><ele>93.16666666666667</ele><time>2026-03-22T14:04:36.95Z</time></trkpt><trkpt lat="39.3266012" lon="17.0091568"><ele>93.0</ele><time>2026-03-22T14:04:38.951Z</time></trkpt><trkpt lat="39.3265451" lon="17.009099"><ele>93.0</ele><time>2026-03-22T14:04:40.949Z</time></trkpt><trkpt lat="39.3264876" lon="17.009005"><ele>93.0</ele><time>2026-03-22T14:04:43.95Z</time></trkpt><trkpt lat="39.326459" lon="17.0089261"><ele>93.0</ele><time>2026-03-22T14:04:45.95Z</time></trkpt><trkpt lat="39.3264445" lon="17.0088448"><ele>93.0</ele><time>2026-03-22T14:04:47.951Z</time></trkpt><trkpt lat="39.3264272" lon="17.0087485"><ele>93.0</ele><time>2026-03-22T14:05:08.95Z</time></trkpt><trkpt lat="39.3263525" lon="17.0087309"><ele>93.0</ele><time>2026-03-22T14:05:11.951Z</time></trkpt><trkpt lat="39.3262763" lon="17.0087106"><ele>95.28571428571429</ele><time>2026-03-22T14:05:14.951Z</time></trkpt><trkpt lat="39.3262127" lon="17.0087"><ele>97.57142857142857</ele><time>2026-03-22T14:05:17.951Z</time></trkpt><trkpt lat="39.326157" lon="17.0087384"><ele>99.85714285714286</ele><time>2026-03-22T14:05:19.949Z</time></trkpt><trkpt lat="39.3260821" lon="17.0087775"><ele>102.14285714285714</ele><time>2026-03-22T14:05:22.95Z</time></trkpt><trkpt lat="39.3260485" lon="17.0088469"><ele>104.42857142857143</ele><time>2026-03-22T14:05:25.951Z</time></trkpt><trkpt lat="39.3260537" lon="17.0089401"><ele>106.71428571428572</ele><time>2026-03-22T14:05:29.951Z</time></trkpt><trkpt lat="39.3261314" lon="17.0089687"><ele>109.0</ele><time>2026-03-22T14:05:32.951Z</time></trkpt><trkpt lat="39.3262175" lon="17.0089546"><ele>109.00000000000001</ele><time>2026-03-22T14:05:35.951Z</time></trkpt><trkpt lat="39.3262478" lon="17.0088349"><ele>109.0</ele><time>2026-03-22T14:05:37.951Z</time></trkpt><trkpt lat="39.3262965" lon="17.0087391"><ele>109.0</ele><time>2026-03-22T14:05:39.951Z</time></trkpt><trkpt lat="39.3263416" lon="17.0086601"><ele>109.0</ele><time>2026-03-22T14:05:41.951Z</time></trkpt><trkpt lat="39.3264233" lon="17.0085727"><ele>109.00000000000001</ele><time>2026-03-22T14:05:43.951Z</time></trkpt><trkpt lat="39.3264763" lon="17.008496"><ele>109.0</ele><time>2026-03-22T14:05:44.95Z</time></trkpt><trkpt lat="39.3265179" lon="17.0084184"><ele>106.66666666666667</ele><time>2026-03-22T14:05:46.95Z</time></trkpt><trkpt lat="39.326555" lon="17.0083121"><ele>104.33333333333334</ele><time>2026-03-22T14:05:48.951Z</time></trkpt><trkpt lat="39.326562" lon="17.0082004"><ele>102.0</ele><time>2026-03-22T14:05:50.951Z</time></trkpt><trkpt lat="39.3265492" lon="17.0081105"><ele>99.66666666666667</ele><time>2026-03-22T14:05:52.951Z</time></trkpt><trkpt lat="39.3265255" lon="17.0080163"><ele>97.33333333333334</ele><time>2026-03-22T14:05:54.951Z</time></trkpt><trkpt lat="39.3265087" lon="17.0078957"><ele>95.0</ele><time>2026-03-22T14:05:56.95Z</time></trkpt><trkpt lat="39.3264958" lon="17.0077865"><ele>95.0</ele><time>2026-03-22T14:05:58.951Z</time></trkpt><trkpt lat="39.3264487" lon="17.0077079"><ele>95.0</ele><time>2026-03-22T14:06:00.951Z</time></trkpt><trkpt lat="39.326392" lon="17.0076221"><ele>95.0</ele><time>2026-03-22T14:06:02.951Z</time></trkpt><trkpt lat="39.3263358" lon="17.0075617"><ele>95.0</ele><time>2026-03-22T14:06:04.951Z</time></trkpt><trkpt lat="39.3262677" lon="17.0075212"><ele>95.0</ele><time>2026-03-22T14:06:06.95Z</time></trkpt><trkpt lat="39.3261927" lon="17.007482"><ele>95.0</ele><time>2026-03-22T14:06:08.95Z</time></trkpt><trkpt lat="39.3261196" lon="17.0074297"><ele>95.33333333333334</ele><time>2026-03-22T14:06:10.951Z</time></trkpt><trkpt lat="39.3260307" lon="17.0073641"><ele>95.66666666666667</ele><time>2026-03-22T14:06:12.951Z</time></trkpt><trkpt lat="39.3259552" lon="17.0073236"><ele>96.0</ele><time>2026-03-22T14:06:14.951Z</time></trkpt><trkpt lat="39.3258879" lon="17.0072689"><ele>96.33333333333334</ele><time>2026-03-22T14:06:17.951Z</time></trkpt><trkpt lat="39.3258185" lon="17.007234"><ele>96.66666666666667</ele><time>2026-03-22T14:06:20.951Z</time></trkpt><trkpt lat="39.3257356" lon="17.0072032"><ele>97.0</ele><time>2026-03-22T14:06:22.951Z</time></trkpt><trkpt lat="39.3256696" lon="17.0072205"><ele>97.00000000000001</ele><time>2026-03-22T14:06:23.951Z</time></trkpt><trkpt lat="39.3255897" lon="17.0072229"><ele>97.0</ele><time>2026-03-22T14:06:24.951Z</time></trkpt><trkpt lat="39.3254964" lon="17.0072067"><ele>97.0</ele><time>2026-03-22T14:06:26.951Z</time></trkpt><trkpt lat="39.3254293" lon="17.0071777"><ele>97.0</ele><time>2026-03-22T14:06:28.951Z</time></trkpt><trkpt lat="39.3253522" lon="17.0071637"><ele>97.00000000000001</ele><time>2026-03-22T14:06:31.951Z</time></trkpt><trkpt lat="39.3252814" lon="17.0071044"><ele>97.0</ele><time>2026-03-22T14:06:35.951Z</time></trkpt><trkpt lat="39.3252332" lon="17.0070381"><ele>98.00000000000001</ele><time>2026-03-22T14:06:38.951Z</time></trkpt><trkpt lat="39.3251902" lon="17.0069587"><ele>99.0</ele><time>2026-03-22T14:06:41.951Z</time></trkpt><trkpt lat="39.3251676" lon="17.0068572"><ele>100.0</ele><time>2026-03-22T14:06:44.951Z</time></trkpt><trkpt lat="39.3251473" lon="17.0067722"><ele>101.0</ele><time>2026-03-22T14:06:46.95Z</time></trkpt><trkpt lat="39.3251197" lon="17.0066692"><ele>102.00000000000001</ele><time>2026-03-22T14:06:49.951Z</time></trkpt><trkpt lat="39.3251132" lon="17.0065694"><ele>103.0</ele><time>2026-03-22T14:06:52.951Z</time></trkpt><trkpt lat="39.3251086" lon="17.0064619"><ele>103.0</ele><time>2026-03-22T14:06:55.949Z</time></trkpt><trkpt lat="39.3251124" lon="17.0063393"><ele>103.0</ele><time>2026-03-22T14:06:58.951Z</time></trkpt><trkpt lat="39.3251035" lon="17.006212"><ele>103.0</ele><time>2026-03-22T14:07:00.951Z</time></trkpt><trkpt lat="39.3251186" lon="17.0060742"><ele>103.0</ele><time>2026-03-22T14:07:02.951Z</time></trkpt><trkpt lat="39.3251182" lon="17.0059414"><ele>103.0</ele><time>2026-03-22T14:07:04.951Z</time></trkpt><trkpt lat="39.3251267" lon="17.0058228"><ele>103.60000000000001</ele><time>2026-03-22T14:07:06.95Z</time></trkpt><trkpt lat="39.325149" lon="17.0057145"><ele>104.2</ele><time>2026-03-22T14:07:08.951Z</time></trkpt><trkpt lat="39.3251609" lon="17.005567"><ele>104.8</ele><time>2026-03-22T14:07:10.95Z</time></trkpt><trkpt lat="39.325167" lon="17.0054138"><ele>105.4</ele><time>2026-03-22T14:07:12.951Z</time></trkpt><trkpt lat="39.3251652" lon="17.0053294"><ele>106.0</ele><time>2026-03-22T14:07:13.951Z</time></trkpt><trkpt lat="39.3251708" lon="17.0051757"><ele>106.0</ele><time>2026-03-22T14:07:15.951Z</time></trkpt><trkpt lat="39.3251752" lon="17.0050771"><ele>106.0</ele><time>2026-03-22T14:07:16.951Z</time></trkpt><trkpt lat="39.3251784" lon="17.0049567"><ele>106.0</ele><time>2026-03-22T14:07:17.95Z</time></trkpt><trkpt lat="39.3251887" lon="17.0048269"><ele>106.0</ele><time>2026-03-22T14:07:18.95Z</time></trkpt><trkpt lat="39.3251956" lon="17.0046937"><ele>106.0</ele><time>2026-03-22T14:07:19.951Z</time></trkpt><trkpt lat="39.3252006" lon="17.0045549"><ele>106.19999999999999</ele><time>2026-03-22T14:07:20.951Z</time></trkpt><trkpt lat="39.3251992" lon="17.0044228"><ele>106.39999999999999</ele><time>2026-03-22T14:07:21.951Z</time></trkpt><trkpt lat="39.3251839" lon="17.004316"><ele>106.6</ele><time>2026-03-22T14:07:22.951Z</time></trkpt><trkpt lat="39.3251689" lon="17.0042325"><ele>106.8</ele><time>2026-03-22T14:07:23.951Z</time></trkpt><trkpt lat="39.3251768" lon="17.0040814"><ele>107.0</ele><time>2026-03-22T14:07:25.951Z</time></trkpt><trkpt lat="39.3251538" lon="17.0039746"><ele>107.71428571428572</ele><time>2026-03-22T14:07:27.951Z</time></trkpt><trkpt lat="39.3251825" lon="17.0038896"><ele>108.42857142857143</ele><time>2026-03-22T14:07:29.95Z</time></trkpt><trkpt lat="39.3252065" lon="17.0037928"><ele>109.14285714285714</ele><time>2026-03-22T14:07:32.951Z</time></trkpt><trkpt lat="39.3252467" lon="17.0037248"><ele>109.85714285714286</ele><time>2026-03-22T14:07:35.951Z</time></trkpt><trkpt lat="39.3252891" lon="17.0036454"><ele>110.57142857142857</ele><time>2026-03-22T14:07:43.951Z</time></trkpt><trkpt lat="39.3253347" lon="17.0035863"><ele>111.28571428571429</ele><time>2026-03-22T14:07:50.95Z</time></trkpt><trkpt lat="39.3253852" lon="17.0035359"><ele>112.0</ele><time>2026-03-22T14:07:57.951Z</time></trkpt><trkpt lat="39.325379" lon="17.0034441"><ele>112.00000000000001</ele><time>2026-03-22T14:08:03.951Z</time></trkpt><trkpt lat="39.325409" lon="17.0033607"><ele>112.0</ele><time>2026-03-22T14:08:09.951Z</time></trkpt><trkpt lat="39.3254463" lon="17.0032658"><ele>112.0</ele><time>2026-03-22T14:08:16.951Z</time></trkpt><trkpt lat="39.3254848" lon="17.0031773"><ele>112.0</ele><time>2026-03-22T14:08:19.951Z</time></trkpt><trkpt lat="39.3255125" lon="17.0031038"><ele>112.00000000000001</ele><time>2026-03-22T14:08:22.951Z</time></trkpt><trkpt lat="39.3255472" lon="17.0030024"><ele>112.0</ele><time>2026-03-22T14:08:26.95Z</time></trkpt><trkpt lat="39.3255822" lon="17.0028887"><ele>111.16666666666667</ele><time>2026-03-22T14:08:29.951Z</time></trkpt><trkpt lat="39.325592" lon="17.0028"><ele>110.33333333333334</ele><time>2026-03-22T14:08:31.951Z</time></trkpt><trkpt lat="39.3255927" lon="17.00271"><ele>109.5</ele><time>2026-03-22T14:08:33.951Z</time></trkpt><trkpt lat="39.3255933" lon="17.0026276"><ele>108.66666666666666</ele><time>2026-03-22T14:08:35.951Z</time></trkpt><trkpt lat="39.3256191" lon="17.0025519"><ele>107.83333333333333</ele><time>2026-03-22T14:08:38.95Z</time></trkpt><trkpt lat="39.3255977" lon="17.0024367"><ele>107.0</ele><time>2026-03-22T14:08:43.951Z</time></trkpt><trkpt lat="39.3255816" lon="17.002308"><ele>106.99999999999999</ele><time>2026-03-22T14:08:45.951Z</time></trkpt><trkpt lat="39.325569" lon="17.0021674"><ele>107.0</ele><time>2026-03-22T14:08:47.951Z</time></trkpt><trkpt lat="39.3255149" lon="17.0021234"><ele>107.0</ele><time>2026-03-22T14:08:51.951Z</time></trkpt><trkpt lat="39.3254171" lon="17.0021749"><ele>107.0</ele><time>2026-03-22T14:08:53.951Z</time></trkpt><trkpt lat="39.3253367" lon="17.0021576"><ele>106.99999999999999</ele><time>2026-03-22T14:08:54.951Z</time></trkpt><trkpt lat="39.3252543" lon="17.0021409"><ele>107.0</ele><time>2026-03-22T14:08:55.95Z</time></trkpt><trkpt lat="39.3251295" lon="17.0021253"><ele>107.66666666666666</ele><time>2026-03-22T14:08:57.951Z</time></trkpt><trkpt lat="39.3250562" lon="17.0021257"><ele>108.33333333333333</ele><time>2026-03-22T14:08:58.95Z</time></trkpt><trkpt lat="39.3249833" lon="17.0021285"><ele>109.0</ele><time>2026-03-22T14:08:59.951Z</time></trkpt><trkpt lat="39.324906" lon="17.0021321"><ele>109.66666666666666</ele><time>2026-03-22T14:09:00.951Z</time></trkpt><trkpt lat="39.3248316" lon="17.0021273"><ele>110.33333333333333</ele><time>2026-03-22T14:09:01.95Z</time></trkpt><trkpt lat="39.3247521" lon="17.0021171"><ele>111.0</ele><time>2026-03-22T14:09:02.951Z</time></trkpt><trkpt lat="39.3246553" lon="17.0021041"><ele>113.4</ele><time>2026-03-22T14:09:03.951Z</time></trkpt><trkpt lat="39.3245593" lon="17.0020981"><ele>115.8</ele><time>2026-03-22T14:09:04.951Z</time></trkpt><trkpt lat="39.3244452" lon="17.0020905"><ele>118.20000000000002</ele><time>2026-03-22T14:09:05.951Z</time></trkpt><trkpt lat="39.3243266" lon="17.0020844"><ele>120.60000000000001</ele><time>2026-03-22T14:09:06.95Z</time></trkpt><trkpt lat="39.3242241" lon="17.0020806"><ele>123.0</ele><time>2026-03-22T14:09:07.951Z</time></trkpt><trkpt lat="39.3241392" lon="17.0020754"><ele>123.0</ele><time>2026-03-22T14:09:08.951Z</time></trkpt><trkpt lat="39.3240605" lon="17.002059"><ele>123.0</ele><time>2026-03-22T14:09:09.951Z</time></trkpt><trkpt lat="39.3239861" lon="17.0020312"><ele>123.0</ele><time>2026-03-22T14:09:10.95Z</time></trkpt><trkpt lat="39.3239143" lon="17.0019983"><ele>123.0</ele><time>2026-03-22T14:09:11.95Z</time></trkpt><trkpt lat="39.3238427" lon="17.0019594"><ele>123.0</ele><time>2026-03-22T14:09:12.949Z</time></trkpt><trkpt lat="39.323764" lon="17.0019351"><ele>123.0</ele><time>2026-03-22T14:09:13.95Z</time></trkpt><trkpt lat="39.323684" lon="17.0019291"><ele>126.0</ele><time>2026-03-22T14:09:14.949Z</time></trkpt><trkpt lat="39.3236045" lon="17.0019231"><ele>129.0</ele><time>2026-03-22T14:09:15.95Z</time></trkpt><trkpt lat="39.3235237" lon="17.0018829"><ele>132.0</ele><time>2026-03-22T14:09:16.95Z</time></trkpt><trkpt lat="39.3234564" lon="17.0017906"><ele>135.0</ele><time>2026-03-22T14:09:17.949Z</time></trkpt><trkpt lat="39.3233906" lon="17.0016914"><ele>138.0</ele><time>2026-03-22T14:09:18.95Z</time></trkpt><trkpt lat="39.3233263" lon="17.0016205"><ele>140.66666666666666</ele><time>2026-03-22T14:09:19.949Z</time></trkpt><trkpt lat="39.323241" lon="17.0015957"><ele>143.33333333333334</ele><time>2026-03-22T14:09:20.95Z</time></trkpt><trkpt lat="39.323153" lon="17.0015877"><ele>146.0</ele><time>2026-03-22T14:09:21.95Z</time></trkpt><trkpt lat="39.3230862" lon="17.0015515"><ele>148.66666666666669</ele><time>2026-03-22T14:09:22.95Z</time></trkpt><trkpt lat="39.3230583" lon="17.0014785"><ele>151.33333333333334</ele><time>2026-03-22T14:09:23.95Z</time></trkpt><trkpt lat="39.3230596" lon="17.0013922"><ele>154.0</ele><time>2026-03-22T14:09:24.948Z</time></trkpt><trkpt lat="39.3230833" lon="17.0012815"><ele>154.0</ele><time>2026-03-22T14:09:25.95Z</time></trkpt><trkpt lat="39.3231129" lon="17.0011368"><ele>154.0</ele><time>2026-03-22T14:09:26.95Z</time></trkpt><trkpt lat="39.3231647" lon="17.0009736"><ele>154.0</ele><time>2026-03-22T14:09:27.95Z</time></trkpt><trkpt lat="39.3232251" lon="17.0008385"><ele>154.0</ele><time>2026-03-22T14:09:28.95Z</time></trkpt><trkpt lat="39.3232847" lon="17.000729"><ele>155.0</ele><time>2026-03-22T14:09:29.95Z</time></trkpt><trkpt lat="39.3233328" lon="17.0006378"><ele>156.0</ele><time>2026-03-22T14:09:30.95Z</time></trkpt><trkpt lat="39.3233781" lon="17.0005571"><ele>157.0</ele><time>2026-03-22T14:09:31.95Z</time></trkpt><trkpt lat="39.3234162" lon="17.0004331"><ele>158.0</ele><time>2026-03-22T14:09:33.95Z</time></trkpt><trkpt lat="39.3233392" lon="17.0003261"><ele>159.0</ele><time>2026-03-22T14:09:35.95Z</time></trkpt><trkpt lat="39.3232827" lon="17.0002728"><ele>160.0</ele><time>2026-03-22T14:09:36.95Z</time></trkpt><trkpt lat="39.3232281" lon="17.0002216"><ele>160.0</ele><time>2026-03-22T14:09:37.95Z</time></trkpt><trkpt lat="39.3231752" lon="17.0001731"><ele>160.0</ele><time>2026-03-22T14:09:38.95Z</time></trkpt><trkpt lat="39.3231265" lon="17.0001187"><ele>160.0</ele><time>2026-03-22T14:09:39.95Z</time></trkpt><trkpt lat="39.3230808" lon="17.0000538"><ele>160.0</ele><time>2026-03-22T14:09:40.95Z</time></trkpt><trkpt lat="39.3229914" lon="16.9999438"><ele>160.0</ele><time>2026-03-22T14:09:42.95Z</time></trkpt><trkpt lat="39.3228898" lon="16.9998337"><ele>163.5</ele><time>2026-03-22T14:09:44.95Z</time></trkpt><trkpt lat="39.3228195" lon="16.9998058"><ele>167.0</ele><time>2026-03-22T14:09:45.949Z</time></trkpt><trkpt lat="39.3227473" lon="16.999815"><ele>170.5</ele><time>2026-03-22T14:09:46.95Z</time></trkpt><trkpt lat="39.3226826" lon="16.9998598"><ele>174.0</ele><time>2026-03-22T14:09:47.95Z</time></trkpt><trkpt lat="39.3226284" lon="16.99995"><ele>177.5</ele><time>2026-03-22T14:09:48.95Z</time></trkpt><trkpt lat="39.3225567" lon="17.0000573"><ele>181.0</ele><time>2026-03-22T14:09:49.95Z</time></trkpt><trkpt lat="39.3224991" lon="17.000161"><ele>181.0</ele><time>2026-03-22T14:09:50.95Z</time></trkpt><trkpt lat="39.3224454" lon="17.0002408"><ele>181.0</ele><time>2026-03-22T14:09:51.949Z</time></trkpt><trkpt lat="39.3223727" lon="17.0002792"><ele>181.0</ele><time>2026-03-22T14:09:52.95Z</time></trkpt><trkpt lat="39.3222934" lon="17.0003"><ele>181.0</ele><time>2026-03-22T14:09:53.95Z</time></trkpt><trkpt lat="39.3222193" lon="17.0003384"><ele>181.0</ele><time>2026-03-22T14:09:54.95Z</time></trkpt><trkpt lat="39.3221522" lon="17.0003967"><ele>181.0</ele><time>2026-03-22T14:09:55.949Z</time></trkpt><trkpt lat="39.3220815" lon="17.0004751"><ele>185.0</ele><time>2026-03-22T14:09:56.949Z</time></trkpt><trkpt lat="39.3220033" lon="17.0005176"><ele>189.0</ele><time>2026-03-22T14:09:57.949Z</time></trkpt><trkpt lat="39.3219166" lon="17.0005009"><ele>193.0</ele><time>2026-03-22T14:09:58.95Z</time></trkpt><trkpt lat="39.3218269" lon="17.0004336"><ele>197.0</ele><time>2026-03-22T14:09:59.95Z</time></trkpt><trkpt lat="39.3217346" lon="17.0003514"><ele>201.0</ele><time>2026-03-22T14:10:00.949Z</time></trkpt><trkpt lat="39.3216188" lon="17.0002787"><ele>201.0</ele><time>2026-03-22T14:10:01.95Z</time></trkpt><trkpt lat="39.3214732" lon="17.0002149"><ele>201.0</ele><time>2026-03-22T14:10:02.95Z</time></trkpt><trkpt lat="39.3213076" lon="17.000151"><ele>201.0</ele><time>2026-03-22T14:10:03.95Z</time></trkpt><trkpt lat="39.3211432" lon="17.0000984"><ele>203.4</ele><time>2026-03-22T14:10:04.949Z</time></trkpt><trkpt lat="39.3210232" lon="17.0000531"><ele>205.8</ele><time>2026-03-22T14:10:05.95Z</time></trkpt><trkpt lat="39.3209321" lon="17.0000211"><ele>208.20000000000002</ele><time>2026-03-22T14:10:06.95Z</time></trkpt><trkpt lat="39.3208662" lon="16.999968"><ele>210.60000000000002</ele><time>2026-03-22T14:10:07.95Z</time></trkpt><trkpt lat="39.3208147" lon="16.9998799"><ele>213.0</ele><time>2026-03-22T14:10:08.95Z</time></trkpt><trkpt lat="39.3207789" lon="16.9997627"><ele>213.0</ele><time>2026-03-22T14:10:09.95Z</time></trkpt><trkpt lat="39.3207476" lon="16.9995954"><ele>213.0</ele><time>2026-03-22T14:10:10.949Z</time></trkpt><trkpt lat="39.3207188" lon="16.9994111"><ele>213.0</ele><time>2026-03-22T14:10:11.95Z</time></trkpt><trkpt lat="39.3206977" lon="16.9992582"><ele>213.0</ele><time>2026-03-22T14:10:12.949Z</time></trkpt><trkpt lat="39.3206809" lon="16.9991338"><ele>214.33333333333334</ele><time>2026-03-22T14:10:13.95Z</time></trkpt><trkpt lat="39.3206607" lon="16.9990377"><ele>215.66666666666669</ele><time>2026-03-22T14:10:14.95Z</time></trkpt><trkpt lat="39.3206277" lon="16.9989558"><ele>217.0</ele><time>2026-03-22T14:10:15.95Z</time></trkpt><trkpt lat="39.3205778" lon="16.9988834"><ele>218.33333333333334</ele><time>2026-03-22T14:10:16.95Z</time></trkpt><trkpt lat="39.3205078" lon="16.9988241"><ele>219.66666666666669</ele><time>2026-03-22T14:10:17.95Z</time></trkpt><trkpt lat="39.3204264" lon="16.9987694"><ele>221.0</ele><time>2026-03-22T14:10:18.949Z</time></trkpt><trkpt lat="39.3203461" lon="16.9987032"><ele>221.0</ele><time>2026-03-22T14:10:19.949Z</time></trkpt><trkpt lat="39.3202698" lon="16.9986309"><ele>221.00000000000003</ele><time>2026-03-22T14:10:20.95Z</time></trkpt><trkpt lat="39.3202085" lon="16.9985377"><ele>221.00000000000003</ele><time>2026-03-22T14:10:21.95Z</time></trkpt><trkpt lat="39.3201686" lon="16.9984258"><ele>221.0</ele><time>2026-03-22T14:10:22.95Z</time></trkpt><trkpt lat="39.3201353" lon="16.9983178"><ele>221.0</ele><time>2026-03-22T14:10:23.949Z</time></trkpt><trkpt lat="39.320081" lon="16.9982336"><ele>222.8</ele><time>2026-03-22T14:10:24.95Z</time></trkpt><trkpt lat="39.3200089" lon="16.9981727"><ele>224.60000000000002</ele><time>2026-03-22T14:10:25.949Z</time></trkpt><trkpt lat="39.3199113" lon="16.9981375"><ele>226.4</ele><time>2026-03-22T14:10:26.95Z</time></trkpt><trkpt lat="39.3198161" lon="16.9980874"><ele>228.2</ele><time>2026-03-22T14:10:27.95Z</time></trkpt><trkpt lat="39.3197248" lon="16.9980241"><ele>230.0</ele><time>2026-03-22T14:10:28.95Z</time></trkpt><trkpt lat="39.3196408" lon="16.9979597"><ele>230.2</ele><time>2026-03-22T14:10:29.95Z</time></trkpt><trkpt lat="39.3195626" lon="16.9978979"><ele>230.4</ele><time>2026-03-22T14:10:30.95Z</time></trkpt><trkpt lat="39.3194894" lon="16.9978351"><ele>230.60000000000002</ele><time>2026-03-22T14:10:31.95Z</time></trkpt><trkpt lat="39.3194156" lon="16.9977737"><ele>230.8</ele><time>2026-03-22T14:10:32.95Z</time></trkpt><trkpt lat="39.3193372" lon="16.9977124"><ele>231.0</ele><time>2026-03-22T14:10:33.95Z</time></trkpt><trkpt lat="39.3192508" lon="16.9976579"><ele>231.0</ele><time>2026-03-22T14:10:34.949Z</time></trkpt><trkpt lat="39.319165" lon="16.9976077"><ele>231.00000000000003</ele><time>2026-03-22T14:10:35.95Z</time></trkpt><trkpt lat="39.3190782" lon="16.997559"><ele>231.00000000000003</ele><time>2026-03-22T14:10:36.95Z</time></trkpt><trkpt lat="39.3189904" lon="16.9975134"><ele>231.0</ele><time>2026-03-22T14:10:37.95Z</time></trkpt><trkpt lat="39.3189077" lon="16.9974675"><ele>231.0</ele><time>2026-03-22T14:10:38.95Z</time></trkpt><trkpt lat="39.3188261" lon="16.9974178"><ele>235.33333333333334</ele><time>2026-03-22T14:10:39.95Z</time></trkpt><trkpt lat="39.318751" lon="16.997364"><ele>239.66666666666669</ele><time>2026-03-22T14:10:40.95Z</time></trkpt><trkpt lat="39.318673" lon="16.9973101"><ele>244.0</ele><time>2026-03-22T14:10:41.95Z</time></trkpt><trkpt lat="39.3185952" lon="16.9972537"><ele>248.33333333333334</ele><time>2026-03-22T14:10:42.948Z</time></trkpt><trkpt lat="39.3185154" lon="16.9972044"><ele>252.66666666666669</ele><time>2026-03-22T14:10:43.949Z</time></trkpt><trkpt lat="39.3184275" lon="16.9971656"><ele>257.0</ele><time>2026-03-22T14:10:44.95Z</time></trkpt><trkpt lat="39.3183327" lon="16.9971434"><ele>257.0</ele><time>2026-03-22T14:10:45.95Z</time></trkpt><trkpt lat="39.3182212" lon="16.9971364"><ele>257.0</ele><time>2026-03-22T14:10:46.95Z</time></trkpt><trkpt lat="39.3181085" lon="16.9971255"><ele>257.0</ele><time>2026-03-22T14:10:47.95Z</time></trkpt><trkpt lat="39.3179973" lon="16.9971229"><ele>257.0</ele><time>2026-03-22T14:10:48.95Z</time></trkpt><trkpt lat="39.3178917" lon="16.9971362"><ele>257.0</ele><time>2026-03-22T14:10:49.949Z</time></trkpt><trkpt lat="39.3177911" lon="16.9971756"><ele>259.8</ele><time>2026-03-22T14:10:50.95Z</time></trkpt><trkpt lat="39.3176977" lon="16.9972294"><ele>262.6</ele><time>2026-03-22T14:10:51.95Z</time></trkpt><trkpt lat="39.3176058" lon="16.9972909"><ele>265.40000000000003</ele><time>2026-03-22T14:10:52.95Z</time></trkpt><trkpt lat="39.3175147" lon="16.9973511"><ele>268.2</ele><time>2026-03-22T14:10:53.95Z</time></trkpt><trkpt lat="39.3174317" lon="16.9974043"><ele>271.0</ele><time>2026-03-22T14:10:54.95Z</time></trkpt><trkpt lat="39.3173487" lon="16.9974396"><ele>271.0</ele><time>2026-03-22T14:10:55.95Z</time></trkpt><trkpt lat="39.317259" lon="16.997457"><ele>271.0</ele><time>2026-03-22T14:10:56.95Z</time></trkpt><trkpt lat="39.3171617" lon="16.9974601"><ele>271.0</ele><time>2026-03-22T14:10:57.95Z</time></trkpt><trkpt lat="39.3170666" lon="16.9974441"><ele>271.0</ele><time>2026-03-22T14:10:58.95Z</time></trkpt><trkpt lat="39.3169738" lon="16.997412"><ele>271.0</ele><time>2026-03-22T14:10:59.949Z</time></trkpt><trkpt lat="39.3168813" lon="16.9973496"><ele>271.25</ele><time>2026-03-22T14:11:00.95Z</time></trkpt><trkpt lat="39.3167814" lon="16.9972749"><ele>271.5</ele><time>2026-03-22T14:11:01.95Z</time></trkpt><trkpt lat="39.3166777" lon="16.9971845"><ele>271.75</ele><time>2026-03-22T14:11:02.95Z</time></trkpt><trkpt lat="39.3165721" lon="16.9970863"><ele>272.0</ele><time>2026-03-22T14:11:03.949Z</time></trkpt><trkpt lat="39.3164772" lon="16.9969842"><ele>271.4</ele><time>2026-03-22T14:11:04.95Z</time></trkpt><trkpt lat="39.3163937" lon="16.9968769"><ele>270.79999999999995</ele><time>2026-03-22T14:11:05.95Z</time></trkpt><trkpt lat="39.3163152" lon="16.9967805"><ele>270.2</ele><time>2026-03-22T14:11:06.95Z</time></trkpt><trkpt lat="39.3162312" lon="16.9966983"><ele>269.59999999999997</ele><time>2026-03-22T14:11:07.95Z</time></trkpt><trkpt lat="39.3161385" lon="16.9966406"><ele>269.0</ele><time>2026-03-22T14:11:08.95Z</time></trkpt><trkpt lat="39.3160393" lon="16.9966009"><ele>271.2</ele><time>2026-03-22T14:11:09.95Z</time></trkpt><trkpt lat="39.315938" lon="16.9965791"><ele>273.4</ele><time>2026-03-22T14:11:10.95Z</time></trkpt><trkpt lat="39.3158352" lon="16.9965607"><ele>275.6</ele><time>2026-03-22T14:11:11.95Z</time></trkpt><trkpt lat="39.3157354" lon="16.996534"><ele>277.8</ele><time>2026-03-22T14:11:12.95Z</time></trkpt><trkpt lat="39.3156378" lon="16.9965028"><ele>280.0</ele><time>2026-03-22T14:11:13.95Z</time></trkpt><trkpt lat="39.3155382" lon="16.9964708"><ele>280.6</ele><time>2026-03-22T14:11:14.95Z</time></trkpt><trkpt lat="39.3154379" lon="16.9964392"><ele>281.2</ele><time>2026-03-22T14:11:15.95Z</time></trkpt><trkpt lat="39.3153425" lon="16.9964034"><ele>281.8</ele><time>2026-03-22T14:11:16.949Z</time></trkpt><trkpt lat="39.3152408" lon="16.9963667"><ele>282.4</ele><time>2026-03-22T14:11:17.95Z</time></trkpt><trkpt lat="39.3151465" lon="16.9963272"><ele>283.0</ele><time>2026-03-22T14:11:18.95Z</time></trkpt><trkpt lat="39.3150536" lon="16.9963072"><ele>283.0</ele><time>2026-03-22T14:11:19.95Z</time></trkpt><trkpt lat="39.3149742" lon="16.9963093"><ele>283.0</ele><time>2026-03-22T14:11:20.95Z</time></trkpt><trkpt lat="39.3149007" lon="16.9963295"><ele>283.0</ele><time>2026-03-22T14:11:21.95Z</time></trkpt><trkpt lat="39.3148341" lon="16.9963651"><ele>283.0</ele><time>2026-03-22T14:11:22.95Z</time></trkpt><trkpt lat="39.3148128" lon="16.9964891"><ele>283.0</ele><time>2026-03-22T14:11:23.95Z</time></trkpt><trkpt lat="39.3147801" lon="16.9966205"><ele>283.0</ele><time>2026-03-22T14:11:24.95Z</time></trkpt><trkpt lat="39.3147426" lon="16.9967475"><ele>282.16666666666663</ele><time>2026-03-22T14:11:25.95Z</time></trkpt><trkpt lat="39.3146652" lon="16.9968672"><ele>281.3333333333333</ele><time>2026-03-22T14:11:26.95Z</time></trkpt><trkpt lat="39.3145865" lon="16.9969521"><ele>280.5</ele><time>2026-03-22T14:11:27.95Z</time></trkpt><trkpt lat="39.3145123" lon="16.9969989"><ele>279.6666666666667</ele><time>2026-03-22T14:11:28.95Z</time></trkpt><trkpt lat="39.3144464" lon="16.9969906"><ele>278.83333333333337</ele><time>2026-03-22T14:11:29.949Z</time></trkpt><trkpt lat="39.3143879" lon="16.9969398"><ele>278.0</ele><time>2026-03-22T14:11:30.95Z</time></trkpt><trkpt lat="39.3143401" lon="16.996869"><ele>278.0</ele><time>2026-03-22T14:11:31.95Z</time></trkpt><trkpt lat="39.3142866" lon="16.9967926"><ele>278.0</ele><time>2026-03-22T14:11:32.95Z</time></trkpt><trkpt lat="39.3142243" lon="16.9967023"><ele>278.0</ele><time>2026-03-22T14:11:33.95Z</time></trkpt><trkpt lat="39.3141646" lon="16.9966164"><ele>278.0</ele><time>2026-03-22T14:11:34.95Z</time></trkpt><trkpt lat="39.3141094" lon="16.9965414"><ele>278.0</ele><time>2026-03-22T14:11:35.949Z</time></trkpt><trkpt lat="39.3140565" lon="16.9964768"><ele>278.0</ele><time>2026-03-22T14:11:36.95Z</time></trkpt><trkpt lat="39.3140033" lon="16.996413"><ele>280.42857142857144</ele><time>2026-03-22T14:11:37.95Z</time></trkpt><trkpt lat="39.3139587" lon="16.9963531"><ele>282.8571428571429</ele><time>2026-03-22T14:11:38.949Z</time></trkpt><trkpt lat="39.3139097" lon="16.996296"><ele>285.28571428571433</ele><time>2026-03-22T14:11:39.95Z</time></trkpt><trkpt lat="39.3138752" lon="16.996227"><ele>287.7142857142857</ele><time>2026-03-22T14:11:40.95Z</time></trkpt><trkpt lat="39.3138554" lon="16.9961413"><ele>290.14285714285717</ele><time>2026-03-22T14:11:41.95Z</time></trkpt><trkpt lat="39.3138416" lon="16.9960498"><ele>292.5714285714286</ele><time>2026-03-22T14:11:42.95Z</time></trkpt><trkpt lat="39.3138292" lon="16.9959577"><ele>295.0</ele><time>2026-03-22T14:11:43.95Z</time></trkpt><trkpt lat="39.3138157" lon="16.9958645"><ele>299.5714285714286</ele><time>2026-03-22T14:11:44.949Z</time></trkpt><trkpt lat="39.3137969" lon="16.9957737"><ele>304.14285714285717</ele><time>2026-03-22T14:11:45.95Z</time></trkpt><trkpt lat="39.3137796" lon="16.9956857"><ele>308.7142857142857</ele><time>2026-03-22T14:11:46.949Z</time></trkpt><trkpt lat="39.3137611" lon="16.9955987"><ele>313.28571428571433</ele><time>2026-03-22T14:11:47.95Z</time></trkpt><trkpt lat="39.3137375" lon="16.9955129"><ele>317.8571428571429</ele><time>2026-03-22T14:11:48.95Z</time></trkpt><trkpt lat="39.3137175" lon="16.9954264"><ele>322.42857142857144</ele><time>2026-03-22T14:11:49.95Z</time></trkpt><trkpt lat="39.3137004" lon="16.995345"><ele>327.0</ele><time>2026-03-22T14:11:50.949Z</time></trkpt><trkpt lat="39.3136918" lon="16.995192"><ele>327.0</ele><time>2026-03-22T14:11:52.95Z</time></trkpt><trkpt lat="39.3137126" lon="16.9950362"><ele>327.0</ele><time>2026-03-22T14:11:54.95Z</time></trkpt><trkpt lat="39.3137287" lon="16.9948789"><ele>327.0</ele><time>2026-03-22T14:11:56.95Z</time></trkpt><trkpt lat="39.3136934" lon="16.9947957"><ele>327.0</ele><time>2026-03-22T14:11:57.95Z</time></trkpt><trkpt lat="39.3136376" lon="16.9947145"><ele>327.0</ele><time>2026-03-22T14:11:58.949Z</time></trkpt><trkpt lat="39.3135596" lon="16.9946634"><ele>327.8333333333333</ele><time>2026-03-22T14:11:59.95Z</time></trkpt><trkpt lat="39.3134892" lon="16.9946472"><ele>328.6666666666667</ele><time>2026-03-22T14:12:00.949Z</time></trkpt><trkpt lat="39.313402" lon="16.9946686"><ele>329.5</ele><time>2026-03-22T14:12:01.95Z</time></trkpt><trkpt lat="39.3133143" lon="16.9946988"><ele>330.33333333333337</ele><time>2026-03-22T14:12:02.949Z</time></trkpt><trkpt lat="39.3132295" lon="16.9947287"><ele>331.1666666666667</ele><time>2026-03-22T14:12:03.95Z</time></trkpt><trkpt lat="39.313145" lon="16.9947545"><ele>332.0</ele><time>2026-03-22T14:12:04.95Z</time></trkpt><trkpt lat="39.3130644" lon="16.9947724"><ele>334.33333333333337</ele><time>2026-03-22T14:12:05.95Z</time></trkpt><trkpt lat="39.3129827" lon="16.9947686"><ele>336.6666666666667</ele><time>2026-03-22T14:12:06.949Z</time></trkpt><trkpt lat="39.3128981" lon="16.9947541"><ele>339.0</ele><time>2026-03-22T14:12:07.95Z</time></trkpt><trkpt lat="39.3128125" lon="16.9947407"><ele>341.3333333333333</ele><time>2026-03-22T14:12:08.95Z</time></trkpt><trkpt lat="39.3127226" lon="16.9947352"><ele>343.66666666666663</ele><time>2026-03-22T14:12:09.949Z</time></trkpt><trkpt lat="39.3126223" lon="16.99474"><ele>346.0</ele><time>2026-03-22T14:12:10.95Z</time></trkpt><trkpt lat="39.3125154" lon="16.9947442"><ele>346.0</ele><time>2026-03-22T14:12:11.949Z</time></trkpt><trkpt lat="39.312409" lon="16.9947403"><ele>346.0</ele><time>2026-03-22T14:12:12.95Z</time></trkpt><trkpt lat="39.312306" lon="16.9947367"><ele>346.0</ele><time>2026-03-22T14:12:13.948Z</time></trkpt><trkpt lat="39.3122063" lon="16.9947302"><ele>346.0</ele><time>2026-03-22T14:12:14.95Z</time></trkpt><trkpt lat="39.3121113" lon="16.9947147"><ele>346.0</ele><time>2026-03-22T14:12:15.949Z</time></trkpt><trkpt lat="39.3120289" lon="16.9946871"><ele>348.8</ele><time>2026-03-22T14:12:16.95Z</time></trkpt><trkpt lat="39.3119427" lon="16.9946629"><ele>351.6</ele><time>2026-03-22T14:12:17.95Z</time></trkpt><trkpt lat="39.3118466" lon="16.9946568"><ele>354.4</ele><time>2026-03-22T14:12:18.949Z</time></trkpt><trkpt lat="39.3117438" lon="16.994658"><ele>357.2</ele><time>2026-03-22T14:12:19.95Z</time></trkpt><trkpt lat="39.3116398" lon="16.9946658"><ele>360.0</ele><time>2026-03-22T14:12:20.95Z</time></trkpt><trkpt lat="39.3115333" lon="16.9946744"><ele>360.0</ele><time>2026-03-22T14:12:21.95Z</time></trkpt><trkpt lat="39.3114305" lon="16.9946737"><ele>360.0</ele><time>2026-03-22T14:12:22.95Z</time></trkpt><trkpt lat="39.311333" lon="16.9946673"><ele>360.0</ele><time>2026-03-22T14:12:23.95Z</time></trkpt><trkpt lat="39.3112429" lon="16.9946501"><ele>360.0</ele><time>2026-03-22T14:12:24.95Z</time></trkpt><trkpt lat="39.3111532" lon="16.994614"><ele>360.0</ele><time>2026-03-22T14:12:25.95Z</time></trkpt><trkpt lat="39.3110644" lon="16.9945684"><ele>362.8</ele><time>2026-03-22T14:12:26.95Z</time></trkpt><trkpt lat="39.3109752" lon="16.994531"><ele>365.6</ele><time>2026-03-22T14:12:27.949Z</time></trkpt><trkpt lat="39.3108866" lon="16.9945131"><ele>368.4</ele><time>2026-03-22T14:12:28.95Z</time></trkpt><trkpt lat="39.3107836" lon="16.9945283"><ele>371.2</ele><time>2026-03-22T14:12:29.95Z</time></trkpt><trkpt lat="39.3106876" lon="16.9945567"><ele>374.0</ele><time>2026-03-22T14:12:30.949Z</time></trkpt><trkpt lat="39.3105914" lon="16.9945677"><ele>373.6</ele><time>2026-03-22T14:12:31.95Z</time></trkpt><trkpt lat="39.3104973" lon="16.9945433"><ele>373.2</ele><time>2026-03-22T14:12:32.949Z</time></trkpt><trkpt lat="39.3104071" lon="16.9945039"><ele>372.8</ele><time>2026-03-22T14:12:33.95Z</time></trkpt><trkpt lat="39.3103081" lon="16.9944695"><ele>372.40000000000003</ele><time>2026-03-22T14:12:34.95Z</time></trkpt><trkpt lat="39.3102051" lon="16.994449"><ele>372.0</ele><time>2026-03-22T14:12:35.95Z</time></trkpt><trkpt lat="39.3101067" lon="16.9944385"><ele>372.0</ele><time>2026-03-22T14:12:36.95Z</time></trkpt><trkpt lat="39.3100128" lon="16.9944313"><ele>372.0</ele><time>2026-03-22T14:12:37.95Z</time></trkpt><trkpt lat="39.309936" lon="16.9944272"><ele>372.0</ele><time>2026-03-22T14:12:38.95Z</time></trkpt><trkpt lat="39.3098215" lon="16.9944092"><ele>372.0</ele><time>2026-03-22T14:12:40.949Z</time></trkpt><trkpt lat="39.3097502" lon="16.9943841"><ele>372.0</ele><time>2026-03-22T14:12:41.949Z</time></trkpt><trkpt lat="39.3096698" lon="16.9943508"><ele>372.0</ele><time>2026-03-22T14:12:42.949Z</time></trkpt><trkpt lat="39.3095864" lon="16.9943011"><ele>371.75</ele><time>2026-03-22T14:12:43.95Z</time></trkpt><trkpt lat="39.3094958" lon="16.9942469"><ele>371.5</ele><time>2026-03-22T14:12:44.95Z</time></trkpt><trkpt lat="39.3093951" lon="16.994199"><ele>371.25</ele><time>2026-03-22T14:12:45.948Z</time></trkpt><trkpt lat="39.309282" lon="16.9941454"><ele>371.0</ele><time>2026-03-22T14:12:46.95Z</time></trkpt><trkpt lat="39.3091327" lon="16.9940644"><ele>371.0</ele><time>2026-03-22T14:12:47.949Z</time></trkpt><trkpt lat="39.3089972" lon="16.9939945"><ele>371.0</ele><time>2026-03-22T14:12:48.95Z</time></trkpt><trkpt lat="39.3088701" lon="16.9939276"><ele>371.0</ele><time>2026-03-22T14:12:49.949Z</time></trkpt><trkpt lat="39.3087577" lon="16.9938706"><ele>371.0</ele><time>2026-03-22T14:12:50.949Z</time></trkpt><trkpt lat="39.3086604" lon="16.9938107"><ele>368.4</ele><time>2026-03-22T14:12:51.949Z</time></trkpt><trkpt lat="39.3085781" lon="16.993739"><ele>365.8</ele><time>2026-03-22T14:12:52.95Z</time></trkpt><trkpt lat="39.3085051" lon="16.9936517"><ele>363.2</ele><time>2026-03-22T14:12:53.95Z</time></trkpt><trkpt lat="39.3084341" lon="16.9935692"><ele>360.59999999999997</ele><time>2026-03-22T14:12:54.95Z</time></trkpt><trkpt lat="39.3083672" lon="16.993487"><ele>358.0</ele><time>2026-03-22T14:12:55.95Z</time></trkpt><trkpt lat="39.3082906" lon="16.9934074"><ele>362.79999999999995</ele><time>2026-03-22T14:12:56.949Z</time></trkpt><trkpt lat="39.3082027" lon="16.9933381"><ele>367.6</ele><time>2026-03-22T14:12:57.95Z</time></trkpt><trkpt lat="39.3081055" lon="16.993284"><ele>372.4</ele><time>2026-03-22T14:12:58.949Z</time></trkpt><trkpt lat="39.3080071" lon="16.9932387"><ele>377.20000000000005</ele><time>2026-03-22T14:12:59.95Z</time></trkpt><trkpt lat="39.307908" lon="16.9932252"><ele>382.0</ele><time>2026-03-22T14:13:00.949Z</time></trkpt><trkpt lat="39.3078138" lon="16.9932384"><ele>383.40000000000003</ele><time>2026-03-22T14:13:01.95Z</time></trkpt><trkpt lat="39.3077267" lon="16.9932798"><ele>384.8</ele><time>2026-03-22T14:13:02.95Z</time></trkpt><trkpt lat="39.3076451" lon="16.9933334"><ele>386.2</ele><time>2026-03-22T14:13:03.949Z</time></trkpt><trkpt lat="39.3075715" lon="16.9933853"><ele>387.6</ele><time>2026-03-22T14:13:04.95Z</time></trkpt><trkpt lat="39.3075065" lon="16.9934091"><ele>389.0</ele><time>2026-03-22T14:13:05.949Z</time></trkpt><trkpt lat="39.3074163" lon="16.993314"><ele>388.99999999999994</ele><time>2026-03-22T14:13:07.95Z</time></trkpt><trkpt lat="39.3074012" lon="16.9932152"><ele>389.0</ele><time>2026-03-22T14:13:08.95Z</time></trkpt><trkpt lat="39.3073912" lon="16.9931092"><ele>389.0</ele><time>2026-03-22T14:13:09.95Z</time></trkpt><trkpt lat="39.3073712" lon="16.9929999"><ele>389.0</ele><time>2026-03-22T14:13:10.95Z</time></trkpt><trkpt lat="39.3073351" lon="16.9929005"><ele>388.99999999999994</ele><time>2026-03-22T14:13:11.95Z</time></trkpt><trkpt lat="39.3072872" lon="16.9928054"><ele>389.0</ele><time>2026-03-22T14:13:12.95Z</time></trkpt><trkpt lat="39.3072402" lon="16.9927048"><ele>387.4</ele><time>2026-03-22T14:13:13.95Z</time></trkpt><trkpt lat="39.307193" lon="16.9926032"><ele>385.79999999999995</ele><time>2026-03-22T14:13:14.95Z</time></trkpt><trkpt lat="39.3071455" lon="16.9924967"><ele>384.20000000000005</ele><time>2026-03-22T14:13:15.95Z</time></trkpt><trkpt lat="39.3070927" lon="16.9923906"><ele>382.6</ele><time>2026-03-22T14:13:16.95Z</time></trkpt><trkpt lat="39.3070329" lon="16.9922882"><ele>381.0</ele><time>2026-03-22T14:13:17.95Z</time></trkpt><trkpt lat="39.3069653" lon="16.9921933"><ele>386.4</ele><time>2026-03-22T14:13:18.95Z</time></trkpt><trkpt lat="39.3068938" lon="16.9921009"><ele>391.8</ele><time>2026-03-22T14:13:19.95Z</time></trkpt><trkpt lat="39.306829" lon="16.992"><ele>397.2</ele><time>2026-03-22T14:13:20.949Z</time></trkpt><trkpt lat="39.3067761" lon="16.9918957"><ele>402.59999999999997</ele><time>2026-03-22T14:13:21.95Z</time></trkpt><trkpt lat="39.3067306" lon="16.9917884"><ele>408.0</ele><time>2026-03-22T14:13:22.95Z</time></trkpt><trkpt lat="39.3066812" lon="16.9916741"><ele>410.75</ele><time>2026-03-22T14:13:23.95Z</time></trkpt><trkpt lat="39.3066132" lon="16.9915596"><ele>413.5</ele><time>2026-03-22T14:13:24.95Z</time></trkpt><trkpt lat="39.3065281" lon="16.9914319"><ele>416.25</ele><time>2026-03-22T14:13:25.95Z</time></trkpt><trkpt lat="39.3064328" lon="16.9912932"><ele>419.0</ele><time>2026-03-22T14:13:26.95Z</time></trkpt><trkpt lat="39.306331" lon="16.9911549"><ele>422.2</ele><time>2026-03-22T14:13:27.948Z</time></trkpt><trkpt lat="39.3062349" lon="16.9910271"><ele>425.4</ele><time>2026-03-22T14:13:28.949Z</time></trkpt><trkpt lat="39.3061589" lon="16.9909258"><ele>428.6</ele><time>2026-03-22T14:13:29.95Z</time></trkpt><trkpt lat="39.3060933" lon="16.9908403"><ele>431.8</ele><time>2026-03-22T14:13:30.95Z</time></trkpt><trkpt lat="39.3060642" lon="16.9907153"><ele>435.0</ele><time>2026-03-22T14:13:31.95Z</time></trkpt><trkpt lat="39.3060152" lon="16.9905864"><ele>435.4</ele><time>2026-03-22T14:13:32.95Z</time></trkpt><trkpt lat="39.305964" lon="16.9904479"><ele>435.8</ele><time>2026-03-22T14:13:33.95Z</time></trkpt><trkpt lat="39.3059073" lon="16.9903232"><ele>436.20000000000005</ele><time>2026-03-22T14:13:34.95Z</time></trkpt><trkpt lat="39.3058605" lon="16.9902137"><ele>436.6</ele><time>2026-03-22T14:13:35.95Z</time></trkpt><trkpt lat="39.3058309" lon="16.9900961"><ele>437.0</ele><time>2026-03-22T14:13:36.949Z</time></trkpt><trkpt lat="39.3058301" lon="16.9899749"><ele>436.99999999999994</ele><time>2026-03-22T14:13:37.95Z</time></trkpt><trkpt lat="39.3058413" lon="16.9898641"><ele>437.0</ele><time>2026-03-22T14:13:38.95Z</time></trkpt><trkpt lat="39.3058496" lon="16.9897576"><ele>437.0</ele><time>2026-03-22T14:13:39.95Z</time></trkpt><trkpt lat="39.305832" lon="16.9896742"><ele>437.0</ele><time>2026-03-22T14:13:40.95Z</time></trkpt><trkpt lat="39.3057677" lon="16.98958"><ele>436.99999999999994</ele><time>2026-03-22T14:13:41.95Z</time></trkpt><trkpt lat="39.3056859" lon="16.9894846"><ele>437.0</ele><time>2026-03-22T14:13:42.949Z</time></trkpt><trkpt lat="39.3055895" lon="16.9894158"><ele>436.49999999999994</ele><time>2026-03-22T14:13:43.949Z</time></trkpt><trkpt lat="39.3055096" lon="16.9893566"><ele>436.0</ele><time>2026-03-22T14:13:44.95Z</time></trkpt><trkpt lat="39.3054521" lon="16.9892739"><ele>435.5</ele><time>2026-03-22T14:13:45.949Z</time></trkpt><trkpt lat="39.3054052" lon="16.9891839"><ele>435.0</ele><time>2026-03-22T14:13:46.95Z</time></trkpt><trkpt lat="39.3053725" lon="16.9890995"><ele>434.49999999999994</ele><time>2026-03-22T14:13:47.95Z</time></trkpt><trkpt lat="39.3053556" lon="16.9890128"><ele>434.0</ele><time>2026-03-22T14:13:48.948Z</time></trkpt><trkpt lat="39.3053541" lon="16.9888933"><ele>434.0</ele><time>2026-03-22T14:13:49.95Z</time></trkpt><trkpt lat="39.3053589" lon="16.9887435"><ele>434.0</ele><time>2026-03-22T14:13:50.95Z</time></trkpt><trkpt lat="39.3053573" lon="16.9886022"><ele>434.0</ele><time>2026-03-22T14:13:51.949Z</time></trkpt><trkpt lat="39.3053429" lon="16.988465"><ele>434.0</ele><time>2026-03-22T14:13:52.95Z</time></trkpt><trkpt lat="39.3053196" lon="16.9883401"><ele>434.0</ele><time>2026-03-22T14:13:53.95Z</time></trkpt><trkpt lat="39.3052908" lon="16.9882277"><ele>433.6</ele><time>2026-03-22T14:13:54.95Z</time></trkpt><trkpt lat="39.3052618" lon="16.9881137"><ele>433.2</ele><time>2026-03-22T14:13:55.949Z</time></trkpt><trkpt lat="39.3052309" lon="16.9880075"><ele>432.80000000000007</ele><time>2026-03-22T14:13:56.95Z</time></trkpt><trkpt lat="39.3051975" lon="16.9878968"><ele>432.40000000000003</ele><time>2026-03-22T14:13:57.949Z</time></trkpt><trkpt lat="39.3051506" lon="16.9877921"><ele>432.0</ele><time>2026-03-22T14:13:58.95Z</time></trkpt><trkpt lat="39.3050816" lon="16.987693"><ele>432.0</ele><time>2026-03-22T14:13:59.95Z</time></trkpt><trkpt lat="39.3049909" lon="16.9876034"><ele>432.0</ele><time>2026-03-22T14:14:00.95Z</time></trkpt><trkpt lat="39.304886" lon="16.9875272"><ele>432.0</ele><time>2026-03-22T14:14:01.95Z</time></trkpt><trkpt lat="39.3047694" lon="16.9874669"><ele>432.0</ele><time>2026-03-22T14:14:02.95Z</time></trkpt><trkpt lat="39.304661" lon="16.9874226"><ele>430.20000000000005</ele><time>2026-03-22T14:14:03.95Z</time></trkpt><trkpt lat="39.3045504" lon="16.9873897"><ele>428.40000000000003</ele><time>2026-03-22T14:14:04.949Z</time></trkpt><trkpt lat="39.3044343" lon="16.9873664"><ele>426.6</ele><time>2026-03-22T14:14:05.95Z</time></trkpt><trkpt lat="39.304329" lon="16.9873299"><ele>424.79999999999995</ele><time>2026-03-22T14:14:06.95Z</time></trkpt><trkpt lat="39.3042306" lon="16.9872738"><ele>423.0</ele><time>2026-03-22T14:14:07.95Z</time></trkpt><trkpt lat="39.3041461" lon="16.9871586"><ele>423.0</ele><time>2026-03-22T14:14:08.95Z</time></trkpt><trkpt lat="39.3040435" lon="16.9869756"><ele>423.0</ele><time>2026-03-22T14:14:09.95Z</time></trkpt><trkpt lat="39.3039588" lon="16.986821"><ele>423.0</ele><time>2026-03-22T14:14:10.949Z</time></trkpt><trkpt lat="39.303887" lon="16.9866789"><ele>420.0</ele><time>2026-03-22T14:14:11.95Z</time></trkpt><trkpt lat="39.3038199" lon="16.986537"><ele>417.0</ele><time>2026-03-22T14:14:12.95Z</time></trkpt><trkpt lat="39.3037626" lon="16.9863999"><ele>414.0</ele><time>2026-03-22T14:14:13.95Z</time></trkpt><trkpt lat="39.3037086" lon="16.9862625"><ele>411.0</ele><time>2026-03-22T14:14:14.95Z</time></trkpt><trkpt lat="39.3036429" lon="16.9860966"><ele>411.0</ele><time>2026-03-22T14:14:15.95Z</time></trkpt><trkpt lat="39.3035838" lon="16.9859387"><ele>411.0</ele><time>2026-03-22T14:14:16.95Z</time></trkpt><trkpt lat="39.3035246" lon="16.985796"><ele>411.0</ele><time>2026-03-22T14:14:17.949Z</time></trkpt><trkpt lat="39.3034684" lon="16.9856698"><ele>411.0</ele><time>2026-03-22T14:14:18.95Z</time></trkpt><trkpt lat="39.3034125" lon="16.9855608"><ele>411.25</ele><time>2026-03-22T14:14:19.948Z</time></trkpt><trkpt lat="39.3033469" lon="16.9854555"><ele>411.5</ele><time>2026-03-22T14:14:20.95Z</time></trkpt><trkpt lat="39.3032813" lon="16.9853454"><ele>411.75</ele><time>2026-03-22T14:14:21.95Z</time></trkpt><trkpt lat="39.3032236" lon="16.9851954"><ele>412.0</ele><time>2026-03-22T14:14:22.95Z</time></trkpt><trkpt lat="39.3031727" lon="16.9850223"><ele>411.5</ele><time>2026-03-22T14:14:23.95Z</time></trkpt><trkpt lat="39.3031232" lon="16.9848607"><ele>411.0</ele><time>2026-03-22T14:14:24.95Z</time></trkpt><trkpt lat="39.3030762" lon="16.9847185"><ele>410.5</ele><time>2026-03-22T14:14:25.95Z</time></trkpt><trkpt lat="39.3030209" lon="16.9845923"><ele>410.0</ele><time>2026-03-22T14:14:26.95Z</time></trkpt><trkpt lat="39.3029515" lon="16.9844594"><ele>408.5</ele><time>2026-03-22T14:14:27.948Z</time></trkpt><trkpt lat="39.302879" lon="16.9843267"><ele>407.0</ele><time>2026-03-22T14:14:28.95Z</time></trkpt><trkpt lat="39.3028046" lon="16.9841899"><ele>405.5</ele><time>2026-03-22T14:14:29.95Z</time></trkpt><trkpt lat="39.3027302" lon="16.9840492"><ele>404.0</ele><time>2026-03-22T14:14:30.95Z</time></trkpt><trkpt lat="39.302652" lon="16.9839054"><ele>403.5</ele><time>2026-03-22T14:14:31.95Z</time></trkpt><trkpt lat="39.3025743" lon="16.9837629"><ele>403.0</ele><time>2026-03-22T14:14:32.95Z</time></trkpt><trkpt lat="39.3024992" lon="16.9836271"><ele>402.5</ele><time>2026-03-22T14:14:33.95Z</time></trkpt><trkpt lat="39.3024343" lon="16.9834933"><ele>402.0</ele><time>2026-03-22T14:14:34.95Z</time></trkpt><trkpt lat="39.3023844" lon="16.9833602"><ele>402.0</ele><time>2026-03-22T14:14:35.95Z</time></trkpt><trkpt lat="39.3023447" lon="16.9832337"><ele>402.0</ele><time>2026-03-22T14:14:36.95Z</time></trkpt><trkpt lat="39.3023066" lon="16.9831172"><ele>402.0</ele><time>2026-03-22T14:14:37.95Z</time></trkpt><trkpt lat="39.3022546" lon="16.9830068"><ele>402.0</ele><time>2026-03-22T14:14:38.95Z</time></trkpt><trkpt lat="39.3021727" lon="16.9828986"><ele>402.0</ele><time>2026-03-22T14:14:39.95Z</time></trkpt><trkpt lat="39.3020739" lon="16.982795"><ele>400.5</ele><time>2026-03-22T14:14:40.95Z</time></trkpt><trkpt lat="39.3019823" lon="16.9826839"><ele>399.0</ele><time>2026-03-22T14:14:41.949Z</time></trkpt><trkpt lat="39.3019094" lon="16.9825509"><ele>397.5</ele><time>2026-03-22T14:14:42.95Z</time></trkpt><trkpt lat="39.3018559" lon="16.9823828"><ele>396.0</ele><time>2026-03-22T14:14:43.949Z</time></trkpt><trkpt lat="39.3018091" lon="16.9822135"><ele>396.0</ele><time>2026-03-22T14:14:44.95Z</time></trkpt><trkpt lat="39.3017737" lon="16.9820511"><ele>396.0</ele><time>2026-03-22T14:14:45.95Z</time></trkpt><trkpt lat="39.3017552" lon="16.9818739"><ele>396.0</ele><time>2026-03-22T14:14:46.95Z</time></trkpt><trkpt lat="39.3017532" lon="16.9816872"><ele>396.0</ele><time>2026-03-22T14:14:47.95Z</time></trkpt><trkpt lat="39.3017436" lon="16.981527"><ele>398.0</ele><time>2026-03-22T14:14:48.95Z</time></trkpt><trkpt lat="39.3017041" lon="16.9813783"><ele>400.0</ele><time>2026-03-22T14:14:49.949Z</time></trkpt><trkpt lat="39.3016323" lon="16.9812353"><ele>402.0</ele><time>2026-03-22T14:14:50.949Z</time></trkpt><trkpt lat="39.3015436" lon="16.981093"><ele>404.0</ele><time>2026-03-22T14:14:51.95Z</time></trkpt><trkpt lat="39.3014541" lon="16.9809514"><ele>402.25</ele><time>2026-03-22T14:14:52.949Z</time></trkpt><trkpt lat="39.3013739" lon="16.9808188"><ele>400.5</ele><time>2026-03-22T14:14:53.95Z</time></trkpt><trkpt lat="39.3013101" lon="16.9806737"><ele>398.75</ele><time>2026-03-22T14:14:54.95Z</time></trkpt><trkpt lat="39.3012721" lon="16.9805075"><ele>397.0</ele><time>2026-03-22T14:14:55.95Z</time></trkpt><trkpt lat="39.3012601" lon="16.9803052"><ele>397.0</ele><time>2026-03-22T14:14:56.95Z</time></trkpt><trkpt lat="39.3012208" lon="16.9801112"><ele>397.0</ele><time>2026-03-22T14:14:57.95Z</time></trkpt><trkpt lat="39.3011539" lon="16.9799379"><ele>397.0</ele><time>2026-03-22T14:14:58.948Z</time></trkpt><trkpt lat="39.3010687" lon="16.9797757"><ele>402.25</ele><time>2026-03-22T14:14:59.95Z</time></trkpt><trkpt lat="39.30097" lon="16.9796324"><ele>407.5</ele><time>2026-03-22T14:15:00.95Z</time></trkpt><trkpt lat="39.3008559" lon="16.9795208"><ele>412.75</ele><time>2026-03-22T14:15:01.95Z</time></trkpt><trkpt lat="39.3007315" lon="16.9794348"><ele>418.0</ele><time>2026-03-22T14:15:02.949Z</time></trkpt><trkpt lat="39.3006034" lon="16.9793655"><ele>420.25</ele><time>2026-03-22T14:15:03.95Z</time></trkpt><trkpt lat="39.300478" lon="16.9792921"><ele>422.5</ele><time>2026-03-22T14:15:04.95Z</time></trkpt><trkpt lat="39.300368" lon="16.9791991"><ele>424.75</ele><time>2026-03-22T14:15:05.949Z</time></trkpt><trkpt lat="39.3002597" lon="16.9790906"><ele>427.0</ele><time>2026-03-22T14:15:06.95Z</time></trkpt><trkpt lat="39.3001524" lon="16.9789662"><ele>427.0</ele><time>2026-03-22T14:15:07.95Z</time></trkpt><trkpt lat="39.3000355" lon="16.9788158"><ele>427.0</ele><time>2026-03-22T14:15:08.95Z</time></trkpt><trkpt lat="39.2999248" lon="16.9786811"><ele>427.0</ele><time>2026-03-22T14:15:09.95Z</time></trkpt><trkpt lat="39.2998286" lon="16.9785732"><ele>427.0</ele><time>2026-03-22T14:15:10.95Z</time></trkpt><trkpt lat="39.2997265" lon="16.9784993"><ele>424.0</ele><time>2026-03-22T14:15:11.949Z</time></trkpt><trkpt lat="39.2996171" lon="16.9784564"><ele>421.0</ele><time>2026-03-22T14:15:12.949Z</time></trkpt><trkpt lat="39.2995061" lon="16.9784311"><ele>418.0</ele><time>2026-03-22T14:15:13.95Z</time></trkpt><trkpt lat="39.2993919" lon="16.978434"><ele>415.0</ele><time>2026-03-22T14:15:14.949Z</time></trkpt><trkpt lat="39.2992708" lon="16.9784575"><ele>415.0</ele><time>2026-03-22T14:15:15.95Z</time></trkpt><trkpt lat="39.2991737" lon="16.9784618"><ele>415.0</ele><time>2026-03-22T14:15:16.95Z</time></trkpt><trkpt lat="39.2991193" lon="16.978406"><ele>415.0</ele><time>2026-03-22T14:15:17.949Z</time></trkpt><trkpt lat="39.2991184" lon="16.9783147"><ele>415.0</ele><time>2026-03-22T14:15:18.949Z</time></trkpt><trkpt lat="39.2991408" lon="16.9781761"><ele>415.0</ele><time>2026-03-22T14:15:19.949Z</time></trkpt><trkpt lat="39.2991568" lon="16.9779969"><ele>420.75</ele><time>2026-03-22T14:15:20.95Z</time></trkpt><trkpt lat="39.2991773" lon="16.9777835"><ele>426.5</ele><time>2026-03-22T14:15:21.949Z</time></trkpt><trkpt lat="39.2991876" lon="16.9775854"><ele>432.25</ele><time>2026-03-22T14:15:22.95Z</time></trkpt><trkpt lat="39.2991839" lon="16.9774261"><ele>438.0</ele><time>2026-03-22T14:15:23.95Z</time></trkpt><trkpt lat="39.2991521" lon="16.9772858"><ele>440.75</ele><time>2026-03-22T14:15:24.95Z</time></trkpt><trkpt lat="39.2990919" lon="16.977163"><ele>443.5</ele><time>2026-03-22T14:15:25.95Z</time></trkpt><trkpt lat="39.2990008" lon="16.9770748"><ele>446.25</ele><time>2026-03-22T14:15:26.95Z</time></trkpt><trkpt lat="39.2989037" lon="16.9769891"><ele>449.0</ele><time>2026-03-22T14:15:27.95Z</time></trkpt><trkpt lat="39.298809" lon="16.9769104"><ele>450.0</ele><time>2026-03-22T14:15:28.949Z</time></trkpt><trkpt lat="39.2987161" lon="16.9768434"><ele>451.0</ele><time>2026-03-22T14:15:29.949Z</time></trkpt><trkpt lat="39.2986166" lon="16.9768081"><ele>452.0</ele><time>2026-03-22T14:15:30.949Z</time></trkpt><trkpt lat="39.298513" lon="16.9767949"><ele>453.0</ele><time>2026-03-22T14:15:31.948Z</time></trkpt><trkpt lat="39.2984153" lon="16.9767844"><ele>454.0</ele><time>2026-03-22T14:15:32.948Z</time></trkpt><trkpt lat="39.2983508" lon="16.9767455"><ele>457.0</ele><time>2026-03-22T14:15:33.949Z</time></trkpt><trkpt lat="39.2983393" lon="16.9766511"><ele>460.0</ele><time>2026-03-22T14:15:35.949Z</time></trkpt><trkpt lat="39.2984774" lon="16.976519"><ele>463.0</ele><time>2026-03-22T14:15:37.949Z</time></trkpt><trkpt lat="39.2985252" lon="16.9764313"><ele>466.0</ele><time>2026-03-22T14:15:38.949Z</time></trkpt><trkpt lat="39.2985043" lon="16.9763232"><ele>469.0</ele><time>2026-03-22T14:15:40.949Z</time></trkpt><trkpt lat="39.2984786" lon="16.9762372"><ele>469.0</ele><time>2026-03-22T14:15:41.948Z</time></trkpt><trkpt lat="39.2984374" lon="16.9761461"><ele>469.0</ele><time>2026-03-22T14:15:42.949Z</time></trkpt><trkpt lat="39.2983819" lon="16.9760444"><ele>469.0</ele><time>2026-03-22T14:15:43.948Z</time></trkpt><trkpt lat="39.298303" lon="16.9759412"><ele>469.0</ele><time>2026-03-22T14:15:44.949Z</time></trkpt><trkpt lat="39.2982135" lon="16.9758284"><ele>469.0</ele><time>2026-03-22T14:15:45.949Z</time></trkpt><trkpt lat="39.2981145" lon="16.9757151"><ele>470.6666666666667</ele><time>2026-03-22T14:15:46.949Z</time></trkpt><trkpt lat="39.2980171" lon="16.9756396"><ele>472.33333333333337</ele><time>2026-03-22T14:15:47.949Z</time></trkpt><trkpt lat="39.2979392" lon="16.9755896"><ele>474.0</ele><time>2026-03-22T14:15:48.949Z</time></trkpt><trkpt lat="39.297887" lon="16.9755067"><ele>475.66666666666663</ele><time>2026-03-22T14:15:49.949Z</time></trkpt><trkpt lat="39.2978621" lon="16.9754252"><ele>477.3333333333333</ele><time>2026-03-22T14:15:50.949Z</time></trkpt><trkpt lat="39.2978568" lon="16.975314"><ele>479.0</ele><time>2026-03-22T14:15:51.949Z</time></trkpt><trkpt lat="39.2978519" lon="16.9751768"><ele>479.0</ele><time>2026-03-22T14:15:52.949Z</time></trkpt><trkpt lat="39.2978289" lon="16.9750221"><ele>479.0</ele><time>2026-03-22T14:15:53.948Z</time></trkpt><trkpt lat="39.2978001" lon="16.9748888"><ele>479.0</ele><time>2026-03-22T14:15:54.949Z</time></trkpt><trkpt lat="39.2977361" lon="16.9747765"><ele>479.0</ele><time>2026-03-22T14:15:55.949Z</time></trkpt><trkpt lat="39.2976699" lon="16.9746761"><ele>479.0</ele><time>2026-03-22T14:15:56.949Z</time></trkpt><trkpt lat="39.2976035" lon="16.9745785"><ele>483.5</ele><time>2026-03-22T14:15:57.949Z</time></trkpt><trkpt lat="39.297555" lon="16.9744866"><ele>488.0</ele><time>2026-03-22T14:15:58.949Z</time></trkpt><trkpt lat="39.2975299" lon="16.9743403"><ele>492.5</ele><time>2026-03-22T14:15:59.949Z</time></trkpt><trkpt lat="39.2975093" lon="16.9741774"><ele>497.0</ele><time>2026-03-22T14:16:00.949Z</time></trkpt><trkpt lat="39.2974994" lon="16.9739918"><ele>501.66666666666663</ele><time>2026-03-22T14:16:01.949Z</time></trkpt><trkpt lat="39.2974638" lon="16.9737993"><ele>506.33333333333337</ele><time>2026-03-22T14:16:02.949Z</time></trkpt><trkpt lat="39.2974198" lon="16.9735854"><ele>511.0</ele><time>2026-03-22T14:16:03.949Z</time></trkpt><trkpt lat="39.2973705" lon="16.9734084"><ele>514.8</ele><time>2026-03-22T14:16:04.948Z</time></trkpt><trkpt lat="39.2973432" lon="16.9732946"><ele>518.6</ele><time>2026-03-22T14:16:05.949Z</time></trkpt><trkpt lat="39.2973366" lon="16.9731963"><ele>522.4</ele><time>2026-03-22T14:16:06.948Z</time></trkpt><trkpt lat="39.2973455" lon="16.9730964"><ele>526.2</ele><time>2026-03-22T14:16:07.949Z</time></trkpt><trkpt lat="39.2974095" lon="16.9729846"><ele>530.0</ele><time>2026-03-22T14:16:08.949Z</time></trkpt><trkpt lat="39.2974793" lon="16.9728692"><ele>530.0</ele><time>2026-03-22T14:16:09.949Z</time></trkpt><trkpt lat="39.2975333" lon="16.9727508"><ele>530.0</ele><time>2026-03-22T14:16:10.949Z</time></trkpt><trkpt lat="39.2975649" lon="16.9726078"><ele>530.0</ele><time>2026-03-22T14:16:11.948Z</time></trkpt><trkpt lat="39.2976092" lon="16.9724083"><ele>530.0</ele><time>2026-03-22T14:16:12.949Z</time></trkpt><trkpt lat="39.2976487" lon="16.9722476"><ele>533.5</ele><time>2026-03-22T14:16:13.948Z</time></trkpt><trkpt lat="39.2977171" lon="16.9720996"><ele>537.0</ele><time>2026-03-22T14:16:14.949Z</time></trkpt><trkpt lat="39.2977854" lon="16.9719439"><ele>540.5</ele><time>2026-03-22T14:16:15.949Z</time></trkpt><trkpt lat="39.2978311" lon="16.9718098"><ele>544.0</ele><time>2026-03-22T14:16:16.948Z</time></trkpt><trkpt lat="39.297834" lon="16.9716792"><ele>547.5</ele><time>2026-03-22T14:16:17.949Z</time></trkpt><trkpt lat="39.2978215" lon="16.9715039"><ele>551.0</ele><time>2026-03-22T14:16:18.949Z</time></trkpt><trkpt lat="39.2977943" lon="16.9713193"><ele>554.5</ele><time>2026-03-22T14:16:19.949Z</time></trkpt><trkpt lat="39.2977706" lon="16.9711366"><ele>558.0</ele><time>2026-03-22T14:16:20.948Z</time></trkpt><trkpt lat="39.2977434" lon="16.9709754"><ele>561.0</ele><time>2026-03-22T14:16:21.948Z</time></trkpt><trkpt lat="39.2976946" lon="16.9708246"><ele>564.0</ele><time>2026-03-22T14:16:22.949Z</time></trkpt><trkpt lat="39.2976301" lon="16.9706668"><ele>567.0</ele><time>2026-03-22T14:16:23.949Z</time></trkpt><trkpt lat="39.2975582" lon="16.9705045"><ele>570.0</ele><time>2026-03-22T14:16:24.948Z</time></trkpt><trkpt lat="39.2974742" lon="16.9703402"><ele>570.0</ele><time>2026-03-22T14:16:25.949Z</time></trkpt><trkpt lat="39.2974178" lon="16.9701944"><ele>570.0</ele><time>2026-03-22T14:16:26.949Z</time></trkpt><trkpt lat="39.2973756" lon="16.9700603"><ele>570.0</ele><time>2026-03-22T14:16:27.949Z</time></trkpt><trkpt lat="39.297321" lon="16.9699509"><ele>570.0</ele><time>2026-03-22T14:16:28.949Z</time></trkpt><trkpt lat="39.2972446" lon="16.9698624"><ele>570.0</ele><time>2026-03-22T14:16:29.949Z</time></trkpt><trkpt lat="39.2971109" lon="16.9697813"><ele>571.0</ele><time>2026-03-22T14:16:30.949Z</time></trkpt><trkpt lat="39.2970057" lon="16.9696654"><ele>572.0</ele><time>2026-03-22T14:16:31.949Z</time></trkpt><trkpt lat="39.2968884" lon="16.9695335"><ele>573.0</ele><time>2026-03-22T14:16:32.949Z</time></trkpt><trkpt lat="39.2967923" lon="16.9694146"><ele>574.0</ele><time>2026-03-22T14:16:33.948Z</time></trkpt><trkpt lat="39.2967091" lon="16.969319"><ele>574.0</ele><time>2026-03-22T14:16:34.948Z</time></trkpt><trkpt lat="39.2966116" lon="16.9692556"><ele>574.0</ele><time>2026-03-22T14:16:35.949Z</time></trkpt><trkpt lat="39.2965027" lon="16.9692169"><ele>574.0</ele><time>2026-03-22T14:16:36.949Z</time></trkpt><trkpt lat="39.2963913" lon="16.9691635"><ele>574.0</ele><time>2026-03-22T14:16:37.949Z</time></trkpt><trkpt lat="39.296295" lon="16.9690906"><ele>575.0</ele><time>2026-03-22T14:16:38.949Z</time></trkpt><trkpt lat="39.2962496" lon="16.9689871"><ele>576.0</ele><time>2026-03-22T14:16:39.949Z</time></trkpt><trkpt lat="39.2962001" lon="16.9688369"><ele>577.0</ele><time>2026-03-22T14:16:40.949Z</time></trkpt><trkpt lat="39.2961462" lon="16.9686673"><ele>578.0</ele><time>2026-03-22T14:16:41.948Z</time></trkpt><trkpt lat="39.2960992" lon="16.9685415"><ele>578.0</ele><time>2026-03-22T14:16:42.948Z</time></trkpt><trkpt lat="39.2960862" lon="16.9684353"><ele>578.0</ele><time>2026-03-22T14:16:43.949Z</time></trkpt><trkpt lat="39.2961057" lon="16.9683296"><ele>578.0</ele><time>2026-03-22T14:16:45.949Z</time></trkpt><trkpt lat="39.2961114" lon="16.9682407"><ele>578.0</ele><time>2026-03-22T14:16:46.949Z</time></trkpt><trkpt lat="39.2960999" lon="16.9680815"><ele>578.0</ele><time>2026-03-22T14:16:47.949Z</time></trkpt><trkpt lat="39.2960779" lon="16.9678898"><ele>582.3333333333333</ele><time>2026-03-22T14:16:48.949Z</time></trkpt><trkpt lat="39.2960459" lon="16.9676899"><ele>586.6666666666666</ele><time>2026-03-22T14:16:49.949Z</time></trkpt><trkpt lat="39.2960138" lon="16.9674951"><ele>591.0</ele><time>2026-03-22T14:16:50.949Z</time></trkpt><trkpt lat="39.2959969" lon="16.9672857"><ele>593.4</ele><time>2026-03-22T14:16:51.949Z</time></trkpt><trkpt lat="39.2960173" lon="16.9670871"><ele>595.8</ele><time>2026-03-22T14:16:52.949Z</time></trkpt><trkpt lat="39.2960447" lon="16.9669536"><ele>598.1999999999999</ele><time>2026-03-22T14:16:53.949Z</time></trkpt><trkpt lat="39.2960616" lon="16.966861"><ele>600.6</ele><time>2026-03-22T14:16:54.949Z</time></trkpt><trkpt lat="39.2960633" lon="16.9667758"><ele>603.0</ele><time>2026-03-22T14:16:55.949Z</time></trkpt><trkpt lat="39.2961022" lon="16.966654"><ele>603.0</ele><time>2026-03-22T14:16:57.949Z</time></trkpt><trkpt lat="39.2960327" lon="16.9666872"><ele>603.0</ele><time>2026-03-22T14:17:04.949Z</time></trkpt><trkpt lat="39.2960073" lon="16.9667641"><ele>603.0</ele><time>2026-03-22T14:17:06.949Z</time></trkpt><trkpt lat="39.2959974" lon="16.9668497"><ele>603.0</ele><time>2026-03-22T14:19:05.949Z</time></trkpt><trkpt lat="39.2959719" lon="16.9669349"><ele>603.0</ele><time>2026-03-22T14:19:08.949Z</time></trkpt><trkpt lat="39.2959439" lon="16.9670211"><ele>603.0</ele><time>2026-03-22T14:19:12.949Z</time></trkpt><trkpt lat="39.2958959" lon="16.9671258"><ele>603.0</ele><time>2026-03-22T14:19:14.949Z</time></trkpt><trkpt lat="39.2958568" lon="16.9671937"><ele>603.0</ele><time>2026-03-22T14:19:15.948Z</time></trkpt><trkpt lat="39.295771" lon="16.9672522"><ele>603.0</ele><time>2026-03-22T14:19:16.949Z</time></trkpt><trkpt lat="39.295664" lon="16.9673143"><ele>603.0</ele><time>2026-03-22T14:19:17.949Z</time></trkpt><trkpt lat="39.2955746" lon="16.9673436"><ele>603.0</ele><time>2026-03-22T14:19:18.948Z</time></trkpt><trkpt lat="39.295469" lon="16.9674033"><ele>603.0</ele><time>2026-03-22T14:19:19.949Z</time></trkpt><trkpt lat="39.2953635" lon="16.9674889"><ele>599.6666666666666</ele><time>2026-03-22T14:19:20.949Z</time></trkpt><trkpt lat="39.2952567" lon="16.9675793"><ele>596.3333333333333</ele><time>2026-03-22T14:19:21.949Z</time></trkpt><trkpt lat="39.2951328" lon="16.9677341"><ele>593.0</ele><time>2026-03-22T14:19:22.949Z</time></trkpt><trkpt lat="39.295" lon="16.9678726"><ele>593.0</ele><time>2026-03-22T14:19:23.949Z</time></trkpt><trkpt lat="39.2948622" lon="16.9680088"><ele>593.0</ele><time>2026-03-22T14:19:24.949Z</time></trkpt><trkpt lat="39.2947125" lon="16.9681442"><ele>593.0</ele><time>2026-03-22T14:19:25.949Z</time></trkpt><trkpt lat="39.2945646" lon="16.9682814"><ele>591.3333333333333</ele><time>2026-03-22T14:19:26.949Z</time></trkpt><trkpt lat="39.2944295" lon="16.96841"><ele>589.6666666666666</ele><time>2026-03-22T14:19:27.948Z</time></trkpt><trkpt lat="39.2943035" lon="16.9685291"><ele>588.0</ele><time>2026-03-22T14:19:28.949Z</time></trkpt><trkpt lat="39.2941787" lon="16.9686507"><ele>588.0</ele><time>2026-03-22T14:19:29.949Z</time></trkpt><trkpt lat="39.2940611" lon="16.9687659"><ele>588.0</ele><time>2026-03-22T14:19:30.948Z</time></trkpt><trkpt lat="39.2939548" lon="16.9688695"><ele>588.0</ele><time>2026-03-22T14:19:31.949Z</time></trkpt><trkpt lat="39.293859" lon="16.9689747"><ele>588.0</ele><time>2026-03-22T14:19:32.947Z</time></trkpt><trkpt lat="39.2937698" lon="16.9690716"><ele>587.75</ele><time>2026-03-22T14:19:33.949Z</time></trkpt><trkpt lat="39.2936912" lon="16.9691639"><ele>587.5</ele><time>2026-03-22T14:19:34.948Z</time></trkpt><trkpt lat="39.2936081" lon="16.9692652"><ele>587.25</ele><time>2026-03-22T14:19:35.949Z</time></trkpt><trkpt lat="39.2935111" lon="16.969382"><ele>587.0</ele><time>2026-03-22T14:19:36.949Z</time></trkpt><trkpt lat="39.2934236" lon="16.9694953"><ele>588.5</ele><time>2026-03-22T14:19:37.949Z</time></trkpt><trkpt lat="39.2933457" lon="16.9696183"><ele>590.0</ele><time>2026-03-22T14:19:38.949Z</time></trkpt><trkpt lat="39.2932745" lon="16.9697556"><ele>591.5</ele><time>2026-03-22T14:19:39.949Z</time></trkpt><trkpt lat="39.2932078" lon="16.9699069"><ele>593.0</ele><time>2026-03-22T14:19:40.949Z</time></trkpt><trkpt lat="39.2931398" lon="16.9700663"><ele>587.0</ele><time>2026-03-22T14:19:41.948Z</time></trkpt><trkpt lat="39.2930692" lon="16.9702329"><ele>581.0</ele><time>2026-03-22T14:19:42.949Z</time></trkpt><trkpt lat="39.292997" lon="16.970407"><ele>575.0</ele><time>2026-03-22T14:19:43.949Z</time></trkpt><trkpt lat="39.2929213" lon="16.9705874"><ele>575.0</ele><time>2026-03-22T14:19:44.949Z</time></trkpt><trkpt lat="39.2928453" lon="16.9707698"><ele>575.0</ele><time>2026-03-22T14:19:45.949Z</time></trkpt><trkpt lat="39.2927714" lon="16.9709505"><ele>575.0</ele><time>2026-03-22T14:19:46.949Z</time></trkpt><trkpt lat="39.2927005" lon="16.9711196"><ele>574.75</ele><time>2026-03-22T14:19:47.949Z</time></trkpt><trkpt lat="39.2926294" lon="16.9712768"><ele>574.5</ele><time>2026-03-22T14:19:48.948Z</time></trkpt><trkpt lat="39.2925606" lon="16.9714242"><ele>574.25</ele><time>2026-03-22T14:19:49.949Z</time></trkpt><trkpt lat="39.2924928" lon="16.9715571"><ele>574.0</ele><time>2026-03-22T14:19:50.949Z</time></trkpt><trkpt lat="39.2924185" lon="16.9716854"><ele>571.5</ele><time>2026-03-22T14:19:51.948Z</time></trkpt><trkpt lat="39.2923385" lon="16.9718041"><ele>569.0</ele><time>2026-03-22T14:19:52.949Z</time></trkpt><trkpt lat="39.2922602" lon="16.9719209"><ele>566.5</ele><time>2026-03-22T14:19:53.949Z</time></trkpt><trkpt lat="39.2921801" lon="16.9720348"><ele>564.0</ele><time>2026-03-22T14:19:54.949Z</time></trkpt><trkpt lat="39.292096" lon="16.9721479"><ele>563.25</ele><time>2026-03-22T14:19:55.949Z</time></trkpt><trkpt lat="39.2920232" lon="16.9722622"><ele>562.5</ele><time>2026-03-22T14:19:56.949Z</time></trkpt><trkpt lat="39.2919744" lon="16.9723992"><ele>561.75</ele><time>2026-03-22T14:19:57.948Z</time></trkpt><trkpt lat="39.2919398" lon="16.9725458"><ele>561.0</ele><time>2026-03-22T14:19:58.949Z</time></trkpt><trkpt lat="39.2918852" lon="16.9726802"><ele>559.0</ele><time>2026-03-22T14:19:59.949Z</time></trkpt><trkpt lat="39.2917652" lon="16.972814"><ele>557.0</ele><time>2026-03-22T14:20:00.949Z</time></trkpt><trkpt lat="39.2916453" lon="16.9729484"><ele>555.0</ele><time>2026-03-22T14:20:01.949Z</time></trkpt><trkpt lat="39.2915236" lon="16.973089"><ele>555.0</ele><time>2026-03-22T14:20:02.949Z</time></trkpt><trkpt lat="39.2914103" lon="16.9732288"><ele>555.0</ele><time>2026-03-22T14:20:03.949Z</time></trkpt><trkpt lat="39.291301" lon="16.9733655"><ele>555.0</ele><time>2026-03-22T14:20:04.949Z</time></trkpt><trkpt lat="39.2911961" lon="16.9734936"><ele>555.0</ele><time>2026-03-22T14:20:05.949Z</time></trkpt><trkpt lat="39.2910887" lon="16.9736195"><ele>555.0</ele><time>2026-03-22T14:20:06.949Z</time></trkpt><trkpt lat="39.2909692" lon="16.9737491"><ele>555.0</ele><time>2026-03-22T14:20:07.949Z</time></trkpt><trkpt lat="39.2908341" lon="16.9738841"><ele>555.0</ele><time>2026-03-22T14:20:08.949Z</time></trkpt><trkpt lat="39.2906813" lon="16.9740387"><ele>555.0</ele><time>2026-03-22T14:20:09.948Z</time></trkpt><trkpt lat="39.2905327" lon="16.9741887"><ele>555.0</ele><time>2026-03-22T14:20:10.948Z</time></trkpt><trkpt lat="39.2904088" lon="16.9743099"><ele>554.25</ele><time>2026-03-22T14:20:11.949Z</time></trkpt><trkpt lat="39.2902941" lon="16.9744247"><ele>553.5</ele><time>2026-03-22T14:20:12.949Z</time></trkpt><trkpt lat="39.2901893" lon="16.9745331"><ele>552.75</ele><time>2026-03-22T14:20:13.949Z</time></trkpt><trkpt lat="39.2900861" lon="16.974643"><ele>552.0</ele><time>2026-03-22T14:20:14.949Z</time></trkpt><trkpt lat="39.2899744" lon="16.9747567"><ele>552.0</ele><time>2026-03-22T14:20:15.948Z</time></trkpt><trkpt lat="39.289864" lon="16.9748749"><ele>552.0</ele><time>2026-03-22T14:20:16.949Z</time></trkpt><trkpt lat="39.2897615" lon="16.9749872"><ele>552.0</ele><time>2026-03-22T14:20:17.948Z</time></trkpt><trkpt lat="39.2896693" lon="16.9750856"><ele>552.0</ele><time>2026-03-22T14:20:18.949Z</time></trkpt><trkpt lat="39.2895835" lon="16.975187"><ele>553.0</ele><time>2026-03-22T14:20:19.948Z</time></trkpt><trkpt lat="39.2894841" lon="16.9753034"><ele>554.0</ele><time>2026-03-22T14:20:20.949Z</time></trkpt><trkpt lat="39.2893688" lon="16.9754319"><ele>555.0</ele><time>2026-03-22T14:20:21.948Z</time></trkpt><trkpt lat="39.2892619" lon="16.9755558"><ele>556.0</ele><time>2026-03-22T14:20:22.948Z</time></trkpt><trkpt lat="39.2891588" lon="16.9756722"><ele>556.0</ele><time>2026-03-22T14:20:23.949Z</time></trkpt><trkpt lat="39.2890628" lon="16.9757911"><ele>556.0</ele><time>2026-03-22T14:20:24.949Z</time></trkpt><trkpt lat="39.2889705" lon="16.9759014"><ele>556.0</ele><time>2026-03-22T14:20:25.948Z</time></trkpt><trkpt lat="39.288882" lon="16.9760053"><ele>556.0</ele><time>2026-03-22T14:20:26.949Z</time></trkpt><trkpt lat="39.2888114" lon="16.9760906"><ele>555.8</ele><time>2026-03-22T14:20:27.948Z</time></trkpt><trkpt lat="39.2887533" lon="16.9761574"><ele>555.6</ele><time>2026-03-22T14:20:28.949Z</time></trkpt><trkpt lat="39.2886704" lon="16.9762516"><ele>555.4</ele><time>2026-03-22T14:20:30.949Z</time></trkpt><trkpt lat="39.2885633" lon="16.9762336"><ele>555.2</ele><time>2026-03-22T14:20:32.949Z</time></trkpt><trkpt lat="39.2885173" lon="16.9761221"><ele>555.0</ele><time>2026-03-22T14:20:34.948Z</time></trkpt><trkpt lat="39.2885503" lon="16.9760481"><ele>555.0</ele><time>2026-03-22T14:20:35.948Z</time></trkpt><trkpt lat="39.2885961" lon="16.9759763"><ele>555.0</ele><time>2026-03-22T14:20:36.949Z</time></trkpt><trkpt lat="39.2886081" lon="16.9758719"><ele>555.0</ele><time>2026-03-22T14:20:37.948Z</time></trkpt><trkpt lat="39.2886263" lon="16.97575"><ele>555.0</ele><time>2026-03-22T14:20:38.949Z</time></trkpt><trkpt lat="39.2886665" lon="16.9756299"><ele>555.0</ele><time>2026-03-22T14:20:39.949Z</time></trkpt><trkpt lat="39.2887018" lon="16.9755057"><ele>553.8</ele><time>2026-03-22T14:20:40.949Z</time></trkpt><trkpt lat="39.2887393" lon="16.9753788"><ele>552.6</ele><time>2026-03-22T14:20:41.948Z</time></trkpt><trkpt lat="39.2887763" lon="16.9752544"><ele>551.4</ele><time>2026-03-22T14:20:42.949Z</time></trkpt><trkpt lat="39.2888062" lon="16.9751236"><ele>550.2</ele><time>2026-03-22T14:20:43.949Z</time></trkpt><trkpt lat="39.2888344" lon="16.9749977"><ele>549.0</ele><time>2026-03-22T14:20:44.947Z</time></trkpt><trkpt lat="39.2888642" lon="16.9748836"><ele>549.3333333333334</ele><time>2026-03-22T14:20:45.949Z</time></trkpt><trkpt lat="39.2888969" lon="16.9747884"><ele>549.6666666666666</ele><time>2026-03-22T14:20:46.948Z</time></trkpt><trkpt lat="39.2889477" lon="16.9746898"><ele>550.0</ele><time>2026-03-22T14:20:47.949Z</time></trkpt><trkpt lat="39.2890052" lon="16.9746061"><ele>550.3333333333333</ele><time>2026-03-22T14:20:48.948Z</time></trkpt><trkpt lat="39.2890644" lon="16.9745469"><ele>550.6666666666666</ele><time>2026-03-22T14:20:49.948Z</time></trkpt><trkpt lat="39.2891348" lon="16.9744994"><ele>551.0</ele><time>2026-03-22T14:20:50.949Z</time></trkpt><trkpt lat="39.2892235" lon="16.9744974"><ele>551.0</ele><time>2026-03-22T14:20:51.949Z</time></trkpt><trkpt lat="39.2893418" lon="16.974431"><ele>551.0</ele><time>2026-03-22T14:20:53.948Z</time></trkpt><trkpt lat="39.2893865" lon="16.9743701"><ele>551.0</ele><time>2026-03-22T14:20:54.949Z</time></trkpt><trkpt lat="39.2894041" lon="16.9742728"><ele>551.0</ele><time>2026-03-22T14:20:55.949Z</time></trkpt><trkpt lat="39.2893993" lon="16.9741578"><ele>551.0</ele><time>2026-03-22T14:20:56.949Z</time></trkpt><trkpt lat="39.2893919" lon="16.9740252"><ele>548.0</ele><time>2026-03-22T14:20:57.949Z</time></trkpt><trkpt lat="39.289403" lon="16.9738978"><ele>545.0</ele><time>2026-03-22T14:20:58.949Z</time></trkpt><trkpt lat="39.2894251" lon="16.9737882"><ele>542.0</ele><time>2026-03-22T14:20:59.949Z</time></trkpt><trkpt lat="39.289438" lon="16.9736847"><ele>539.0</ele><time>2026-03-22T14:21:00.949Z</time></trkpt><trkpt lat="39.2894471" lon="16.9735994"><ele>536.0</ele><time>2026-03-22T14:21:01.949Z</time></trkpt><trkpt lat="39.2894374" lon="16.9734776"><ele>533.0</ele><time>2026-03-22T14:21:03.949Z</time></trkpt><trkpt lat="39.2893496" lon="16.9734323"><ele>533.0</ele><time>2026-03-22T14:21:05.949Z</time></trkpt><trkpt lat="39.289268" lon="16.9734794"><ele>533.0</ele><time>2026-03-22T14:21:06.949Z</time></trkpt><trkpt lat="39.2891851" lon="16.973575"><ele>533.0</ele><time>2026-03-22T14:21:07.949Z</time></trkpt><trkpt lat="39.2891074" lon="16.973687"><ele>533.0</ele><time>2026-03-22T14:21:08.949Z</time></trkpt><trkpt lat="39.2890271" lon="16.9737869"><ele>533.0</ele><time>2026-03-22T14:21:09.949Z</time></trkpt><trkpt lat="39.2889354" lon="16.9738692"><ele>529.1999999999999</ele><time>2026-03-22T14:21:10.947Z</time></trkpt><trkpt lat="39.2888368" lon="16.9739405"><ele>525.4</ele><time>2026-03-22T14:21:11.949Z</time></trkpt><trkpt lat="39.2887429" lon="16.9740074"><ele>521.5999999999999</ele><time>2026-03-22T14:21:12.947Z</time></trkpt><trkpt lat="39.2886643" lon="16.974081"><ele>517.8</ele><time>2026-03-22T14:21:13.949Z</time></trkpt><trkpt lat="39.288597" lon="16.974148"><ele>514.0</ele><time>2026-03-22T14:21:14.949Z</time></trkpt><trkpt lat="39.288511" lon="16.9741748"><ele>514.0</ele><time>2026-03-22T14:21:15.949Z</time></trkpt><trkpt lat="39.2884229" lon="16.9741721"><ele>514.0</ele><time>2026-03-22T14:21:16.949Z</time></trkpt><trkpt lat="39.2883155" lon="16.9741513"><ele>514.0</ele><time>2026-03-22T14:21:17.949Z</time></trkpt><trkpt lat="39.2882133" lon="16.9740931"><ele>514.0</ele><time>2026-03-22T14:21:18.949Z</time></trkpt><trkpt lat="39.2881293" lon="16.9740059"><ele>514.0</ele><time>2026-03-22T14:21:19.949Z</time></trkpt><trkpt lat="39.2880487" lon="16.9739203"><ele>513.6</ele><time>2026-03-22T14:21:20.949Z</time></trkpt><trkpt lat="39.2879634" lon="16.973821"><ele>513.2</ele><time>2026-03-22T14:21:21.948Z</time></trkpt><trkpt lat="39.2878779" lon="16.9737278"><ele>512.8000000000001</ele><time>2026-03-22T14:21:22.948Z</time></trkpt><trkpt lat="39.287793" lon="16.9736452"><ele>512.4</ele><time>2026-03-22T14:21:23.948Z</time></trkpt><trkpt lat="39.287708" lon="16.9735748"><ele>512.0</ele><time>2026-03-22T14:21:24.948Z</time></trkpt><trkpt lat="39.2876252" lon="16.9735322"><ele>511.99999999999994</ele><time>2026-03-22T14:21:25.948Z</time></trkpt><trkpt lat="39.2875409" lon="16.9735185"><ele>512.0</ele><time>2026-03-22T14:21:26.947Z</time></trkpt><trkpt lat="39.2874669" lon="16.9735509"><ele>512.0</ele><time>2026-03-22T14:21:27.948Z</time></trkpt><trkpt lat="39.2873996" lon="16.9735868"><ele>512.0</ele><time>2026-03-22T14:21:28.948Z</time></trkpt><trkpt lat="39.2873399" lon="16.9736177"><ele>511.99999999999994</ele><time>2026-03-22T14:21:29.948Z</time></trkpt><trkpt lat="39.2872386" lon="16.9736162"><ele>512.0</ele><time>2026-03-22T14:21:31.948Z</time></trkpt><trkpt lat="39.2871536" lon="16.9735241"><ele>508.0</ele><time>2026-03-22T14:21:33.948Z</time></trkpt><trkpt lat="39.2870926" lon="16.9734124"><ele>504.00000000000006</ele><time>2026-03-22T14:21:35.947Z</time></trkpt><trkpt lat="39.2869743" lon="16.9734217"><ele>500.00000000000006</ele><time>2026-03-22T14:21:37.947Z</time></trkpt><trkpt lat="39.2869257" lon="16.9735101"><ele>496.0</ele><time>2026-03-22T14:21:38.947Z</time></trkpt><trkpt lat="39.2868675" lon="16.9736086"><ele>492.0</ele><time>2026-03-22T14:21:39.948Z</time></trkpt><trkpt lat="39.2868007" lon="16.9736536"><ele>492.0</ele><time>2026-03-22T14:21:40.948Z</time></trkpt><trkpt lat="39.2867318" lon="16.9736568"><ele>492.0</ele><time>2026-03-22T14:21:41.947Z</time></trkpt><trkpt lat="39.2866729" lon="16.9736177"><ele>492.0</ele><time>2026-03-22T14:21:42.948Z</time></trkpt><trkpt lat="39.2866261" lon="16.9735395"><ele>492.0</ele><time>2026-03-22T14:21:43.947Z</time></trkpt><trkpt lat="39.2865527" lon="16.9734964"><ele>492.0</ele><time>2026-03-22T14:21:44.948Z</time></trkpt><trkpt lat="39.2864705" lon="16.9734906"><ele>492.0</ele><time>2026-03-22T14:21:45.948Z</time></trkpt><trkpt lat="39.2863814" lon="16.9735304"><ele>483.20000000000005</ele><time>2026-03-22T14:21:46.947Z</time></trkpt><trkpt lat="39.2863011" lon="16.9736062"><ele>474.40000000000003</ele><time>2026-03-22T14:21:47.947Z</time></trkpt><trkpt lat="39.2862312" lon="16.9736989"><ele>465.59999999999997</ele><time>2026-03-22T14:21:48.948Z</time></trkpt><trkpt lat="39.286172" lon="16.973805"><ele>456.79999999999995</ele><time>2026-03-22T14:21:49.948Z</time></trkpt><trkpt lat="39.2861254" lon="16.9739213"><ele>448.0</ele><time>2026-03-22T14:21:50.948Z</time></trkpt><trkpt lat="39.2860879" lon="16.9740414"><ele>448.0</ele><time>2026-03-22T14:21:51.948Z</time></trkpt><trkpt lat="39.2860351" lon="16.9741453"><ele>447.99999999999994</ele><time>2026-03-22T14:21:52.948Z</time></trkpt><trkpt lat="39.2859578" lon="16.9742388"><ele>447.99999999999994</ele><time>2026-03-22T14:21:53.947Z</time></trkpt><trkpt lat="39.285883" lon="16.9743352"><ele>448.0</ele><time>2026-03-22T14:21:54.948Z</time></trkpt><trkpt lat="39.2858269" lon="16.9743976"><ele>448.0</ele><time>2026-03-22T14:21:55.947Z</time></trkpt><trkpt lat="39.2857726" lon="16.9744528"><ele>448.0</ele><time>2026-03-22T14:21:56.948Z</time></trkpt><trkpt lat="39.2857123" lon="16.9744874"><ele>447.99999999999994</ele><time>2026-03-22T14:21:57.948Z</time></trkpt><trkpt lat="39.2856575" lon="16.9744036"><ele>447.99999999999994</ele><time>2026-03-22T14:21:59.948Z</time></trkpt><trkpt lat="39.2856848" lon="16.9742247"><ele>448.0</ele><time>2026-03-22T14:22:01.948Z</time></trkpt><trkpt lat="39.2856879" lon="16.9741091"><ele>448.0</ele><time>2026-03-22T14:22:02.948Z</time></trkpt><trkpt lat="39.2856576" lon="16.974001"><ele>448.00000000000006</ele><time>2026-03-22T14:22:03.948Z</time></trkpt><trkpt lat="39.2856167" lon="16.9738934"><ele>448.0</ele><time>2026-03-22T14:22:04.948Z</time></trkpt><trkpt lat="39.2855827" lon="16.9737815"><ele>448.0</ele><time>2026-03-22T14:22:05.948Z</time></trkpt><trkpt lat="39.2855642" lon="16.9736675"><ele>448.0</ele><time>2026-03-22T14:22:06.948Z</time></trkpt><trkpt lat="39.2855733" lon="16.9735624"><ele>448.00000000000006</ele><time>2026-03-22T14:22:07.947Z</time></trkpt><trkpt lat="39.2856088" lon="16.9734765"><ele>448.0</ele><time>2026-03-22T14:22:08.948Z</time></trkpt><trkpt lat="39.2856651" lon="16.9733987"><ele>445.59999999999997</ele><time>2026-03-22T14:22:09.948Z</time></trkpt><trkpt lat="39.2857267" lon="16.9733154"><ele>443.19999999999993</ele><time>2026-03-22T14:22:10.948Z</time></trkpt><trkpt lat="39.2857932" lon="16.9732048"><ele>440.8</ele><time>2026-03-22T14:22:11.948Z</time></trkpt><trkpt lat="39.2858688" lon="16.9730786"><ele>438.4</ele><time>2026-03-22T14:22:12.947Z</time></trkpt><trkpt lat="39.2859461" lon="16.9729629"><ele>436.0</ele><time>2026-03-22T14:22:13.948Z</time></trkpt><trkpt lat="39.2860182" lon="16.9728546"><ele>436.00000000000006</ele><time>2026-03-22T14:22:14.948Z</time></trkpt><trkpt lat="39.2860713" lon="16.9727554"><ele>436.0</ele><time>2026-03-22T14:22:15.948Z</time></trkpt><trkpt lat="39.2861025" lon="16.972648"><ele>436.0</ele><time>2026-03-22T14:22:16.948Z</time></trkpt><trkpt lat="39.286133" lon="16.9725555"><ele>436.0</ele><time>2026-03-22T14:22:17.947Z</time></trkpt><trkpt lat="39.2861629" lon="16.9724791"><ele>436.00000000000006</ele><time>2026-03-22T14:22:18.948Z</time></trkpt><trkpt lat="39.2861575" lon="16.9723457"><ele>436.0</ele><time>2026-03-22T14:22:20.947Z</time></trkpt><trkpt lat="39.2860595" lon="16.9723357"><ele>436.0</ele><time>2026-03-22T14:22:22.948Z</time></trkpt><trkpt lat="39.2860042" lon="16.9723862"><ele>436.0</ele><time>2026-03-22T14:22:23.948Z</time></trkpt><trkpt lat="39.2859602" lon="16.9724803"><ele>436.0</ele><time>2026-03-22T14:22:24.948Z</time></trkpt><trkpt lat="39.2859047" lon="16.9725895"><ele>436.0</ele><time>2026-03-22T14:22:25.948Z</time></trkpt><trkpt lat="39.2858415" lon="16.9726907"><ele>436.0</ele><time>2026-03-22T14:22:26.947Z</time></trkpt><trkpt lat="39.2857733" lon="16.9727962"><ele>436.0</ele><time>2026-03-22T14:22:27.948Z</time></trkpt><trkpt lat="39.2857066" lon="16.9729013"><ele>436.0</ele><time>2026-03-22T14:22:28.947Z</time></trkpt><trkpt lat="39.2856284" lon="16.9729952"><ele>436.0</ele><time>2026-03-22T14:22:29.948Z</time></trkpt><trkpt lat="39.2855303" lon="16.9730654"><ele>436.0</ele><time>2026-03-22T14:22:30.948Z</time></trkpt><trkpt lat="39.2854318" lon="16.9731331"><ele>436.0</ele><time>2026-03-22T14:22:31.948Z</time></trkpt><trkpt lat="39.285336" lon="16.9732018"><ele>432.20000000000005</ele><time>2026-03-22T14:22:32.948Z</time></trkpt><trkpt lat="39.2852459" lon="16.9732668"><ele>428.40000000000003</ele><time>2026-03-22T14:22:33.948Z</time></trkpt><trkpt lat="39.285166" lon="16.9733395"><ele>424.6</ele><time>2026-03-22T14:22:34.948Z</time></trkpt><trkpt lat="39.2851087" lon="16.973442"><ele>420.8</ele><time>2026-03-22T14:22:35.948Z</time></trkpt><trkpt lat="39.2850627" lon="16.9735508"><ele>417.0</ele><time>2026-03-22T14:22:36.948Z</time></trkpt><trkpt lat="39.2850168" lon="16.9736618"><ele>417.0</ele><time>2026-03-22T14:22:37.948Z</time></trkpt><trkpt lat="39.2849489" lon="16.9737558"><ele>417.0</ele><time>2026-03-22T14:22:38.948Z</time></trkpt><trkpt lat="39.284857" lon="16.9738285"><ele>417.0</ele><time>2026-03-22T14:22:39.947Z</time></trkpt><trkpt lat="39.2847674" lon="16.9738899"><ele>417.0</ele><time>2026-03-22T14:22:40.948Z</time></trkpt><trkpt lat="39.284668" lon="16.9739403"><ele>417.0</ele><time>2026-03-22T14:22:41.948Z</time></trkpt><trkpt lat="39.2845707" lon="16.973987"><ele>411.8</ele><time>2026-03-22T14:22:42.948Z</time></trkpt><trkpt lat="39.2844703" lon="16.9740162"><ele>406.6</ele><time>2026-03-22T14:22:43.947Z</time></trkpt><trkpt lat="39.284375" lon="16.974025"><ele>401.40000000000003</ele><time>2026-03-22T14:22:44.948Z</time></trkpt><trkpt lat="39.2842796" lon="16.9740503"><ele>396.20000000000005</ele><time>2026-03-22T14:22:45.948Z</time></trkpt><trkpt lat="39.2841807" lon="16.9741159"><ele>391.0</ele><time>2026-03-22T14:22:46.948Z</time></trkpt><trkpt lat="39.2840852" lon="16.9741821"><ele>393.6</ele><time>2026-03-22T14:22:47.948Z</time></trkpt><trkpt lat="39.2839856" lon="16.974238"><ele>396.20000000000005</ele><time>2026-03-22T14:22:48.947Z</time></trkpt><trkpt lat="39.2838876" lon="16.9742882"><ele>398.79999999999995</ele><time>2026-03-22T14:22:49.948Z</time></trkpt><trkpt lat="39.2838001" lon="16.9743486"><ele>401.4</ele><time>2026-03-22T14:22:50.948Z</time></trkpt><trkpt lat="39.2837362" lon="16.9744412"><ele>404.0</ele><time>2026-03-22T14:22:51.948Z</time></trkpt><trkpt lat="39.2837022" lon="16.9745691"><ele>395.0</ele><time>2026-03-22T14:22:52.948Z</time></trkpt><trkpt lat="39.2836754" lon="16.9747137"><ele>386.0</ele><time>2026-03-22T14:22:53.948Z</time></trkpt><trkpt lat="39.2836531" lon="16.9748746"><ele>377.0</ele><time>2026-03-22T14:22:54.948Z</time></trkpt><trkpt lat="39.2836362" lon="16.9750364"><ele>368.0</ele><time>2026-03-22T14:22:55.948Z</time></trkpt><trkpt lat="39.283617" lon="16.9751962"><ele>368.0</ele><time>2026-03-22T14:22:56.948Z</time></trkpt><trkpt lat="39.2835873" lon="16.9753455"><ele>368.0</ele><time>2026-03-22T14:22:57.948Z</time></trkpt><trkpt lat="39.2835724" lon="16.9754904"><ele>368.0</ele><time>2026-03-22T14:22:58.948Z</time></trkpt><trkpt lat="39.2835869" lon="16.975624"><ele>368.0</ele><time>2026-03-22T14:22:59.948Z</time></trkpt><trkpt lat="39.2835833" lon="16.9757501"><ele>368.0</ele><time>2026-03-22T14:23:00.948Z</time></trkpt><trkpt lat="39.2835556" lon="16.9758785"><ele>370.59999999999997</ele><time>2026-03-22T14:23:01.947Z</time></trkpt><trkpt lat="39.2834864" lon="16.9759851"><ele>373.2</ele><time>2026-03-22T14:23:02.948Z</time></trkpt><trkpt lat="39.2833998" lon="16.9760772"><ele>375.8</ele><time>2026-03-22T14:23:03.948Z</time></trkpt><trkpt lat="39.2833165" lon="16.9761589"><ele>378.4</ele><time>2026-03-22T14:23:04.948Z</time></trkpt><trkpt lat="39.2832354" lon="16.9762398"><ele>381.0</ele><time>2026-03-22T14:23:05.948Z</time></trkpt><trkpt lat="39.2831581" lon="16.976341"><ele>378.75</ele><time>2026-03-22T14:23:06.948Z</time></trkpt><trkpt lat="39.2830846" lon="16.9764581"><ele>376.5</ele><time>2026-03-22T14:23:07.948Z</time></trkpt><trkpt lat="39.2830087" lon="16.9765841"><ele>374.25</ele><time>2026-03-22T14:23:08.948Z</time></trkpt><trkpt lat="39.2829259" lon="16.9767199"><ele>372.0</ele><time>2026-03-22T14:23:09.948Z</time></trkpt><trkpt lat="39.2828283" lon="16.9768462"><ele>372.0</ele><time>2026-03-22T14:23:10.948Z</time></trkpt><trkpt lat="39.2827186" lon="16.9769566"><ele>372.0</ele><time>2026-03-22T14:23:11.948Z</time></trkpt><trkpt lat="39.2826068" lon="16.9770576"><ele>372.0</ele><time>2026-03-22T14:23:12.948Z</time></trkpt><trkpt lat="39.2824998" lon="16.9771536"><ele>372.0</ele><time>2026-03-22T14:23:13.947Z</time></trkpt><trkpt lat="39.2823951" lon="16.9772426"><ele>372.0</ele><time>2026-03-22T14:23:14.948Z</time></trkpt><trkpt lat="39.2823028" lon="16.9773462"><ele>372.0</ele><time>2026-03-22T14:23:15.948Z</time></trkpt><trkpt lat="39.2822312" lon="16.977472"><ele>372.0</ele><time>2026-03-22T14:23:16.948Z</time></trkpt><trkpt lat="39.282172" lon="16.9776109"><ele>372.0</ele><time>2026-03-22T14:23:17.948Z</time></trkpt><trkpt lat="39.2821246" lon="16.9777408"><ele>372.0</ele><time>2026-03-22T14:23:18.948Z</time></trkpt><trkpt lat="39.282078" lon="16.9778522"><ele>372.0</ele><time>2026-03-22T14:23:19.948Z</time></trkpt><trkpt lat="39.2820126" lon="16.9779511"><ele>372.0</ele><time>2026-03-22T14:23:20.948Z</time></trkpt><trkpt lat="39.2819171" lon="16.9780114"><ele>372.0</ele><time>2026-03-22T14:23:21.948Z</time></trkpt><trkpt lat="39.2818055" lon="16.9780354"><ele>372.0</ele><time>2026-03-22T14:23:22.948Z</time></trkpt><trkpt lat="39.2816854" lon="16.9780331"><ele>372.0</ele><time>2026-03-22T14:23:23.948Z</time></trkpt><trkpt lat="39.2815592" lon="16.9780214"><ele>372.0</ele><time>2026-03-22T14:23:24.946Z</time></trkpt><trkpt lat="39.2814344" lon="16.9779917"><ele>372.0</ele><time>2026-03-22T14:23:25.948Z</time></trkpt><trkpt lat="39.2813231" lon="16.9779593"><ele>372.0</ele><time>2026-03-22T14:23:26.948Z</time></trkpt><trkpt lat="39.2812248" lon="16.9779215"><ele>367.3333333333333</ele><time>2026-03-22T14:23:27.947Z</time></trkpt><trkpt lat="39.2811344" lon="16.9778908"><ele>362.6666666666667</ele><time>2026-03-22T14:23:28.948Z</time></trkpt><trkpt lat="39.2810591" lon="16.9778859"><ele>358.0</ele><time>2026-03-22T14:23:29.948Z</time></trkpt><trkpt lat="39.2809946" lon="16.977928"><ele>353.33333333333337</ele><time>2026-03-22T14:23:30.948Z</time></trkpt><trkpt lat="39.2809533" lon="16.978014"><ele>348.6666666666667</ele><time>2026-03-22T14:23:31.948Z</time></trkpt><trkpt lat="39.2809371" lon="16.978126"><ele>344.0</ele><time>2026-03-22T14:23:32.947Z</time></trkpt><trkpt lat="39.2809244" lon="16.9782574"><ele>342.4</ele><time>2026-03-22T14:23:33.948Z</time></trkpt><trkpt lat="39.280884" lon="16.9783841"><ele>340.79999999999995</ele><time>2026-03-22T14:23:34.947Z</time></trkpt><trkpt lat="39.2808166" lon="16.9784921"><ele>339.20000000000005</ele><time>2026-03-22T14:23:35.948Z</time></trkpt><trkpt lat="39.2807325" lon="16.9786002"><ele>337.6</ele><time>2026-03-22T14:23:36.948Z</time></trkpt><trkpt lat="39.2806541" lon="16.9787066"><ele>336.0</ele><time>2026-03-22T14:23:37.948Z</time></trkpt><trkpt lat="39.2805828" lon="16.9788103"><ele>336.0</ele><time>2026-03-22T14:23:38.947Z</time></trkpt><trkpt lat="39.2805128" lon="16.9789099"><ele>336.0</ele><time>2026-03-22T14:23:39.948Z</time></trkpt><trkpt lat="39.2804491" lon="16.979002"><ele>336.0</ele><time>2026-03-22T14:23:40.948Z</time></trkpt><trkpt lat="39.280413" lon="16.9791044"><ele>336.0</ele><time>2026-03-22T14:23:41.948Z</time></trkpt><trkpt lat="39.280413" lon="16.9792172"><ele>336.0</ele><time>2026-03-22T14:23:42.948Z</time></trkpt><trkpt lat="39.2804552" lon="16.97932"><ele>339.0</ele><time>2026-03-22T14:23:43.948Z</time></trkpt><trkpt lat="39.2805155" lon="16.9794302"><ele>342.0</ele><time>2026-03-22T14:23:44.947Z</time></trkpt><trkpt lat="39.2805577" lon="16.9795829"><ele>345.0</ele><time>2026-03-22T14:23:45.947Z</time></trkpt><trkpt lat="39.2805793" lon="16.979735"><ele>348.0</ele><time>2026-03-22T14:23:46.948Z</time></trkpt><trkpt lat="39.2806048" lon="16.9798974"><ele>348.0</ele><time>2026-03-22T14:23:47.948Z</time></trkpt><trkpt lat="39.2806302" lon="16.9800703"><ele>348.0</ele><time>2026-03-22T14:23:48.948Z</time></trkpt><trkpt lat="39.280647" lon="16.9802188"><ele>348.0</ele><time>2026-03-22T14:23:49.948Z</time></trkpt><trkpt lat="39.2806754" lon="16.9803472"><ele>348.0</ele><time>2026-03-22T14:23:50.947Z</time></trkpt><trkpt lat="39.2807149" lon="16.9804693"><ele>348.0</ele><time>2026-03-22T14:23:51.948Z</time></trkpt><trkpt lat="39.2807588" lon="16.9805911"><ele>348.0</ele><time>2026-03-22T14:23:52.948Z</time></trkpt><trkpt lat="39.2807944" lon="16.9807226"><ele>348.0</ele><time>2026-03-22T14:23:53.948Z</time></trkpt><trkpt lat="39.2808174" lon="16.9808722"><ele>348.0</ele><time>2026-03-22T14:23:54.947Z</time></trkpt><trkpt lat="39.2808361" lon="16.9810427"><ele>348.25</ele><time>2026-03-22T14:23:55.948Z</time></trkpt><trkpt lat="39.2808407" lon="16.9812021"><ele>348.5</ele><time>2026-03-22T14:23:56.948Z</time></trkpt><trkpt lat="39.2808277" lon="16.9813602"><ele>348.75</ele><time>2026-03-22T14:23:57.947Z</time></trkpt><trkpt lat="39.2808039" lon="16.9815018"><ele>349.0</ele><time>2026-03-22T14:23:58.948Z</time></trkpt><trkpt lat="39.2807727" lon="16.9816334"><ele>346.75</ele><time>2026-03-22T14:23:59.948Z</time></trkpt><trkpt lat="39.2807426" lon="16.9817645"><ele>344.5</ele><time>2026-03-22T14:24:00.948Z</time></trkpt><trkpt lat="39.2807363" lon="16.9819076"><ele>342.25</ele><time>2026-03-22T14:24:01.948Z</time></trkpt><trkpt lat="39.2807602" lon="16.9820624"><ele>340.0</ele><time>2026-03-22T14:24:02.948Z</time></trkpt><trkpt lat="39.280783" lon="16.9822163"><ele>340.0</ele><time>2026-03-22T14:24:03.947Z</time></trkpt><trkpt lat="39.2807991" lon="16.982366"><ele>340.0</ele><time>2026-03-22T14:24:04.948Z</time></trkpt><trkpt lat="39.2808064" lon="16.9825195"><ele>340.0</ele><time>2026-03-22T14:24:05.948Z</time></trkpt><trkpt lat="39.2807892" lon="16.9826831"><ele>340.0</ele><time>2026-03-22T14:24:06.946Z</time></trkpt><trkpt lat="39.2807505" lon="16.9828387"><ele>339.0</ele><time>2026-03-22T14:24:07.948Z</time></trkpt><trkpt lat="39.2807261" lon="16.9829925"><ele>338.0</ele><time>2026-03-22T14:24:08.948Z</time></trkpt><trkpt lat="39.2807298" lon="16.9831383"><ele>337.0</ele><time>2026-03-22T14:24:09.948Z</time></trkpt><trkpt lat="39.2807202" lon="16.9832718"><ele>336.0</ele><time>2026-03-22T14:24:10.947Z</time></trkpt><trkpt lat="39.2806782" lon="16.9834068"><ele>339.75</ele><time>2026-03-22T14:24:11.947Z</time></trkpt><trkpt lat="39.2806119" lon="16.9835393"><ele>343.5</ele><time>2026-03-22T14:24:12.948Z</time></trkpt><trkpt lat="39.2805306" lon="16.9836715"><ele>347.25</ele><time>2026-03-22T14:24:13.947Z</time></trkpt><trkpt lat="39.2804528" lon="16.9838072"><ele>351.0</ele><time>2026-03-22T14:24:14.947Z</time></trkpt><trkpt lat="39.2803894" lon="16.9839354"><ele>346.20000000000005</ele><time>2026-03-22T14:24:15.948Z</time></trkpt><trkpt lat="39.2803545" lon="16.9840648"><ele>341.40000000000003</ele><time>2026-03-22T14:24:16.947Z</time></trkpt><trkpt lat="39.2803475" lon="16.9841951"><ele>336.6</ele><time>2026-03-22T14:24:17.948Z</time></trkpt><trkpt lat="39.280356" lon="16.984335"><ele>331.8</ele><time>2026-03-22T14:24:18.948Z</time></trkpt><trkpt lat="39.2803789" lon="16.9844826"><ele>327.0</ele><time>2026-03-22T14:24:19.948Z</time></trkpt><trkpt lat="39.2803922" lon="16.9846336"><ele>327.0</ele><time>2026-03-22T14:24:20.947Z</time></trkpt><trkpt lat="39.280403" lon="16.9847684"><ele>327.0</ele><time>2026-03-22T14:24:21.948Z</time></trkpt><trkpt lat="39.2804446" lon="16.9848892"><ele>327.0</ele><time>2026-03-22T14:24:22.948Z</time></trkpt><trkpt lat="39.2804887" lon="16.9849951"><ele>327.0</ele><time>2026-03-22T14:24:23.948Z</time></trkpt><trkpt lat="39.2805251" lon="16.9850843"><ele>327.0</ele><time>2026-03-22T14:24:24.948Z</time></trkpt><trkpt lat="39.2805331" lon="16.9851808"><ele>329.0</ele><time>2026-03-22T14:24:25.948Z</time></trkpt><trkpt lat="39.280503" lon="16.9852876"><ele>331.0</ele><time>2026-03-22T14:24:26.948Z</time></trkpt><trkpt lat="39.2804648" lon="16.9853973"><ele>333.0</ele><time>2026-03-22T14:24:27.948Z</time></trkpt><trkpt lat="39.2804307" lon="16.9855203"><ele>335.0</ele><time>2026-03-22T14:24:28.948Z</time></trkpt><trkpt lat="39.2804044" lon="16.9856653"><ele>337.0</ele><time>2026-03-22T14:24:29.948Z</time></trkpt><trkpt lat="39.2803765" lon="16.9857959"><ele>338.75</ele><time>2026-03-22T14:24:30.948Z</time></trkpt><trkpt lat="39.2803223" lon="16.9859305"><ele>340.5</ele><time>2026-03-22T14:24:31.948Z</time></trkpt><trkpt lat="39.2802577" lon="16.9860525"><ele>342.25</ele><time>2026-03-22T14:24:32.948Z</time></trkpt><trkpt lat="39.2801774" lon="16.9861687"><ele>344.0</ele><time>2026-03-22T14:24:33.948Z</time></trkpt><trkpt lat="39.2800889" lon="16.9862772"><ele>344.0</ele><time>2026-03-22T14:24:34.947Z</time></trkpt><trkpt lat="39.2800065" lon="16.9863684"><ele>344.0</ele><time>2026-03-22T14:24:35.948Z</time></trkpt><trkpt lat="39.279913" lon="16.9864374"><ele>344.0</ele><time>2026-03-22T14:24:36.948Z</time></trkpt><trkpt lat="39.279808" lon="16.9864707"><ele>344.0</ele><time>2026-03-22T14:24:37.948Z</time></trkpt><trkpt lat="39.2797127" lon="16.9864915"><ele>344.0</ele><time>2026-03-22T14:24:38.948Z</time></trkpt><trkpt lat="39.2796323" lon="16.9865375"><ele>341.4</ele><time>2026-03-22T14:24:39.948Z</time></trkpt><trkpt lat="39.2795519" lon="16.9865918"><ele>338.79999999999995</ele><time>2026-03-22T14:24:40.948Z</time></trkpt><trkpt lat="39.2794613" lon="16.9866457"><ele>336.20000000000005</ele><time>2026-03-22T14:24:41.948Z</time></trkpt><trkpt lat="39.2793692" lon="16.986698"><ele>333.6</ele><time>2026-03-22T14:24:42.948Z</time></trkpt><trkpt lat="39.2792775" lon="16.9867425"><ele>331.0</ele><time>2026-03-22T14:24:43.948Z</time></trkpt><trkpt lat="39.2791798" lon="16.9867621"><ele>330.20000000000005</ele><time>2026-03-22T14:24:44.948Z</time></trkpt><trkpt lat="39.2790751" lon="16.9867674"><ele>329.40000000000003</ele><time>2026-03-22T14:24:45.948Z</time></trkpt><trkpt lat="39.2789578" lon="16.9867594"><ele>328.6</ele><time>2026-03-22T14:24:46.948Z</time></trkpt><trkpt lat="39.2788432" lon="16.9867509"><ele>327.8</ele><time>2026-03-22T14:24:47.948Z</time></trkpt><trkpt lat="39.278738" lon="16.9867466"><ele>327.0</ele><time>2026-03-22T14:24:48.948Z</time></trkpt><trkpt lat="39.2786365" lon="16.9867572"><ele>327.0</ele><time>2026-03-22T14:24:49.948Z</time></trkpt><trkpt lat="39.2785332" lon="16.9867941"><ele>327.0</ele><time>2026-03-22T14:24:50.948Z</time></trkpt><trkpt lat="39.2784269" lon="16.9868534"><ele>327.0</ele><time>2026-03-22T14:24:51.948Z</time></trkpt><trkpt lat="39.278307" lon="16.9869068"><ele>327.0</ele><time>2026-03-22T14:24:52.948Z</time></trkpt><trkpt lat="39.2781696" lon="16.9869581"><ele>325.25</ele><time>2026-03-22T14:24:53.948Z</time></trkpt><trkpt lat="39.2780454" lon="16.9869983"><ele>323.5</ele><time>2026-03-22T14:24:54.948Z</time></trkpt><trkpt lat="39.2779279" lon="16.9870311"><ele>321.75</ele><time>2026-03-22T14:24:55.948Z</time></trkpt><trkpt lat="39.2778188" lon="16.9870588"><ele>320.0</ele><time>2026-03-22T14:24:56.948Z</time></trkpt><trkpt lat="39.2777078" lon="16.9870606"><ele>320.0</ele><time>2026-03-22T14:24:57.948Z</time></trkpt><trkpt lat="39.2775942" lon="16.9870436"><ele>320.0</ele><time>2026-03-22T14:24:58.946Z</time></trkpt><trkpt lat="39.2774779" lon="16.9870214"><ele>320.0</ele><time>2026-03-22T14:24:59.948Z</time></trkpt><trkpt lat="39.2773567" lon="16.9870097"><ele>320.0</ele><time>2026-03-22T14:25:00.948Z</time></trkpt><trkpt lat="39.2772323" lon="16.9870147"><ele>318.0</ele><time>2026-03-22T14:25:01.948Z</time></trkpt><trkpt lat="39.2771036" lon="16.9870205"><ele>316.0</ele><time>2026-03-22T14:25:02.948Z</time></trkpt><trkpt lat="39.2769764" lon="16.9870259"><ele>314.0</ele><time>2026-03-22T14:25:03.948Z</time></trkpt><trkpt lat="39.276855" lon="16.9870285"><ele>312.0</ele><time>2026-03-22T14:25:04.948Z</time></trkpt><trkpt lat="39.2767413" lon="16.9870275"><ele>312.0</ele><time>2026-03-22T14:25:05.948Z</time></trkpt><trkpt lat="39.2766392" lon="16.987025"><ele>312.0</ele><time>2026-03-22T14:25:06.948Z</time></trkpt><trkpt lat="39.2765419" lon="16.9869975"><ele>312.0</ele><time>2026-03-22T14:25:07.948Z</time></trkpt><trkpt lat="39.2764421" lon="16.98695"><ele>312.0</ele><time>2026-03-22T14:25:08.948Z</time></trkpt><trkpt lat="39.2763392" lon="16.9869033"><ele>312.0</ele><time>2026-03-22T14:25:09.947Z</time></trkpt><trkpt lat="39.2762248" lon="16.9868751"><ele>310.6</ele><time>2026-03-22T14:25:10.948Z</time></trkpt><trkpt lat="39.2761103" lon="16.9868427"><ele>309.2</ele><time>2026-03-22T14:25:11.947Z</time></trkpt><trkpt lat="39.2760051" lon="16.9867872"><ele>307.8</ele><time>2026-03-22T14:25:12.948Z</time></trkpt><trkpt lat="39.2759089" lon="16.986718"><ele>306.4</ele><time>2026-03-22T14:25:13.948Z</time></trkpt><trkpt lat="39.2758256" lon="16.9866487"><ele>305.0</ele><time>2026-03-22T14:25:14.948Z</time></trkpt><trkpt lat="39.2757482" lon="16.9865926"><ele>304.6666666666667</ele><time>2026-03-22T14:25:15.948Z</time></trkpt><trkpt lat="39.2756782" lon="16.9865686"><ele>304.33333333333337</ele><time>2026-03-22T14:25:16.947Z</time></trkpt><trkpt lat="39.2756147" lon="16.9865943"><ele>304.0</ele><time>2026-03-22T14:25:17.948Z</time></trkpt><trkpt lat="39.2755675" lon="16.9866633"><ele>303.6666666666667</ele><time>2026-03-22T14:25:18.948Z</time></trkpt><trkpt lat="39.2755405" lon="16.9867425"><ele>303.3333333333333</ele><time>2026-03-22T14:25:19.948Z</time></trkpt><trkpt lat="39.2754401" lon="16.9868146"><ele>303.0</ele><time>2026-03-22T14:25:21.948Z</time></trkpt><trkpt lat="39.2753207" lon="16.9867405"><ele>301.0</ele><time>2026-03-22T14:25:23.948Z</time></trkpt><trkpt lat="39.2752729" lon="16.9866816"><ele>299.0</ele><time>2026-03-22T14:25:24.947Z</time></trkpt><trkpt lat="39.2752304" lon="16.9866037"><ele>297.0</ele><time>2026-03-22T14:25:25.948Z</time></trkpt><trkpt lat="39.2751936" lon="16.9865122"><ele>295.0</ele><time>2026-03-22T14:25:26.948Z</time></trkpt><trkpt lat="39.2751641" lon="16.9864029"><ele>293.0</ele><time>2026-03-22T14:25:27.948Z</time></trkpt><trkpt lat="39.2751366" lon="16.9862823"><ele>291.0</ele><time>2026-03-22T14:25:28.948Z</time></trkpt><trkpt lat="39.2751069" lon="16.9861635"><ele>291.0</ele><time>2026-03-22T14:25:29.948Z</time></trkpt><trkpt lat="39.2750743" lon="16.9860478"><ele>291.0</ele><time>2026-03-22T14:25:30.948Z</time></trkpt><trkpt lat="39.2750395" lon="16.9859348"><ele>291.0</ele><time>2026-03-22T14:25:31.948Z</time></trkpt><trkpt lat="39.2749961" lon="16.9858307"><ele>291.0</ele><time>2026-03-22T14:25:32.948Z</time></trkpt><trkpt lat="39.2749473" lon="16.9857495"><ele>291.0</ele><time>2026-03-22T14:25:33.948Z</time></trkpt><trkpt lat="39.2748878" lon="16.9856881"><ele>291.0</ele><time>2026-03-22T14:25:34.948Z</time></trkpt><trkpt lat="39.274812" lon="16.9856406"><ele>286.8</ele><time>2026-03-22T14:25:35.948Z</time></trkpt><trkpt lat="39.2747219" lon="16.9855999"><ele>282.6</ele><time>2026-03-22T14:25:36.948Z</time></trkpt><trkpt lat="39.2746256" lon="16.9855535"><ele>278.4</ele><time>2026-03-22T14:25:37.948Z</time></trkpt><trkpt lat="39.2745221" lon="16.9854948"><ele>274.2</ele><time>2026-03-22T14:25:38.948Z</time></trkpt><trkpt lat="39.2744169" lon="16.9854322"><ele>270.0</ele><time>2026-03-22T14:25:39.948Z</time></trkpt><trkpt lat="39.2743078" lon="16.9853671"><ele>270.0</ele><time>2026-03-22T14:25:40.948Z</time></trkpt><trkpt lat="39.2741963" lon="16.9853011"><ele>270.0</ele><time>2026-03-22T14:25:41.948Z</time></trkpt><trkpt lat="39.2740899" lon="16.985239"><ele>270.0</ele><time>2026-03-22T14:25:42.947Z</time></trkpt><trkpt lat="39.2739945" lon="16.985192"><ele>270.0</ele><time>2026-03-22T14:25:43.948Z</time></trkpt><trkpt lat="39.2739054" lon="16.9851594"><ele>270.0</ele><time>2026-03-22T14:25:44.948Z</time></trkpt><trkpt lat="39.2738135" lon="16.9851327"><ele>266.4</ele><time>2026-03-22T14:25:45.948Z</time></trkpt><trkpt lat="39.2737165" lon="16.9851173"><ele>262.8</ele><time>2026-03-22T14:25:46.948Z</time></trkpt><trkpt lat="39.2736174" lon="16.9851181"><ele>259.2</ele><time>2026-03-22T14:25:47.947Z</time></trkpt><trkpt lat="39.2735196" lon="16.9851446"><ele>255.6</ele><time>2026-03-22T14:25:48.948Z</time></trkpt><trkpt lat="39.2734179" lon="16.9851691"><ele>252.0</ele><time>2026-03-22T14:25:49.948Z</time></trkpt><trkpt lat="39.2733134" lon="16.9851876"><ele>252.0</ele><time>2026-03-22T14:25:50.948Z</time></trkpt><trkpt lat="39.2732131" lon="16.9852021"><ele>252.0</ele><time>2026-03-22T14:25:51.948Z</time></trkpt><trkpt lat="39.2731119" lon="16.9852033"><ele>252.0</ele><time>2026-03-22T14:25:52.948Z</time></trkpt><trkpt lat="39.2730137" lon="16.985165"><ele>252.0</ele><time>2026-03-22T14:25:53.948Z</time></trkpt><trkpt lat="39.272919" lon="16.9851106"><ele>252.0</ele><time>2026-03-22T14:25:54.948Z</time></trkpt><trkpt lat="39.2728228" lon="16.9850563"><ele>249.0</ele><time>2026-03-22T14:25:55.948Z</time></trkpt><trkpt lat="39.2727232" lon="16.9849949"><ele>246.0</ele><time>2026-03-22T14:25:56.948Z</time></trkpt><trkpt lat="39.2726211" lon="16.9849333"><ele>243.0</ele><time>2026-03-22T14:25:57.948Z</time></trkpt><trkpt lat="39.2725154" lon="16.9848699"><ele>240.0</ele><time>2026-03-22T14:25:58.948Z</time></trkpt><trkpt lat="39.2724086" lon="16.9848026"><ele>240.0</ele><time>2026-03-22T14:25:59.948Z</time></trkpt><trkpt lat="39.2722966" lon="16.9847298"><ele>240.0</ele><time>2026-03-22T14:26:00.947Z</time></trkpt><trkpt lat="39.2721823" lon="16.9846558"><ele>240.0</ele><time>2026-03-22T14:26:01.947Z</time></trkpt><trkpt lat="39.2720715" lon="16.9845761"><ele>240.0</ele><time>2026-03-22T14:26:02.948Z</time></trkpt><trkpt lat="39.2719646" lon="16.9844918"><ele>234.5</ele><time>2026-03-22T14:26:03.948Z</time></trkpt><trkpt lat="39.271864" lon="16.9843965"><ele>229.0</ele><time>2026-03-22T14:26:04.948Z</time></trkpt><trkpt lat="39.2717655" lon="16.9842891"><ele>223.5</ele><time>2026-03-22T14:26:05.948Z</time></trkpt><trkpt lat="39.2716634" lon="16.9841851"><ele>218.0</ele><time>2026-03-22T14:26:06.947Z</time></trkpt><trkpt lat="39.2715571" lon="16.9841005"><ele>214.5</ele><time>2026-03-22T14:26:07.948Z</time></trkpt><trkpt lat="39.2714396" lon="16.9840365"><ele>211.0</ele><time>2026-03-22T14:26:08.947Z</time></trkpt><trkpt lat="39.2713223" lon="16.9840068"><ele>207.5</ele><time>2026-03-22T14:26:09.947Z</time></trkpt><trkpt lat="39.2712129" lon="16.9840123"><ele>204.0</ele><time>2026-03-22T14:26:10.948Z</time></trkpt><trkpt lat="39.2711123" lon="16.9840494"><ele>204.0</ele><time>2026-03-22T14:26:11.948Z</time></trkpt><trkpt lat="39.2710154" lon="16.9841009"><ele>204.0</ele><time>2026-03-22T14:26:12.948Z</time></trkpt><trkpt lat="39.2709054" lon="16.9841371"><ele>204.0</ele><time>2026-03-22T14:26:13.948Z</time></trkpt><trkpt lat="39.2707937" lon="16.9841362"><ele>204.0</ele><time>2026-03-22T14:26:14.948Z</time></trkpt><trkpt lat="39.2706837" lon="16.9841184"><ele>204.0</ele><time>2026-03-22T14:26:15.947Z</time></trkpt><trkpt lat="39.2705755" lon="16.9841003"><ele>201.2</ele><time>2026-03-22T14:26:16.948Z</time></trkpt><trkpt lat="39.2704679" lon="16.9840765"><ele>198.39999999999998</ele><time>2026-03-22T14:26:17.948Z</time></trkpt><trkpt lat="39.2703634" lon="16.9840527"><ele>195.6</ele><time>2026-03-22T14:26:18.948Z</time></trkpt><trkpt lat="39.270259" lon="16.984034"><ele>192.8</ele><time>2026-03-22T14:26:19.947Z</time></trkpt><trkpt lat="39.270149" lon="16.9840261"><ele>190.0</ele><time>2026-03-22T14:26:20.947Z</time></trkpt><trkpt lat="39.2700323" lon="16.9840286"><ele>190.0</ele><time>2026-03-22T14:26:21.948Z</time></trkpt><trkpt lat="39.2699106" lon="16.9840401"><ele>190.0</ele><time>2026-03-22T14:26:22.948Z</time></trkpt><trkpt lat="39.2697903" lon="16.9840558"><ele>190.0</ele><time>2026-03-22T14:26:23.947Z</time></trkpt><trkpt lat="39.269668" lon="16.9840656"><ele>190.0</ele><time>2026-03-22T14:26:24.946Z</time></trkpt><trkpt lat="39.2695485" lon="16.9840729"><ele>185.0</ele><time>2026-03-22T14:26:25.948Z</time></trkpt><trkpt lat="39.269429" lon="16.9840872"><ele>180.0</ele><time>2026-03-22T14:26:26.948Z</time></trkpt><trkpt lat="39.2693104" lon="16.9841087"><ele>175.0</ele><time>2026-03-22T14:26:27.948Z</time></trkpt><trkpt lat="39.2691912" lon="16.9841371"><ele>170.0</ele><time>2026-03-22T14:26:28.947Z</time></trkpt><trkpt lat="39.2690767" lon="16.9841611"><ele>170.0</ele><time>2026-03-22T14:26:29.948Z</time></trkpt><trkpt lat="39.2689815" lon="16.9841745"><ele>170.0</ele><time>2026-03-22T14:26:30.948Z</time></trkpt><trkpt lat="39.2689058" lon="16.9841734"><ele>170.0</ele><time>2026-03-22T14:26:31.947Z</time></trkpt><trkpt lat="39.2688493" lon="16.9841281"><ele>170.0</ele><time>2026-03-22T14:26:32.948Z</time></trkpt><trkpt lat="39.268819" lon="16.9840401"><ele>170.0</ele><time>2026-03-22T14:26:33.948Z</time></trkpt><trkpt lat="39.2688087" lon="16.9839207"><ele>170.0</ele><time>2026-03-22T14:26:34.948Z</time></trkpt><trkpt lat="39.2688338" lon="16.9837906"><ele>170.0</ele><time>2026-03-22T14:26:35.948Z</time></trkpt><trkpt lat="39.2688752" lon="16.983667"><ele>170.0</ele><time>2026-03-22T14:26:36.948Z</time></trkpt><trkpt lat="39.2689196" lon="16.9835508"><ele>170.0</ele><time>2026-03-22T14:26:37.948Z</time></trkpt><trkpt lat="39.2689509" lon="16.9834264"><ele>170.0</ele><time>2026-03-22T14:26:38.948Z</time></trkpt><trkpt lat="39.2689704" lon="16.9833014"><ele>170.0</ele><time>2026-03-22T14:26:39.948Z</time></trkpt><trkpt lat="39.2689822" lon="16.9831749"><ele>169.66666666666666</ele><time>2026-03-22T14:26:40.947Z</time></trkpt><trkpt lat="39.2689815" lon="16.9830629"><ele>169.33333333333331</ele><time>2026-03-22T14:26:41.948Z</time></trkpt><trkpt lat="39.2689625" lon="16.9829542"><ele>169.0</ele><time>2026-03-22T14:26:42.947Z</time></trkpt><trkpt lat="39.2689291" lon="16.9828518"><ele>168.66666666666666</ele><time>2026-03-22T14:26:43.948Z</time></trkpt><trkpt lat="39.2688751" lon="16.9827622"><ele>168.33333333333334</ele><time>2026-03-22T14:26:44.948Z</time></trkpt><trkpt lat="39.2688126" lon="16.9826722"><ele>168.0</ele><time>2026-03-22T14:26:45.947Z</time></trkpt><trkpt lat="39.2687639" lon="16.9825862"><ele>164.33333333333334</ele><time>2026-03-22T14:26:46.948Z</time></trkpt><trkpt lat="39.2687321" lon="16.9824793"><ele>160.66666666666666</ele><time>2026-03-22T14:26:47.948Z</time></trkpt><trkpt lat="39.2687134" lon="16.9823828"><ele>157.0</ele><time>2026-03-22T14:26:48.948Z</time></trkpt><trkpt lat="39.2686682" lon="16.9823006"><ele>153.33333333333331</ele><time>2026-03-22T14:26:49.947Z</time></trkpt><trkpt lat="39.2686021" lon="16.9822488"><ele>149.66666666666666</ele><time>2026-03-22T14:26:50.948Z</time></trkpt><trkpt lat="39.2685344" lon="16.9822134"><ele>146.0</ele><time>2026-03-22T14:26:51.948Z</time></trkpt><trkpt lat="39.2684681" lon="16.9821782"><ele>146.0</ele><time>2026-03-22T14:26:52.948Z</time></trkpt><trkpt lat="39.2683981" lon="16.9821406"><ele>146.0</ele><time>2026-03-22T14:26:53.948Z</time></trkpt><trkpt lat="39.2683234" lon="16.9821094"><ele>146.0</ele><time>2026-03-22T14:26:54.947Z</time></trkpt><trkpt lat="39.2682391" lon="16.9820987"><ele>146.0</ele><time>2026-03-22T14:26:55.948Z</time></trkpt><trkpt lat="39.2681487" lon="16.9821333"><ele>146.0</ele><time>2026-03-22T14:26:56.948Z</time></trkpt><trkpt lat="39.2680428" lon="16.9821445"><ele>146.0</ele><time>2026-03-22T14:26:57.948Z</time></trkpt><trkpt lat="39.2679301" lon="16.9821125"><ele>140.66666666666666</ele><time>2026-03-22T14:26:58.948Z</time></trkpt><trkpt lat="39.2677778" lon="16.9820561"><ele>135.33333333333334</ele><time>2026-03-22T14:26:59.948Z</time></trkpt><trkpt lat="39.2675957" lon="16.9819882"><ele>130.0</ele><time>2026-03-22T14:27:00.948Z</time></trkpt><trkpt lat="39.2674229" lon="16.981934"><ele>126.0</ele><time>2026-03-22T14:27:01.948Z</time></trkpt><trkpt lat="39.2672666" lon="16.981887"><ele>122.0</ele><time>2026-03-22T14:27:02.947Z</time></trkpt><trkpt lat="39.2671107" lon="16.9818419"><ele>118.0</ele><time>2026-03-22T14:27:03.948Z</time></trkpt><trkpt lat="39.2669522" lon="16.9818038"><ele>118.0</ele><time>2026-03-22T14:27:04.948Z</time></trkpt><trkpt lat="39.2668229" lon="16.9817685"><ele>118.00000000000001</ele><time>2026-03-22T14:27:05.947Z</time></trkpt><trkpt lat="39.2667125" lon="16.9817309"><ele>118.00000000000001</ele><time>2026-03-22T14:27:06.948Z</time></trkpt><trkpt lat="39.2666259" lon="16.9816966"><ele>118.0</ele><time>2026-03-22T14:27:07.948Z</time></trkpt><trkpt lat="39.2665431" lon="16.9816736"><ele>118.0</ele><time>2026-03-22T14:27:08.948Z</time></trkpt><trkpt lat="39.2664634" lon="16.9816887"><ele>116.2</ele><time>2026-03-22T14:27:09.948Z</time></trkpt><trkpt lat="39.2663809" lon="16.9817463"><ele>114.4</ele><time>2026-03-22T14:27:10.947Z</time></trkpt><trkpt lat="39.2662943" lon="16.9818255"><ele>112.60000000000001</ele><time>2026-03-22T14:27:11.948Z</time></trkpt><trkpt lat="39.2662101" lon="16.9819287"><ele>110.80000000000001</ele><time>2026-03-22T14:27:12.947Z</time></trkpt><trkpt lat="39.2661216" lon="16.98205"><ele>109.0</ele><time>2026-03-22T14:27:13.948Z</time></trkpt><trkpt lat="39.2660177" lon="16.9821667"><ele>109.0</ele><time>2026-03-22T14:27:14.947Z</time></trkpt><trkpt lat="39.2658978" lon="16.9822549"><ele>109.0</ele><time>2026-03-22T14:27:15.946Z</time></trkpt><trkpt lat="39.2657879" lon="16.9823056"><ele>109.0</ele><time>2026-03-22T14:27:16.948Z</time></trkpt><trkpt lat="39.2656861" lon="16.9823527"><ele>109.0</ele><time>2026-03-22T14:27:17.948Z</time></trkpt><trkpt lat="39.265585" lon="16.9824115"><ele>108.4</ele><time>2026-03-22T14:27:18.948Z</time></trkpt><trkpt lat="39.265501" lon="16.9824925"><ele>107.80000000000001</ele><time>2026-03-22T14:27:19.948Z</time></trkpt><trkpt lat="39.2654185" lon="16.9825801"><ele>107.19999999999999</ele><time>2026-03-22T14:27:20.947Z</time></trkpt><trkpt lat="39.2653339" lon="16.9826715"><ele>106.6</ele><time>2026-03-22T14:27:21.948Z</time></trkpt><trkpt lat="39.2652421" lon="16.9827723"><ele>106.0</ele><time>2026-03-22T14:27:22.947Z</time></trkpt><trkpt lat="39.2651376" lon="16.9828744"><ele>106.0</ele><time>2026-03-22T14:27:23.947Z</time></trkpt><trkpt lat="39.2650164" lon="16.9829694"><ele>106.0</ele><time>2026-03-22T14:27:24.947Z</time></trkpt><trkpt lat="39.2648869" lon="16.9830636"><ele>106.0</ele><time>2026-03-22T14:27:25.948Z</time></trkpt><trkpt lat="39.2647764" lon="16.9831594"><ele>106.0</ele><time>2026-03-22T14:27:26.946Z</time></trkpt><trkpt lat="39.2646623" lon="16.9832639"><ele>105.0</ele><time>2026-03-22T14:27:27.947Z</time></trkpt><trkpt lat="39.2645561" lon="16.9833787"><ele>104.0</ele><time>2026-03-22T14:27:28.948Z</time></trkpt><trkpt lat="39.2644618" lon="16.9834786"><ele>103.0</ele><time>2026-03-22T14:27:29.947Z</time></trkpt><trkpt lat="39.2643891" lon="16.9835612"><ele>102.0</ele><time>2026-03-22T14:27:30.947Z</time></trkpt><trkpt lat="39.2642818" lon="16.9836853"><ele>102.0</ele><time>2026-03-22T14:27:32.948Z</time></trkpt><trkpt lat="39.2642114" lon="16.9837825"><ele>102.0</ele><time>2026-03-22T14:27:33.948Z</time></trkpt><trkpt lat="39.2641344" lon="16.9838952"><ele>102.0</ele><time>2026-03-22T14:27:34.948Z</time></trkpt><trkpt lat="39.2640791" lon="16.9840351"><ele>102.0</ele><time>2026-03-22T14:27:35.948Z</time></trkpt><trkpt lat="39.2640361" lon="16.9841945"><ele>103.5</ele><time>2026-03-22T14:27:36.948Z</time></trkpt><trkpt lat="39.2640151" lon="16.9843639"><ele>105.0</ele><time>2026-03-22T14:27:37.947Z</time></trkpt><trkpt lat="39.2640023" lon="16.9845328"><ele>106.5</ele><time>2026-03-22T14:27:38.947Z</time></trkpt><trkpt lat="39.2640016" lon="16.9846846"><ele>108.0</ele><time>2026-03-22T14:27:39.948Z</time></trkpt><trkpt lat="39.2640143" lon="16.984811"><ele>108.0</ele><time>2026-03-22T14:27:40.948Z</time></trkpt><trkpt lat="39.2640154" lon="16.9849274"><ele>108.00000000000001</ele><time>2026-03-22T14:27:41.948Z</time></trkpt><trkpt lat="39.2639775" lon="16.9850268"><ele>108.00000000000001</ele><time>2026-03-22T14:27:42.948Z</time></trkpt><trkpt lat="39.2638882" lon="16.9851107"><ele>108.0</ele><time>2026-03-22T14:27:43.948Z</time></trkpt><trkpt lat="39.2637955" lon="16.985192"><ele>108.0</ele><time>2026-03-22T14:27:44.948Z</time></trkpt><trkpt lat="39.2636999" lon="16.9852673"><ele>107.80000000000001</ele><time>2026-03-22T14:27:45.948Z</time></trkpt><trkpt lat="39.2636014" lon="16.9853242"><ele>107.60000000000001</ele><time>2026-03-22T14:27:46.948Z</time></trkpt><trkpt lat="39.2634979" lon="16.9853466"><ele>107.39999999999999</ele><time>2026-03-22T14:27:47.948Z</time></trkpt><trkpt lat="39.2634038" lon="16.9853229"><ele>107.19999999999999</ele><time>2026-03-22T14:27:48.948Z</time></trkpt><trkpt lat="39.2633115" lon="16.9852787"><ele>107.0</ele><time>2026-03-22T14:27:49.948Z</time></trkpt><trkpt lat="39.2632212" lon="16.9852347"><ele>106.39999999999999</ele><time>2026-03-22T14:27:50.948Z</time></trkpt><trkpt lat="39.2631133" lon="16.9852207"><ele>105.79999999999998</ele><time>2026-03-22T14:27:51.947Z</time></trkpt><trkpt lat="39.2629921" lon="16.9852208"><ele>105.2</ele><time>2026-03-22T14:27:52.948Z</time></trkpt><trkpt lat="39.2628921" lon="16.9852207"><ele>104.6</ele><time>2026-03-22T14:27:53.948Z</time></trkpt><trkpt lat="39.2628126" lon="16.9852323"><ele>104.0</ele><time>2026-03-22T14:27:54.946Z</time></trkpt><trkpt lat="39.2627372" lon="16.9852539"><ele>103.99999999999999</ele><time>2026-03-22T14:27:55.948Z</time></trkpt><trkpt lat="39.2626646" lon="16.9852797"><ele>104.0</ele><time>2026-03-22T14:27:56.948Z</time></trkpt><trkpt lat="39.2625864" lon="16.9853158"><ele>104.0</ele><time>2026-03-22T14:27:57.948Z</time></trkpt><trkpt lat="39.2625103" lon="16.9853706"><ele>104.0</ele><time>2026-03-22T14:27:58.948Z</time></trkpt><trkpt lat="39.2624342" lon="16.9854269"><ele>103.99999999999999</ele><time>2026-03-22T14:27:59.947Z</time></trkpt><trkpt lat="39.262352" lon="16.9854836"><ele>104.0</ele><time>2026-03-22T14:28:00.947Z</time></trkpt><trkpt lat="39.2622707" lon="16.9855379"><ele>103.0</ele><time>2026-03-22T14:28:01.947Z</time></trkpt><trkpt lat="39.2621833" lon="16.9855829"><ele>102.0</ele><time>2026-03-22T14:28:02.947Z</time></trkpt><trkpt lat="39.2620929" lon="16.9856238"><ele>101.0</ele><time>2026-03-22T14:28:03.946Z</time></trkpt><trkpt lat="39.2620048" lon="16.9856851"><ele>100.0</ele><time>2026-03-22T14:28:04.947Z</time></trkpt><trkpt lat="39.2619252" lon="16.9857855"><ele>99.0</ele><time>2026-03-22T14:28:05.946Z</time></trkpt><trkpt lat="39.2618481" lon="16.9859246"><ele>98.5</ele><time>2026-03-22T14:28:06.947Z</time></trkpt><trkpt lat="39.2617677" lon="16.9860561"><ele>98.0</ele><time>2026-03-22T14:28:07.946Z</time></trkpt><trkpt lat="39.2616898" lon="16.9861716"><ele>97.5</ele><time>2026-03-22T14:28:08.947Z</time></trkpt><trkpt lat="39.2616102" lon="16.9862849"><ele>97.0</ele><time>2026-03-22T14:28:09.947Z</time></trkpt><trkpt lat="39.261554" lon="16.9864044"><ele>97.0</ele><time>2026-03-22T14:28:10.947Z</time></trkpt><trkpt lat="39.2615203" lon="16.9865432"><ele>97.0</ele><time>2026-03-22T14:28:11.947Z</time></trkpt><trkpt lat="39.2614677" lon="16.986724"><ele>97.0</ele><time>2026-03-22T14:28:12.947Z</time></trkpt><trkpt lat="39.2614026" lon="16.9868958"><ele>97.0</ele><time>2026-03-22T14:28:13.946Z</time></trkpt><trkpt lat="39.2613399" lon="16.9870375"><ele>95.83333333333334</ele><time>2026-03-22T14:28:14.947Z</time></trkpt><trkpt lat="39.2612819" lon="16.9871495"><ele>94.66666666666667</ele><time>2026-03-22T14:28:15.947Z</time></trkpt><trkpt lat="39.2612284" lon="16.98723"><ele>93.5</ele><time>2026-03-22T14:28:16.946Z</time></trkpt><trkpt lat="39.2611769" lon="16.9873041"><ele>92.33333333333334</ele><time>2026-03-22T14:28:17.947Z</time></trkpt><trkpt lat="39.2611283" lon="16.9873737"><ele>91.16666666666667</ele><time>2026-03-22T14:28:18.947Z</time></trkpt><trkpt lat="39.2610592" lon="16.9874842"><ele>90.0</ele><time>2026-03-22T14:28:20.946Z</time></trkpt><trkpt lat="39.2609848" lon="16.9876018"><ele>89.83333333333333</ele><time>2026-03-22T14:28:22.946Z</time></trkpt><trkpt lat="39.2609089" lon="16.9877189"><ele>89.66666666666667</ele><time>2026-03-22T14:28:24.947Z</time></trkpt><trkpt lat="39.2608755" lon="16.9877932"><ele>89.5</ele><time>2026-03-22T14:28:25.947Z</time></trkpt><trkpt lat="39.2608395" lon="16.9878719"><ele>89.33333333333334</ele><time>2026-03-22T14:28:26.947Z</time></trkpt><trkpt lat="39.2607916" lon="16.9879252"><ele>89.16666666666667</ele><time>2026-03-22T14:28:27.947Z</time></trkpt><trkpt lat="39.2607278" lon="16.9879644"><ele>89.0</ele><time>2026-03-22T14:28:28.947Z</time></trkpt><trkpt lat="39.2606489" lon="16.9879851"><ele>88.5</ele><time>2026-03-22T14:28:29.946Z</time></trkpt><trkpt lat="39.2605648" lon="16.987992"><ele>88.0</ele><time>2026-03-22T14:28:30.947Z</time></trkpt><trkpt lat="39.2604847" lon="16.9880173"><ele>87.5</ele><time>2026-03-22T14:28:31.947Z</time></trkpt><trkpt lat="39.2604108" lon="16.988056"><ele>87.0</ele><time>2026-03-22T14:28:32.947Z</time></trkpt><trkpt lat="39.26034" lon="16.9881145"><ele>86.5</ele><time>2026-03-22T14:28:33.946Z</time></trkpt><trkpt lat="39.2602694" lon="16.9881944"><ele>86.0</ele><time>2026-03-22T14:28:34.947Z</time></trkpt><trkpt lat="39.2601934" lon="16.9882914"><ele>86.0</ele><time>2026-03-22T14:28:35.947Z</time></trkpt><trkpt lat="39.2601082" lon="16.9883984"><ele>86.0</ele><time>2026-03-22T14:28:36.947Z</time></trkpt><trkpt lat="39.2600178" lon="16.9885107"><ele>86.0</ele><time>2026-03-22T14:28:37.947Z</time></trkpt><trkpt lat="39.2599248" lon="16.9886292"><ele>86.0</ele><time>2026-03-22T14:28:38.947Z</time></trkpt><trkpt lat="39.2598274" lon="16.9887649"><ele>85.75</ele><time>2026-03-22T14:28:39.947Z</time></trkpt><trkpt lat="39.2597369" lon="16.9889029"><ele>85.5</ele><time>2026-03-22T14:28:40.947Z</time></trkpt><trkpt lat="39.2596454" lon="16.9890317"><ele>85.25</ele><time>2026-03-22T14:28:41.947Z</time></trkpt><trkpt lat="39.2595596" lon="16.9891501"><ele>85.0</ele><time>2026-03-22T14:28:42.946Z</time></trkpt><trkpt lat="39.2594976" lon="16.9892455"><ele>85.0</ele><time>2026-03-22T14:28:43.947Z</time></trkpt><trkpt lat="39.2594381" lon="16.9893226"><ele>85.0</ele><time>2026-03-22T14:28:44.947Z</time></trkpt><trkpt lat="39.2593737" lon="16.9893852"><ele>85.0</ele><time>2026-03-22T14:28:45.947Z</time></trkpt><trkpt lat="39.2593077" lon="16.9894468"><ele>85.0</ele><time>2026-03-22T14:28:46.946Z</time></trkpt><trkpt lat="39.2592378" lon="16.9894947"><ele>85.0</ele><time>2026-03-22T14:28:47.947Z</time></trkpt><trkpt lat="39.2591685" lon="16.9895371"><ele>85.0</ele><time>2026-03-22T14:28:48.947Z</time></trkpt><trkpt lat="39.2591028" lon="16.9895787"><ele>85.0</ele><time>2026-03-22T14:28:49.947Z</time></trkpt><trkpt lat="39.2590384" lon="16.9896185"><ele>85.0</ele><time>2026-03-22T14:28:50.947Z</time></trkpt><trkpt lat="39.2589794" lon="16.9896613"><ele>85.0</ele><time>2026-03-22T14:28:51.946Z</time></trkpt><trkpt lat="39.2588691" lon="16.9897392"><ele>85.0</ele><time>2026-03-22T14:28:53.947Z</time></trkpt><trkpt lat="39.258812" lon="16.9897813"><ele>85.0</ele><time>2026-03-22T14:28:54.946Z</time></trkpt><trkpt lat="39.2587539" lon="16.9898254"><ele>85.0</ele><time>2026-03-22T14:28:55.947Z</time></trkpt><trkpt lat="39.2586914" lon="16.9898763"><ele>85.0</ele><time>2026-03-22T14:28:56.947Z</time></trkpt><trkpt lat="39.258622" lon="16.9899367"><ele>85.0</ele><time>2026-03-22T14:28:57.947Z</time></trkpt><trkpt lat="39.2585603" lon="16.9900057"><ele>85.0</ele><time>2026-03-22T14:28:58.946Z</time></trkpt><trkpt lat="39.2585009" lon="16.9900744"><ele>85.0</ele><time>2026-03-22T14:28:59.947Z</time></trkpt><trkpt lat="39.2584277" lon="16.990099"><ele>85.0</ele><time>2026-03-22T14:29:00.947Z</time></trkpt><trkpt lat="39.2583428" lon="16.9900879"><ele>85.0</ele><time>2026-03-22T14:29:01.947Z</time></trkpt><trkpt lat="39.2582421" lon="16.9900869"><ele>85.2</ele><time>2026-03-22T14:29:02.947Z</time></trkpt><trkpt lat="39.2581404" lon="16.990123"><ele>85.4</ele><time>2026-03-22T14:29:03.946Z</time></trkpt><trkpt lat="39.2580426" lon="16.9901886"><ele>85.6</ele><time>2026-03-22T14:29:04.947Z</time></trkpt><trkpt lat="39.2579486" lon="16.9902602"><ele>85.8</ele><time>2026-03-22T14:29:05.947Z</time></trkpt><trkpt lat="39.2578586" lon="16.990337"><ele>86.0</ele><time>2026-03-22T14:29:06.947Z</time></trkpt><trkpt lat="39.2577673" lon="16.9904101"><ele>86.0</ele><time>2026-03-22T14:29:07.947Z</time></trkpt><trkpt lat="39.2576793" lon="16.9904738"><ele>86.0</ele><time>2026-03-22T14:29:08.947Z</time></trkpt><trkpt lat="39.2575943" lon="16.9905242"><ele>86.0</ele><time>2026-03-22T14:29:09.947Z</time></trkpt><trkpt lat="39.2574969" lon="16.9905624"><ele>86.0</ele><time>2026-03-22T14:29:10.947Z</time></trkpt><trkpt lat="39.2573938" lon="16.9905906"><ele>86.0</ele><time>2026-03-22T14:29:11.947Z</time></trkpt><trkpt lat="39.257282" lon="16.990593"><ele>84.5</ele><time>2026-03-22T14:29:12.946Z</time></trkpt><trkpt lat="39.2571633" lon="16.990577"><ele>83.0</ele><time>2026-03-22T14:29:13.947Z</time></trkpt><trkpt lat="39.257027" lon="16.9905649"><ele>81.5</ele><time>2026-03-22T14:29:14.947Z</time></trkpt><trkpt lat="39.2568578" lon="16.9905666"><ele>80.0</ele><time>2026-03-22T14:29:15.947Z</time></trkpt><trkpt lat="39.2566626" lon="16.9905797"><ele>79.33333333333334</ele><time>2026-03-22T14:29:16.947Z</time></trkpt><trkpt lat="39.2564431" lon="16.9906076"><ele>78.66666666666667</ele><time>2026-03-22T14:29:17.947Z</time></trkpt><trkpt lat="39.2562225" lon="16.9906272"><ele>78.0</ele><time>2026-03-22T14:29:18.947Z</time></trkpt><trkpt lat="39.2560136" lon="16.990619"><ele>78.0</ele><time>2026-03-22T14:29:19.947Z</time></trkpt><trkpt lat="39.2558129" lon="16.9905862"><ele>78.0</ele><time>2026-03-22T14:29:20.947Z</time></trkpt><trkpt lat="39.2556173" lon="16.9905417"><ele>78.0</ele><time>2026-03-22T14:29:21.946Z</time></trkpt><trkpt lat="39.2554298" lon="16.9904914"><ele>78.33333333333333</ele><time>2026-03-22T14:29:22.947Z</time></trkpt><trkpt lat="39.2552463" lon="16.9904461"><ele>78.66666666666666</ele><time>2026-03-22T14:29:23.947Z</time></trkpt><trkpt lat="39.2550578" lon="16.9904267"><ele>79.0</ele><time>2026-03-22T14:29:24.947Z</time></trkpt><trkpt lat="39.2548726" lon="16.9904211"><ele>78.66666666666666</ele><time>2026-03-22T14:29:25.946Z</time></trkpt><trkpt lat="39.2546862" lon="16.9904158"><ele>78.33333333333333</ele><time>2026-03-22T14:29:26.945Z</time></trkpt><trkpt lat="39.2545028" lon="16.9903947"><ele>78.0</ele><time>2026-03-22T14:29:27.947Z</time></trkpt><trkpt lat="39.2543207" lon="16.9903487"><ele>78.0</ele><time>2026-03-22T14:29:28.947Z</time></trkpt><trkpt lat="39.2541386" lon="16.9902994"><ele>78.0</ele><time>2026-03-22T14:29:29.947Z</time></trkpt><trkpt lat="39.2539615" lon="16.9902486"><ele>78.0</ele><time>2026-03-22T14:29:30.946Z</time></trkpt><trkpt lat="39.2537846" lon="16.9901949"><ele>77.0</ele><time>2026-03-22T14:29:31.947Z</time></trkpt><trkpt lat="39.2536095" lon="16.9901388"><ele>76.0</ele><time>2026-03-22T14:29:32.947Z</time></trkpt><trkpt lat="39.2534423" lon="16.990085"><ele>75.0</ele><time>2026-03-22T14:29:33.947Z</time></trkpt><trkpt lat="39.2532931" lon="16.9900319"><ele>75.0</ele><time>2026-03-22T14:29:34.946Z</time></trkpt><trkpt lat="39.253164" lon="16.989983"><ele>75.0</ele><time>2026-03-22T14:29:35.946Z</time></trkpt><trkpt lat="39.2530484" lon="16.9899401"><ele>75.0</ele><time>2026-03-22T14:29:36.946Z</time></trkpt><trkpt lat="39.2529574" lon="16.9899041"><ele>75.0</ele><time>2026-03-22T14:29:37.947Z</time></trkpt><trkpt lat="39.2528912" lon="16.98988"><ele>75.0</ele><time>2026-03-22T14:29:38.946Z</time></trkpt><trkpt lat="39.2527729" lon="16.9898295"><ele>74.8</ele><time>2026-03-22T14:29:40.947Z</time></trkpt><trkpt lat="39.25274" lon="16.9897172"><ele>74.6</ele><time>2026-03-22T14:29:42.947Z</time></trkpt><trkpt lat="39.2527904" lon="16.9896188"><ele>74.4</ele><time>2026-03-22T14:29:44.947Z</time></trkpt><trkpt lat="39.2528875" lon="16.9895473"><ele>74.2</ele><time>2026-03-22T14:29:46.946Z</time></trkpt><trkpt lat="39.2530001" lon="16.989509"><ele>74.0</ele><time>2026-03-22T14:29:48.947Z</time></trkpt><trkpt lat="39.2530756" lon="16.9894544"><ele>74.0</ele><time>2026-03-22T14:29:50.947Z</time></trkpt><trkpt lat="39.253055" lon="16.9893533"><ele>74.0</ele><time>2026-03-22T14:29:52.947Z</time></trkpt><trkpt lat="39.2529833" lon="16.989339"><ele>74.0</ele><time>2026-03-22T14:29:54.947Z</time></trkpt><trkpt lat="39.2529164" lon="16.9893326"><ele>74.0</ele><time>2026-03-22T14:29:56.947Z</time></trkpt><trkpt lat="39.2528464" lon="16.9893479"><ele>74.0</ele><time>2026-03-22T14:29:58.947Z</time></trkpt><trkpt lat="39.2527702" lon="16.9893711"><ele>74.0</ele><time>2026-03-22T14:30:01.947Z</time></trkpt><trkpt lat="39.2527092" lon="16.9893993"><ele>74.0</ele><time>2026-03-22T14:30:04.947Z</time></trkpt><trkpt lat="39.2526451" lon="16.9894261"><ele>74.0</ele><time>2026-03-22T14:30:07.947Z</time></trkpt><trkpt lat="39.2525783" lon="16.9894551"><ele>74.0</ele><time>2026-03-22T14:30:09.947Z</time></trkpt><trkpt lat="39.2524879" lon="16.9894593"><ele>74.0</ele><time>2026-03-22T14:30:11.947Z</time></trkpt><trkpt lat="39.2523949" lon="16.9894622"><ele>74.0</ele><time>2026-03-22T14:30:13.947Z</time></trkpt><trkpt lat="39.2522851" lon="16.9894747"><ele>74.0</ele><time>2026-03-22T14:30:15.947Z</time></trkpt><trkpt lat="39.2521823" lon="16.9894715"><ele>73.0</ele><time>2026-03-22T14:30:17.947Z</time></trkpt><trkpt lat="39.2520745" lon="16.9894305"><ele>72.0</ele><time>2026-03-22T14:30:19.945Z</time></trkpt><trkpt lat="39.2519615" lon="16.989399"><ele>71.0</ele><time>2026-03-22T14:30:21.946Z</time></trkpt><trkpt lat="39.2518324" lon="16.9893601"><ele>70.0</ele><time>2026-03-22T14:30:23.947Z</time></trkpt><trkpt lat="39.2517393" lon="16.9893145"><ele>70.0</ele><time>2026-03-22T14:30:24.947Z</time></trkpt><trkpt lat="39.25165" lon="16.9892504"><ele>70.0</ele><time>2026-03-22T14:30:25.947Z</time></trkpt><trkpt lat="39.2515794" lon="16.9891934"><ele>70.0</ele><time>2026-03-22T14:30:26.946Z</time></trkpt><trkpt lat="39.2515217" lon="16.9891526"><ele>70.0</ele><time>2026-03-22T14:30:27.947Z</time></trkpt><trkpt lat="39.2514361" lon="16.9890974"><ele>70.0</ele><time>2026-03-22T14:30:29.947Z</time></trkpt><trkpt lat="39.2513469" lon="16.9890586"><ele>70.0</ele><time>2026-03-22T14:30:31.946Z</time></trkpt><trkpt lat="39.251268" lon="16.9890198"><ele>70.0</ele><time>2026-03-22T14:30:33.946Z</time></trkpt><trkpt lat="39.2512014" lon="16.9889769"><ele>70.0</ele><time>2026-03-22T14:30:35.947Z</time></trkpt><trkpt lat="39.2511255" lon="16.9889325"><ele>70.0</ele><time>2026-03-22T14:30:37.947Z</time></trkpt><trkpt lat="39.2510349" lon="16.9888822"><ele>70.0</ele><time>2026-03-22T14:30:39.946Z</time></trkpt><trkpt lat="39.2509382" lon="16.9888383"><ele>70.0</ele><time>2026-03-22T14:30:41.947Z</time></trkpt><trkpt lat="39.2508288" lon="16.9887027"><ele>70.0</ele><time>2026-03-22T14:30:43.947Z</time></trkpt><trkpt lat="39.2507631" lon="16.9885567"><ele>70.0</ele><time>2026-03-22T14:30:44.946Z</time></trkpt><trkpt lat="39.2506812" lon="16.9883742"><ele>70.0</ele><time>2026-03-22T14:30:45.947Z</time></trkpt><trkpt lat="39.2505929" lon="16.988165"><ele>70.33333333333333</ele><time>2026-03-22T14:30:46.947Z</time></trkpt><trkpt lat="39.2505057" lon="16.9879539"><ele>70.66666666666667</ele><time>2026-03-22T14:30:47.945Z</time></trkpt><trkpt lat="39.2504354" lon="16.9877401"><ele>71.0</ele><time>2026-03-22T14:30:48.947Z</time></trkpt><trkpt lat="39.2503753" lon="16.9874915"><ele>72.33333333333334</ele><time>2026-03-22T14:30:49.947Z</time></trkpt><trkpt lat="39.2503292" lon="16.987215"><ele>73.66666666666667</ele><time>2026-03-22T14:30:50.947Z</time></trkpt><trkpt lat="39.2502894" lon="16.9869458"><ele>75.0</ele><time>2026-03-22T14:30:51.947Z</time></trkpt><trkpt lat="39.2502557" lon="16.9867041"><ele>77.33333333333333</ele><time>2026-03-22T14:30:52.947Z</time></trkpt><trkpt lat="39.2502282" lon="16.9864852"><ele>79.66666666666666</ele><time>2026-03-22T14:30:53.947Z</time></trkpt><trkpt lat="39.2502041" lon="16.986294"><ele>82.0</ele><time>2026-03-22T14:30:54.947Z</time></trkpt><trkpt lat="39.2501847" lon="16.9861281"><ele>82.0</ele><time>2026-03-22T14:30:55.947Z</time></trkpt><trkpt lat="39.250165" lon="16.9859926"><ele>82.0</ele><time>2026-03-22T14:30:56.947Z</time></trkpt><trkpt lat="39.2501485" lon="16.9858951"><ele>82.0</ele><time>2026-03-22T14:30:57.947Z</time></trkpt><trkpt lat="39.2501363" lon="16.985776"><ele>82.0</ele><time>2026-03-22T14:30:59.947Z</time></trkpt><trkpt lat="39.2501919" lon="16.985693"><ele>82.0</ele><time>2026-03-22T14:31:02.946Z</time></trkpt><trkpt lat="39.2502052" lon="16.9855754"><ele>83.19999999999999</ele><time>2026-03-22T14:31:04.947Z</time></trkpt><trkpt lat="39.2502212" lon="16.9854186"><ele>84.4</ele><time>2026-03-22T14:31:06.947Z</time></trkpt><trkpt lat="39.2502199" lon="16.985337"><ele>85.6</ele><time>2026-03-22T14:31:07.947Z</time></trkpt><trkpt lat="39.2502143" lon="16.9851829"><ele>86.80000000000001</ele><time>2026-03-22T14:31:09.947Z</time></trkpt><trkpt lat="39.2502152" lon="16.9850794"><ele>88.0</ele><time>2026-03-22T14:31:11.947Z</time></trkpt><trkpt lat="39.2502236" lon="16.9849573"><ele>88.80000000000001</ele><time>2026-03-22T14:31:13.946Z</time></trkpt><trkpt lat="39.2502248" lon="16.9848299"><ele>89.6</ele><time>2026-03-22T14:31:15.947Z</time></trkpt><trkpt lat="39.2502262" lon="16.9847061"><ele>90.4</ele><time>2026-03-22T14:31:17.947Z</time></trkpt><trkpt lat="39.2502177" lon="16.984594"><ele>91.19999999999999</ele><time>2026-03-22T14:31:19.947Z</time></trkpt><trkpt lat="39.2502019" lon="16.9844706"><ele>92.0</ele><time>2026-03-22T14:31:21.947Z</time></trkpt><trkpt lat="39.2501782" lon="16.9843572"><ele>92.0</ele><time>2026-03-22T14:31:23.947Z</time></trkpt><trkpt lat="39.2502479" lon="16.9842903"><ele>92.0</ele><time>2026-03-22T14:31:26.947Z</time></trkpt><trkpt lat="39.250323" lon="16.9842565"><ele>92.0</ele><time>2026-03-22T14:31:28.947Z</time></trkpt><trkpt lat="39.2503984" lon="16.9842238"><ele>92.0</ele><time>2026-03-22T14:31:30.946Z</time></trkpt><trkpt lat="39.2505029" lon="16.984162"><ele>92.0</ele><time>2026-03-22T14:31:32.947Z</time></trkpt><trkpt lat="39.2505654" lon="16.9841173"><ele>92.0</ele><time>2026-03-22T14:31:33.947Z</time></trkpt><trkpt lat="39.2506261" lon="16.9840738"><ele>94.16666666666667</ele><time>2026-03-22T14:31:34.947Z</time></trkpt><trkpt lat="39.2506799" lon="16.9840259"><ele>96.33333333333334</ele><time>2026-03-22T14:31:35.947Z</time></trkpt><trkpt lat="39.2507625" lon="16.9839402"><ele>98.5</ele><time>2026-03-22T14:31:37.947Z</time></trkpt><trkpt lat="39.2508441" lon="16.9838301"><ele>100.66666666666667</ele><time>2026-03-22T14:31:39.947Z</time></trkpt><trkpt lat="39.2508924" lon="16.9837735"><ele>102.83333333333333</ele><time>2026-03-22T14:31:40.947Z</time></trkpt><trkpt lat="39.2509455" lon="16.9837236"><ele>105.0</ele><time>2026-03-22T14:31:41.947Z</time></trkpt><trkpt lat="39.2510522" lon="16.9836553"><ele>105.0</ele><time>2026-03-22T14:31:43.947Z</time></trkpt><trkpt lat="39.2511366" lon="16.9836057"><ele>105.0</ele><time>2026-03-22T14:31:45.947Z</time></trkpt><trkpt lat="39.2512055" lon="16.9835773"><ele>105.0</ele><time>2026-03-22T14:31:47.946Z</time></trkpt><trkpt lat="39.2513225" lon="16.9836166"><ele>105.0</ele><time>2026-03-22T14:31:49.947Z</time></trkpt><trkpt lat="39.2513992" lon="16.9836404"><ele>105.0</ele><time>2026-03-22T14:31:50.946Z</time></trkpt><trkpt lat="39.2515183" lon="16.9836735"><ele>107.66666666666667</ele><time>2026-03-22T14:31:52.946Z</time></trkpt><trkpt lat="39.251586" lon="16.9837128"><ele>110.33333333333334</ele><time>2026-03-22T14:31:53.947Z</time></trkpt><trkpt lat="39.2516369" lon="16.9837624"><ele>113.0</ele><time>2026-03-22T14:31:54.947Z</time></trkpt><trkpt lat="39.2516833" lon="16.9838247"><ele>115.66666666666667</ele><time>2026-03-22T14:31:55.947Z</time></trkpt><trkpt lat="39.2517693" lon="16.9839329"><ele>118.33333333333334</ele><time>2026-03-22T14:31:56.947Z</time></trkpt><trkpt lat="39.2518356" lon="16.9840026"><ele>121.0</ele><time>2026-03-22T14:31:57.947Z</time></trkpt><trkpt lat="39.2519084" lon="16.9840502"><ele>121.00000000000001</ele><time>2026-03-22T14:31:58.946Z</time></trkpt><trkpt lat="39.2519827" lon="16.984082"><ele>121.0</ele><time>2026-03-22T14:31:59.947Z</time></trkpt><trkpt lat="39.2520516" lon="16.9841044"><ele>121.0</ele><time>2026-03-22T14:32:00.947Z</time></trkpt><trkpt lat="39.2521158" lon="16.9841242"><ele>121.0</ele><time>2026-03-22T14:32:01.946Z</time></trkpt><trkpt lat="39.2521799" lon="16.9841426"><ele>121.00000000000001</ele><time>2026-03-22T14:32:02.947Z</time></trkpt><trkpt lat="39.2523013" lon="16.9841562"><ele>121.0</ele><time>2026-03-22T14:32:04.947Z</time></trkpt><trkpt lat="39.2523946" lon="16.9841304"><ele>124.50000000000001</ele><time>2026-03-22T14:32:06.947Z</time></trkpt><trkpt lat="39.2524691" lon="16.9841085"><ele>128.0</ele><time>2026-03-22T14:32:08.947Z</time></trkpt><trkpt lat="39.2525569" lon="16.9840904"><ele>131.5</ele><time>2026-03-22T14:32:11.946Z</time></trkpt><trkpt lat="39.2526338" lon="16.9840781"><ele>135.0</ele><time>2026-03-22T14:32:14.947Z</time></trkpt><trkpt lat="39.2527203" lon="16.9840651"><ele>138.5</ele><time>2026-03-22T14:32:16.947Z</time></trkpt><trkpt lat="39.2526621" lon="16.9839795"><ele>142.0</ele><time>2026-03-22T14:32:29.947Z</time></trkpt><trkpt lat="39.2525818" lon="16.9839159"><ele>142.0</ele><time>2026-03-22T14:32:32.946Z</time></trkpt><trkpt lat="39.2526304" lon="16.983825"><ele>142.0</ele><time>2026-03-22T14:32:34.947Z</time></trkpt><trkpt lat="39.2526608" lon="16.9837144"><ele>142.0</ele><time>2026-03-22T14:32:36.946Z</time></trkpt><trkpt lat="39.2526461" lon="16.9836098"><ele>142.0</ele><time>2026-03-22T14:32:38.947Z</time></trkpt><trkpt lat="39.2526701" lon="16.9834627"><ele>142.0</ele><time>2026-03-22T14:32:40.945Z</time></trkpt><trkpt lat="39.2526926" lon="16.9833804"><ele>142.0</ele><time>2026-03-22T14:32:41.947Z</time></trkpt><trkpt lat="39.2527114" lon="16.98329"><ele>143.2</ele><time>2026-03-22T14:32:42.947Z</time></trkpt><trkpt lat="39.2527331" lon="16.9831813"><ele>144.39999999999998</ele><time>2026-03-22T14:32:43.947Z</time></trkpt><trkpt lat="39.2527509" lon="16.9830807"><ele>145.60000000000002</ele><time>2026-03-22T14:32:44.946Z</time></trkpt><trkpt lat="39.2527923" lon="16.9829793"><ele>146.8</ele><time>2026-03-22T14:32:45.947Z</time></trkpt><trkpt lat="39.2528087" lon="16.9828929"><ele>148.0</ele><time>2026-03-22T14:32:46.946Z</time></trkpt><trkpt lat="39.252777" lon="16.9827274"><ele>148.0</ele><time>2026-03-22T14:32:48.947Z</time></trkpt><trkpt lat="39.2527351" lon="16.9826575"><ele>148.0</ele><time>2026-03-22T14:32:49.947Z</time></trkpt><trkpt lat="39.2526695" lon="16.9826006"><ele>148.0</ele><time>2026-03-22T14:32:50.947Z</time></trkpt><trkpt lat="39.2525994" lon="16.9824777"><ele>148.0</ele><time>2026-03-22T14:32:52.947Z</time></trkpt><trkpt lat="39.2524873" lon="16.9824656"><ele>148.0</ele><time>2026-03-22T14:32:54.947Z</time></trkpt><trkpt lat="39.2524265" lon="16.9825857"><ele>148.0</ele><time>2026-03-22T14:32:56.947Z</time></trkpt><trkpt lat="39.2524135" lon="16.9826693"><ele>148.0</ele><time>2026-03-22T14:32:57.946Z</time></trkpt><trkpt lat="39.2523865" lon="16.9827638"><ele>148.0</ele><time>2026-03-22T14:32:58.946Z</time></trkpt><trkpt lat="39.2523606" lon="16.9828545"><ele>148.0</ele><time>2026-03-22T14:32:59.946Z</time></trkpt><trkpt lat="39.2522947" lon="16.982899"><ele>148.0</ele><time>2026-03-22T14:33:01.946Z</time></trkpt><trkpt lat="39.2522085" lon="16.9829526"><ele>148.0</ele><time>2026-03-22T14:33:03.947Z</time></trkpt><trkpt lat="39.2521724" lon="16.9828857"><ele>147.0</ele><time>2026-03-22T14:33:05.947Z</time></trkpt><trkpt lat="39.252151" lon="16.9827178"><ele>146.0</ele><time>2026-03-22T14:33:07.947Z</time></trkpt><trkpt lat="39.2521412" lon="16.9826209"><ele>145.0</ele><time>2026-03-22T14:33:08.947Z</time></trkpt><trkpt lat="39.2521176" lon="16.9824728"><ele>144.0</ele><time>2026-03-22T14:33:10.947Z</time></trkpt><trkpt lat="39.2521298" lon="16.9823569"><ele>143.0</ele><time>2026-03-22T14:33:12.947Z</time></trkpt><trkpt lat="39.2520865" lon="16.9822189"><ele>147.0</ele><time>2026-03-22T14:33:14.946Z</time></trkpt><trkpt lat="39.2520443" lon="16.982129"><ele>151.0</ele><time>2026-03-22T14:33:15.947Z</time></trkpt><trkpt lat="39.2520143" lon="16.9820415"><ele>155.0</ele><time>2026-03-22T14:33:16.947Z</time></trkpt><trkpt lat="39.2519802" lon="16.9819562"><ele>159.0</ele><time>2026-03-22T14:33:17.946Z</time></trkpt><trkpt lat="39.2519369" lon="16.9818801"><ele>163.0</ele><time>2026-03-22T14:33:18.947Z</time></trkpt><trkpt lat="39.251898" lon="16.9818157"><ele>167.0</ele><time>2026-03-22T14:33:19.946Z</time></trkpt><trkpt lat="39.2518293" lon="16.9817146"><ele>167.0</ele><time>2026-03-22T14:33:21.946Z</time></trkpt><trkpt lat="39.2517492" lon="16.9817103"><ele>167.0</ele><time>2026-03-22T14:33:24.947Z</time></trkpt><trkpt lat="39.2516739" lon="16.9817869"><ele>167.0</ele><time>2026-03-22T14:33:26.946Z</time></trkpt><trkpt lat="39.2516125" lon="16.981816"><ele>167.0</ele><time>2026-03-22T14:33:27.946Z</time></trkpt><trkpt lat="39.2515224" lon="16.9817894"><ele>167.0</ele><time>2026-03-22T14:33:29.947Z</time></trkpt><trkpt lat="39.2514488" lon="16.981742"><ele>167.0</ele><time>2026-03-22T14:33:31.947Z</time></trkpt><trkpt lat="39.251384" lon="16.9817874"><ele>168.0</ele><time>2026-03-22T14:33:33.947Z</time></trkpt><trkpt lat="39.2513249" lon="16.9817018"><ele>169.0</ele><time>2026-03-22T14:33:36.946Z</time></trkpt><trkpt lat="39.2512787" lon="16.9816163"><ele>170.0</ele><time>2026-03-22T14:33:38.947Z</time></trkpt><trkpt lat="39.2512192" lon="16.9815019"><ele>171.0</ele><time>2026-03-22T14:33:40.947Z</time></trkpt><trkpt lat="39.251184" lon="16.9814203"><ele>172.0</ele><time>2026-03-22T14:33:41.946Z</time></trkpt><trkpt lat="39.2511101" lon="16.9813035"><ele>172.0</ele><time>2026-03-22T14:33:43.946Z</time></trkpt><trkpt lat="39.2510385" lon="16.9812012"><ele>172.0</ele><time>2026-03-22T14:33:45.947Z</time></trkpt><trkpt lat="39.2509817" lon="16.9811078"><ele>172.0</ele><time>2026-03-22T14:33:47.946Z</time></trkpt><trkpt lat="39.2509127" lon="16.9810365"><ele>172.0</ele><time>2026-03-22T14:33:49.946Z</time></trkpt><trkpt lat="39.2508609" lon="16.9809379"><ele>172.0</ele><time>2026-03-22T14:33:51.947Z</time></trkpt><trkpt lat="39.2508369" lon="16.980862"><ele>172.0</ele><time>2026-03-22T14:33:52.947Z</time></trkpt><trkpt lat="39.2507695" lon="16.9807367"><ele>177.16666666666669</ele><time>2026-03-22T14:33:54.947Z</time></trkpt><trkpt lat="39.2507151" lon="16.9806451"><ele>182.33333333333334</ele><time>2026-03-22T14:33:56.946Z</time></trkpt><trkpt lat="39.2506851" lon="16.9805663"><ele>187.5</ele><time>2026-03-22T14:34:38.947Z</time></trkpt><trkpt lat="39.2506727" lon="16.9806467"><ele>192.66666666666669</ele><time>2026-03-22T14:34:46.946Z</time></trkpt><trkpt lat="39.2506806" lon="16.9805545"><ele>197.83333333333334</ele><time>2026-03-22T14:44:25.945Z</time></trkpt><trkpt lat="39.2506556" lon="16.9804534"><ele>203.0</ele><time>2026-03-22T14:44:29.945Z</time></trkpt><trkpt lat="39.2506299" lon="16.980357"><ele>203.00000000000003</ele><time>2026-03-22T14:44:33.945Z</time></trkpt><trkpt lat="39.2506481" lon="16.9802746"><ele>203.0</ele><time>2026-03-22T14:44:36.944Z</time></trkpt><trkpt lat="39.2506871" lon="16.9801748"><ele>203.0</ele><time>2026-03-22T14:44:39.945Z</time></trkpt><trkpt lat="39.2507255" lon="16.9801074"><ele>203.0</ele><time>2026-03-22T14:44:41.945Z</time></trkpt><trkpt lat="39.250795" lon="16.9800274"><ele>203.00000000000003</ele><time>2026-03-22T14:44:44.944Z</time></trkpt><trkpt lat="39.2508514" lon="16.979955"><ele>203.0</ele><time>2026-03-22T14:44:46.945Z</time></trkpt><trkpt lat="39.2508972" lon="16.9798461"><ele>205.8</ele><time>2026-03-22T14:44:48.945Z</time></trkpt><trkpt lat="39.2509186" lon="16.979715"><ele>208.60000000000002</ele><time>2026-03-22T14:44:50.945Z</time></trkpt><trkpt lat="39.2509378" lon="16.9796107"><ele>211.39999999999998</ele><time>2026-03-22T14:44:52.945Z</time></trkpt><trkpt lat="39.2509237" lon="16.9795081"><ele>214.2</ele><time>2026-03-22T14:44:54.945Z</time></trkpt><trkpt lat="39.2508621" lon="16.9793623"><ele>217.0</ele><time>2026-03-22T14:44:56.944Z</time></trkpt><trkpt lat="39.2508314" lon="16.9792696"><ele>216.99999999999997</ele><time>2026-03-22T14:44:57.945Z</time></trkpt><trkpt lat="39.2507938" lon="16.9791707"><ele>217.0</ele><time>2026-03-22T14:44:58.945Z</time></trkpt><trkpt lat="39.2507688" lon="16.979079"><ele>217.0</ele><time>2026-03-22T14:44:59.944Z</time></trkpt><trkpt lat="39.2507411" lon="16.9789977"><ele>217.0</ele><time>2026-03-22T14:45:00.944Z</time></trkpt><trkpt lat="39.2506876" lon="16.9788329"><ele>216.99999999999997</ele><time>2026-03-22T14:45:02.945Z</time></trkpt><trkpt lat="39.2506487" lon="16.9787456"><ele>217.0</ele><time>2026-03-22T14:45:03.945Z</time></trkpt><trkpt lat="39.2506144" lon="16.9786594"><ele>216.16666666666666</ele><time>2026-03-22T14:45:04.945Z</time></trkpt><trkpt lat="39.250579" lon="16.9785739"><ele>215.33333333333331</ele><time>2026-03-22T14:45:05.944Z</time></trkpt><trkpt lat="39.2505547" lon="16.9784892"><ele>214.5</ele><time>2026-03-22T14:45:06.945Z</time></trkpt><trkpt lat="39.2505183" lon="16.9784063"><ele>213.66666666666669</ele><time>2026-03-22T14:45:07.944Z</time></trkpt><trkpt lat="39.2504721" lon="16.9783059"><ele>212.83333333333334</ele><time>2026-03-22T14:45:08.945Z</time></trkpt><trkpt lat="39.2504279" lon="16.9781904"><ele>212.0</ele><time>2026-03-22T14:45:09.944Z</time></trkpt><trkpt lat="39.2503882" lon="16.9780575"><ele>212.0</ele><time>2026-03-22T14:45:10.945Z</time></trkpt><trkpt lat="39.2503358" lon="16.9779296"><ele>212.0</ele><time>2026-03-22T14:45:11.945Z</time></trkpt><trkpt lat="39.2502932" lon="16.9777885"><ele>212.0</ele><time>2026-03-22T14:45:12.945Z</time></trkpt><trkpt lat="39.250258" lon="16.977633"><ele>212.0</ele><time>2026-03-22T14:45:13.945Z</time></trkpt><trkpt lat="39.2502195" lon="16.9774826"><ele>213.0</ele><time>2026-03-22T14:45:14.945Z</time></trkpt><trkpt lat="39.2501812" lon="16.9773419"><ele>214.0</ele><time>2026-03-22T14:45:15.945Z</time></trkpt><trkpt lat="39.2501211" lon="16.9772133"><ele>215.0</ele><time>2026-03-22T14:45:16.944Z</time></trkpt><trkpt lat="39.2500743" lon="16.9770776"><ele>216.0</ele><time>2026-03-22T14:45:17.945Z</time></trkpt><trkpt lat="39.2500483" lon="16.9769614"><ele>217.0</ele><time>2026-03-22T14:45:18.945Z</time></trkpt><trkpt lat="39.2500251" lon="16.97684"><ele>216.99999999999997</ele><time>2026-03-22T14:45:19.945Z</time></trkpt><trkpt lat="39.2500127" lon="16.976732"><ele>217.0</ele><time>2026-03-22T14:45:20.945Z</time></trkpt><trkpt lat="39.2500095" lon="16.9766348"><ele>217.0</ele><time>2026-03-22T14:45:21.944Z</time></trkpt><trkpt lat="39.2500186" lon="16.9765398"><ele>217.0</ele><time>2026-03-22T14:45:22.944Z</time></trkpt><trkpt lat="39.2500359" lon="16.9764482"><ele>216.99999999999997</ele><time>2026-03-22T14:45:23.944Z</time></trkpt><trkpt lat="39.2500581" lon="16.9763086"><ele>217.0</ele><time>2026-03-22T14:45:25.945Z</time></trkpt><trkpt lat="39.2501" lon="16.9762082"><ele>217.8</ele><time>2026-03-22T14:45:27.945Z</time></trkpt><trkpt lat="39.2501893" lon="16.9761293"><ele>218.6</ele><time>2026-03-22T14:45:29.945Z</time></trkpt><trkpt lat="39.2502774" lon="16.9760732"><ele>219.40000000000003</ele><time>2026-03-22T14:45:31.944Z</time></trkpt><trkpt lat="39.2503279" lon="16.975951"><ele>220.20000000000002</ele><time>2026-03-22T14:45:33.944Z</time></trkpt><trkpt lat="39.2503343" lon="16.9758672"><ele>221.0</ele><time>2026-03-22T14:45:34.943Z</time></trkpt><trkpt lat="39.2503414" lon="16.9757132"><ele>221.60000000000002</ele><time>2026-03-22T14:45:36.945Z</time></trkpt><trkpt lat="39.2504092" lon="16.9756277"><ele>222.20000000000002</ele><time>2026-03-22T14:45:38.945Z</time></trkpt><trkpt lat="39.250514" lon="16.9755792"><ele>222.79999999999998</ele><time>2026-03-22T14:45:40.945Z</time></trkpt><trkpt lat="39.2506093" lon="16.9754945"><ele>223.39999999999998</ele><time>2026-03-22T14:45:42.944Z</time></trkpt><trkpt lat="39.250659" lon="16.9754363"><ele>224.0</ele><time>2026-03-22T14:45:43.945Z</time></trkpt><trkpt lat="39.2507091" lon="16.9753771"><ele>220.79999999999998</ele><time>2026-03-22T14:45:44.944Z</time></trkpt><trkpt lat="39.2507859" lon="16.9752573"><ele>217.59999999999997</ele><time>2026-03-22T14:45:46.945Z</time></trkpt><trkpt lat="39.2507778" lon="16.9750939"><ele>214.4</ele><time>2026-03-22T14:45:48.945Z</time></trkpt><trkpt lat="39.250745" lon="16.9750028"><ele>211.2</ele><time>2026-03-22T14:45:49.944Z</time></trkpt><trkpt lat="39.250718" lon="16.9749163"><ele>208.0</ele><time>2026-03-22T14:45:50.945Z</time></trkpt><trkpt lat="39.2507004" lon="16.9748055"><ele>206.99999999999997</ele><time>2026-03-22T14:45:51.945Z</time></trkpt><trkpt lat="39.2506909" lon="16.9746953"><ele>206.0</ele><time>2026-03-22T14:45:52.945Z</time></trkpt><trkpt lat="39.2506849" lon="16.9746068"><ele>205.0</ele><time>2026-03-22T14:45:53.945Z</time></trkpt><trkpt lat="39.2506863" lon="16.974524"><ele>204.0</ele><time>2026-03-22T14:45:54.945Z</time></trkpt><trkpt lat="39.2507016" lon="16.9743745"><ele>202.99999999999997</ele><time>2026-03-22T14:45:56.944Z</time></trkpt><trkpt lat="39.2507389" lon="16.9742367"><ele>202.0</ele><time>2026-03-22T14:45:58.945Z</time></trkpt><trkpt lat="39.2507521" lon="16.9740878"><ele>200.83333333333331</ele><time>2026-03-22T14:46:00.944Z</time></trkpt><trkpt lat="39.2507698" lon="16.9739692"><ele>199.66666666666666</ele><time>2026-03-22T14:46:02.945Z</time></trkpt><trkpt lat="39.2508042" lon="16.973869"><ele>198.5</ele><time>2026-03-22T14:46:04.945Z</time></trkpt><trkpt lat="39.2508302" lon="16.9737932"><ele>197.33333333333331</ele><time>2026-03-22T14:46:05.945Z</time></trkpt><trkpt lat="39.2508702" lon="16.9736348"><ele>196.16666666666666</ele><time>2026-03-22T14:46:07.944Z</time></trkpt><trkpt lat="39.2508861" lon="16.9735467"><ele>195.0</ele><time>2026-03-22T14:46:08.945Z</time></trkpt><trkpt lat="39.2508818" lon="16.9734564"><ele>195.0</ele><time>2026-03-22T14:46:09.945Z</time></trkpt><trkpt lat="39.2508637" lon="16.9733559"><ele>195.0</ele><time>2026-03-22T14:46:10.945Z</time></trkpt><trkpt lat="39.2508643" lon="16.9732381"><ele>195.0</ele><time>2026-03-22T14:46:11.945Z</time></trkpt><trkpt lat="39.2509023" lon="16.9731403"><ele>195.0</ele><time>2026-03-22T14:46:12.944Z</time></trkpt><trkpt lat="39.2509634" lon="16.9730564"><ele>195.0</ele><time>2026-03-22T14:46:13.945Z</time></trkpt><trkpt lat="39.2510178" lon="16.972959"><ele>195.0</ele><time>2026-03-22T14:46:14.944Z</time></trkpt><trkpt lat="39.2510408" lon="16.9728509"><ele>196.0</ele><time>2026-03-22T14:46:15.945Z</time></trkpt><trkpt lat="39.2510439" lon="16.9727153"><ele>197.0</ele><time>2026-03-22T14:46:16.945Z</time></trkpt><trkpt lat="39.2510479" lon="16.9725471"><ele>198.0</ele><time>2026-03-22T14:46:17.945Z</time></trkpt><trkpt lat="39.2510322" lon="16.9723562"><ele>199.0</ele><time>2026-03-22T14:46:18.945Z</time></trkpt><trkpt lat="39.250991" lon="16.9721503"><ele>199.0</ele><time>2026-03-22T14:46:19.944Z</time></trkpt><trkpt lat="39.2509469" lon="16.9719704"><ele>199.0</ele><time>2026-03-22T14:46:20.945Z</time></trkpt><trkpt lat="39.2509092" lon="16.9718269"><ele>199.0</ele><time>2026-03-22T14:46:21.945Z</time></trkpt><trkpt lat="39.2508969" lon="16.9716863"><ele>199.0</ele><time>2026-03-22T14:46:22.945Z</time></trkpt><trkpt lat="39.2509256" lon="16.9715423"><ele>202.0</ele><time>2026-03-22T14:46:23.945Z</time></trkpt><trkpt lat="39.2509842" lon="16.9713849"><ele>205.0</ele><time>2026-03-22T14:46:24.945Z</time></trkpt><trkpt lat="39.2510495" lon="16.9712083"><ele>208.0</ele><time>2026-03-22T14:46:25.944Z</time></trkpt><trkpt lat="39.2511013" lon="16.9710075"><ele>211.4</ele><time>2026-03-22T14:46:26.945Z</time></trkpt><trkpt lat="39.2511411" lon="16.9708205"><ele>214.8</ele><time>2026-03-22T14:46:27.945Z</time></trkpt><trkpt lat="39.2511646" lon="16.9706762"><ele>218.2</ele><time>2026-03-22T14:46:28.945Z</time></trkpt><trkpt lat="39.2511751" lon="16.9705693"><ele>221.6</ele><time>2026-03-22T14:46:29.945Z</time></trkpt><trkpt lat="39.2511266" lon="16.9704561"><ele>225.0</ele><time>2026-03-22T14:46:31.945Z</time></trkpt><trkpt lat="39.251009" lon="16.9703995"><ele>225.0</ele><time>2026-03-22T14:46:33.945Z</time></trkpt><trkpt lat="39.2509549" lon="16.9703208"><ele>225.0</ele><time>2026-03-22T14:46:34.945Z</time></trkpt><trkpt lat="39.2509218" lon="16.9702196"><ele>225.0</ele><time>2026-03-22T14:46:35.945Z</time></trkpt><trkpt lat="39.2508894" lon="16.9701242"><ele>225.0</ele><time>2026-03-22T14:46:36.945Z</time></trkpt><trkpt lat="39.2508665" lon="16.9700404"><ele>225.0</ele><time>2026-03-22T14:46:37.945Z</time></trkpt><trkpt lat="39.2507827" lon="16.9699319"><ele>225.0</ele><time>2026-03-22T14:46:39.944Z</time></trkpt><trkpt lat="39.2506776" lon="16.969843"><ele>222.66666666666666</ele><time>2026-03-22T14:46:41.945Z</time></trkpt><trkpt lat="39.2506015" lon="16.9697904"><ele>220.33333333333331</ele><time>2026-03-22T14:46:42.945Z</time></trkpt><trkpt lat="39.2505437" lon="16.9697488"><ele>218.0</ele><time>2026-03-22T14:46:43.944Z</time></trkpt><trkpt lat="39.2504532" lon="16.9696641"><ele>215.66666666666666</ele><time>2026-03-22T14:46:45.945Z</time></trkpt><trkpt lat="39.2503999" lon="16.9695767"><ele>213.33333333333331</ele><time>2026-03-22T14:46:47.945Z</time></trkpt><trkpt lat="39.2503839" lon="16.9694579"><ele>211.0</ele><time>2026-03-22T14:46:51.944Z</time></trkpt><trkpt lat="39.2504052" lon="16.9693347"><ele>211.33333333333331</ele><time>2026-03-22T14:46:53.945Z</time></trkpt><trkpt lat="39.2504398" lon="16.9691848"><ele>211.66666666666666</ele><time>2026-03-22T14:46:55.944Z</time></trkpt><trkpt lat="39.2504653" lon="16.9690962"><ele>212.0</ele><time>2026-03-22T14:46:56.944Z</time></trkpt><trkpt lat="39.2504915" lon="16.969017"><ele>212.33333333333331</ele><time>2026-03-22T14:46:57.945Z</time></trkpt><trkpt lat="39.2505279" lon="16.9689377"><ele>212.66666666666666</ele><time>2026-03-22T14:46:58.945Z</time></trkpt><trkpt lat="39.2505691" lon="16.9688579"><ele>213.0</ele><time>2026-03-22T14:46:59.945Z</time></trkpt><trkpt lat="39.2506128" lon="16.9687761"><ele>218.66666666666666</ele><time>2026-03-22T14:47:00.945Z</time></trkpt><trkpt lat="39.2506531" lon="16.968689"><ele>224.33333333333331</ele><time>2026-03-22T14:47:01.945Z</time></trkpt><trkpt lat="39.2506841" lon="16.9685989"><ele>230.0</ele><time>2026-03-22T14:47:02.944Z</time></trkpt><trkpt lat="39.2507041" lon="16.9685114"><ele>235.66666666666666</ele><time>2026-03-22T14:47:03.944Z</time></trkpt><trkpt lat="39.2507179" lon="16.9683668"><ele>241.33333333333331</ele><time>2026-03-22T14:47:05.945Z</time></trkpt><trkpt lat="39.2507179" lon="16.9682336"><ele>247.0</ele><time>2026-03-22T14:47:07.943Z</time></trkpt><trkpt lat="39.2507146" lon="16.9681502"><ele>247.0</ele><time>2026-03-22T14:47:08.945Z</time></trkpt><trkpt lat="39.2506542" lon="16.9679948"><ele>247.0</ele><time>2026-03-22T14:47:10.944Z</time></trkpt><trkpt lat="39.2505956" lon="16.9679201"><ele>247.0</ele><time>2026-03-22T14:47:11.945Z</time></trkpt><trkpt lat="39.2505301" lon="16.9678457"><ele>247.0</ele><time>2026-03-22T14:47:12.945Z</time></trkpt><trkpt lat="39.2504489" lon="16.9677631"><ele>247.0</ele><time>2026-03-22T14:47:13.945Z</time></trkpt><trkpt lat="39.2503601" lon="16.9676771"><ele>245.39999999999998</ele><time>2026-03-22T14:47:14.945Z</time></trkpt><trkpt lat="39.2502677" lon="16.9676064"><ele>243.79999999999998</ele><time>2026-03-22T14:47:15.945Z</time></trkpt><trkpt lat="39.2501882" lon="16.9675025"><ele>242.2</ele><time>2026-03-22T14:47:16.944Z</time></trkpt><trkpt lat="39.2501427" lon="16.9673924"><ele>240.6</ele><time>2026-03-22T14:47:17.945Z</time></trkpt><trkpt lat="39.2501102" lon="16.9673124"><ele>239.0</ele><time>2026-03-22T14:47:18.945Z</time></trkpt><trkpt lat="39.2500579" lon="16.9672331"><ele>239.0</ele><time>2026-03-22T14:47:19.945Z</time></trkpt><trkpt lat="39.2499846" lon="16.9671566"><ele>238.99999999999997</ele><time>2026-03-22T14:47:20.944Z</time></trkpt><trkpt lat="39.2499145" lon="16.9670515"><ele>238.99999999999997</ele><time>2026-03-22T14:47:21.945Z</time></trkpt><trkpt lat="39.2498514" lon="16.9669063"><ele>239.0</ele><time>2026-03-22T14:47:22.944Z</time></trkpt><trkpt lat="39.2498016" lon="16.9667678"><ele>239.0</ele><time>2026-03-22T14:47:23.945Z</time></trkpt><trkpt lat="39.249764" lon="16.9666393"><ele>240.0</ele><time>2026-03-22T14:47:24.945Z</time></trkpt><trkpt lat="39.2497009" lon="16.9665291"><ele>240.99999999999997</ele><time>2026-03-22T14:47:25.945Z</time></trkpt><trkpt lat="39.2496312" lon="16.9664231"><ele>241.99999999999997</ele><time>2026-03-22T14:47:26.945Z</time></trkpt><trkpt lat="39.2495721" lon="16.96632"><ele>243.0</ele><time>2026-03-22T14:47:27.945Z</time></trkpt><trkpt lat="39.249509" lon="16.9662222"><ele>244.0</ele><time>2026-03-22T14:47:28.945Z</time></trkpt><trkpt lat="39.2494404" lon="16.9661226"><ele>244.0</ele><time>2026-03-22T14:47:29.944Z</time></trkpt><trkpt lat="39.2493616" lon="16.9660194"><ele>244.0</ele><time>2026-03-22T14:47:30.945Z</time></trkpt><trkpt lat="39.24929" lon="16.9659012"><ele>244.0</ele><time>2026-03-22T14:47:31.945Z</time></trkpt><trkpt lat="39.2492194" lon="16.9657828"><ele>244.0</ele><time>2026-03-22T14:47:32.945Z</time></trkpt><trkpt lat="39.2491517" lon="16.9656586"><ele>243.5</ele><time>2026-03-22T14:47:33.945Z</time></trkpt><trkpt lat="39.2490978" lon="16.9655208"><ele>243.0</ele><time>2026-03-22T14:47:34.945Z</time></trkpt><trkpt lat="39.2490653" lon="16.9653826"><ele>242.5</ele><time>2026-03-22T14:47:35.944Z</time></trkpt><trkpt lat="39.2490572" lon="16.9652361"><ele>242.0</ele><time>2026-03-22T14:47:36.945Z</time></trkpt><trkpt lat="39.2490631" lon="16.9650981"><ele>241.66666666666669</ele><time>2026-03-22T14:47:37.945Z</time></trkpt><trkpt lat="39.2490709" lon="16.9649743"><ele>241.33333333333334</ele><time>2026-03-22T14:47:38.945Z</time></trkpt><trkpt lat="39.2490799" lon="16.964859"><ele>241.0</ele><time>2026-03-22T14:47:39.945Z</time></trkpt><trkpt lat="39.2490889" lon="16.9647476"><ele>240.66666666666669</ele><time>2026-03-22T14:47:40.945Z</time></trkpt><trkpt lat="39.2491013" lon="16.9646401"><ele>240.33333333333334</ele><time>2026-03-22T14:47:41.945Z</time></trkpt><trkpt lat="39.2491208" lon="16.9645375"><ele>240.0</ele><time>2026-03-22T14:47:42.945Z</time></trkpt><trkpt lat="39.2491551" lon="16.9644454"><ele>240.0</ele><time>2026-03-22T14:47:43.945Z</time></trkpt><trkpt lat="39.2491911" lon="16.9643678"><ele>240.0</ele><time>2026-03-22T14:47:44.944Z</time></trkpt><trkpt lat="39.2492296" lon="16.9642996"><ele>240.0</ele><time>2026-03-22T14:47:45.944Z</time></trkpt><trkpt lat="39.24928" lon="16.9642161"><ele>240.0</ele><time>2026-03-22T14:47:46.945Z</time></trkpt><trkpt lat="39.2493587" lon="16.9641042"><ele>240.0</ele><time>2026-03-22T14:47:47.945Z</time></trkpt><trkpt lat="39.2494333" lon="16.9639765"><ele>238.25</ele><time>2026-03-22T14:47:48.945Z</time></trkpt><trkpt lat="39.2495086" lon="16.9638309"><ele>236.5</ele><time>2026-03-22T14:47:49.945Z</time></trkpt><trkpt lat="39.249574" lon="16.9636852"><ele>234.75</ele><time>2026-03-22T14:47:50.945Z</time></trkpt><trkpt lat="39.2496311" lon="16.9635423"><ele>233.0</ele><time>2026-03-22T14:47:51.945Z</time></trkpt><trkpt lat="39.2496909" lon="16.963408"><ele>231.60000000000002</ele><time>2026-03-22T14:47:52.945Z</time></trkpt><trkpt lat="39.2497504" lon="16.9632897"><ele>230.20000000000002</ele><time>2026-03-22T14:47:53.945Z</time></trkpt><trkpt lat="39.2498055" lon="16.9631865"><ele>228.8</ele><time>2026-03-22T14:47:54.944Z</time></trkpt><trkpt lat="39.2498568" lon="16.9630864"><ele>227.4</ele><time>2026-03-22T14:47:55.945Z</time></trkpt><trkpt lat="39.249907" lon="16.9629781"><ele>226.0</ele><time>2026-03-22T14:47:56.945Z</time></trkpt><trkpt lat="39.2499449" lon="16.9628553"><ele>226.0</ele><time>2026-03-22T14:47:57.945Z</time></trkpt><trkpt lat="39.2499719" lon="16.9627246"><ele>226.00000000000003</ele><time>2026-03-22T14:47:58.944Z</time></trkpt><trkpt lat="39.2499901" lon="16.9626002"><ele>226.00000000000003</ele><time>2026-03-22T14:47:59.945Z</time></trkpt><trkpt lat="39.2500141" lon="16.9624844"><ele>226.0</ele><time>2026-03-22T14:48:00.945Z</time></trkpt><trkpt lat="39.2500579" lon="16.9623721"><ele>226.0</ele><time>2026-03-22T14:48:01.945Z</time></trkpt><trkpt lat="39.2500974" lon="16.9622378"><ele>226.0</ele><time>2026-03-22T14:48:02.945Z</time></trkpt><trkpt lat="39.2501169" lon="16.962112"><ele>226.00000000000003</ele><time>2026-03-22T14:48:03.945Z</time></trkpt><trkpt lat="39.2501224" lon="16.961998"><ele>226.00000000000003</ele><time>2026-03-22T14:48:04.945Z</time></trkpt><trkpt lat="39.2501083" lon="16.9618802"><ele>226.0</ele><time>2026-03-22T14:48:05.945Z</time></trkpt><trkpt lat="39.2500724" lon="16.9617708"><ele>226.0</ele><time>2026-03-22T14:48:06.945Z</time></trkpt><trkpt lat="39.2500173" lon="16.9616553"><ele>226.0</ele><time>2026-03-22T14:48:07.945Z</time></trkpt><trkpt lat="39.2499346" lon="16.9615064"><ele>226.0</ele><time>2026-03-22T14:48:08.945Z</time></trkpt><trkpt lat="39.2498404" lon="16.961345"><ele>226.0</ele><time>2026-03-22T14:48:09.945Z</time></trkpt><trkpt lat="39.2497603" lon="16.9611999"><ele>226.0</ele><time>2026-03-22T14:48:10.945Z</time></trkpt><trkpt lat="39.2496936" lon="16.9610707"><ele>226.60000000000002</ele><time>2026-03-22T14:48:11.945Z</time></trkpt><trkpt lat="39.2496397" lon="16.9609519"><ele>227.20000000000002</ele><time>2026-03-22T14:48:12.944Z</time></trkpt><trkpt lat="39.2495974" lon="16.9608386"><ele>227.79999999999998</ele><time>2026-03-22T14:48:13.945Z</time></trkpt><trkpt lat="39.2495693" lon="16.9607483"><ele>228.39999999999998</ele><time>2026-03-22T14:48:14.945Z</time></trkpt><trkpt lat="39.2495165" lon="16.9606441"><ele>229.0</ele><time>2026-03-22T14:48:16.944Z</time></trkpt><trkpt lat="39.2494049" lon="16.9606038"><ele>227.6</ele><time>2026-03-22T14:48:18.945Z</time></trkpt><trkpt lat="39.2493256" lon="16.9605854"><ele>226.2</ele><time>2026-03-22T14:48:19.945Z</time></trkpt><trkpt lat="39.2492349" lon="16.9605641"><ele>224.79999999999998</ele><time>2026-03-22T14:48:20.945Z</time></trkpt><trkpt lat="39.2491384" lon="16.9605412"><ele>223.39999999999998</ele><time>2026-03-22T14:48:21.945Z</time></trkpt><trkpt lat="39.2490379" lon="16.9605123"><ele>222.0</ele><time>2026-03-22T14:48:22.944Z</time></trkpt><trkpt lat="39.2489347" lon="16.9604857"><ele>222.0</ele><time>2026-03-22T14:48:23.945Z</time></trkpt><trkpt lat="39.2488347" lon="16.9604712"><ele>222.0</ele><time>2026-03-22T14:48:24.945Z</time></trkpt><trkpt lat="39.2487344" lon="16.9604917"><ele>222.0</ele><time>2026-03-22T14:48:25.945Z</time></trkpt><trkpt lat="39.2486365" lon="16.9605414"><ele>222.0</ele><time>2026-03-22T14:48:26.943Z</time></trkpt><trkpt lat="39.2485451" lon="16.960608"><ele>222.0</ele><time>2026-03-22T14:48:27.944Z</time></trkpt><trkpt lat="39.2484646" lon="16.9606766"><ele>222.0</ele><time>2026-03-22T14:48:28.944Z</time></trkpt><trkpt lat="39.2484017" lon="16.960759"><ele>222.0</ele><time>2026-03-22T14:48:29.945Z</time></trkpt><trkpt lat="39.2483834" lon="16.9608572"><ele>222.0</ele><time>2026-03-22T14:48:30.945Z</time></trkpt><trkpt lat="39.2484163" lon="16.9609494"><ele>222.0</ele><time>2026-03-22T14:48:31.945Z</time></trkpt><trkpt lat="39.2484851" lon="16.9610298"><ele>222.0</ele><time>2026-03-22T14:48:32.945Z</time></trkpt><trkpt lat="39.2485876" lon="16.9611188"><ele>217.8</ele><time>2026-03-22T14:48:33.944Z</time></trkpt><trkpt lat="39.2487129" lon="16.9612263"><ele>213.6</ele><time>2026-03-22T14:48:34.945Z</time></trkpt><trkpt lat="39.2488115" lon="16.9613089"><ele>209.4</ele><time>2026-03-22T14:48:35.945Z</time></trkpt><trkpt lat="39.2488891" lon="16.9613626"><ele>205.20000000000002</ele><time>2026-03-22T14:48:36.945Z</time></trkpt><trkpt lat="39.2489285" lon="16.9614456"><ele>201.0</ele><time>2026-03-22T14:48:37.945Z</time></trkpt><trkpt lat="39.2489497" lon="16.9615496"><ele>203.16666666666666</ele><time>2026-03-22T14:48:38.944Z</time></trkpt><trkpt lat="39.2489667" lon="16.9616462"><ele>205.33333333333331</ele><time>2026-03-22T14:48:39.943Z</time></trkpt><trkpt lat="39.2489841" lon="16.9617444"><ele>207.5</ele><time>2026-03-22T14:48:40.945Z</time></trkpt><trkpt lat="39.2489777" lon="16.961842"><ele>209.66666666666666</ele><time>2026-03-22T14:48:41.944Z</time></trkpt><trkpt lat="39.2489371" lon="16.9619219"><ele>211.83333333333331</ele><time>2026-03-22T14:48:42.945Z</time></trkpt><trkpt lat="39.2488632" lon="16.9619517"><ele>214.0</ele><time>2026-03-22T14:48:43.945Z</time></trkpt><trkpt lat="39.2487762" lon="16.9619256"><ele>211.39999999999998</ele><time>2026-03-22T14:48:44.945Z</time></trkpt><trkpt lat="39.248696" lon="16.9618668"><ele>208.79999999999998</ele><time>2026-03-22T14:48:45.944Z</time></trkpt><trkpt lat="39.2486095" lon="16.9617896"><ele>206.2</ele><time>2026-03-22T14:48:46.944Z</time></trkpt><trkpt lat="39.248528" lon="16.9617068"><ele>203.60000000000002</ele><time>2026-03-22T14:48:47.945Z</time></trkpt><trkpt lat="39.2484577" lon="16.9616134"><ele>201.0</ele><time>2026-03-22T14:48:48.944Z</time></trkpt><trkpt lat="39.248387" lon="16.9615161"><ele>201.0</ele><time>2026-03-22T14:48:49.945Z</time></trkpt><trkpt lat="39.2483164" lon="16.9614142"><ele>201.0</ele><time>2026-03-22T14:48:50.945Z</time></trkpt><trkpt lat="39.2482471" lon="16.9613097"><ele>201.0</ele><time>2026-03-22T14:48:51.944Z</time></trkpt><trkpt lat="39.2481831" lon="16.961211"><ele>201.0</ele><time>2026-03-22T14:48:52.945Z</time></trkpt><trkpt lat="39.2481289" lon="16.961117"><ele>201.0</ele><time>2026-03-22T14:48:53.945Z</time></trkpt><trkpt lat="39.2480862" lon="16.9610341"><ele>198.33333333333334</ele><time>2026-03-22T14:48:54.944Z</time></trkpt><trkpt lat="39.2480418" lon="16.960943"><ele>195.66666666666666</ele><time>2026-03-22T14:48:56.945Z</time></trkpt><trkpt lat="39.2479956" lon="16.9608687"><ele>193.0</ele><time>2026-03-22T14:48:58.945Z</time></trkpt><trkpt lat="39.2479566" lon="16.9608047"><ele>190.33333333333331</ele><time>2026-03-22T14:49:00.945Z</time></trkpt><trkpt lat="39.2479206" lon="16.9607248"><ele>187.66666666666666</ele><time>2026-03-22T14:49:02.945Z</time></trkpt><trkpt lat="39.2479032" lon="16.9606331"><ele>185.0</ele><time>2026-03-22T14:49:04.945Z</time></trkpt><trkpt lat="39.2478709" lon="16.9604981"><ele>185.0</ele><time>2026-03-22T14:49:06.944Z</time></trkpt><trkpt lat="39.2478242" lon="16.9604267"><ele>185.0</ele><time>2026-03-22T14:49:07.945Z</time></trkpt><trkpt lat="39.2477604" lon="16.9603609"><ele>185.0</ele><time>2026-03-22T14:49:08.945Z</time></trkpt><trkpt lat="39.2476894" lon="16.9602897"><ele>185.0</ele><time>2026-03-22T14:49:09.945Z</time></trkpt><trkpt lat="39.2476271" lon="16.9602157"><ele>185.0</ele><time>2026-03-22T14:49:10.944Z</time></trkpt><trkpt lat="39.2475675" lon="16.9601476"><ele>185.0</ele><time>2026-03-22T14:49:11.944Z</time></trkpt><trkpt lat="39.2474983" lon="16.9600977"><ele>184.99999999999997</ele><time>2026-03-22T14:49:12.945Z</time></trkpt><trkpt lat="39.2474307" lon="16.9600739"><ele>185.0</ele><time>2026-03-22T14:49:13.944Z</time></trkpt><trkpt lat="39.2473641" lon="16.9600599"><ele>185.0</ele><time>2026-03-22T14:49:14.945Z</time></trkpt><trkpt lat="39.2472917" lon="16.9600391"><ele>185.0</ele><time>2026-03-22T14:49:15.945Z</time></trkpt><trkpt lat="39.2472179" lon="16.9600002"><ele>185.0</ele><time>2026-03-22T14:49:16.945Z</time></trkpt><trkpt lat="39.2471512" lon="16.9599412"><ele>184.99999999999997</ele><time>2026-03-22T14:49:17.944Z</time></trkpt><trkpt lat="39.2470915" lon="16.9598837"><ele>185.0</ele><time>2026-03-22T14:49:18.944Z</time></trkpt><trkpt lat="39.2470375" lon="16.9598314"><ele>183.66666666666666</ele><time>2026-03-22T14:49:19.945Z</time></trkpt><trkpt lat="39.2469508" lon="16.9597489"><ele>182.33333333333331</ele><time>2026-03-22T14:49:21.945Z</time></trkpt><trkpt lat="39.2468814" lon="16.9597441"><ele>181.0</ele><time>2026-03-22T14:49:23.945Z</time></trkpt><trkpt lat="39.2468336" lon="16.9598126"><ele>179.66666666666666</ele><time>2026-03-22T14:49:25.945Z</time></trkpt><trkpt lat="39.2468507" lon="16.9599394"><ele>178.33333333333334</ele><time>2026-03-22T14:49:27.945Z</time></trkpt><trkpt lat="39.2468764" lon="16.9600161"><ele>177.0</ele><time>2026-03-22T14:49:28.944Z</time></trkpt><trkpt lat="39.2469086" lon="16.9601552"><ele>175.2</ele><time>2026-03-22T14:49:30.945Z</time></trkpt><trkpt lat="39.2468586" lon="16.9602453"><ele>173.39999999999998</ele><time>2026-03-22T14:49:32.945Z</time></trkpt><trkpt lat="39.2467577" lon="16.9602218"><ele>171.60000000000002</ele><time>2026-03-22T14:49:34.944Z</time></trkpt><trkpt lat="39.246652" lon="16.9601738"><ele>169.8</ele><time>2026-03-22T14:49:36.945Z</time></trkpt><trkpt lat="39.2465527" lon="16.9601386"><ele>168.0</ele><time>2026-03-22T14:49:38.945Z</time></trkpt><trkpt lat="39.2464391" lon="16.9601377"><ele>165.83333333333334</ele><time>2026-03-22T14:49:40.945Z</time></trkpt><trkpt lat="39.2463217" lon="16.9601912"><ele>163.66666666666666</ele><time>2026-03-22T14:49:42.945Z</time></trkpt><trkpt lat="39.2462627" lon="16.9602287"><ele>161.5</ele><time>2026-03-22T14:49:43.944Z</time></trkpt><trkpt lat="39.246195" lon="16.9602755"><ele>159.33333333333331</ele><time>2026-03-22T14:49:44.945Z</time></trkpt><trkpt lat="39.2461186" lon="16.9603339"><ele>157.16666666666666</ele><time>2026-03-22T14:49:45.945Z</time></trkpt><trkpt lat="39.2460446" lon="16.9603846"><ele>155.0</ele><time>2026-03-22T14:49:46.945Z</time></trkpt><trkpt lat="39.2459637" lon="16.9604262"><ele>155.0</ele><time>2026-03-22T14:49:47.945Z</time></trkpt><trkpt lat="39.2458808" lon="16.9604725"><ele>155.0</ele><time>2026-03-22T14:49:48.945Z</time></trkpt><trkpt lat="39.2457974" lon="16.9605161"><ele>155.0</ele><time>2026-03-22T14:49:49.945Z</time></trkpt><trkpt lat="39.245713" lon="16.9605568"><ele>155.0</ele><time>2026-03-22T14:49:50.945Z</time></trkpt><trkpt lat="39.2456335" lon="16.9606001"><ele>155.0</ele><time>2026-03-22T14:49:51.945Z</time></trkpt><trkpt lat="39.245548" lon="16.960646"><ele>155.0</ele><time>2026-03-22T14:49:52.944Z</time></trkpt><trkpt lat="39.2454605" lon="16.9606943"><ele>153.33333333333331</ele><time>2026-03-22T14:49:53.945Z</time></trkpt><trkpt lat="39.2453717" lon="16.9607463"><ele>151.66666666666666</ele><time>2026-03-22T14:49:54.944Z</time></trkpt><trkpt lat="39.2452878" lon="16.9607918"><ele>150.0</ele><time>2026-03-22T14:49:55.943Z</time></trkpt><trkpt lat="39.2452079" lon="16.9608303"><ele>148.33333333333334</ele><time>2026-03-22T14:49:56.944Z</time></trkpt><trkpt lat="39.2451354" lon="16.9608601"><ele>146.66666666666669</ele><time>2026-03-22T14:49:57.944Z</time></trkpt><trkpt lat="39.2450599" lon="16.9608701"><ele>145.0</ele><time>2026-03-22T14:49:58.944Z</time></trkpt><trkpt lat="39.2449802" lon="16.9608692"><ele>144.0</ele><time>2026-03-22T14:49:59.944Z</time></trkpt><trkpt lat="39.244893" lon="16.9608679"><ele>143.0</ele><time>2026-03-22T14:50:00.943Z</time></trkpt><trkpt lat="39.2447969" lon="16.9608767"><ele>142.0</ele><time>2026-03-22T14:50:01.944Z</time></trkpt><trkpt lat="39.2468586" lon="16.9602453"><ele>144.6</ele><time>2026-03-22T14:49:32.945Z</time></trkpt><trkpt lat="39.2467577" lon="16.9602218"><ele>147.2</ele><time>2026-03-22T14:49:34.944Z</time></trkpt><trkpt lat="39.246652" lon="16.9601738"><ele>149.8</ele><time>2026-03-22T14:49:36.945Z</time></trkpt><trkpt lat="39.2465527" lon="16.9601386"><ele>152.4</ele><time>2026-03-22T14:49:38.945Z</time></trkpt><trkpt lat="39.2464391" lon="16.9601377"><ele>155.0</ele><time>2026-03-22T14:49:40.945Z</time></trkpt><trkpt lat="39.2463217" lon="16.9601912"><ele>155.0</ele><time>2026-03-22T14:49:42.945Z</time></trkpt><trkpt lat="39.2462627" lon="16.9602287"><ele>155.0</ele><time>2026-03-22T14:49:43.944Z</time></trkpt><trkpt lat="39.246195" lon="16.9602755"><ele>155.0</ele><time>2026-03-22T14:49:44.945Z</time></trkpt><trkpt lat="39.2461186" lon="16.9603339"><ele>155.0</ele><time>2026-03-22T14:49:45.945Z</time></trkpt><trkpt lat="39.2460446" lon="16.9603846"><ele>155.0</ele><time>2026-03-22T14:49:46.945Z</time></trkpt><trkpt lat="39.2459637" lon="16.9604262"><ele>155.0</ele><time>2026-03-22T14:49:47.945Z</time></trkpt><trkpt lat="39.2458808" lon="16.9604725"><ele>155.0</ele><time>2026-03-22T14:49:48.945Z</time></trkpt><trkpt lat="39.2457974" lon="16.9605161"><ele>155.0</ele><time>2026-03-22T14:49:49.945Z</time></trkpt><trkpt lat="39.245713" lon="16.9605568"><ele>155.0</ele><time>2026-03-22T14:49:50.945Z</time></trkpt><trkpt lat="39.2456335" lon="16.9606001"><ele>155.0</ele><time>2026-03-22T14:49:51.945Z</time></trkpt><trkpt lat="39.245548" lon="16.960646"><ele>155.0</ele><time>2026-03-22T14:49:52.944Z</time></trkpt><trkpt lat="39.2454605" lon="16.9606943"><ele>153.33333333333331</ele><time>2026-03-22T14:49:53.945Z</time></trkpt><trkpt lat="39.2453717" lon="16.9607463"><ele>151.66666666666666</ele><time>2026-03-22T14:49:54.944Z</time></trkpt><trkpt lat="39.2452878" lon="16.9607918"><ele>150.0</ele><time>2026-03-22T14:49:55.943Z</time></trkpt><trkpt lat="39.2452079" lon="16.9608303"><ele>148.33333333333334</ele><time>2026-03-22T14:49:56.944Z</time></trkpt><trkpt lat="39.2451354" lon="16.9608601"><ele>146.66666666666669</ele><time>2026-03-22T14:49:57.944Z</time></trkpt><trkpt lat="39.2450599" lon="16.9608701"><ele>145.0</ele><time>2026-03-22T14:49:58.944Z</time></trkpt><trkpt lat="39.2449802" lon="16.9608692"><ele>144.4</ele><time>2026-03-22T14:49:59.944Z</time></trkpt><trkpt lat="39.244893" lon="16.9608679"><ele>143.8</ele><time>2026-03-22T14:50:00.943Z</time></trkpt><trkpt lat="39.2447969" lon="16.9608767"><ele>143.2</ele><time>2026-03-22T14:50:01.944Z</time></trkpt><trkpt lat="39.2446996" lon="16.9608971"><ele>142.6</ele><time>2026-03-22T14:50:02.944Z</time></trkpt><trkpt lat="39.2446027" lon="16.9609306"><ele>142.0</ele><time>2026-03-22T14:50:03.944Z</time></trkpt><trkpt lat="39.2445094" lon="16.9609762"><ele>141.16666666666669</ele><time>2026-03-22T14:50:04.944Z</time></trkpt><trkpt lat="39.2444182" lon="16.9610275"><ele>140.33333333333334</ele><time>2026-03-22T14:50:05.944Z</time></trkpt><trkpt lat="39.244334" lon="16.9610676"><ele>139.5</ele><time>2026-03-22T14:50:06.944Z</time></trkpt><trkpt lat="39.2442589" lon="16.9610944"><ele>138.66666666666666</ele><time>2026-03-22T14:50:07.944Z</time></trkpt><trkpt lat="39.2441939" lon="16.961106"><ele>137.83333333333331</ele><time>2026-03-22T14:50:08.943Z</time></trkpt><trkpt lat="39.2440831" lon="16.9610781"><ele>137.0</ele><time>2026-03-22T14:50:10.944Z</time></trkpt><trkpt lat="39.2440355" lon="16.9610225"><ele>137.0</ele><time>2026-03-22T14:50:11.944Z</time></trkpt><trkpt lat="39.2439797" lon="16.9609451"><ele>137.0</ele><time>2026-03-22T14:50:12.944Z</time></trkpt><trkpt lat="39.2439067" lon="16.9608464"><ele>137.0</ele><time>2026-03-22T14:50:13.943Z</time></trkpt><trkpt lat="39.243832" lon="16.9607666"><ele>137.0</ele><time>2026-03-22T14:50:14.942Z</time></trkpt><trkpt lat="39.2437469" lon="16.9607183"><ele>137.0</ele><time>2026-03-22T14:50:15.943Z</time></trkpt><trkpt lat="39.2436713" lon="16.9606584"><ele>136.79999999999998</ele><time>2026-03-22T14:50:16.944Z</time></trkpt><trkpt lat="39.2436021" lon="16.9605687"><ele>136.6</ele><time>2026-03-22T14:50:17.944Z</time></trkpt><trkpt lat="39.2435463" lon="16.9604478"><ele>136.39999999999998</ele><time>2026-03-22T14:50:18.944Z</time></trkpt><trkpt lat="39.2435135" lon="16.9603134"><ele>136.2</ele><time>2026-03-22T14:50:19.942Z</time></trkpt><trkpt lat="39.2434828" lon="16.9602088"><ele>136.0</ele><time>2026-03-22T14:50:20.943Z</time></trkpt><trkpt lat="39.2434552" lon="16.9601191"><ele>136.16666666666669</ele><time>2026-03-22T14:50:21.944Z</time></trkpt><trkpt lat="39.2434259" lon="16.9600223"><ele>136.33333333333334</ele><time>2026-03-22T14:50:22.943Z</time></trkpt><trkpt lat="39.2433986" lon="16.9599451"><ele>136.5</ele><time>2026-03-22T14:50:23.943Z</time></trkpt><trkpt lat="39.2433568" lon="16.9598252"><ele>136.66666666666666</ele><time>2026-03-22T14:50:25.943Z</time></trkpt><trkpt lat="39.2433346" lon="16.9597411"><ele>136.83333333333331</ele><time>2026-03-22T14:50:26.944Z</time></trkpt><trkpt lat="39.243285" lon="16.9596555"><ele>137.0</ele><time>2026-03-22T14:50:27.944Z</time></trkpt><trkpt lat="39.2432259" lon="16.9595708"><ele>137.0</ele><time>2026-03-22T14:50:28.944Z</time></trkpt><trkpt lat="39.2431535" lon="16.9594968"><ele>137.0</ele><time>2026-03-22T14:50:29.943Z</time></trkpt><trkpt lat="39.2430815" lon="16.9594236"><ele>137.0</ele><time>2026-03-22T14:50:30.944Z</time></trkpt><trkpt lat="39.2430114" lon="16.9593615"><ele>137.0</ele><time>2026-03-22T14:50:31.943Z</time></trkpt><trkpt lat="39.2429472" lon="16.9592933"><ele>137.0</ele><time>2026-03-22T14:50:32.943Z</time></trkpt><trkpt lat="39.2429021" lon="16.9592123"><ele>137.0</ele><time>2026-03-22T14:50:33.943Z</time></trkpt><trkpt lat="39.2428736" lon="16.9591153"><ele>139.66666666666666</ele><time>2026-03-22T14:50:34.944Z</time></trkpt><trkpt lat="39.2428574" lon="16.9590119"><ele>142.33333333333331</ele><time>2026-03-22T14:50:35.943Z</time></trkpt><trkpt lat="39.2428482" lon="16.9589098"><ele>145.0</ele><time>2026-03-22T14:50:36.944Z</time></trkpt><trkpt lat="39.2428408" lon="16.9588289"><ele>147.66666666666666</ele><time>2026-03-22T14:50:37.944Z</time></trkpt><trkpt lat="39.2428411" lon="16.9586949"><ele>150.33333333333334</ele><time>2026-03-22T14:50:39.944Z</time></trkpt><trkpt lat="39.2428275" lon="16.9586115"><ele>153.0</ele><time>2026-03-22T14:50:40.944Z</time></trkpt><trkpt lat="39.2428106" lon="16.9585179"><ele>153.0</ele><time>2026-03-22T14:50:41.944Z</time></trkpt><trkpt lat="39.2427799" lon="16.9584151"><ele>153.0</ele><time>2026-03-22T14:50:42.943Z</time></trkpt><trkpt lat="39.2427579" lon="16.9583121"><ele>153.0</ele><time>2026-03-22T14:50:43.943Z</time></trkpt><trkpt lat="39.2427384" lon="16.9582185"><ele>153.0</ele><time>2026-03-22T14:50:44.944Z</time></trkpt><trkpt lat="39.242717" lon="16.9581406"><ele>153.0</ele><time>2026-03-22T14:50:45.943Z</time></trkpt><trkpt lat="39.2426729" lon="16.9580273"><ele>153.0</ele><time>2026-03-22T14:50:47.944Z</time></trkpt><trkpt lat="39.2426761" lon="16.9578811"><ele>154.60000000000002</ele><time>2026-03-22T14:50:49.944Z</time></trkpt><trkpt lat="39.2426855" lon="16.9577889"><ele>156.20000000000002</ele><time>2026-03-22T14:50:50.943Z</time></trkpt><trkpt lat="39.2426943" lon="16.9577028"><ele>157.8</ele><time>2026-03-22T14:50:51.944Z</time></trkpt><trkpt lat="39.2427175" lon="16.9575718"><ele>159.4</ele><time>2026-03-22T14:50:53.944Z</time></trkpt><trkpt lat="39.2426932" lon="16.9574003"><ele>161.0</ele><time>2026-03-22T14:50:55.944Z</time></trkpt><trkpt lat="39.2426502" lon="16.9573015"><ele>162.8</ele><time>2026-03-22T14:50:56.944Z</time></trkpt><trkpt lat="39.2426046" lon="16.9571878"><ele>164.60000000000002</ele><time>2026-03-22T14:50:57.944Z</time></trkpt><trkpt lat="39.2425554" lon="16.9570754"><ele>166.4</ele><time>2026-03-22T14:50:58.944Z</time></trkpt><trkpt lat="39.2425112" lon="16.9569733"><ele>168.2</ele><time>2026-03-22T14:50:59.944Z</time></trkpt><trkpt lat="39.2424631" lon="16.9568695"><ele>170.0</ele><time>2026-03-22T14:51:00.944Z</time></trkpt><trkpt lat="39.2424158" lon="16.9567752"><ele>169.16666666666666</ele><time>2026-03-22T14:51:01.944Z</time></trkpt><trkpt lat="39.2423688" lon="16.9566929"><ele>168.33333333333331</ele><time>2026-03-22T14:51:02.944Z</time></trkpt><trkpt lat="39.2423284" lon="16.9565895"><ele>167.5</ele><time>2026-03-22T14:51:04.944Z</time></trkpt><trkpt lat="39.2423547" lon="16.9564772"><ele>166.66666666666666</ele><time>2026-03-22T14:51:06.944Z</time></trkpt><trkpt lat="39.2423379" lon="16.9563241"><ele>165.83333333333334</ele><time>2026-03-22T14:51:08.943Z</time></trkpt><trkpt lat="39.2423101" lon="16.9562497"><ele>165.0</ele><time>2026-03-22T14:51:09.944Z</time></trkpt><trkpt lat="39.2422464" lon="16.9561394"><ele>165.0</ele><time>2026-03-22T14:51:11.944Z</time></trkpt><trkpt lat="39.2421763" lon="16.9560266"><ele>165.0</ele><time>2026-03-22T14:51:13.944Z</time></trkpt><trkpt lat="39.242089" lon="16.9559748"><ele>165.0</ele><time>2026-03-22T14:51:15.943Z</time></trkpt><trkpt lat="39.2420026" lon="16.9559783"><ele>165.0</ele><time>2026-03-22T14:51:17.944Z</time></trkpt><trkpt lat="39.2418926" lon="16.9559333"><ele>165.0</ele><time>2026-03-22T14:51:19.944Z</time></trkpt><trkpt lat="39.2418392" lon="16.9558902"><ele>165.8</ele><time>2026-03-22T14:51:20.943Z</time></trkpt><trkpt lat="39.2417399" lon="16.9558174"><ele>166.6</ele><time>2026-03-22T14:51:22.944Z</time></trkpt><trkpt lat="39.2416422" lon="16.9557606"><ele>167.39999999999998</ele><time>2026-03-22T14:51:24.944Z</time></trkpt><trkpt lat="39.2415309" lon="16.9557201"><ele>168.2</ele><time>2026-03-22T14:51:26.944Z</time></trkpt><trkpt lat="39.2414753" lon="16.955673"><ele>169.0</ele><time>2026-03-22T14:51:28.944Z</time></trkpt><trkpt lat="39.2414181" lon="16.9556098"><ele>169.0</ele><time>2026-03-22T14:51:32.944Z</time></trkpt><trkpt lat="39.2413721" lon="16.9555476"><ele>169.0</ele><time>2026-03-22T14:51:35.944Z</time></trkpt><trkpt lat="39.2413065" lon="16.9555001"><ele>169.0</ele><time>2026-03-22T14:51:38.943Z</time></trkpt><trkpt lat="39.2412067" lon="16.9554663"><ele>169.0</ele><time>2026-03-22T14:51:40.944Z</time></trkpt><trkpt lat="39.2411318" lon="16.9554133"><ele>169.0</ele><time>2026-03-22T14:51:42.944Z</time></trkpt><trkpt lat="39.2410668" lon="16.9553454"><ele>169.0</ele><time>2026-03-22T14:51:44.943Z</time></trkpt><trkpt lat="39.240998" lon="16.955277"><ele>169.0</ele><time>2026-03-22T14:51:46.944Z</time></trkpt><trkpt lat="39.2408884" lon="16.9552575"><ele>169.0</ele><time>2026-03-22T14:51:48.944Z</time></trkpt><trkpt lat="39.2407681" lon="16.9552882"><ele>169.0</ele><time>2026-03-22T14:51:50.944Z</time></trkpt><trkpt lat="39.2406685" lon="16.9553147"><ele>169.0</ele><time>2026-03-22T14:51:52.943Z</time></trkpt><trkpt lat="39.2405503" lon="16.9552973"><ele>169.0</ele><time>2026-03-22T14:51:54.944Z</time></trkpt><trkpt lat="39.2404841" lon="16.9552877"><ele>169.0</ele><time>2026-03-22T14:51:55.944Z</time></trkpt><trkpt lat="39.2403958" lon="16.9553016"><ele>169.0</ele><time>2026-03-22T14:51:57.944Z</time></trkpt><trkpt lat="39.2403159" lon="16.9553323"><ele>169.0</ele><time>2026-03-22T14:51:59.944Z</time></trkpt><trkpt lat="39.2402186" lon="16.9553259"><ele>169.0</ele><time>2026-03-22T14:52:01.943Z</time></trkpt><trkpt lat="39.2401003" lon="16.9552902"><ele>169.0</ele><time>2026-03-22T14:52:03.944Z</time></trkpt><trkpt lat="39.240035" lon="16.9552592"><ele>169.0</ele><time>2026-03-22T14:52:04.944Z</time></trkpt><trkpt lat="39.2399685" lon="16.9552278"><ele>169.0</ele><time>2026-03-22T14:52:05.944Z</time></trkpt><trkpt lat="39.2399035" lon="16.9551954"><ele>169.0</ele><time>2026-03-22T14:52:06.944Z</time></trkpt><trkpt lat="39.2397892" lon="16.9551465"><ele>169.0</ele><time>2026-03-22T14:52:08.944Z</time></trkpt><trkpt lat="39.2396907" lon="16.9551152"><ele>169.0</ele><time>2026-03-22T14:52:10.944Z</time></trkpt><trkpt lat="39.2395902" lon="16.9550574"><ele>168.39999999999998</ele><time>2026-03-22T14:52:12.944Z</time></trkpt><trkpt lat="39.2394907" lon="16.954971"><ele>167.8</ele><time>2026-03-22T14:52:14.944Z</time></trkpt><trkpt lat="39.2393993" lon="16.9548712"><ele>167.2</ele><time>2026-03-22T14:52:16.944Z</time></trkpt><trkpt lat="39.2393467" lon="16.9547781"><ele>166.60000000000002</ele><time>2026-03-22T14:52:18.944Z</time></trkpt><trkpt lat="39.2392941" lon="16.9546707"><ele>166.0</ele><time>2026-03-22T14:52:20.944Z</time></trkpt><trkpt lat="39.2392252" lon="16.9545499"><ele>166.0</ele><time>2026-03-22T14:52:22.944Z</time></trkpt><trkpt lat="39.2391757" lon="16.9544349"><ele>166.0</ele><time>2026-03-22T14:52:24.943Z</time></trkpt><trkpt lat="39.2391263" lon="16.9543232"><ele>166.0</ele><time>2026-03-22T14:52:26.944Z</time></trkpt><trkpt lat="39.2390774" lon="16.9542406"><ele>166.0</ele><time>2026-03-22T14:52:28.944Z</time></trkpt><trkpt lat="39.2390157" lon="16.9541677"><ele>166.0</ele><time>2026-03-22T14:52:30.943Z</time></trkpt><trkpt lat="39.23894" lon="16.9540874"><ele>163.0</ele><time>2026-03-22T14:52:32.944Z</time></trkpt><trkpt lat="39.2388752" lon="16.9540174"><ele>160.0</ele><time>2026-03-22T14:52:34.944Z</time></trkpt><trkpt lat="39.2388224" lon="16.9539478"><ele>157.0</ele><time>2026-03-22T14:52:36.944Z</time></trkpt><trkpt lat="39.2387951" lon="16.9538521"><ele>154.0</ele><time>2026-03-22T14:52:38.942Z</time></trkpt><trkpt lat="39.238795" lon="16.9537667"><ele>151.0</ele><time>2026-03-22T14:52:40.944Z</time></trkpt><trkpt lat="39.2387938" lon="16.953659"><ele>148.0</ele><time>2026-03-22T14:52:42.944Z</time></trkpt><trkpt lat="39.2387875" lon="16.9535495"><ele>148.0</ele><time>2026-03-22T14:52:44.944Z</time></trkpt><trkpt lat="39.2387798" lon="16.9534586"><ele>148.0</ele><time>2026-03-22T14:52:46.944Z</time></trkpt><trkpt lat="39.2387647" lon="16.9533747"><ele>148.0</ele><time>2026-03-22T14:52:48.944Z</time></trkpt><trkpt lat="39.2387364" lon="16.9532786"><ele>148.0</ele><time>2026-03-22T14:52:50.944Z</time></trkpt><trkpt lat="39.2386987" lon="16.9531942"><ele>148.0</ele><time>2026-03-22T14:52:52.944Z</time></trkpt><trkpt lat="39.2386578" lon="16.9531072"><ele>148.0</ele><time>2026-03-22T14:52:54.944Z</time></trkpt><trkpt lat="39.2386099" lon="16.9530005"><ele>147.83333333333334</ele><time>2026-03-22T14:52:56.944Z</time></trkpt><trkpt lat="39.2385658" lon="16.9528936"><ele>147.66666666666669</ele><time>2026-03-22T14:52:58.944Z</time></trkpt><trkpt lat="39.2385345" lon="16.9528095"><ele>147.5</ele><time>2026-03-22T14:53:00.944Z</time></trkpt><trkpt lat="39.2384943" lon="16.9527155"><ele>147.33333333333334</ele><time>2026-03-22T14:53:02.944Z</time></trkpt><trkpt lat="39.2384448" lon="16.9526171"><ele>147.16666666666666</ele><time>2026-03-22T14:53:04.944Z</time></trkpt><trkpt lat="39.2383985" lon="16.9525328"><ele>147.0</ele><time>2026-03-22T14:53:06.944Z</time></trkpt><trkpt lat="39.238362" lon="16.9524319"><ele>147.0</ele><time>2026-03-22T14:53:08.944Z</time></trkpt><trkpt lat="39.2383172" lon="16.9523152"><ele>147.0</ele><time>2026-03-22T14:53:10.944Z</time></trkpt><trkpt lat="39.2382763" lon="16.9521957"><ele>147.0</ele><time>2026-03-22T14:53:12.944Z</time></trkpt><trkpt lat="39.2382317" lon="16.9520907"><ele>147.0</ele><time>2026-03-22T14:53:14.944Z</time></trkpt><trkpt lat="39.2381701" lon="16.9519922"><ele>147.0</ele><time>2026-03-22T14:53:17.943Z</time></trkpt><trkpt lat="39.2381192" lon="16.9518811"><ele>145.16666666666666</ele><time>2026-03-22T14:53:19.944Z</time></trkpt><trkpt lat="39.2380669" lon="16.9517622"><ele>143.33333333333334</ele><time>2026-03-22T14:53:21.944Z</time></trkpt><trkpt lat="39.2380297" lon="16.9516617"><ele>141.5</ele><time>2026-03-22T14:53:23.943Z</time></trkpt><trkpt lat="39.2380013" lon="16.9515707"><ele>139.66666666666669</ele><time>2026-03-22T14:53:25.943Z</time></trkpt><trkpt lat="39.2379761" lon="16.9514846"><ele>137.83333333333334</ele><time>2026-03-22T14:53:28.944Z</time></trkpt><trkpt lat="39.237934" lon="16.9514027"><ele>136.0</ele><time>2026-03-22T14:53:54.944Z</time></trkpt><trkpt lat="39.2379117" lon="16.9513203"><ele>136.0</ele><time>2026-03-22T14:53:58.943Z</time></trkpt><trkpt lat="39.2378832" lon="16.9512158"><ele>136.0</ele><time>2026-03-22T14:54:01.944Z</time></trkpt><trkpt lat="39.2378605" lon="16.951128"><ele>136.0</ele><time>2026-03-22T14:54:03.942Z</time></trkpt><trkpt lat="39.2378383" lon="16.951047"><ele>136.0</ele><time>2026-03-22T14:54:06.944Z</time></trkpt><trkpt lat="39.2377987" lon="16.9509319"><ele>136.0</ele><time>2026-03-22T14:54:26.944Z</time></trkpt><trkpt lat="39.2377783" lon="16.9508242"><ele>136.0</ele><time>2026-03-22T14:54:28.944Z</time></trkpt><trkpt lat="39.2377729" lon="16.9507095"><ele>137.33333333333334</ele><time>2026-03-22T14:54:30.944Z</time></trkpt><trkpt lat="39.2377685" lon="16.9506081"><ele>138.66666666666669</ele><time>2026-03-22T14:54:32.944Z</time></trkpt><trkpt lat="39.237752" lon="16.9505226"><ele>140.0</ele><time>2026-03-22T14:54:34.943Z</time></trkpt><trkpt lat="39.2377259" lon="16.9504369"><ele>141.33333333333334</ele><time>2026-03-22T14:54:36.943Z</time></trkpt><trkpt lat="39.2377293" lon="16.9503316"><ele>142.66666666666666</ele><time>2026-03-22T14:54:38.944Z</time></trkpt><trkpt lat="39.2377088" lon="16.9502096"><ele>144.0</ele><time>2026-03-22T14:54:40.944Z</time></trkpt><trkpt lat="39.2376179" lon="16.9501154"><ele>145.2</ele><time>2026-03-22T14:54:42.944Z</time></trkpt><trkpt lat="39.2375322" lon="16.9500247"><ele>146.4</ele><time>2026-03-22T14:54:44.943Z</time></trkpt><trkpt lat="39.2374683" lon="16.9499038"><ele>147.6</ele><time>2026-03-22T14:54:46.944Z</time></trkpt><trkpt lat="39.2374521" lon="16.9497663"><ele>148.8</ele><time>2026-03-22T14:54:48.944Z</time></trkpt><trkpt lat="39.2374617" lon="16.9496178"><ele>150.0</ele><time>2026-03-22T14:54:50.944Z</time></trkpt><trkpt lat="39.2374524" lon="16.9495353"><ele>149.99999999999997</ele><time>2026-03-22T14:54:51.943Z</time></trkpt><trkpt lat="39.2374312" lon="16.9494534"><ele>150.0</ele><time>2026-03-22T14:54:52.944Z</time></trkpt><trkpt lat="39.2373888" lon="16.9493693"><ele>150.0</ele><time>2026-03-22T14:54:53.944Z</time></trkpt><trkpt lat="39.2373531" lon="16.9492814"><ele>150.0</ele><time>2026-03-22T14:54:54.944Z</time></trkpt><trkpt lat="39.2373174" lon="16.949203"><ele>150.0</ele><time>2026-03-22T14:54:55.944Z</time></trkpt><trkpt lat="39.2372831" lon="16.9491295"><ele>149.99999999999997</ele><time>2026-03-22T14:54:56.943Z</time></trkpt><trkpt lat="39.2372438" lon="16.9490418"><ele>150.0</ele><time>2026-03-22T14:54:57.944Z</time></trkpt><trkpt lat="39.2372084" lon="16.9489571"><ele>152.5</ele><time>2026-03-22T14:54:58.944Z</time></trkpt><trkpt lat="39.2371777" lon="16.9488738"><ele>155.0</ele><time>2026-03-22T14:54:59.943Z</time></trkpt><trkpt lat="39.2371449" lon="16.9487981"><ele>157.5</ele><time>2026-03-22T14:55:00.944Z</time></trkpt><trkpt lat="39.2371117" lon="16.9487256"><ele>160.0</ele><time>2026-03-22T14:55:01.944Z</time></trkpt><trkpt lat="39.2370544" lon="16.9486011"><ele>162.5</ele><time>2026-03-22T14:55:03.944Z</time></trkpt><trkpt lat="39.2370197" lon="16.9485327"><ele>165.0</ele><time>2026-03-22T14:55:06.943Z</time></trkpt><trkpt lat="39.2369736" lon="16.9484425"><ele>164.66666666666666</ele><time>2026-03-22T14:55:41.944Z</time></trkpt><trkpt lat="39.2369593" lon="16.9483621"><ele>164.33333333333334</ele><time>2026-03-22T14:55:45.943Z</time></trkpt><trkpt lat="39.2369744" lon="16.9482727"><ele>164.0</ele><time>2026-03-22T14:55:49.944Z</time></trkpt><trkpt lat="39.2369963" lon="16.9481726"><ele>163.66666666666669</ele><time>2026-03-22T14:55:52.944Z</time></trkpt><trkpt lat="39.2370146" lon="16.9480661"><ele>163.33333333333334</ele><time>2026-03-22T14:55:55.943Z</time></trkpt><trkpt lat="39.2370348" lon="16.9479533"><ele>163.0</ele><time>2026-03-22T14:55:58.944Z</time></trkpt><trkpt lat="39.2370612" lon="16.9478488"><ele>163.0</ele><time>2026-03-22T14:56:01.944Z</time></trkpt><trkpt lat="39.2370996" lon="16.9477566"><ele>163.0</ele><time>2026-03-22T14:56:04.943Z</time></trkpt><trkpt lat="39.2371106" lon="16.9476437"><ele>163.0</ele><time>2026-03-22T14:56:08.943Z</time></trkpt><trkpt lat="39.237091" lon="16.9475612"><ele>163.0</ele><time>2026-03-22T14:56:10.944Z</time></trkpt><trkpt lat="39.237041" lon="16.9474424"><ele>163.0</ele><time>2026-03-22T14:56:12.943Z</time></trkpt><trkpt lat="39.2369627" lon="16.9473149"><ele>161.66666666666669</ele><time>2026-03-22T14:56:14.944Z</time></trkpt><trkpt lat="39.2369156" lon="16.9472608"><ele>160.33333333333334</ele><time>2026-03-22T14:56:15.943Z</time></trkpt><trkpt lat="39.2368118" lon="16.947154"><ele>159.0</ele><time>2026-03-22T14:56:17.943Z</time></trkpt><trkpt lat="39.236749" lon="16.947101"><ele>157.66666666666666</ele><time>2026-03-22T14:56:18.943Z</time></trkpt><trkpt lat="39.2366879" lon="16.9470536"><ele>156.33333333333331</ele><time>2026-03-22T14:56:19.943Z</time></trkpt><trkpt lat="39.2366308" lon="16.9470069"><ele>155.0</ele><time>2026-03-22T14:56:20.942Z</time></trkpt><trkpt lat="39.2365345" lon="16.9469156"><ele>155.0</ele><time>2026-03-22T14:56:22.943Z</time></trkpt><trkpt lat="39.236478" lon="16.9468776"><ele>155.0</ele><time>2026-03-22T14:56:23.943Z</time></trkpt><trkpt lat="39.2364114" lon="16.9468395"><ele>155.0</ele><time>2026-03-22T14:56:24.942Z</time></trkpt><trkpt lat="39.2363463" lon="16.9467945"><ele>155.0</ele><time>2026-03-22T14:56:25.943Z</time></trkpt><trkpt lat="39.236298" lon="16.946741"><ele>155.0</ele><time>2026-03-22T14:56:26.943Z</time></trkpt><trkpt lat="39.2362493" lon="16.9466362"><ele>155.0</ele><time>2026-03-22T14:56:28.941Z</time></trkpt><trkpt lat="39.2361985" lon="16.9465292"><ele>151.4</ele><time>2026-03-22T14:56:30.942Z</time></trkpt><trkpt lat="39.2361453" lon="16.9464017"><ele>147.8</ele><time>2026-03-22T14:56:32.943Z</time></trkpt><trkpt lat="39.2360967" lon="16.9462772"><ele>144.2</ele><time>2026-03-22T14:56:34.943Z</time></trkpt><trkpt lat="39.2360592" lon="16.9461571"><ele>140.6</ele><time>2026-03-22T14:56:36.942Z</time></trkpt><trkpt lat="39.236039" lon="16.9460398"><ele>137.0</ele><time>2026-03-22T14:56:38.942Z</time></trkpt><trkpt lat="39.2359778" lon="16.9459416"><ele>137.0</ele><time>2026-03-22T14:56:40.943Z</time></trkpt><trkpt lat="39.2358758" lon="16.9459095"><ele>137.0</ele><time>2026-03-22T14:56:42.942Z</time></trkpt><trkpt lat="39.235801" lon="16.9458799"><ele>137.0</ele><time>2026-03-22T14:56:43.943Z</time></trkpt><trkpt lat="39.2357026" lon="16.9458332"><ele>137.0</ele><time>2026-03-22T14:56:44.943Z</time></trkpt><trkpt lat="39.2356083" lon="16.9457962"><ele>137.0</ele><time>2026-03-22T14:56:45.943Z</time></trkpt><trkpt lat="39.2355276" lon="16.9457957"><ele>134.5</ele><time>2026-03-22T14:56:46.943Z</time></trkpt><trkpt lat="39.2354432" lon="16.9457876"><ele>132.0</ele><time>2026-03-22T14:56:47.943Z</time></trkpt><trkpt lat="39.2353593" lon="16.9457729"><ele>129.5</ele><time>2026-03-22T14:56:48.943Z</time></trkpt><trkpt lat="39.2352733" lon="16.9457581"><ele>127.0</ele><time>2026-03-22T14:56:49.943Z</time></trkpt><trkpt lat="39.2351825" lon="16.9457589"><ele>124.49999999999999</ele><time>2026-03-22T14:56:50.943Z</time></trkpt><trkpt lat="39.2351074" lon="16.9457752"><ele>122.0</ele><time>2026-03-22T14:56:51.943Z</time></trkpt><trkpt lat="39.2350286" lon="16.9458233"><ele>122.42857142857142</ele><time>2026-03-22T14:56:53.942Z</time></trkpt><trkpt lat="39.2349784" lon="16.9458874"><ele>122.85714285714286</ele><time>2026-03-22T14:56:55.943Z</time></trkpt><trkpt lat="39.2349267" lon="16.9459562"><ele>123.28571428571428</ele><time>2026-03-22T14:56:58.943Z</time></trkpt><trkpt lat="39.2348483" lon="16.9459826"><ele>123.71428571428571</ele><time>2026-03-22T14:57:02.942Z</time></trkpt><trkpt lat="39.2347874" lon="16.9460142"><ele>124.14285714285714</ele><time>2026-03-22T14:57:06.943Z</time></trkpt><trkpt lat="39.2347286" lon="16.9460441"><ele>124.57142857142857</ele><time>2026-03-22T14:57:13.943Z</time></trkpt><trkpt lat="39.2346672" lon="16.9460855"><ele>125.0</ele><time>2026-03-22T14:57:18.943Z</time></trkpt><trkpt lat="39.2346003" lon="16.9461244"><ele>123.99999999999999</ele><time>2026-03-22T14:57:22.943Z</time></trkpt><trkpt lat="39.234536" lon="16.9461602"><ele>123.0</ele><time>2026-03-22T14:57:25.943Z</time></trkpt><trkpt lat="39.2344498" lon="16.9462011"><ele>122.0</ele><time>2026-03-22T14:57:27.943Z</time></trkpt><trkpt lat="39.2343527" lon="16.9462419"><ele>121.0</ele><time>2026-03-22T14:57:29.942Z</time></trkpt><trkpt lat="39.2342891" lon="16.9462793"><ele>119.99999999999999</ele><time>2026-03-22T14:57:31.943Z</time></trkpt><trkpt lat="39.2342011" lon="16.9462916"><ele>119.0</ele><time>2026-03-22T14:57:34.942Z</time></trkpt><trkpt lat="39.2341163" lon="16.946284"><ele>119.0</ele><time>2026-03-22T14:57:36.943Z</time></trkpt><trkpt lat="39.2340385" lon="16.946259"><ele>119.0</ele><time>2026-03-22T14:57:38.943Z</time></trkpt><trkpt lat="39.2339609" lon="16.9462201"><ele>119.0</ele><time>2026-03-22T14:57:40.943Z</time></trkpt><trkpt lat="39.2338875" lon="16.9461825"><ele>119.0</ele><time>2026-03-22T14:57:42.943Z</time></trkpt><trkpt lat="39.2337935" lon="16.9461378"><ele>119.0</ele><time>2026-03-22T14:57:44.942Z</time></trkpt><trkpt lat="39.2336812" lon="16.9460797"><ele>120.0</ele><time>2026-03-22T14:57:46.943Z</time></trkpt><trkpt lat="39.2335876" lon="16.9460425"><ele>121.0</ele><time>2026-03-22T14:57:48.943Z</time></trkpt><trkpt lat="39.2335134" lon="16.946005"><ele>122.0</ele><time>2026-03-22T14:57:50.943Z</time></trkpt><trkpt lat="39.2334166" lon="16.9459677"><ele>123.0</ele><time>2026-03-22T14:57:52.942Z</time></trkpt><trkpt lat="39.2333115" lon="16.9459324"><ele>124.0</ele><time>2026-03-22T14:57:54.943Z</time></trkpt><trkpt lat="39.2331854" lon="16.9459003"><ele>120.2</ele><time>2026-03-22T14:57:56.943Z</time></trkpt><trkpt lat="39.2330978" lon="16.9458719"><ele>116.4</ele><time>2026-03-22T14:57:57.943Z</time></trkpt><trkpt lat="39.2330075" lon="16.9458418"><ele>112.6</ele><time>2026-03-22T14:57:58.943Z</time></trkpt><trkpt lat="39.2329159" lon="16.9458117"><ele>108.8</ele><time>2026-03-22T14:57:59.943Z</time></trkpt><trkpt lat="39.2328125" lon="16.9457882"><ele>105.0</ele><time>2026-03-22T14:58:00.943Z</time></trkpt><trkpt lat="39.2327237" lon="16.9457732"><ele>105.0</ele><time>2026-03-22T14:58:01.943Z</time></trkpt><trkpt lat="39.2326437" lon="16.9457621"><ele>105.0</ele><time>2026-03-22T14:58:02.943Z</time></trkpt><trkpt lat="39.2325718" lon="16.9457447"><ele>105.0</ele><time>2026-03-22T14:58:03.943Z</time></trkpt><trkpt lat="39.2325053" lon="16.9457206"><ele>105.0</ele><time>2026-03-22T14:58:04.943Z</time></trkpt><trkpt lat="39.232442" lon="16.9456977"><ele>105.0</ele><time>2026-03-22T14:58:05.942Z</time></trkpt><trkpt lat="39.2323814" lon="16.9456756"><ele>105.0</ele><time>2026-03-22T14:58:06.942Z</time></trkpt><trkpt lat="39.2322726" lon="16.9456265"><ele>105.5</ele><time>2026-03-22T14:58:08.943Z</time></trkpt><trkpt lat="39.2322104" lon="16.9455976"><ele>106.0</ele><time>2026-03-22T14:58:09.943Z</time></trkpt><trkpt lat="39.2321382" lon="16.9455708"><ele>106.5</ele><time>2026-03-22T14:58:10.942Z</time></trkpt><trkpt lat="39.2320558" lon="16.9455416"><ele>107.0</ele><time>2026-03-22T14:58:11.943Z</time></trkpt><trkpt lat="39.2319787" lon="16.9455117"><ele>107.5</ele><time>2026-03-22T14:58:12.943Z</time></trkpt><trkpt lat="39.2319097" lon="16.9454831"><ele>108.0</ele><time>2026-03-22T14:58:13.943Z</time></trkpt><trkpt lat="39.2337935" lon="16.9461378"><ele>111.2</ele><time>2026-03-22T14:57:44.942Z</time></trkpt><trkpt lat="39.2336812" lon="16.9460797"><ele>114.4</ele><time>2026-03-22T14:57:46.943Z</time></trkpt><trkpt lat="39.2335876" lon="16.9460425"><ele>117.60000000000001</ele><time>2026-03-22T14:57:48.943Z</time></trkpt><trkpt lat="39.2335134" lon="16.946005"><ele>120.80000000000001</ele><time>2026-03-22T14:57:50.943Z</time></trkpt><trkpt lat="39.2334166" lon="16.9459677"><ele>124.0</ele><time>2026-03-22T14:57:52.942Z</time></trkpt><trkpt lat="39.2333115" lon="16.9459324"><ele>124.0</ele><time>2026-03-22T14:57:54.943Z</time></trkpt><trkpt lat="39.2331854" lon="16.9459003"><ele>124.0</ele><time>2026-03-22T14:57:56.943Z</time></trkpt><trkpt lat="39.2330978" lon="16.9458719"><ele>124.0</ele><time>2026-03-22T14:57:57.943Z</time></trkpt><trkpt lat="39.2330075" lon="16.9458418"><ele>124.0</ele><time>2026-03-22T14:57:58.943Z</time></trkpt><trkpt lat="39.2329159" lon="16.9458117"><ele>124.0</ele><time>2026-03-22T14:57:59.943Z</time></trkpt><trkpt lat="39.2328125" lon="16.9457882"><ele>121.71428571428572</ele><time>2026-03-22T14:58:00.943Z</time></trkpt><trkpt lat="39.2327237" lon="16.9457732"><ele>119.42857142857144</ele><time>2026-03-22T14:58:01.943Z</time></trkpt><trkpt lat="39.2326437" lon="16.9457621"><ele>117.14285714285714</ele><time>2026-03-22T14:58:02.943Z</time></trkpt><trkpt lat="39.2325718" lon="16.9457447"><ele>114.85714285714286</ele><time>2026-03-22T14:58:03.943Z</time></trkpt><trkpt lat="39.2325053" lon="16.9457206"><ele>112.57142857142857</ele><time>2026-03-22T14:58:04.943Z</time></trkpt><trkpt lat="39.232442" lon="16.9456977"><ele>110.28571428571428</ele><time>2026-03-22T14:58:05.942Z</time></trkpt><trkpt lat="39.2323814" lon="16.9456756"><ele>108.0</ele><time>2026-03-22T14:58:06.942Z</time></trkpt><trkpt lat="39.2322726" lon="16.9456265"><ele>108.0</ele><time>2026-03-22T14:58:08.943Z</time></trkpt><trkpt lat="39.2322104" lon="16.9455976"><ele>108.0</ele><time>2026-03-22T14:58:09.943Z</time></trkpt><trkpt lat="39.2321382" lon="16.9455708"><ele>108.0</ele><time>2026-03-22T14:58:10.942Z</time></trkpt><trkpt lat="39.2320558" lon="16.9455416"><ele>108.0</ele><time>2026-03-22T14:58:11.943Z</time></trkpt><trkpt lat="39.2319787" lon="16.9455117"><ele>108.0</ele><time>2026-03-22T14:58:12.943Z</time></trkpt><trkpt lat="39.2319097" lon="16.9454831"><ele>108.0</ele><time>2026-03-22T14:58:13.943Z</time></trkpt><trkpt lat="39.2318539" lon="16.9454414"><ele>108.0</ele><time>2026-03-22T14:58:14.943Z</time></trkpt><trkpt lat="39.2318062" lon="16.9453881"><ele>108.0</ele><time>2026-03-22T14:58:15.943Z</time></trkpt><trkpt lat="39.2317591" lon="16.9453326"><ele>108.00000000000001</ele><time>2026-03-22T14:58:16.943Z</time></trkpt><trkpt lat="39.2317077" lon="16.9452812"><ele>108.00000000000001</ele><time>2026-03-22T14:58:17.943Z</time></trkpt><trkpt lat="39.2316321" lon="16.9451966"><ele>108.0</ele><time>2026-03-22T14:58:19.943Z</time></trkpt><trkpt lat="39.2315636" lon="16.945096"><ele>108.0</ele><time>2026-03-22T14:58:21.942Z</time></trkpt><trkpt lat="39.2314879" lon="16.9449543"><ele>108.0</ele><time>2026-03-22T14:58:23.942Z</time></trkpt><trkpt lat="39.2314371" lon="16.9448488"><ele>108.0</ele><time>2026-03-22T14:58:24.943Z</time></trkpt><trkpt lat="39.2313965" lon="16.9447349"><ele>108.0</ele><time>2026-03-22T14:58:25.943Z</time></trkpt><trkpt lat="39.2313645" lon="16.9446317"><ele>108.0</ele><time>2026-03-22T14:58:26.943Z</time></trkpt><trkpt lat="39.2313351" lon="16.9445427"><ele>108.0</ele><time>2026-03-22T14:58:27.943Z</time></trkpt><trkpt lat="39.2313024" lon="16.9444536"><ele>108.0</ele><time>2026-03-22T14:58:28.943Z</time></trkpt><trkpt lat="39.2312658" lon="16.9443707"><ele>108.0</ele><time>2026-03-22T14:58:29.943Z</time></trkpt><trkpt lat="39.2312214" lon="16.9442973"><ele>108.0</ele><time>2026-03-22T14:58:30.941Z</time></trkpt><trkpt lat="39.2311734" lon="16.94423"><ele>108.0</ele><time>2026-03-22T14:58:31.943Z</time></trkpt><trkpt lat="39.2311181" lon="16.9441649"><ele>108.0</ele><time>2026-03-22T14:58:32.943Z</time></trkpt><trkpt lat="39.2310533" lon="16.9441102"><ele>108.0</ele><time>2026-03-22T14:58:33.942Z</time></trkpt><trkpt lat="39.2309859" lon="16.9440605"><ele>108.0</ele><time>2026-03-22T14:58:34.943Z</time></trkpt><trkpt lat="39.2309155" lon="16.9440128"><ele>106.33333333333333</ele><time>2026-03-22T14:58:35.943Z</time></trkpt><trkpt lat="39.2308466" lon="16.9439529"><ele>104.66666666666666</ele><time>2026-03-22T14:58:36.943Z</time></trkpt><trkpt lat="39.2307871" lon="16.943883"><ele>103.0</ele><time>2026-03-22T14:58:37.943Z</time></trkpt><trkpt lat="39.2307393" lon="16.9438104"><ele>101.33333333333333</ele><time>2026-03-22T14:58:38.942Z</time></trkpt><trkpt lat="39.2307043" lon="16.9437259"><ele>99.66666666666666</ele><time>2026-03-22T14:58:39.943Z</time></trkpt><trkpt lat="39.2306736" lon="16.9436397"><ele>98.0</ele><time>2026-03-22T14:58:40.943Z</time></trkpt><trkpt lat="39.2306458" lon="16.9435506"><ele>97.99999999999999</ele><time>2026-03-22T14:58:41.942Z</time></trkpt><trkpt lat="39.230619" lon="16.9434627"><ele>98.0</ele><time>2026-03-22T14:58:42.943Z</time></trkpt><trkpt lat="39.2305874" lon="16.9433892"><ele>98.0</ele><time>2026-03-22T14:58:43.943Z</time></trkpt><trkpt lat="39.2305331" lon="16.9432679"><ele>98.0</ele><time>2026-03-22T14:58:45.942Z</time></trkpt><trkpt lat="39.2304609" lon="16.9431717"><ele>97.99999999999999</ele><time>2026-03-22T14:58:47.942Z</time></trkpt><trkpt lat="39.2303743" lon="16.9431224"><ele>98.0</ele><time>2026-03-22T14:58:49.943Z</time></trkpt><trkpt lat="39.2302737" lon="16.9430608"><ele>96.99999999999999</ele><time>2026-03-22T14:58:51.942Z</time></trkpt><trkpt lat="39.230172" lon="16.9429801"><ele>96.0</ele><time>2026-03-22T14:58:53.943Z</time></trkpt><trkpt lat="39.2301198" lon="16.9429327"><ele>95.0</ele><time>2026-03-22T14:58:54.943Z</time></trkpt><trkpt lat="39.2300742" lon="16.9428729"><ele>94.0</ele><time>2026-03-22T14:58:55.942Z</time></trkpt><trkpt lat="39.2300207" lon="16.9428195"><ele>93.0</ele><time>2026-03-22T14:58:56.943Z</time></trkpt><trkpt lat="39.2299695" lon="16.9427643"><ele>92.0</ele><time>2026-03-22T14:58:57.943Z</time></trkpt><trkpt lat="39.2298947" lon="16.9426597"><ele>91.0</ele><time>2026-03-22T14:58:59.943Z</time></trkpt><trkpt lat="39.229848" lon="16.9425423"><ele>90.0</ele><time>2026-03-22T14:59:01.943Z</time></trkpt><trkpt lat="39.2297908" lon="16.9423997"><ele>89.0</ele><time>2026-03-22T14:59:03.943Z</time></trkpt><trkpt lat="39.2297212" lon="16.9422709"><ele>88.0</ele><time>2026-03-22T14:59:05.942Z</time></trkpt><trkpt lat="39.2296482" lon="16.9421398"><ele>87.85714285714286</ele><time>2026-03-22T14:59:07.943Z</time></trkpt><trkpt lat="39.2296055" lon="16.9420729"><ele>87.71428571428571</ele><time>2026-03-22T14:59:08.943Z</time></trkpt><trkpt lat="39.2295698" lon="16.9420059"><ele>87.57142857142857</ele><time>2026-03-22T14:59:09.943Z</time></trkpt><trkpt lat="39.2295304" lon="16.9419424"><ele>87.42857142857143</ele><time>2026-03-22T14:59:10.942Z</time></trkpt><trkpt lat="39.2294815" lon="16.9418799"><ele>87.28571428571429</ele><time>2026-03-22T14:59:11.943Z</time></trkpt><trkpt lat="39.2294319" lon="16.9418123"><ele>87.14285714285714</ele><time>2026-03-22T14:59:12.943Z</time></trkpt><trkpt lat="39.2293686" lon="16.9417512"><ele>87.0</ele><time>2026-03-22T14:59:13.942Z</time></trkpt><trkpt lat="39.2292951" lon="16.9416949"><ele>86.19999999999999</ele><time>2026-03-22T14:59:14.943Z</time></trkpt><trkpt lat="39.2292108" lon="16.9416447"><ele>85.4</ele><time>2026-03-22T14:59:15.943Z</time></trkpt><trkpt lat="39.229122" lon="16.9416017"><ele>84.6</ele><time>2026-03-22T14:59:16.943Z</time></trkpt><trkpt lat="39.2290239" lon="16.9415578"><ele>83.80000000000001</ele><time>2026-03-22T14:59:17.943Z</time></trkpt><trkpt lat="39.2289306" lon="16.9415016"><ele>83.0</ele><time>2026-03-22T14:59:18.943Z</time></trkpt><trkpt lat="39.2288538" lon="16.9414441"><ele>82.33333333333334</ele><time>2026-03-22T14:59:19.943Z</time></trkpt><trkpt lat="39.228795" lon="16.9414005"><ele>81.66666666666667</ele><time>2026-03-22T14:59:20.943Z</time></trkpt><trkpt lat="39.2287224" lon="16.9413564"><ele>81.0</ele><time>2026-03-22T14:59:22.943Z</time></trkpt><trkpt lat="39.2287146" lon="16.9412282"><ele>80.33333333333333</ele><time>2026-03-22T14:59:24.943Z</time></trkpt><trkpt lat="39.228719" lon="16.9411419"><ele>79.66666666666666</ele><time>2026-03-22T14:59:25.942Z</time></trkpt><trkpt lat="39.2287257" lon="16.9410446"><ele>79.0</ele><time>2026-03-22T14:59:26.943Z</time></trkpt><trkpt lat="39.2287272" lon="16.9409493"><ele>79.6</ele><time>2026-03-22T14:59:27.943Z</time></trkpt><trkpt lat="39.2287269" lon="16.9408566"><ele>80.2</ele><time>2026-03-22T14:59:28.943Z</time></trkpt><trkpt lat="39.2287261" lon="16.940774"><ele>80.8</ele><time>2026-03-22T14:59:29.943Z</time></trkpt><trkpt lat="39.2287393" lon="16.940647"><ele>81.39999999999999</ele><time>2026-03-22T14:59:31.943Z</time></trkpt><trkpt lat="39.2287354" lon="16.9405064"><ele>82.0</ele><time>2026-03-22T14:59:33.943Z</time></trkpt><trkpt lat="39.2287388" lon="16.9403565"><ele>82.0</ele><time>2026-03-22T14:59:35.943Z</time></trkpt><trkpt lat="39.2287481" lon="16.9402721"><ele>82.0</ele><time>2026-03-22T14:59:36.943Z</time></trkpt><trkpt lat="39.2287537" lon="16.9401824"><ele>82.0</ele><time>2026-03-22T14:59:37.943Z</time></trkpt><trkpt lat="39.2287619" lon="16.9400704"><ele>82.0</ele><time>2026-03-22T14:59:38.943Z</time></trkpt><trkpt lat="39.2287719" lon="16.9399443"><ele>82.0</ele><time>2026-03-22T14:59:39.942Z</time></trkpt><trkpt lat="39.2287832" lon="16.9398225"><ele>82.0</ele><time>2026-03-22T14:59:40.943Z</time></trkpt><trkpt lat="39.2287905" lon="16.939695"><ele>82.39999999999999</ele><time>2026-03-22T14:59:41.942Z</time></trkpt><trkpt lat="39.2287999" lon="16.939567"><ele>82.8</ele><time>2026-03-22T14:59:42.943Z</time></trkpt><trkpt lat="39.2288128" lon="16.9394407"><ele>83.2</ele><time>2026-03-22T14:59:43.943Z</time></trkpt><trkpt lat="39.228824" lon="16.9393119"><ele>83.6</ele><time>2026-03-22T14:59:44.943Z</time></trkpt><trkpt lat="39.2288415" lon="16.9391842"><ele>84.0</ele><time>2026-03-22T14:59:45.943Z</time></trkpt><trkpt lat="39.2288543" lon="16.9390574"><ele>84.0</ele><time>2026-03-22T14:59:46.943Z</time></trkpt><trkpt lat="39.2288688" lon="16.9389391"><ele>84.0</ele><time>2026-03-22T14:59:47.943Z</time></trkpt><trkpt lat="39.2288926" lon="16.9388268"><ele>84.0</ele><time>2026-03-22T14:59:48.943Z</time></trkpt><trkpt lat="39.22893" lon="16.9387235"><ele>84.0</ele><time>2026-03-22T14:59:49.942Z</time></trkpt><trkpt lat="39.2289788" lon="16.9386331"><ele>84.0</ele><time>2026-03-22T14:59:50.942Z</time></trkpt><trkpt lat="39.2290533" lon="16.938558"><ele>86.0</ele><time>2026-03-22T14:59:51.941Z</time></trkpt><trkpt lat="39.2291372" lon="16.9384915"><ele>88.0</ele><time>2026-03-22T14:59:52.942Z</time></trkpt><trkpt lat="39.2292326" lon="16.9384228"><ele>90.0</ele><time>2026-03-22T14:59:53.942Z</time></trkpt><trkpt lat="39.2293393" lon="16.93835"><ele>92.0</ele><time>2026-03-22T14:59:54.943Z</time></trkpt><trkpt lat="39.2294481" lon="16.938272"><ele>92.0</ele><time>2026-03-22T14:59:55.942Z</time></trkpt><trkpt lat="39.2295534" lon="16.9381888"><ele>92.0</ele><time>2026-03-22T14:59:56.943Z</time></trkpt><trkpt lat="39.2296486" lon="16.9380793"><ele>92.0</ele><time>2026-03-22T14:59:57.942Z</time></trkpt><trkpt lat="39.2297315" lon="16.9379429"><ele>92.0</ele><time>2026-03-22T14:59:58.943Z</time></trkpt><trkpt lat="39.2298163" lon="16.9377711"><ele>92.0</ele><time>2026-03-22T14:59:59.941Z</time></trkpt><trkpt lat="39.2299109" lon="16.9375666"><ele>92.0</ele><time>2026-03-22T15:00:00.943Z</time></trkpt><trkpt lat="39.2300184" lon="16.9373369"><ele>92.0</ele><time>2026-03-22T15:00:01.943Z</time></trkpt><trkpt lat="39.2301189" lon="16.937135"><ele>92.0</ele><time>2026-03-22T15:00:02.943Z</time></trkpt><trkpt lat="39.2301877" lon="16.9369904"><ele>92.0</ele><time>2026-03-22T15:00:03.943Z</time></trkpt><trkpt lat="39.2302445" lon="16.9368757"><ele>92.0</ele><time>2026-03-22T15:00:04.943Z</time></trkpt><trkpt lat="39.2302885" lon="16.936793"><ele>92.0</ele><time>2026-03-22T15:00:05.943Z</time></trkpt><trkpt lat="39.2303372" lon="16.9367028"><ele>92.0</ele><time>2026-03-22T15:00:07.943Z</time></trkpt><trkpt lat="39.2303915" lon="16.9366013"><ele>91.6</ele><time>2026-03-22T15:00:09.942Z</time></trkpt><trkpt lat="39.2304427" lon="16.9364938"><ele>91.19999999999999</ele><time>2026-03-22T15:00:11.943Z</time></trkpt><trkpt lat="39.2304867" lon="16.9364027"><ele>90.8</ele><time>2026-03-22T15:00:13.942Z</time></trkpt><trkpt lat="39.2305488" lon="16.9362831"><ele>90.4</ele><time>2026-03-22T15:00:15.943Z</time></trkpt><trkpt lat="39.2305934" lon="16.9362004"><ele>90.0</ele><time>2026-03-22T15:00:16.943Z</time></trkpt><trkpt lat="39.2306439" lon="16.9360954"><ele>91.0</ele><time>2026-03-22T15:00:17.943Z</time></trkpt><trkpt lat="39.2307169" lon="16.9359503"><ele>92.0</ele><time>2026-03-22T15:00:18.942Z</time></trkpt><trkpt lat="39.2307935" lon="16.9357975"><ele>93.0</ele><time>2026-03-22T15:00:19.943Z</time></trkpt><trkpt lat="39.2308634" lon="16.9356641"><ele>94.0</ele><time>2026-03-22T15:00:20.942Z</time></trkpt><trkpt lat="39.230936" lon="16.9355552"><ele>94.0</ele><time>2026-03-22T15:00:21.943Z</time></trkpt><trkpt lat="39.2310087" lon="16.9354738"><ele>94.0</ele><time>2026-03-22T15:00:22.943Z</time></trkpt><trkpt lat="39.2310806" lon="16.9354096"><ele>94.0</ele><time>2026-03-22T15:00:23.943Z</time></trkpt><trkpt lat="39.2311385" lon="16.9353149"><ele>94.0</ele><time>2026-03-22T15:00:24.943Z</time></trkpt><trkpt lat="39.2311706" lon="16.9351808"><ele>94.0</ele><time>2026-03-22T15:00:25.943Z</time></trkpt><trkpt lat="39.2311913" lon="16.9350408"><ele>93.75</ele><time>2026-03-22T15:00:26.943Z</time></trkpt><trkpt lat="39.2312181" lon="16.9348964"><ele>93.5</ele><time>2026-03-22T15:00:27.943Z</time></trkpt><trkpt lat="39.2312564" lon="16.9347458"><ele>93.25</ele><time>2026-03-22T15:00:28.943Z</time></trkpt><trkpt lat="39.2313101" lon="16.9345898"><ele>93.0</ele><time>2026-03-22T15:00:29.942Z</time></trkpt><trkpt lat="39.2313745" lon="16.9344239"><ele>93.0</ele><time>2026-03-22T15:00:30.942Z</time></trkpt><trkpt lat="39.2314704" lon="16.9342442"><ele>93.0</ele><time>2026-03-22T15:00:31.943Z</time></trkpt><trkpt lat="39.2315773" lon="16.9340692"><ele>93.0</ele><time>2026-03-22T15:00:32.943Z</time></trkpt><trkpt lat="39.2316749" lon="16.9339327"><ele>94.5</ele><time>2026-03-22T15:00:33.943Z</time></trkpt><trkpt lat="39.2317664" lon="16.9338209"><ele>96.0</ele><time>2026-03-22T15:00:34.943Z</time></trkpt><trkpt lat="39.231846" lon="16.933715"><ele>97.5</ele><time>2026-03-22T15:00:35.943Z</time></trkpt><trkpt lat="39.2319152" lon="16.9335963"><ele>99.0</ele><time>2026-03-22T15:00:36.942Z</time></trkpt><trkpt lat="39.2319707" lon="16.9334587"><ele>99.5</ele><time>2026-03-22T15:00:37.943Z</time></trkpt><trkpt lat="39.2320113" lon="16.9332988"><ele>100.0</ele><time>2026-03-22T15:00:38.942Z</time></trkpt><trkpt lat="39.2320347" lon="16.9331465"><ele>100.5</ele><time>2026-03-22T15:00:39.943Z</time></trkpt><trkpt lat="39.2320298" lon="16.9329967"><ele>101.0</ele><time>2026-03-22T15:00:40.943Z</time></trkpt><trkpt lat="39.2319835" lon="16.9328494"><ele>101.0</ele><time>2026-03-22T15:00:41.942Z</time></trkpt><trkpt lat="39.2319449" lon="16.9326763"><ele>101.0</ele><time>2026-03-22T15:00:42.942Z</time></trkpt><trkpt lat="39.2319228" lon="16.9324659"><ele>101.0</ele><time>2026-03-22T15:00:43.943Z</time></trkpt><trkpt lat="39.2319298" lon="16.9322289"><ele>101.0</ele><time>2026-03-22T15:00:44.943Z</time></trkpt><trkpt lat="39.2319505" lon="16.9319883"><ele>101.0</ele><time>2026-03-22T15:00:45.943Z</time></trkpt><trkpt lat="39.2319682" lon="16.9317923"><ele>101.0</ele><time>2026-03-22T15:00:46.943Z</time></trkpt><trkpt lat="39.2319735" lon="16.9316288"><ele>101.5</ele><time>2026-03-22T15:00:47.942Z</time></trkpt><trkpt lat="39.2319388" lon="16.9314785"><ele>102.0</ele><time>2026-03-22T15:00:48.943Z</time></trkpt><trkpt lat="39.2318535" lon="16.9313194"><ele>102.5</ele><time>2026-03-22T15:00:49.943Z</time></trkpt><trkpt lat="39.2317647" lon="16.9311657"><ele>103.0</ele><time>2026-03-22T15:00:50.943Z</time></trkpt><trkpt lat="39.231678" lon="16.9309958"><ele>104.0</ele><time>2026-03-22T15:00:51.943Z</time></trkpt><trkpt lat="39.2316115" lon="16.9308042"><ele>105.0</ele><time>2026-03-22T15:00:52.942Z</time></trkpt><trkpt lat="39.2315377" lon="16.9306519"><ele>106.0</ele><time>2026-03-22T15:00:53.943Z</time></trkpt><trkpt lat="39.2314433" lon="16.9305088"><ele>107.0</ele><time>2026-03-22T15:00:54.942Z</time></trkpt><trkpt lat="39.2313452" lon="16.9303311"><ele>105.0</ele><time>2026-03-22T15:00:55.943Z</time></trkpt><trkpt lat="39.2312376" lon="16.9301301"><ele>103.0</ele><time>2026-03-22T15:00:56.943Z</time></trkpt><trkpt lat="39.2311406" lon="16.9299469"><ele>101.0</ele><time>2026-03-22T15:00:57.943Z</time></trkpt><trkpt lat="39.2310642" lon="16.9297668"><ele>101.0</ele><time>2026-03-22T15:00:58.943Z</time></trkpt><trkpt lat="39.2310179" lon="16.9296007"><ele>101.0</ele><time>2026-03-22T15:00:59.943Z</time></trkpt><trkpt lat="39.2309828" lon="16.9294574"><ele>101.0</ele><time>2026-03-22T15:01:00.943Z</time></trkpt><trkpt lat="39.2309611" lon="16.9293298"><ele>101.0</ele><time>2026-03-22T15:01:01.942Z</time></trkpt><trkpt lat="39.2309563" lon="16.9292328"><ele>101.0</ele><time>2026-03-22T15:01:02.943Z</time></trkpt><trkpt lat="39.2309568" lon="16.9290981"><ele>102.19999999999999</ele><time>2026-03-22T15:01:04.942Z</time></trkpt><trkpt lat="39.2309561" lon="16.9289741"><ele>103.39999999999999</ele><time>2026-03-22T15:01:06.943Z</time></trkpt><trkpt lat="39.230958" lon="16.9288481"><ele>104.6</ele><time>2026-03-22T15:01:08.943Z</time></trkpt><trkpt lat="39.2309424" lon="16.9287155"><ele>105.8</ele><time>2026-03-22T15:01:10.942Z</time></trkpt><trkpt lat="39.2308978" lon="16.928587"><ele>107.0</ele><time>2026-03-22T15:01:12.943Z</time></trkpt><trkpt lat="39.2308688" lon="16.928452"><ele>106.0</ele><time>2026-03-22T15:01:14.943Z</time></trkpt><trkpt lat="39.2308633" lon="16.9282972"><ele>104.99999999999999</ele><time>2026-03-22T15:01:16.942Z</time></trkpt><trkpt lat="39.2308709" lon="16.9282162"><ele>104.0</ele><time>2026-03-22T15:01:17.942Z</time></trkpt><trkpt lat="39.2309179" lon="16.9280724"><ele>103.0</ele><time>2026-03-22T15:01:19.943Z</time></trkpt><trkpt lat="39.2309742" lon="16.9279579"><ele>102.0</ele><time>2026-03-22T15:01:21.943Z</time></trkpt><trkpt lat="39.2310519" lon="16.9278484"><ele>102.0</ele><time>2026-03-22T15:01:23.943Z</time></trkpt><trkpt lat="39.2311192" lon="16.9277397"><ele>102.0</ele><time>2026-03-22T15:01:25.943Z</time></trkpt><trkpt lat="39.2311749" lon="16.9276459"><ele>102.0</ele><time>2026-03-22T15:01:27.943Z</time></trkpt><trkpt lat="39.2312321" lon="16.9275987"><ele>102.0</ele><time>2026-03-22T15:01:29.943Z</time></trkpt><trkpt lat="39.2312973" lon="16.9275828"><ele>102.0</ele><time>2026-03-22T15:01:32.943Z</time></trkpt><trkpt lat="39.2313727" lon="16.9275879"><ele>102.0</ele><time>2026-03-22T15:02:15.942Z</time></trkpt><trkpt lat="39.2313066" lon="16.9275908"><ele>102.0</ele><time>2026-03-22T15:02:51.942Z</time></trkpt><trkpt lat="39.2312378" lon="16.9275907"><ele>102.0</ele><time>2026-03-22T15:02:55.942Z</time></trkpt><trkpt lat="39.2312742" lon="16.9275039"><ele>102.0</ele><time>2026-03-22T15:03:07.942Z</time></trkpt><trkpt lat="39.2313392" lon="16.9275109"><ele>102.0</ele><time>2026-03-22T15:03:10.942Z</time></trkpt><trkpt lat="39.2314019" lon="16.9275251"><ele>102.0</ele><time>2026-03-22T15:03:15.942Z</time></trkpt><trkpt lat="39.2314621" lon="16.9275639"><ele>102.0</ele><time>2026-03-22T15:03:37.941Z</time></trkpt><trkpt lat="39.2315042" lon="16.9276244"><ele>102.0</ele><time>2026-03-22T15:03:44.942Z</time></trkpt><trkpt lat="39.2315468" lon="16.9276868"><ele>103.14285714285714</ele><time>2026-03-22T15:07:00.941Z</time></trkpt><trkpt lat="39.2316085" lon="16.9277273"><ele>104.28571428571429</ele><time>2026-03-22T15:07:10.941Z</time></trkpt><trkpt lat="39.2316897" lon="16.9277391"><ele>105.42857142857142</ele><time>2026-03-22T15:07:16.941Z</time></trkpt><trkpt lat="39.2317558" lon="16.9277566"><ele>106.57142857142857</ele><time>2026-03-22T15:07:20.942Z</time></trkpt><trkpt lat="39.2318281" lon="16.9277701"><ele>107.71428571428571</ele><time>2026-03-22T15:07:24.941Z</time></trkpt><trkpt lat="39.2318937" lon="16.9277909"><ele>108.85714285714285</ele><time>2026-03-22T15:07:28.941Z</time></trkpt><trkpt lat="39.2319673" lon="16.9278076"><ele>110.0</ele><time>2026-03-22T15:07:31.941Z</time></trkpt><trkpt lat="39.2320398" lon="16.927795"><ele>109.99999999999999</ele><time>2026-03-22T15:07:35.942Z</time></trkpt><trkpt lat="39.232095" lon="16.927731"><ele>110.0</ele><time>2026-03-22T15:08:02.941Z</time></trkpt><trkpt lat="39.2321534" lon="16.9276988"><ele>110.0</ele><time>2026-03-22T15:08:05.941Z</time></trkpt><trkpt lat="39.2322207" lon="16.9277031"><ele>110.0</ele><time>2026-03-22T15:08:09.941Z</time></trkpt><trkpt lat="39.2322954" lon="16.9277197"><ele>110.0</ele><time>2026-03-22T15:08:29.942Z</time></trkpt><trkpt lat="39.2323638" lon="16.9277248"><ele>109.99999999999999</ele><time>2026-03-22T15:08:33.942Z</time></trkpt><trkpt lat="39.2324327" lon="16.9276917"><ele>110.0</ele><time>2026-03-22T15:10:06.941Z</time></trkpt><trkpt lat="39.2323893" lon="16.9276235"><ele>109.66666666666666</ele><time>2026-03-22T15:10:09.941Z</time></trkpt><trkpt lat="39.2323367" lon="16.9274914"><ele>109.33333333333333</ele><time>2026-03-22T15:10:11.941Z</time></trkpt><trkpt lat="39.2323397" lon="16.927403"><ele>109.0</ele><time>2026-03-22T15:10:13.94Z</time></trkpt><trkpt lat="39.2323493" lon="16.9273067"><ele>108.66666666666666</ele><time>2026-03-22T15:10:15.941Z</time></trkpt><trkpt lat="39.2323638" lon="16.9272058"><ele>108.33333333333333</ele><time>2026-03-22T15:10:17.941Z</time></trkpt><trkpt lat="39.2323699" lon="16.9271147"><ele>108.0</ele><time>2026-03-22T15:10:19.94Z</time></trkpt><trkpt lat="39.2323895" lon="16.9270206"><ele>108.0</ele><time>2026-03-22T15:10:22.941Z</time></trkpt><trkpt lat="39.2324046" lon="16.926918"><ele>108.0</ele><time>2026-03-22T15:10:25.941Z</time></trkpt><trkpt lat="39.2324178" lon="16.9268283"><ele>108.0</ele><time>2026-03-22T15:10:27.941Z</time></trkpt><trkpt lat="39.2324296" lon="16.9267362"><ele>108.0</ele><time>2026-03-22T15:10:29.941Z</time></trkpt><trkpt lat="39.2324418" lon="16.9266527"><ele>108.0</ele><time>2026-03-22T15:10:31.941Z</time></trkpt><trkpt lat="39.2324536" lon="16.9265694"><ele>108.0</ele><time>2026-03-22T15:10:33.94Z</time></trkpt><trkpt lat="39.2324704" lon="16.9264791"><ele>108.0</ele><time>2026-03-22T15:10:35.941Z</time></trkpt><trkpt lat="39.2324869" lon="16.9263933"><ele>108.66666666666667</ele><time>2026-03-22T15:10:37.94Z</time></trkpt><trkpt lat="39.232495" lon="16.9263047"><ele>109.33333333333334</ele><time>2026-03-22T15:10:39.941Z</time></trkpt><trkpt lat="39.2324878" lon="16.9262082"><ele>110.0</ele><time>2026-03-22T15:10:41.94Z</time></trkpt><trkpt lat="39.2324927" lon="16.9261211"><ele>110.66666666666667</ele><time>2026-03-22T15:10:43.941Z</time></trkpt><trkpt lat="39.2324907" lon="16.9260149"><ele>111.33333333333334</ele><time>2026-03-22T15:10:47.941Z</time></trkpt><trkpt lat="39.2324944" lon="16.9258883"><ele>112.0</ele><time>2026-03-22T15:10:50.94Z</time></trkpt><trkpt lat="39.2325306" lon="16.9257817"><ele>113.16666666666667</ele><time>2026-03-22T15:10:52.941Z</time></trkpt><trkpt lat="39.2325902" lon="16.925686"><ele>114.33333333333334</ele><time>2026-03-22T15:10:54.941Z</time></trkpt><trkpt lat="39.2326575" lon="16.9255962"><ele>115.5</ele><time>2026-03-22T15:10:56.941Z</time></trkpt><trkpt lat="39.2327013" lon="16.925525"><ele>116.66666666666666</ele><time>2026-03-22T15:10:58.941Z</time></trkpt><trkpt lat="39.2327186" lon="16.9254411"><ele>117.83333333333333</ele><time>2026-03-22T15:11:00.941Z</time></trkpt><trkpt lat="39.2327128" lon="16.9253396"><ele>119.0</ele><time>2026-03-22T15:11:02.94Z</time></trkpt><trkpt lat="39.2327226" lon="16.9252267"><ele>119.0</ele><time>2026-03-22T15:11:04.941Z</time></trkpt><trkpt lat="39.2327202" lon="16.925098"><ele>119.0</ele><time>2026-03-22T15:11:06.941Z</time></trkpt><trkpt lat="39.2327125" lon="16.9249569"><ele>119.0</ele><time>2026-03-22T15:11:08.941Z</time></trkpt><trkpt lat="39.2326953" lon="16.9248473"><ele>119.0</ele><time>2026-03-22T15:11:10.941Z</time></trkpt><trkpt lat="39.2326868" lon="16.924746"><ele>119.0</ele><time>2026-03-22T15:11:13.94Z</time></trkpt><trkpt lat="39.2326789" lon="16.9246416"><ele>119.49999999999999</ele><time>2026-03-22T15:11:16.941Z</time></trkpt><trkpt lat="39.2326751" lon="16.9245599"><ele>120.0</ele><time>2026-03-22T15:11:20.94Z</time></trkpt><trkpt lat="39.2326863" lon="16.924467"><ele>120.5</ele><time>2026-03-22T15:11:24.94Z</time></trkpt><trkpt lat="39.2327124" lon="16.9243597"><ele>121.0</ele><time>2026-03-22T15:11:29.941Z</time></trkpt><trkpt lat="39.2327642" lon="16.9242731"><ele>121.49999999999999</ele><time>2026-03-22T15:11:32.94Z</time></trkpt><trkpt lat="39.2328204" lon="16.9241706"><ele>122.0</ele><time>2026-03-22T15:11:34.94Z</time></trkpt><trkpt lat="39.2328484" lon="16.9240142"><ele>124.19999999999999</ele><time>2026-03-22T15:11:36.941Z</time></trkpt><trkpt lat="39.2328499" lon="16.9238824"><ele>126.39999999999999</ele><time>2026-03-22T15:11:38.941Z</time></trkpt><trkpt lat="39.232864" lon="16.9237536"><ele>128.60000000000002</ele><time>2026-03-22T15:11:41.941Z</time></trkpt><trkpt lat="39.2328804" lon="16.9236295"><ele>130.8</ele><time>2026-03-22T15:11:43.941Z</time></trkpt><trkpt lat="39.2329107" lon="16.9235304"><ele>133.0</ele><time>2026-03-22T15:11:45.941Z</time></trkpt><trkpt lat="39.23293" lon="16.9234222"><ele>134.66666666666669</ele><time>2026-03-22T15:11:47.941Z</time></trkpt><trkpt lat="39.2329748" lon="16.9233423"><ele>136.33333333333334</ele><time>2026-03-22T15:11:49.941Z</time></trkpt><trkpt lat="39.2330328" lon="16.9232886"><ele>138.0</ele><time>2026-03-22T15:11:51.941Z</time></trkpt><trkpt lat="39.2331172" lon="16.9232041"><ele>139.66666666666666</ele><time>2026-03-22T15:11:53.94Z</time></trkpt><trkpt lat="39.2331732" lon="16.9231389"><ele>141.33333333333331</ele><time>2026-03-22T15:11:54.941Z</time></trkpt><trkpt lat="39.2332171" lon="16.9230796"><ele>143.0</ele><time>2026-03-22T15:11:55.941Z</time></trkpt><trkpt lat="39.2332837" lon="16.9230067"><ele>146.0</ele><time>2026-03-22T15:11:57.941Z</time></trkpt><trkpt lat="39.2333593" lon="16.9229207"><ele>149.0</ele><time>2026-03-22T15:11:59.94Z</time></trkpt><trkpt lat="39.2334707" lon="16.9228213"><ele>152.0</ele><time>2026-03-22T15:12:01.941Z</time></trkpt><trkpt lat="39.2335489" lon="16.9227721"><ele>155.0</ele><time>2026-03-22T15:12:02.941Z</time></trkpt><trkpt lat="39.2336332" lon="16.9227256"><ele>158.0</ele><time>2026-03-22T15:12:03.94Z</time></trkpt><trkpt lat="39.2336975" lon="16.922689"><ele>158.00000000000003</ele><time>2026-03-22T15:12:04.94Z</time></trkpt><trkpt lat="39.2337641" lon="16.9226162"><ele>158.0</ele><time>2026-03-22T15:12:06.941Z</time></trkpt><trkpt lat="39.2338029" lon="16.9225461"><ele>158.0</ele><time>2026-03-22T15:12:07.94Z</time></trkpt><trkpt lat="39.2338391" lon="16.9224776"><ele>158.0</ele><time>2026-03-22T15:12:08.94Z</time></trkpt><trkpt lat="39.2338897" lon="16.9224054"><ele>158.0</ele><time>2026-03-22T15:12:10.94Z</time></trkpt><trkpt lat="39.2339432" lon="16.9223257"><ele>158.00000000000003</ele><time>2026-03-22T15:12:13.941Z</time></trkpt><trkpt lat="39.2339848" lon="16.9222641"><ele>158.0</ele><time>2026-03-22T15:12:15.94Z</time></trkpt><trkpt lat="39.2340411" lon="16.922198"><ele>158.33333333333331</ele><time>2026-03-22T15:12:17.941Z</time></trkpt><trkpt lat="39.2341102" lon="16.9221321"><ele>158.66666666666666</ele><time>2026-03-22T15:12:19.941Z</time></trkpt><trkpt lat="39.2341719" lon="16.9220664"><ele>159.0</ele><time>2026-03-22T15:12:21.94Z</time></trkpt><trkpt lat="39.2342084" lon="16.9219882"><ele>159.33333333333334</ele><time>2026-03-22T15:12:23.941Z</time></trkpt><trkpt lat="39.2342372" lon="16.9218936"><ele>159.66666666666669</ele><time>2026-03-22T15:12:25.941Z</time></trkpt><trkpt lat="39.2342719" lon="16.9218121"><ele>160.0</ele><time>2026-03-22T15:12:27.941Z</time></trkpt><trkpt lat="39.2343187" lon="16.9217132"><ele>158.8</ele><time>2026-03-22T15:12:30.941Z</time></trkpt><trkpt lat="39.2343497" lon="16.9216232"><ele>157.6</ele><time>2026-03-22T15:12:32.941Z</time></trkpt><trkpt lat="39.2343522" lon="16.9215023"><ele>156.4</ele><time>2026-03-22T15:12:34.941Z</time></trkpt><trkpt lat="39.2343568" lon="16.9213898"><ele>155.2</ele><time>2026-03-22T15:12:36.941Z</time></trkpt><trkpt lat="39.2343796" lon="16.921265"><ele>154.0</ele><time>2026-03-22T15:12:38.939Z</time></trkpt><trkpt lat="39.2344191" lon="16.9211445"><ele>154.0</ele><time>2026-03-22T15:12:40.941Z</time></trkpt><trkpt lat="39.2344667" lon="16.9210053"><ele>154.0</ele><time>2026-03-22T15:12:42.941Z</time></trkpt><trkpt lat="39.2345391" lon="16.9209106"><ele>154.0</ele><time>2026-03-22T15:12:44.941Z</time></trkpt><trkpt lat="39.2345838" lon="16.9208443"><ele>154.0</ele><time>2026-03-22T15:12:45.94Z</time></trkpt><trkpt lat="39.234674" lon="16.9207696"><ele>154.0</ele><time>2026-03-22T15:12:47.941Z</time></trkpt><trkpt lat="39.2347341" lon="16.9206894"><ele>154.33333333333334</ele><time>2026-03-22T15:12:49.941Z</time></trkpt><trkpt lat="39.2347926" lon="16.9205679"><ele>154.66666666666669</ele><time>2026-03-22T15:12:51.94Z</time></trkpt><trkpt lat="39.2348323" lon="16.9204839"><ele>155.0</ele><time>2026-03-22T15:12:52.94Z</time></trkpt><trkpt lat="39.2348771" lon="16.9203909"><ele>155.33333333333334</ele><time>2026-03-22T15:12:53.941Z</time></trkpt><trkpt lat="39.2349262" lon="16.9202963"><ele>155.66666666666666</ele><time>2026-03-22T15:12:54.94Z</time></trkpt><trkpt lat="39.2349743" lon="16.9202083"><ele>156.0</ele><time>2026-03-22T15:12:55.941Z</time></trkpt><trkpt lat="39.2350129" lon="16.9201225"><ele>158.16666666666666</ele><time>2026-03-22T15:12:56.941Z</time></trkpt><trkpt lat="39.235054" lon="16.9200456"><ele>160.33333333333334</ele><time>2026-03-22T15:12:57.941Z</time></trkpt><trkpt lat="39.2351025" lon="16.919984"><ele>162.5</ele><time>2026-03-22T15:12:58.939Z</time></trkpt><trkpt lat="39.2351504" lon="16.9199306"><ele>164.66666666666669</ele><time>2026-03-22T15:12:59.94Z</time></trkpt><trkpt lat="39.2352157" lon="16.9197977"><ele>166.83333333333334</ele><time>2026-03-22T15:13:01.941Z</time></trkpt><trkpt lat="39.2352727" lon="16.9196826"><ele>169.0</ele><time>2026-03-22T15:13:03.939Z</time></trkpt><trkpt lat="39.2353414" lon="16.9195669"><ele>169.0</ele><time>2026-03-22T15:13:05.941Z</time></trkpt><trkpt lat="39.235422" lon="16.9194922"><ele>169.0</ele><time>2026-03-22T15:13:07.941Z</time></trkpt><trkpt lat="39.235444" lon="16.9194111"><ele>169.0</ele><time>2026-03-22T15:13:09.941Z</time></trkpt><trkpt lat="39.2353919" lon="16.9193268"><ele>169.0</ele><time>2026-03-22T15:13:11.941Z</time></trkpt><trkpt lat="39.2353227" lon="16.919201"><ele>169.0</ele><time>2026-03-22T15:13:13.941Z</time></trkpt><trkpt lat="39.2352578" lon="16.9190878"><ele>176.0</ele><time>2026-03-22T15:13:15.941Z</time></trkpt><trkpt lat="39.2352065" lon="16.9189936"><ele>176.0</ele><time>2026-03-22T15:13:17.941Z</time></trkpt></trkseg></trk></gpx>